<?xml version='1.0' encoding='UTF-8'?><gpx version="1.1" creator="JPX - https://github.com/jenetics/jpx" xmlns="http://www.topografix.com/GPX/1/1"><trk><trkseg><trkpt lat="43.68056" lon="11.4452933"><ele>123.0</ele><time>2026-04-17T13:41:28.097Z</time></trkpt><trkpt lat="43.6805083" lon="11.4451867"><ele>123.00000000000001</ele><time>2026-04-17T13:41:30.097Z</time></trkpt><trkpt lat="43.6804533" lon="11.4450433"><ele>123.00000000000001</ele><time>2026-04-17T13:41:32.097Z</time></trkpt><trkpt lat="43.6803733" lon="11.4449483"><ele>123.0</ele><time>2026-04-17T13:41:34.098Z</time></trkpt><trkpt lat="43.6802833" lon="11.4449733"><ele>123.0</ele><time>2026-04-17T13:41:36.097Z</time></trkpt><trkpt lat="43.6802017" lon="11.4449933"><ele>122.80000000000001</ele><time>2026-04-17T13:41:39.097Z</time></trkpt><trkpt lat="43.68013" lon="11.4449017"><ele>122.60000000000001</ele><time>2026-04-17T13:41:42.097Z</time></trkpt><trkpt lat="43.6800783" lon="11.444805"><ele>122.39999999999999</ele><time>2026-04-17T13:41:44.097Z</time></trkpt><trkpt lat="43.6800067" lon="11.4447267"><ele>122.19999999999999</ele><time>2026-04-17T13:41:48.098Z</time></trkpt><trkpt lat="43.679895" lon="11.4447883"><ele>122.0</ele><time>2026-04-17T13:41:50.097Z</time></trkpt><trkpt lat="43.6798183" lon="11.4448417"><ele>122.0</ele><time>2026-04-17T13:41:51.097Z</time></trkpt><trkpt lat="43.6797417" lon="11.44489"><ele>121.99999999999999</ele><time>2026-04-17T13:41:52.097Z</time></trkpt><trkpt lat="43.6796633" lon="11.444945"><ele>121.99999999999999</ele><time>2026-04-17T13:41:53.097Z</time></trkpt><trkpt lat="43.679575" lon="11.445"><ele>122.0</ele><time>2026-04-17T13:41:54.098Z</time></trkpt><trkpt lat="43.6794867" lon="11.44505"><ele>122.0</ele><time>2026-04-17T13:41:55.097Z</time></trkpt><trkpt lat="43.67941" lon="11.4451033"><ele>122.66666666666666</ele><time>2026-04-17T13:41:56.097Z</time></trkpt><trkpt lat="43.6793283" lon="11.4451617"><ele>123.33333333333333</ele><time>2026-04-17T13:41:57.098Z</time></trkpt><trkpt lat="43.6792483" lon="11.4452067"><ele>124.0</ele><time>2026-04-17T13:41:58.097Z</time></trkpt><trkpt lat="43.6791783" lon="11.4452567"><ele>124.66666666666666</ele><time>2026-04-17T13:41:59.097Z</time></trkpt><trkpt lat="43.6791083" lon="11.4453"><ele>125.33333333333333</ele><time>2026-04-17T13:42:00.098Z</time></trkpt><trkpt lat="43.6790367" lon="11.445345"><ele>126.0</ele><time>2026-04-17T13:42:01.097Z</time></trkpt><trkpt lat="43.6789667" lon="11.4454083"><ele>125.83333333333333</ele><time>2026-04-17T13:42:02.097Z</time></trkpt><trkpt lat="43.67889" lon="11.445475"><ele>125.66666666666666</ele><time>2026-04-17T13:42:03.097Z</time></trkpt><trkpt lat="43.6788217" lon="11.4455367"><ele>125.5</ele><time>2026-04-17T13:42:04.097Z</time></trkpt><trkpt lat="43.6787617" lon="11.4456017"><ele>125.33333333333333</ele><time>2026-04-17T13:42:05.097Z</time></trkpt><trkpt lat="43.6787" lon="11.4456583"><ele>125.16666666666666</ele><time>2026-04-17T13:42:06.097Z</time></trkpt><trkpt lat="43.6786383" lon="11.4457233"><ele>125.0</ele><time>2026-04-17T13:42:07.097Z</time></trkpt><trkpt lat="43.6785767" lon="11.4458"><ele>126.0</ele><time>2026-04-17T13:42:08.097Z</time></trkpt><trkpt lat="43.6785083" lon="11.4458783"><ele>127.0</ele><time>2026-04-17T13:42:09.097Z</time></trkpt><trkpt lat="43.678445" lon="11.4459617"><ele>128.0</ele><time>2026-04-17T13:42:10.098Z</time></trkpt><trkpt lat="43.67838" lon="11.4460567"><ele>129.0</ele><time>2026-04-17T13:42:11.098Z</time></trkpt><trkpt lat="43.678305" lon="11.4461517"><ele>130.0</ele><time>2026-04-17T13:42:12.098Z</time></trkpt><trkpt lat="43.6782333" lon="11.4462517"><ele>130.4</ele><time>2026-04-17T13:42:13.097Z</time></trkpt><trkpt lat="43.6781567" lon="11.4463417"><ele>130.8</ele><time>2026-04-17T13:42:14.097Z</time></trkpt><trkpt lat="43.6780833" lon="11.4464433"><ele>131.2</ele><time>2026-04-17T13:42:15.097Z</time></trkpt><trkpt lat="43.678025" lon="11.44656"><ele>131.6</ele><time>2026-04-17T13:42:16.098Z</time></trkpt><trkpt lat="43.6779567" lon="11.44667"><ele>132.0</ele><time>2026-04-17T13:42:17.097Z</time></trkpt><trkpt lat="43.6779" lon="11.4467883"><ele>132.0</ele><time>2026-04-17T13:42:18.097Z</time></trkpt><trkpt lat="43.677835" lon="11.4468967"><ele>132.0</ele><time>2026-04-17T13:42:19.097Z</time></trkpt><trkpt lat="43.6777683" lon="11.4470083"><ele>132.0</ele><time>2026-04-17T13:42:20.097Z</time></trkpt><trkpt lat="43.6776883" lon="11.4471083"><ele>132.0</ele><time>2026-04-17T13:42:21.097Z</time></trkpt><trkpt lat="43.6776017" lon="11.4472117"><ele>132.0</ele><time>2026-04-17T13:42:22.097Z</time></trkpt><trkpt lat="43.6775083" lon="11.4473083"><ele>133.75</ele><time>2026-04-17T13:42:23.098Z</time></trkpt><trkpt lat="43.6774067" lon="11.447405"><ele>135.5</ele><time>2026-04-17T13:42:24.097Z</time></trkpt><trkpt lat="43.6773" lon="11.447495"><ele>137.25</ele><time>2026-04-17T13:42:25.097Z</time></trkpt><trkpt lat="43.6771883" lon="11.4475883"><ele>139.0</ele><time>2026-04-17T13:42:26.097Z</time></trkpt><trkpt lat="43.6770767" lon="11.4476783"><ele>139.0</ele><time>2026-04-17T13:42:27.098Z</time></trkpt><trkpt lat="43.676965" lon="11.44777"><ele>139.0</ele><time>2026-04-17T13:42:28.097Z</time></trkpt><trkpt lat="43.6768467" lon="11.447855"><ele>139.0</ele><time>2026-04-17T13:42:29.098Z</time></trkpt><trkpt lat="43.6767283" lon="11.4479417"><ele>139.0</ele><time>2026-04-17T13:42:30.097Z</time></trkpt><trkpt lat="43.67661" lon="11.448035"><ele>142.5</ele><time>2026-04-17T13:42:31.097Z</time></trkpt><trkpt lat="43.6764933" lon="11.4481267"><ele>146.0</ele><time>2026-04-17T13:42:32.098Z</time></trkpt><trkpt lat="43.676375" lon="11.4482117"><ele>149.5</ele><time>2026-04-17T13:42:33.097Z</time></trkpt><trkpt lat="43.6762617" lon="11.4482833"><ele>153.0</ele><time>2026-04-17T13:42:34.097Z</time></trkpt><trkpt lat="43.6761483" lon="11.4483633"><ele>155.25</ele><time>2026-04-17T13:42:35.097Z</time></trkpt><trkpt lat="43.6760333" lon="11.4484467"><ele>157.5</ele><time>2026-04-17T13:42:36.097Z</time></trkpt><trkpt lat="43.6759183" lon="11.4485267"><ele>159.75</ele><time>2026-04-17T13:42:37.097Z</time></trkpt><trkpt lat="43.675805" lon="11.448615"><ele>162.0</ele><time>2026-04-17T13:42:38.097Z</time></trkpt><trkpt lat="43.6756917" lon="11.4487067"><ele>162.75</ele><time>2026-04-17T13:42:39.097Z</time></trkpt><trkpt lat="43.67557" lon="11.4487933"><ele>163.5</ele><time>2026-04-17T13:42:40.097Z</time></trkpt><trkpt lat="43.6754583" lon="11.4488783"><ele>164.25</ele><time>2026-04-17T13:42:41.097Z</time></trkpt><trkpt lat="43.6753383" lon="11.4489483"><ele>165.0</ele><time>2026-04-17T13:42:42.097Z</time></trkpt><trkpt lat="43.6752017" lon="11.44901"><ele>165.0</ele><time>2026-04-17T13:42:43.098Z</time></trkpt><trkpt lat="43.6750567" lon="11.4490467"><ele>165.0</ele><time>2026-04-17T13:42:44.097Z</time></trkpt><trkpt lat="43.6749067" lon="11.449065"><ele>165.0</ele><time>2026-04-17T13:42:45.097Z</time></trkpt><trkpt lat="43.6747517" lon="11.449085"><ele>165.0</ele><time>2026-04-17T13:42:46.098Z</time></trkpt><trkpt lat="43.6745833" lon="11.4491033"><ele>165.0</ele><time>2026-04-17T13:42:47.097Z</time></trkpt><trkpt lat="43.6744217" lon="11.4491233"><ele>165.0</ele><time>2026-04-17T13:42:48.097Z</time></trkpt><trkpt lat="43.6742617" lon="11.4491417"><ele>164.0</ele><time>2026-04-17T13:42:49.098Z</time></trkpt><trkpt lat="43.6741" lon="11.4491583"><ele>163.0</ele><time>2026-04-17T13:42:50.098Z</time></trkpt><trkpt lat="43.6739483" lon="11.44918"><ele>162.0</ele><time>2026-04-17T13:42:51.097Z</time></trkpt><trkpt lat="43.6738" lon="11.4491933"><ele>162.0</ele><time>2026-04-17T13:42:52.097Z</time></trkpt><trkpt lat="43.6736533" lon="11.4492117"><ele>162.0</ele><time>2026-04-17T13:42:53.098Z</time></trkpt><trkpt lat="43.6735067" lon="11.4492317"><ele>162.0</ele><time>2026-04-17T13:42:54.098Z</time></trkpt><trkpt lat="43.673355" lon="11.4492533"><ele>162.0</ele><time>2026-04-17T13:42:55.098Z</time></trkpt><trkpt lat="43.6731967" lon="11.4492767"><ele>163.66666666666666</ele><time>2026-04-17T13:42:56.098Z</time></trkpt><trkpt lat="43.6730367" lon="11.449305"><ele>165.33333333333331</ele><time>2026-04-17T13:42:57.097Z</time></trkpt><trkpt lat="43.672885" lon="11.4493383"><ele>167.0</ele><time>2026-04-17T13:42:58.097Z</time></trkpt><trkpt lat="43.67273" lon="11.44938"><ele>168.5</ele><time>2026-04-17T13:42:59.097Z</time></trkpt><trkpt lat="43.672575" lon="11.449425"><ele>170.0</ele><time>2026-04-17T13:43:00.098Z</time></trkpt><trkpt lat="43.6724367" lon="11.44947"><ele>171.5</ele><time>2026-04-17T13:43:01.097Z</time></trkpt><trkpt lat="43.6723" lon="11.44948"><ele>173.0</ele><time>2026-04-17T13:43:02.097Z</time></trkpt><trkpt lat="43.6721667" lon="11.44947"><ele>173.0</ele><time>2026-04-17T13:43:03.098Z</time></trkpt><trkpt lat="43.6720333" lon="11.44943"><ele>173.0</ele><time>2026-04-17T13:43:04.098Z</time></trkpt><trkpt lat="43.6718817" lon="11.4494167"><ele>173.0</ele><time>2026-04-17T13:43:05.097Z</time></trkpt><trkpt lat="43.6717233" lon="11.4494317"><ele>173.0</ele><time>2026-04-17T13:43:06.097Z</time></trkpt><trkpt lat="43.671575" lon="11.449455"><ele>173.0</ele><time>2026-04-17T13:43:07.098Z</time></trkpt><trkpt lat="43.6714233" lon="11.449495"><ele>173.0</ele><time>2026-04-17T13:43:08.097Z</time></trkpt><trkpt lat="43.6712867" lon="11.44956"><ele>173.0</ele><time>2026-04-17T13:43:09.097Z</time></trkpt><trkpt lat="43.671155" lon="11.4496233"><ele>173.0</ele><time>2026-04-17T13:43:10.097Z</time></trkpt><trkpt lat="43.6710217" lon="11.4496633"><ele>173.0</ele><time>2026-04-17T13:43:11.097Z</time></trkpt><trkpt lat="43.6708817" lon="11.4496583"><ele>173.0</ele><time>2026-04-17T13:43:12.098Z</time></trkpt><trkpt lat="43.6707467" lon="11.4495917"><ele>173.0</ele><time>2026-04-17T13:43:13.097Z</time></trkpt><trkpt lat="43.6706133" lon="11.44956"><ele>173.0</ele><time>2026-04-17T13:43:14.097Z</time></trkpt><trkpt lat="43.670475" lon="11.4495467"><ele>171.5</ele><time>2026-04-17T13:43:15.098Z</time></trkpt><trkpt lat="43.67033" lon="11.4495367"><ele>170.0</ele><time>2026-04-17T13:43:16.097Z</time></trkpt><trkpt lat="43.6701917" lon="11.4495333"><ele>168.5</ele><time>2026-04-17T13:43:17.098Z</time></trkpt><trkpt lat="43.6700617" lon="11.4495283"><ele>167.0</ele><time>2026-04-17T13:43:18.097Z</time></trkpt><trkpt lat="43.669925" lon="11.4494983"><ele>167.0</ele><time>2026-04-17T13:43:19.097Z</time></trkpt><trkpt lat="43.6698067" lon="11.4494433"><ele>167.0</ele><time>2026-04-17T13:43:20.097Z</time></trkpt><trkpt lat="43.6697133" lon="11.4493533"><ele>167.0</ele><time>2026-04-17T13:43:21.097Z</time></trkpt><trkpt lat="43.66965" lon="11.449225"><ele>167.0</ele><time>2026-04-17T13:43:22.098Z</time></trkpt><trkpt lat="43.669615" lon="11.449055"><ele>167.0</ele><time>2026-04-17T13:43:23.098Z</time></trkpt><trkpt lat="43.6696" lon="11.4488583"><ele>167.0</ele><time>2026-04-17T13:43:24.098Z</time></trkpt><trkpt lat="43.6695867" lon="11.4486567"><ele>167.0</ele><time>2026-04-17T13:43:25.097Z</time></trkpt><trkpt lat="43.669565" lon="11.4484683"><ele>167.0</ele><time>2026-04-17T13:43:26.097Z</time></trkpt><trkpt lat="43.6695383" lon="11.44829"><ele>169.75</ele><time>2026-04-17T13:43:27.097Z</time></trkpt><trkpt lat="43.6695083" lon="11.4481217"><ele>172.5</ele><time>2026-04-17T13:43:28.098Z</time></trkpt><trkpt lat="43.6694767" lon="11.4479517"><ele>175.25</ele><time>2026-04-17T13:43:29.098Z</time></trkpt><trkpt lat="43.6694383" lon="11.4477817"><ele>178.0</ele><time>2026-04-17T13:43:30.097Z</time></trkpt><trkpt lat="43.6693833" lon="11.4476283"><ele>171.25</ele><time>2026-04-17T13:43:31.098Z</time></trkpt><trkpt lat="43.6693133" lon="11.447495"><ele>164.5</ele><time>2026-04-17T13:43:32.098Z</time></trkpt><trkpt lat="43.669225" lon="11.4473817"><ele>157.75</ele><time>2026-04-17T13:43:33.097Z</time></trkpt><trkpt lat="43.6691267" lon="11.4472783"><ele>151.0</ele><time>2026-04-17T13:43:34.098Z</time></trkpt><trkpt lat="43.6690217" lon="11.4471817"><ele>151.75</ele><time>2026-04-17T13:43:35.097Z</time></trkpt><trkpt lat="43.6689167" lon="11.44709"><ele>152.5</ele><time>2026-04-17T13:43:36.097Z</time></trkpt><trkpt lat="43.66882" lon="11.4469933"><ele>153.25</ele><time>2026-04-17T13:43:37.097Z</time></trkpt><trkpt lat="43.6687283" lon="11.4468983"><ele>154.0</ele><time>2026-04-17T13:43:38.098Z</time></trkpt><trkpt lat="43.668635" lon="11.4468"><ele>153.6</ele><time>2026-04-17T13:43:39.097Z</time></trkpt><trkpt lat="43.6685433" lon="11.446725"><ele>153.2</ele><time>2026-04-17T13:43:40.098Z</time></trkpt><trkpt lat="43.6684583" lon="11.4466583"><ele>152.79999999999998</ele><time>2026-04-17T13:43:41.097Z</time></trkpt><trkpt lat="43.6683717" lon="11.446605"><ele>152.4</ele><time>2026-04-17T13:43:42.096Z</time></trkpt><trkpt lat="43.668275" lon="11.4465633"><ele>152.0</ele><time>2026-04-17T13:43:43.096Z</time></trkpt><trkpt lat="43.6681783" lon="11.4465317"><ele>152.0</ele><time>2026-04-17T13:43:44.097Z</time></trkpt><trkpt lat="43.668075" lon="11.4465117"><ele>152.0</ele><time>2026-04-17T13:43:45.096Z</time></trkpt><trkpt lat="43.6679717" lon="11.4464833"><ele>152.0</ele><time>2026-04-17T13:43:46.096Z</time></trkpt><trkpt lat="43.66787" lon="11.4464667"><ele>152.0</ele><time>2026-04-17T13:43:47.097Z</time></trkpt><trkpt lat="43.6677783" lon="11.4464717"><ele>152.0</ele><time>2026-04-17T13:43:48.096Z</time></trkpt><trkpt lat="43.6676733" lon="11.4464783"><ele>151.2</ele><time>2026-04-17T13:43:49.096Z</time></trkpt><trkpt lat="43.6675833" lon="11.4465017"><ele>150.39999999999998</ele><time>2026-04-17T13:43:50.096Z</time></trkpt><trkpt lat="43.66749" lon="11.4465533"><ele>149.60000000000002</ele><time>2026-04-17T13:43:51.096Z</time></trkpt><trkpt lat="43.6673983" lon="11.4466217"><ele>148.8</ele><time>2026-04-17T13:43:52.096Z</time></trkpt><trkpt lat="43.667305" lon="11.4467083"><ele>148.0</ele><time>2026-04-17T13:43:53.097Z</time></trkpt><trkpt lat="43.66721" lon="11.44681"><ele>148.0</ele><time>2026-04-17T13:43:54.097Z</time></trkpt><trkpt lat="43.66711" lon="11.4469133"><ele>148.0</ele><time>2026-04-17T13:43:55.096Z</time></trkpt><trkpt lat="43.6670167" lon="11.4470167"><ele>148.0</ele><time>2026-04-17T13:43:56.097Z</time></trkpt><trkpt lat="43.666925" lon="11.4471217"><ele>148.0</ele><time>2026-04-17T13:43:57.096Z</time></trkpt><trkpt lat="43.66684" lon="11.447225"><ele>147.4</ele><time>2026-04-17T13:43:58.096Z</time></trkpt><trkpt lat="43.6667483" lon="11.44732"><ele>146.8</ele><time>2026-04-17T13:43:59.096Z</time></trkpt><trkpt lat="43.6666583" lon="11.4474167"><ele>146.2</ele><time>2026-04-17T13:44:00.096Z</time></trkpt><trkpt lat="43.6665733" lon="11.44752"><ele>145.6</ele><time>2026-04-17T13:44:01.097Z</time></trkpt><trkpt lat="43.666495" lon="11.4476083"><ele>145.0</ele><time>2026-04-17T13:44:02.097Z</time></trkpt><trkpt lat="43.6664317" lon="11.4477083"><ele>145.0</ele><time>2026-04-17T13:44:03.096Z</time></trkpt><trkpt lat="43.6663783" lon="11.4478167"><ele>145.0</ele><time>2026-04-17T13:44:04.096Z</time></trkpt><trkpt lat="43.6663267" lon="11.447935"><ele>145.0</ele><time>2026-04-17T13:44:05.097Z</time></trkpt><trkpt lat="43.6662817" lon="11.44806"><ele>145.0</ele><time>2026-04-17T13:44:06.097Z</time></trkpt><trkpt lat="43.6662383" lon="11.4481883"><ele>145.0</ele><time>2026-04-17T13:44:07.096Z</time></trkpt><trkpt lat="43.6661917" lon="11.4483183"><ele>145.6</ele><time>2026-04-17T13:44:08.096Z</time></trkpt><trkpt lat="43.6661417" lon="11.4484383"><ele>146.2</ele><time>2026-04-17T13:44:09.096Z</time></trkpt><trkpt lat="43.6660733" lon="11.4485333"><ele>146.8</ele><time>2026-04-17T13:44:10.096Z</time></trkpt><trkpt lat="43.666" lon="11.4486183"><ele>147.4</ele><time>2026-04-17T13:44:11.096Z</time></trkpt><trkpt lat="43.6658983" lon="11.4486683"><ele>148.0</ele><time>2026-04-17T13:44:12.096Z</time></trkpt><trkpt lat="43.66579" lon="11.4487183"><ele>148.0</ele><time>2026-04-17T13:44:13.097Z</time></trkpt><trkpt lat="43.6656667" lon="11.4487633"><ele>148.0</ele><time>2026-04-17T13:44:14.096Z</time></trkpt><trkpt lat="43.66555" lon="11.4488067"><ele>148.0</ele><time>2026-04-17T13:44:15.096Z</time></trkpt><trkpt lat="43.665435" lon="11.4488583"><ele>148.0</ele><time>2026-04-17T13:44:16.096Z</time></trkpt><trkpt lat="43.6653183" lon="11.4489133"><ele>143.0</ele><time>2026-04-17T13:44:17.096Z</time></trkpt><trkpt lat="43.6652067" lon="11.4489683"><ele>138.0</ele><time>2026-04-17T13:44:18.096Z</time></trkpt><trkpt lat="43.6651017" lon="11.4490283"><ele>133.0</ele><time>2026-04-17T13:44:19.096Z</time></trkpt><trkpt lat="43.664995" lon="11.4490833"><ele>128.0</ele><time>2026-04-17T13:44:20.097Z</time></trkpt><trkpt lat="43.664895" lon="11.4491333"><ele>128.0</ele><time>2026-04-17T13:44:21.096Z</time></trkpt><trkpt lat="43.6647933" lon="11.4491783"><ele>128.0</ele><time>2026-04-17T13:44:22.097Z</time></trkpt><trkpt lat="43.664695" lon="11.4492283"><ele>128.0</ele><time>2026-04-17T13:44:23.097Z</time></trkpt><trkpt lat="43.6646083" lon="11.4492817"><ele>128.0</ele><time>2026-04-17T13:44:24.097Z</time></trkpt><trkpt lat="43.66452" lon="11.44933"><ele>128.0</ele><time>2026-04-17T13:44:25.097Z</time></trkpt><trkpt lat="43.6644233" lon="11.4493717"><ele>128.4</ele><time>2026-04-17T13:44:26.096Z</time></trkpt><trkpt lat="43.66433" lon="11.449425"><ele>128.8</ele><time>2026-04-17T13:44:27.097Z</time></trkpt><trkpt lat="43.664245" lon="11.4494783"><ele>129.2</ele><time>2026-04-17T13:44:28.096Z</time></trkpt><trkpt lat="43.6641567" lon="11.4495317"><ele>129.6</ele><time>2026-04-17T13:44:29.096Z</time></trkpt><trkpt lat="43.6640683" lon="11.449585"><ele>130.0</ele><time>2026-04-17T13:44:30.096Z</time></trkpt><trkpt lat="43.6639767" lon="11.4496417"><ele>128.0</ele><time>2026-04-17T13:44:31.097Z</time></trkpt><trkpt lat="43.6638817" lon="11.4496817"><ele>126.0</ele><time>2026-04-17T13:44:32.096Z</time></trkpt><trkpt lat="43.6637917" lon="11.4497133"><ele>124.0</ele><time>2026-04-17T13:44:33.096Z</time></trkpt><trkpt lat="43.6636983" lon="11.449745"><ele>122.0</ele><time>2026-04-17T13:44:34.096Z</time></trkpt><trkpt lat="43.6636133" lon="11.449765"><ele>120.0</ele><time>2026-04-17T13:44:35.096Z</time></trkpt><trkpt lat="43.6635317" lon="11.4497833"><ele>119.5</ele><time>2026-04-17T13:44:36.096Z</time></trkpt><trkpt lat="43.66345" lon="11.4497933"><ele>119.0</ele><time>2026-04-17T13:44:37.097Z</time></trkpt><trkpt lat="43.66337" lon="11.4497817"><ele>118.5</ele><time>2026-04-17T13:44:38.096Z</time></trkpt><trkpt lat="43.6632917" lon="11.4497567"><ele>118.0</ele><time>2026-04-17T13:44:39.096Z</time></trkpt><trkpt lat="43.663215" lon="11.4497267"><ele>117.5</ele><time>2026-04-17T13:44:40.096Z</time></trkpt><trkpt lat="43.663135" lon="11.44969"><ele>117.0</ele><time>2026-04-17T13:44:41.096Z</time></trkpt><trkpt lat="43.6630667" lon="11.4496117"><ele>118.0</ele><time>2026-04-17T13:44:42.097Z</time></trkpt><trkpt lat="43.6629983" lon="11.4495683"><ele>119.0</ele><time>2026-04-17T13:44:43.096Z</time></trkpt><trkpt lat="43.6629283" lon="11.449525"><ele>120.0</ele><time>2026-04-17T13:44:44.097Z</time></trkpt><trkpt lat="43.66286" lon="11.449495"><ele>121.0</ele><time>2026-04-17T13:44:45.096Z</time></trkpt><trkpt lat="43.66279" lon="11.4494733"><ele>122.0</ele><time>2026-04-17T13:44:46.096Z</time></trkpt><trkpt lat="43.6627117" lon="11.4494367"><ele>123.0</ele><time>2026-04-17T13:44:47.096Z</time></trkpt><trkpt lat="43.6626317" lon="11.44938"><ele>123.16666666666667</ele><time>2026-04-17T13:44:48.097Z</time></trkpt><trkpt lat="43.662555" lon="11.4493167"><ele>123.33333333333334</ele><time>2026-04-17T13:44:49.096Z</time></trkpt><trkpt lat="43.6624783" lon="11.4492717"><ele>123.5</ele><time>2026-04-17T13:44:50.096Z</time></trkpt><trkpt lat="43.6624067" lon="11.4492133"><ele>123.66666666666667</ele><time>2026-04-17T13:44:51.096Z</time></trkpt><trkpt lat="43.6623333" lon="11.4491567"><ele>123.83333333333334</ele><time>2026-04-17T13:44:52.096Z</time></trkpt><trkpt lat="43.6622533" lon="11.4491183"><ele>124.0</ele><time>2026-04-17T13:44:53.096Z</time></trkpt><trkpt lat="43.6621767" lon="11.44909"><ele>124.00000000000001</ele><time>2026-04-17T13:44:54.096Z</time></trkpt><trkpt lat="43.6621" lon="11.4490667"><ele>124.0</ele><time>2026-04-17T13:44:55.097Z</time></trkpt><trkpt lat="43.6620183" lon="11.449055"><ele>124.0</ele><time>2026-04-17T13:44:56.096Z</time></trkpt><trkpt lat="43.6619517" lon="11.4490333"><ele>124.0</ele><time>2026-04-17T13:44:57.097Z</time></trkpt><trkpt lat="43.661855" lon="11.4489767"><ele>124.00000000000001</ele><time>2026-04-17T13:44:59.096Z</time></trkpt><trkpt lat="43.6617767" lon="11.4489483"><ele>124.0</ele><time>2026-04-17T13:45:01.096Z</time></trkpt><trkpt lat="43.6616983" lon="11.448915"><ele>123.71428571428572</ele><time>2026-04-17T13:45:04.096Z</time></trkpt><trkpt lat="43.6616367" lon="11.448895"><ele>123.42857142857144</ele><time>2026-04-17T13:45:07.097Z</time></trkpt><trkpt lat="43.661535" lon="11.44886"><ele>123.14285714285714</ele><time>2026-04-17T13:45:10.096Z</time></trkpt><trkpt lat="43.6614717" lon="11.4488383"><ele>122.85714285714286</ele><time>2026-04-17T13:45:11.097Z</time></trkpt><trkpt lat="43.6614067" lon="11.4488233"><ele>122.57142857142857</ele><time>2026-04-17T13:45:12.096Z</time></trkpt><trkpt lat="43.661345" lon="11.4488017"><ele>122.28571428571428</ele><time>2026-04-17T13:45:13.097Z</time></trkpt><trkpt lat="43.6612817" lon="11.448775"><ele>121.99999999999999</ele><time>2026-04-17T13:45:14.096Z</time></trkpt><trkpt lat="43.6612133" lon="11.448745"><ele>122.99999999999999</ele><time>2026-04-17T13:45:15.097Z</time></trkpt><trkpt lat="43.661135" lon="11.4487217"><ele>124.0</ele><time>2026-04-17T13:45:16.096Z</time></trkpt><trkpt lat="43.661055" lon="11.448705"><ele>125.0</ele><time>2026-04-17T13:45:17.097Z</time></trkpt><trkpt lat="43.660965" lon="11.4486667"><ele>126.0</ele><time>2026-04-17T13:45:18.096Z</time></trkpt><trkpt lat="43.660885" lon="11.448625"><ele>126.99999999999999</ele><time>2026-04-17T13:45:19.097Z</time></trkpt><trkpt lat="43.6607917" lon="11.4485933"><ele>128.0</ele><time>2026-04-17T13:45:20.097Z</time></trkpt><trkpt lat="43.6606983" lon="11.44857"><ele>128.0</ele><time>2026-04-17T13:45:21.096Z</time></trkpt><trkpt lat="43.6606083" lon="11.4485467"><ele>128.0</ele><time>2026-04-17T13:45:22.096Z</time></trkpt><trkpt lat="43.6605117" lon="11.448525"><ele>128.0</ele><time>2026-04-17T13:45:23.097Z</time></trkpt><trkpt lat="43.6604267" lon="11.4485167"><ele>128.0</ele><time>2026-04-17T13:45:24.097Z</time></trkpt><trkpt lat="43.6603433" lon="11.4484983"><ele>128.0</ele><time>2026-04-17T13:45:25.096Z</time></trkpt><trkpt lat="43.6602417" lon="11.448465"><ele>127.60000000000001</ele><time>2026-04-17T13:45:26.096Z</time></trkpt><trkpt lat="43.660145" lon="11.4484367"><ele>127.20000000000002</ele><time>2026-04-17T13:45:27.096Z</time></trkpt><trkpt lat="43.66005" lon="11.4484217"><ele>126.8</ele><time>2026-04-17T13:45:28.096Z</time></trkpt><trkpt lat="43.6599583" lon="11.44841"><ele>126.4</ele><time>2026-04-17T13:45:29.096Z</time></trkpt><trkpt lat="43.6598683" lon="11.4484083"><ele>126.0</ele><time>2026-04-17T13:45:30.096Z</time></trkpt><trkpt lat="43.65978" lon="11.4484033"><ele>126.0</ele><time>2026-04-17T13:45:31.096Z</time></trkpt><trkpt lat="43.6596933" lon="11.4484083"><ele>126.0</ele><time>2026-04-17T13:45:32.096Z</time></trkpt><trkpt lat="43.6596067" lon="11.44841"><ele>126.0</ele><time>2026-04-17T13:45:33.096Z</time></trkpt><trkpt lat="43.6595217" lon="11.44841"><ele>126.0</ele><time>2026-04-17T13:45:34.096Z</time></trkpt><trkpt lat="43.659435" lon="11.448405"><ele>126.0</ele><time>2026-04-17T13:45:35.096Z</time></trkpt><trkpt lat="43.6593567" lon="11.4484033"><ele>126.0</ele><time>2026-04-17T13:45:36.096Z</time></trkpt><trkpt lat="43.65927" lon="11.448405"><ele>126.16666666666667</ele><time>2026-04-17T13:45:37.096Z</time></trkpt><trkpt lat="43.6591817" lon="11.4484083"><ele>126.33333333333334</ele><time>2026-04-17T13:45:38.096Z</time></trkpt><trkpt lat="43.6590983" lon="11.44841"><ele>126.5</ele><time>2026-04-17T13:45:39.096Z</time></trkpt><trkpt lat="43.659015" lon="11.448425"><ele>126.66666666666667</ele><time>2026-04-17T13:45:40.096Z</time></trkpt><trkpt lat="43.6589317" lon="11.448445"><ele>126.83333333333334</ele><time>2026-04-17T13:45:41.096Z</time></trkpt><trkpt lat="43.6588483" lon="11.4484683"><ele>127.0</ele><time>2026-04-17T13:45:42.096Z</time></trkpt><trkpt lat="43.6587633" lon="11.448495"><ele>127.00000000000001</ele><time>2026-04-17T13:45:43.096Z</time></trkpt><trkpt lat="43.6586783" lon="11.4485183"><ele>127.0</ele><time>2026-04-17T13:45:44.096Z</time></trkpt><trkpt lat="43.6585933" lon="11.4485467"><ele>127.0</ele><time>2026-04-17T13:45:45.097Z</time></trkpt><trkpt lat="43.65851" lon="11.44858"><ele>127.0</ele><time>2026-04-17T13:45:46.097Z</time></trkpt><trkpt lat="43.6584333" lon="11.4486167"><ele>127.00000000000001</ele><time>2026-04-17T13:45:47.097Z</time></trkpt><trkpt lat="43.6583533" lon="11.4486417"><ele>127.0</ele><time>2026-04-17T13:45:48.096Z</time></trkpt><trkpt lat="43.6582717" lon="11.44868"><ele>127.16666666666667</ele><time>2026-04-17T13:45:49.096Z</time></trkpt><trkpt lat="43.658195" lon="11.4487117"><ele>127.33333333333334</ele><time>2026-04-17T13:45:50.097Z</time></trkpt><trkpt lat="43.65813" lon="11.4487433"><ele>127.5</ele><time>2026-04-17T13:45:51.096Z</time></trkpt><trkpt lat="43.6580683" lon="11.4487783"><ele>127.66666666666666</ele><time>2026-04-17T13:45:52.097Z</time></trkpt><trkpt lat="43.6579667" lon="11.44881"><ele>127.83333333333333</ele><time>2026-04-17T13:45:54.096Z</time></trkpt><trkpt lat="43.6578717" lon="11.44884"><ele>128.0</ele><time>2026-04-17T13:45:57.096Z</time></trkpt><trkpt lat="43.6577917" lon="11.4488833"><ele>127.16666666666666</ele><time>2026-04-17T13:45:59.096Z</time></trkpt><trkpt lat="43.6576933" lon="11.4489383"><ele>126.33333333333333</ele><time>2026-04-17T13:46:01.097Z</time></trkpt><trkpt lat="43.65763" lon="11.4489633"><ele>125.5</ele><time>2026-04-17T13:46:02.096Z</time></trkpt><trkpt lat="43.65752" lon="11.4490433"><ele>124.66666666666666</ele><time>2026-04-17T13:46:04.097Z</time></trkpt><trkpt lat="43.6574583" lon="11.4490817"><ele>123.83333333333333</ele><time>2026-04-17T13:46:05.096Z</time></trkpt><trkpt lat="43.657395" lon="11.44912"><ele>123.0</ele><time>2026-04-17T13:46:06.096Z</time></trkpt><trkpt lat="43.6573317" lon="11.4491667"><ele>123.0</ele><time>2026-04-17T13:46:07.096Z</time></trkpt><trkpt lat="43.6572633" lon="11.4491983"><ele>123.0</ele><time>2026-04-17T13:46:08.097Z</time></trkpt><trkpt lat="43.6571967" lon="11.44923"><ele>123.0</ele><time>2026-04-17T13:46:09.097Z</time></trkpt><trkpt lat="43.6571333" lon="11.4492617"><ele>123.0</ele><time>2026-04-17T13:46:10.096Z</time></trkpt><trkpt lat="43.6570267" lon="11.4493133"><ele>123.0</ele><time>2026-04-17T13:46:12.096Z</time></trkpt><trkpt lat="43.6569217" lon="11.449355"><ele>123.0</ele><time>2026-04-17T13:46:14.096Z</time></trkpt><trkpt lat="43.6568033" lon="11.4494083"><ele>123.0</ele><time>2026-04-17T13:46:16.096Z</time></trkpt><trkpt lat="43.65671" lon="11.4494367"><ele>123.0</ele><time>2026-04-17T13:46:18.096Z</time></trkpt><trkpt lat="43.6566383" lon="11.44946"><ele>123.0</ele><time>2026-04-17T13:46:20.096Z</time></trkpt><trkpt lat="43.6565583" lon="11.4494833"><ele>123.0</ele><time>2026-04-17T13:46:23.096Z</time></trkpt><trkpt lat="43.6564917" lon="11.449485"><ele>123.0</ele><time>2026-04-17T13:46:26.096Z</time></trkpt><trkpt lat="43.6563683" lon="11.4495133"><ele>123.0</ele><time>2026-04-17T13:46:38.095Z</time></trkpt><trkpt lat="43.65629" lon="11.4495217"><ele>123.0</ele><time>2026-04-17T13:46:41.095Z</time></trkpt><trkpt lat="43.6562183" lon="11.4495517"><ele>123.0</ele><time>2026-04-17T13:46:47.095Z</time></trkpt><trkpt lat="43.656155" lon="11.44959"><ele>123.0</ele><time>2026-04-17T13:46:49.095Z</time></trkpt><trkpt lat="43.6560867" lon="11.4496183"><ele>123.0</ele><time>2026-04-17T13:46:51.095Z</time></trkpt><trkpt lat="43.6559883" lon="11.4496517"><ele>123.0</ele><time>2026-04-17T13:46:53.095Z</time></trkpt><trkpt lat="43.6558667" lon="11.4496783"><ele>123.0</ele><time>2026-04-17T13:46:55.095Z</time></trkpt><trkpt lat="43.6557983" lon="11.4496967"><ele>123.16666666666667</ele><time>2026-04-17T13:46:56.095Z</time></trkpt><trkpt lat="43.65573" lon="11.4497117"><ele>123.33333333333334</ele><time>2026-04-17T13:46:57.095Z</time></trkpt><trkpt lat="43.6556583" lon="11.4497183"><ele>123.5</ele><time>2026-04-17T13:46:58.095Z</time></trkpt><trkpt lat="43.6555817" lon="11.4497233"><ele>123.66666666666667</ele><time>2026-04-17T13:46:59.095Z</time></trkpt><trkpt lat="43.6555" lon="11.44975"><ele>123.83333333333334</ele><time>2026-04-17T13:47:00.096Z</time></trkpt><trkpt lat="43.6554217" lon="11.4497817"><ele>124.0</ele><time>2026-04-17T13:47:01.095Z</time></trkpt><trkpt lat="43.655335" lon="11.4498133"><ele>123.83333333333334</ele><time>2026-04-17T13:47:02.096Z</time></trkpt><trkpt lat="43.6552517" lon="11.449845"><ele>123.66666666666667</ele><time>2026-04-17T13:47:03.096Z</time></trkpt><trkpt lat="43.65516" lon="11.4498767"><ele>123.5</ele><time>2026-04-17T13:47:04.095Z</time></trkpt><trkpt lat="43.65507" lon="11.4499167"><ele>123.33333333333334</ele><time>2026-04-17T13:47:05.096Z</time></trkpt><trkpt lat="43.6549833" lon="11.4499533"><ele>123.16666666666667</ele><time>2026-04-17T13:47:06.096Z</time></trkpt><trkpt lat="43.65491" lon="11.450005"><ele>123.0</ele><time>2026-04-17T13:47:07.095Z</time></trkpt><trkpt lat="43.65484" lon="11.4500633"><ele>123.0</ele><time>2026-04-17T13:47:08.096Z</time></trkpt><trkpt lat="43.6547617" lon="11.450125"><ele>123.0</ele><time>2026-04-17T13:47:09.096Z</time></trkpt><trkpt lat="43.65469" lon="11.4501967"><ele>123.0</ele><time>2026-04-17T13:47:10.095Z</time></trkpt><trkpt lat="43.6546117" lon="11.4502583"><ele>123.0</ele><time>2026-04-17T13:47:11.095Z</time></trkpt><trkpt lat="43.6545333" lon="11.4503233"><ele>123.0</ele><time>2026-04-17T13:47:12.095Z</time></trkpt><trkpt lat="43.6544567" lon="11.4503833"><ele>123.0</ele><time>2026-04-17T13:47:13.095Z</time></trkpt><trkpt lat="43.6543717" lon="11.450435"><ele>123.0</ele><time>2026-04-17T13:47:14.096Z</time></trkpt><trkpt lat="43.6542933" lon="11.4504917"><ele>123.0</ele><time>2026-04-17T13:47:15.096Z</time></trkpt><trkpt lat="43.6542183" lon="11.4505433"><ele>123.0</ele><time>2026-04-17T13:47:16.095Z</time></trkpt><trkpt lat="43.6541483" lon="11.4506"><ele>123.0</ele><time>2026-04-17T13:47:17.095Z</time></trkpt><trkpt lat="43.65408" lon="11.45065"><ele>123.0</ele><time>2026-04-17T13:47:18.096Z</time></trkpt><trkpt lat="43.6540183" lon="11.4506967"><ele>123.0</ele><time>2026-04-17T13:47:19.096Z</time></trkpt><trkpt lat="43.6539217" lon="11.450775"><ele>123.0</ele><time>2026-04-17T13:47:21.095Z</time></trkpt><trkpt lat="43.6538817" lon="11.450865"><ele>123.00000000000001</ele><time>2026-04-17T13:47:23.095Z</time></trkpt><trkpt lat="43.6539183" lon="11.4509533"><ele>123.00000000000001</ele><time>2026-04-17T13:47:25.096Z</time></trkpt><trkpt lat="43.654" lon="11.4509333"><ele>123.0</ele><time>2026-04-17T13:47:28.096Z</time></trkpt><trkpt lat="43.654105" lon="11.45078"><ele>123.0</ele><time>2026-04-17T13:49:20.095Z</time></trkpt><trkpt lat="43.6539933" lon="11.4507533"><ele>123.0</ele><time>2026-04-17T13:49:33.094Z</time></trkpt><trkpt lat="43.6539067" lon="11.4507717"><ele>123.00000000000001</ele><time>2026-04-17T13:49:34.095Z</time></trkpt><trkpt lat="43.6537967" lon="11.4508167"><ele>123.00000000000001</ele><time>2026-04-17T13:49:35.094Z</time></trkpt><trkpt lat="43.653695" lon="11.4508617"><ele>123.0</ele><time>2026-04-17T13:49:36.094Z</time></trkpt><trkpt lat="43.6535983" lon="11.45091"><ele>123.0</ele><time>2026-04-17T13:49:37.094Z</time></trkpt><trkpt lat="43.653505" lon="11.450975"><ele>124.0</ele><time>2026-04-17T13:49:38.094Z</time></trkpt><trkpt lat="43.6534067" lon="11.45104"><ele>125.0</ele><time>2026-04-17T13:49:39.094Z</time></trkpt><trkpt lat="43.6533017" lon="11.4510983"><ele>126.0</ele><time>2026-04-17T13:49:40.094Z</time></trkpt><trkpt lat="43.6531933" lon="11.4511533"><ele>127.0</ele><time>2026-04-17T13:49:41.094Z</time></trkpt><trkpt lat="43.6530717" lon="11.4512033"><ele>127.0</ele><time>2026-04-17T13:49:42.095Z</time></trkpt><trkpt lat="43.6529483" lon="11.4512467"><ele>127.0</ele><time>2026-04-17T13:49:43.095Z</time></trkpt><trkpt lat="43.6528267" lon="11.4512817"><ele>127.0</ele><time>2026-04-17T13:49:44.094Z</time></trkpt><trkpt lat="43.6527033" lon="11.4513083"><ele>127.0</ele><time>2026-04-17T13:49:45.094Z</time></trkpt><trkpt lat="43.6525867" lon="11.4513317"><ele>125.5</ele><time>2026-04-17T13:49:46.094Z</time></trkpt><trkpt lat="43.652475" lon="11.4513417"><ele>124.0</ele><time>2026-04-17T13:49:47.094Z</time></trkpt><trkpt lat="43.652355" lon="11.4513517"><ele>122.5</ele><time>2026-04-17T13:49:48.094Z</time></trkpt><trkpt lat="43.65223" lon="11.4513717"><ele>121.0</ele><time>2026-04-17T13:49:49.094Z</time></trkpt><trkpt lat="43.6520983" lon="11.4513867"><ele>121.0</ele><time>2026-04-17T13:49:50.094Z</time></trkpt><trkpt lat="43.651965" lon="11.4513983"><ele>121.0</ele><time>2026-04-17T13:49:51.094Z</time></trkpt><trkpt lat="43.651835" lon="11.4514083"><ele>121.0</ele><time>2026-04-17T13:49:52.094Z</time></trkpt><trkpt lat="43.6517" lon="11.4514"><ele>121.0</ele><time>2026-04-17T13:49:53.094Z</time></trkpt><trkpt lat="43.6515567" lon="11.4513867"><ele>121.5</ele><time>2026-04-17T13:49:54.094Z</time></trkpt><trkpt lat="43.65142" lon="11.45135"><ele>122.0</ele><time>2026-04-17T13:49:55.095Z</time></trkpt><trkpt lat="43.651285" lon="11.451295"><ele>122.5</ele><time>2026-04-17T13:49:56.095Z</time></trkpt><trkpt lat="43.6511567" lon="11.4512233"><ele>123.0</ele><time>2026-04-17T13:49:57.094Z</time></trkpt><trkpt lat="43.6510167" lon="11.4511617"><ele>123.5</ele><time>2026-04-17T13:49:58.095Z</time></trkpt><trkpt lat="43.6508867" lon="11.4511"><ele>124.0</ele><time>2026-04-17T13:49:59.094Z</time></trkpt><trkpt lat="43.650745" lon="11.451065"><ele>124.5</ele><time>2026-04-17T13:50:00.094Z</time></trkpt><trkpt lat="43.6506" lon="11.451045"><ele>125.0</ele><time>2026-04-17T13:50:01.094Z</time></trkpt><trkpt lat="43.65045" lon="11.4510433"><ele>125.0</ele><time>2026-04-17T13:50:02.094Z</time></trkpt><trkpt lat="43.650295" lon="11.4510367"><ele>125.0</ele><time>2026-04-17T13:50:03.094Z</time></trkpt><trkpt lat="43.6501433" lon="11.4510483"><ele>125.0</ele><time>2026-04-17T13:50:04.095Z</time></trkpt><trkpt lat="43.6499883" lon="11.4510667"><ele>124.25</ele><time>2026-04-17T13:50:05.094Z</time></trkpt><trkpt lat="43.649835" lon="11.4510733"><ele>123.5</ele><time>2026-04-17T13:50:06.095Z</time></trkpt><trkpt lat="43.6496867" lon="11.451075"><ele>122.75</ele><time>2026-04-17T13:50:07.095Z</time></trkpt><trkpt lat="43.64954" lon="11.4510633"><ele>122.0</ele><time>2026-04-17T13:50:08.095Z</time></trkpt><trkpt lat="43.64939" lon="11.4510317"><ele>121.66666666666666</ele><time>2026-04-17T13:50:09.094Z</time></trkpt><trkpt lat="43.649235" lon="11.450995"><ele>121.33333333333334</ele><time>2026-04-17T13:50:10.094Z</time></trkpt><trkpt lat="43.6490783" lon="11.4509633"><ele>121.0</ele><time>2026-04-17T13:50:11.094Z</time></trkpt><trkpt lat="43.6489217" lon="11.450935"><ele>121.0</ele><time>2026-04-17T13:50:12.095Z</time></trkpt><trkpt lat="43.64876" lon="11.4508967"><ele>121.0</ele><time>2026-04-17T13:50:13.094Z</time></trkpt><trkpt lat="43.6486" lon="11.45086"><ele>121.0</ele><time>2026-04-17T13:50:14.094Z</time></trkpt><trkpt lat="43.648435" lon="11.450825"><ele>121.33333333333334</ele><time>2026-04-17T13:50:15.094Z</time></trkpt><trkpt lat="43.6482683" lon="11.4508033"><ele>121.66666666666666</ele><time>2026-04-17T13:50:16.094Z</time></trkpt><trkpt lat="43.6480983" lon="11.4507983"><ele>122.0</ele><time>2026-04-17T13:50:17.095Z</time></trkpt><trkpt lat="43.6479317" lon="11.45078"><ele>122.0</ele><time>2026-04-17T13:50:18.095Z</time></trkpt><trkpt lat="43.6477567" lon="11.4508167"><ele>122.0</ele><time>2026-04-17T13:50:19.095Z</time></trkpt><trkpt lat="43.6475833" lon="11.4508383"><ele>122.0</ele><time>2026-04-17T13:50:20.094Z</time></trkpt><trkpt lat="43.6474067" lon="11.450865"><ele>122.0</ele><time>2026-04-17T13:50:21.094Z</time></trkpt><trkpt lat="43.6472283" lon="11.450885"><ele>122.0</ele><time>2026-04-17T13:50:22.094Z</time></trkpt><trkpt lat="43.6470467" lon="11.4509217"><ele>122.0</ele><time>2026-04-17T13:50:23.094Z</time></trkpt><trkpt lat="43.6468583" lon="11.4509467"><ele>122.0</ele><time>2026-04-17T13:50:24.094Z</time></trkpt><trkpt lat="43.64668" lon="11.4509983"><ele>122.0</ele><time>2026-04-17T13:50:25.094Z</time></trkpt><trkpt lat="43.6465017" lon="11.4510433"><ele>122.0</ele><time>2026-04-17T13:50:26.094Z</time></trkpt><trkpt lat="43.6463217" lon="11.4510917"><ele>122.0</ele><time>2026-04-17T13:50:27.095Z</time></trkpt><trkpt lat="43.6461517" lon="11.451135"><ele>122.0</ele><time>2026-04-17T13:50:28.094Z</time></trkpt><trkpt lat="43.6459767" lon="11.4511883"><ele>122.0</ele><time>2026-04-17T13:50:29.094Z</time></trkpt><trkpt lat="43.6458083" lon="11.4512317"><ele>122.66666666666666</ele><time>2026-04-17T13:50:30.094Z</time></trkpt><trkpt lat="43.6456433" lon="11.4512683"><ele>123.33333333333334</ele><time>2026-04-17T13:50:31.095Z</time></trkpt><trkpt lat="43.645485" lon="11.4513117"><ele>124.0</ele><time>2026-04-17T13:50:32.094Z</time></trkpt><trkpt lat="43.645325" lon="11.4513533"><ele>123.0</ele><time>2026-04-17T13:50:33.094Z</time></trkpt><trkpt lat="43.64517" lon="11.4514033"><ele>122.0</ele><time>2026-04-17T13:50:34.094Z</time></trkpt><trkpt lat="43.6450167" lon="11.4514667"><ele>121.0</ele><time>2026-04-17T13:50:35.095Z</time></trkpt><trkpt lat="43.644865" lon="11.4515417"><ele>121.0</ele><time>2026-04-17T13:50:36.094Z</time></trkpt><trkpt lat="43.6447183" lon="11.4516167"><ele>121.0</ele><time>2026-04-17T13:50:37.094Z</time></trkpt><trkpt lat="43.6445783" lon="11.4516933"><ele>121.0</ele><time>2026-04-17T13:50:38.095Z</time></trkpt><trkpt lat="43.6444317" lon="11.4517717"><ele>121.66666666666667</ele><time>2026-04-17T13:50:39.095Z</time></trkpt><trkpt lat="43.644285" lon="11.451845"><ele>122.33333333333334</ele><time>2026-04-17T13:50:40.095Z</time></trkpt><trkpt lat="43.6441467" lon="11.451915"><ele>123.0</ele><time>2026-04-17T13:50:41.095Z</time></trkpt><trkpt lat="43.6440033" lon="11.4519817"><ele>123.0</ele><time>2026-04-17T13:50:42.094Z</time></trkpt><trkpt lat="43.64386" lon="11.45205"><ele>123.0</ele><time>2026-04-17T13:50:43.094Z</time></trkpt><trkpt lat="43.6437217" lon="11.4521183"><ele>123.0</ele><time>2026-04-17T13:50:44.095Z</time></trkpt><trkpt lat="43.64358" lon="11.452175"><ele>123.0</ele><time>2026-04-17T13:50:45.094Z</time></trkpt><trkpt lat="43.6434333" lon="11.4522233"><ele>122.5</ele><time>2026-04-17T13:50:46.095Z</time></trkpt><trkpt lat="43.643295" lon="11.452265"><ele>122.0</ele><time>2026-04-17T13:50:47.094Z</time></trkpt><trkpt lat="43.6431517" lon="11.4522983"><ele>121.5</ele><time>2026-04-17T13:50:48.095Z</time></trkpt><trkpt lat="43.6430167" lon="11.452315"><ele>121.0</ele><time>2026-04-17T13:50:49.094Z</time></trkpt><trkpt lat="43.6428867" lon="11.45232"><ele>121.25</ele><time>2026-04-17T13:50:50.094Z</time></trkpt><trkpt lat="43.6427583" lon="11.4523317"><ele>121.5</ele><time>2026-04-17T13:50:51.094Z</time></trkpt><trkpt lat="43.642625" lon="11.4523467"><ele>121.75</ele><time>2026-04-17T13:50:52.094Z</time></trkpt><trkpt lat="43.6425033" lon="11.4523517"><ele>122.0</ele><time>2026-04-17T13:50:53.094Z</time></trkpt><trkpt lat="43.6423833" lon="11.4523583"><ele>122.0</ele><time>2026-04-17T13:50:54.095Z</time></trkpt><trkpt lat="43.6422733" lon="11.4523783"><ele>121.99999999999999</ele><time>2026-04-17T13:50:55.094Z</time></trkpt><trkpt lat="43.6421717" lon="11.4524117"><ele>121.99999999999999</ele><time>2026-04-17T13:50:56.095Z</time></trkpt><trkpt lat="43.6420817" lon="11.4524417"><ele>122.0</ele><time>2026-04-17T13:50:57.094Z</time></trkpt><trkpt lat="43.6419983" lon="11.4524533"><ele>122.0</ele><time>2026-04-17T13:50:58.094Z</time></trkpt><trkpt lat="43.6419167" lon="11.4524267"><ele>121.83333333333333</ele><time>2026-04-17T13:50:59.094Z</time></trkpt><trkpt lat="43.6418317" lon="11.4523817"><ele>121.66666666666666</ele><time>2026-04-17T13:51:00.094Z</time></trkpt><trkpt lat="43.6417517" lon="11.4523433"><ele>121.5</ele><time>2026-04-17T13:51:01.094Z</time></trkpt><trkpt lat="43.6416617" lon="11.45234"><ele>121.33333333333334</ele><time>2026-04-17T13:51:02.094Z</time></trkpt><trkpt lat="43.6415883" lon="11.4523833"><ele>121.16666666666667</ele><time>2026-04-17T13:51:03.094Z</time></trkpt><trkpt lat="43.64154" lon="11.45247"><ele>121.0</ele><time>2026-04-17T13:51:04.094Z</time></trkpt><trkpt lat="43.6414933" lon="11.4525683"><ele>121.0</ele><time>2026-04-17T13:51:05.094Z</time></trkpt><trkpt lat="43.641445" lon="11.452655"><ele>121.0</ele><time>2026-04-17T13:51:06.094Z</time></trkpt><trkpt lat="43.6413817" lon="11.4527133"><ele>121.0</ele><time>2026-04-17T13:51:07.094Z</time></trkpt><trkpt lat="43.6413" lon="11.45275"><ele>121.0</ele><time>2026-04-17T13:51:08.095Z</time></trkpt><trkpt lat="43.6411933" lon="11.4527617"><ele>121.0</ele><time>2026-04-17T13:51:09.094Z</time></trkpt><trkpt lat="43.6410733" lon="11.4527667"><ele>121.0</ele><time>2026-04-17T13:51:10.094Z</time></trkpt><trkpt lat="43.6409533" lon="11.4527883"><ele>121.0</ele><time>2026-04-17T13:51:11.094Z</time></trkpt><trkpt lat="43.6408333" lon="11.4528433"><ele>121.0</ele><time>2026-04-17T13:51:12.094Z</time></trkpt><trkpt lat="43.6407233" lon="11.452935"><ele>121.0</ele><time>2026-04-17T13:51:13.094Z</time></trkpt><trkpt lat="43.640615" lon="11.45304"><ele>121.0</ele><time>2026-04-17T13:51:14.094Z</time></trkpt><trkpt lat="43.6405" lon="11.4531517"><ele>121.0</ele><time>2026-04-17T13:51:15.095Z</time></trkpt><trkpt lat="43.640385" lon="11.4532633"><ele>121.0</ele><time>2026-04-17T13:51:16.094Z</time></trkpt><trkpt lat="43.6402667" lon="11.45337"><ele>121.0</ele><time>2026-04-17T13:51:17.095Z</time></trkpt><trkpt lat="43.6401467" lon="11.4534767"><ele>121.0</ele><time>2026-04-17T13:51:18.094Z</time></trkpt><trkpt lat="43.6400317" lon="11.4535867"><ele>121.0</ele><time>2026-04-17T13:51:19.094Z</time></trkpt><trkpt lat="43.6399133" lon="11.4536933"><ele>121.0</ele><time>2026-04-17T13:51:20.095Z</time></trkpt><trkpt lat="43.6397983" lon="11.4538"><ele>121.0</ele><time>2026-04-17T13:51:21.094Z</time></trkpt><trkpt lat="43.6396817" lon="11.4539117"><ele>121.0</ele><time>2026-04-17T13:51:22.094Z</time></trkpt><trkpt lat="43.6395683" lon="11.4540267"><ele>121.0</ele><time>2026-04-17T13:51:23.094Z</time></trkpt><trkpt lat="43.6394533" lon="11.4541333"><ele>121.0</ele><time>2026-04-17T13:51:24.094Z</time></trkpt><trkpt lat="43.639335" lon="11.4542417"><ele>121.0</ele><time>2026-04-17T13:51:25.095Z</time></trkpt><trkpt lat="43.639215" lon="11.4543533"><ele>121.0</ele><time>2026-04-17T13:51:26.094Z</time></trkpt><trkpt lat="43.639085" lon="11.4544533"><ele>121.0</ele><time>2026-04-17T13:51:27.094Z</time></trkpt><trkpt lat="43.6389683" lon="11.4545667"><ele>121.0</ele><time>2026-04-17T13:51:28.095Z</time></trkpt><trkpt lat="43.6388517" lon="11.4546767"><ele>121.0</ele><time>2026-04-17T13:51:29.095Z</time></trkpt><trkpt lat="43.63873" lon="11.454795"><ele>120.75</ele><time>2026-04-17T13:51:30.095Z</time></trkpt><trkpt lat="43.638605" lon="11.4549133"><ele>120.5</ele><time>2026-04-17T13:51:31.094Z</time></trkpt><trkpt lat="43.6384733" lon="11.455015"><ele>120.25</ele><time>2026-04-17T13:51:32.094Z</time></trkpt><trkpt lat="43.6383517" lon="11.455125"><ele>120.0</ele><time>2026-04-17T13:51:33.094Z</time></trkpt><trkpt lat="43.6382333" lon="11.4552383"><ele>120.0</ele><time>2026-04-17T13:51:34.094Z</time></trkpt><trkpt lat="43.6381117" lon="11.45534"><ele>120.0</ele><time>2026-04-17T13:51:35.094Z</time></trkpt><trkpt lat="43.6379933" lon="11.4554467"><ele>120.0</ele><time>2026-04-17T13:51:36.095Z</time></trkpt><trkpt lat="43.63788" lon="11.4555533"><ele>120.0</ele><time>2026-04-17T13:51:37.094Z</time></trkpt><trkpt lat="43.6377667" lon="11.4556617"><ele>120.0</ele><time>2026-04-17T13:51:38.094Z</time></trkpt><trkpt lat="43.6376517" lon="11.455765"><ele>120.0</ele><time>2026-04-17T13:51:39.094Z</time></trkpt><trkpt lat="43.63754" lon="11.4558667"><ele>120.0</ele><time>2026-04-17T13:51:40.094Z</time></trkpt><trkpt lat="43.6374233" lon="11.4559683"><ele>120.0</ele><time>2026-04-17T13:51:41.094Z</time></trkpt><trkpt lat="43.6373167" lon="11.4560783"><ele>120.0</ele><time>2026-04-17T13:51:42.094Z</time></trkpt><trkpt lat="43.6372067" lon="11.4561783"><ele>120.0</ele><time>2026-04-17T13:51:43.094Z</time></trkpt><trkpt lat="43.6371" lon="11.4562767"><ele>120.0</ele><time>2026-04-17T13:51:44.094Z</time></trkpt><trkpt lat="43.6369933" lon="11.456375"><ele>120.0</ele><time>2026-04-17T13:51:45.095Z</time></trkpt><trkpt lat="43.63688" lon="11.4564767"><ele>120.0</ele><time>2026-04-17T13:51:46.095Z</time></trkpt><trkpt lat="43.6367667" lon="11.4565767"><ele>120.0</ele><time>2026-04-17T13:51:47.095Z</time></trkpt><trkpt lat="43.63665" lon="11.4566717"><ele>120.0</ele><time>2026-04-17T13:51:48.094Z</time></trkpt><trkpt lat="43.6365433" lon="11.4567667"><ele>120.0</ele><time>2026-04-17T13:51:49.095Z</time></trkpt><trkpt lat="43.6364383" lon="11.4568633"><ele>120.0</ele><time>2026-04-17T13:51:50.095Z</time></trkpt><trkpt lat="43.63634" lon="11.45696"><ele>120.0</ele><time>2026-04-17T13:51:51.094Z</time></trkpt><trkpt lat="43.63624" lon="11.4570567"><ele>120.0</ele><time>2026-04-17T13:51:52.094Z</time></trkpt><trkpt lat="43.6361383" lon="11.45716"><ele>120.0</ele><time>2026-04-17T13:51:53.094Z</time></trkpt><trkpt lat="43.6360383" lon="11.45727"><ele>120.0</ele><time>2026-04-17T13:51:54.094Z</time></trkpt><trkpt lat="43.6359383" lon="11.4573767"><ele>120.0</ele><time>2026-04-17T13:51:55.095Z</time></trkpt><trkpt lat="43.6358517" lon="11.4575067"><ele>120.0</ele><time>2026-04-17T13:51:56.095Z</time></trkpt><trkpt lat="43.6357817" lon="11.45766"><ele>120.0</ele><time>2026-04-17T13:51:57.094Z</time></trkpt><trkpt lat="43.6357167" lon="11.45782"><ele>120.0</ele><time>2026-04-17T13:51:58.095Z</time></trkpt><trkpt lat="43.6356567" lon="11.457985"><ele>120.0</ele><time>2026-04-17T13:51:59.095Z</time></trkpt><trkpt lat="43.6356067" lon="11.4581467"><ele>120.0</ele><time>2026-04-17T13:52:00.094Z</time></trkpt><trkpt lat="43.63556" lon="11.4583133"><ele>120.0</ele><time>2026-04-17T13:52:01.094Z</time></trkpt><trkpt lat="43.6355017" lon="11.45847"><ele>120.0</ele><time>2026-04-17T13:52:02.094Z</time></trkpt><trkpt lat="43.6354267" lon="11.4586167"><ele>120.0</ele><time>2026-04-17T13:52:03.094Z</time></trkpt><trkpt lat="43.6353383" lon="11.458745"><ele>120.0</ele><time>2026-04-17T13:52:04.094Z</time></trkpt><trkpt lat="43.635235" lon="11.4588633"><ele>120.0</ele><time>2026-04-17T13:52:05.095Z</time></trkpt><trkpt lat="43.6351183" lon="11.4589667"><ele>120.0</ele><time>2026-04-17T13:52:06.094Z</time></trkpt><trkpt lat="43.635005" lon="11.45907"><ele>120.0</ele><time>2026-04-17T13:52:07.094Z</time></trkpt><trkpt lat="43.63489" lon="11.459175"><ele>120.0</ele><time>2026-04-17T13:52:08.094Z</time></trkpt><trkpt lat="43.63477" lon="11.4592767"><ele>120.0</ele><time>2026-04-17T13:52:09.094Z</time></trkpt><trkpt lat="43.6346467" lon="11.45938"><ele>120.0</ele><time>2026-04-17T13:52:10.094Z</time></trkpt><trkpt lat="43.6345283" lon="11.4594867"><ele>120.0</ele><time>2026-04-17T13:52:11.095Z</time></trkpt><trkpt lat="43.6344167" lon="11.45959"><ele>120.0</ele><time>2026-04-17T13:52:12.095Z</time></trkpt><trkpt lat="43.6343" lon="11.4596817"><ele>120.0</ele><time>2026-04-17T13:52:13.095Z</time></trkpt><trkpt lat="43.6341867" lon="11.459785"><ele>120.0</ele><time>2026-04-17T13:52:14.095Z</time></trkpt><trkpt lat="43.634065" lon="11.4598767"><ele>120.0</ele><time>2026-04-17T13:52:15.095Z</time></trkpt><trkpt lat="43.633955" lon="11.4599767"><ele>120.0</ele><time>2026-04-17T13:52:16.095Z</time></trkpt><trkpt lat="43.6338483" lon="11.4600833"><ele>120.0</ele><time>2026-04-17T13:52:17.094Z</time></trkpt><trkpt lat="43.6337417" lon="11.4601967"><ele>120.0</ele><time>2026-04-17T13:52:18.093Z</time></trkpt><trkpt lat="43.63364" lon="11.4603067"><ele>120.0</ele><time>2026-04-17T13:52:19.093Z</time></trkpt><trkpt lat="43.6335267" lon="11.4604167"><ele>120.0</ele><time>2026-04-17T13:52:20.093Z</time></trkpt><trkpt lat="43.63341" lon="11.4605183"><ele>120.0</ele><time>2026-04-17T13:52:21.093Z</time></trkpt><trkpt lat="43.6332917" lon="11.46062"><ele>120.25</ele><time>2026-04-17T13:52:22.093Z</time></trkpt><trkpt lat="43.63318" lon="11.4607233"><ele>120.5</ele><time>2026-04-17T13:52:23.094Z</time></trkpt><trkpt lat="43.633065" lon="11.460825"><ele>120.75</ele><time>2026-04-17T13:52:24.093Z</time></trkpt><trkpt lat="43.6329517" lon="11.4609233"><ele>121.0</ele><time>2026-04-17T13:52:25.094Z</time></trkpt><trkpt lat="43.6328383" lon="11.4610233"><ele>121.0</ele><time>2026-04-17T13:52:26.093Z</time></trkpt><trkpt lat="43.6327233" lon="11.461125"><ele>121.0</ele><time>2026-04-17T13:52:27.093Z</time></trkpt><trkpt lat="43.6326083" lon="11.46123"><ele>121.0</ele><time>2026-04-17T13:52:28.093Z</time></trkpt><trkpt lat="43.632495" lon="11.4613317"><ele>121.0</ele><time>2026-04-17T13:52:29.093Z</time></trkpt><trkpt lat="43.63238" lon="11.4614317"><ele>121.0</ele><time>2026-04-17T13:52:30.094Z</time></trkpt><trkpt lat="43.6322683" lon="11.4615367"><ele>121.0</ele><time>2026-04-17T13:52:31.094Z</time></trkpt><trkpt lat="43.6321583" lon="11.4616417"><ele>121.0</ele><time>2026-04-17T13:52:32.094Z</time></trkpt><trkpt lat="43.6320433" lon="11.4617483"><ele>121.0</ele><time>2026-04-17T13:52:33.093Z</time></trkpt><trkpt lat="43.6319267" lon="11.4618517"><ele>121.0</ele><time>2026-04-17T13:52:34.094Z</time></trkpt><trkpt lat="43.6318033" lon="11.4619583"><ele>121.0</ele><time>2026-04-17T13:52:35.093Z</time></trkpt><trkpt lat="43.6316817" lon="11.46206"><ele>121.0</ele><time>2026-04-17T13:52:36.094Z</time></trkpt><trkpt lat="43.6315683" lon="11.4621733"><ele>121.0</ele><time>2026-04-17T13:52:37.094Z</time></trkpt><trkpt lat="43.6314583" lon="11.462275"><ele>121.0</ele><time>2026-04-17T13:52:38.093Z</time></trkpt><trkpt lat="43.6313483" lon="11.4623717"><ele>121.0</ele><time>2026-04-17T13:52:39.094Z</time></trkpt><trkpt lat="43.6312483" lon="11.4624733"><ele>121.0</ele><time>2026-04-17T13:52:40.094Z</time></trkpt><trkpt lat="43.631145" lon="11.462575"><ele>121.0</ele><time>2026-04-17T13:52:41.093Z</time></trkpt><trkpt lat="43.63104" lon="11.4626767"><ele>121.0</ele><time>2026-04-17T13:52:42.093Z</time></trkpt><trkpt lat="43.6309333" lon="11.4627717"><ele>121.0</ele><time>2026-04-17T13:52:43.094Z</time></trkpt><trkpt lat="43.6308267" lon="11.46287"><ele>121.0</ele><time>2026-04-17T13:52:44.093Z</time></trkpt><trkpt lat="43.6307167" lon="11.4629667"><ele>121.0</ele><time>2026-04-17T13:52:45.093Z</time></trkpt><trkpt lat="43.63061" lon="11.4630633"><ele>121.0</ele><time>2026-04-17T13:52:46.093Z</time></trkpt><trkpt lat="43.6305067" lon="11.4631567"><ele>121.0</ele><time>2026-04-17T13:52:47.094Z</time></trkpt><trkpt lat="43.6304083" lon="11.46325"><ele>121.0</ele><time>2026-04-17T13:52:48.093Z</time></trkpt><trkpt lat="43.6303117" lon="11.463335"><ele>121.0</ele><time>2026-04-17T13:52:49.094Z</time></trkpt><trkpt lat="43.6302133" lon="11.46343"><ele>121.0</ele><time>2026-04-17T13:52:50.094Z</time></trkpt><trkpt lat="43.63012" lon="11.4635183"><ele>121.0</ele><time>2026-04-17T13:52:51.093Z</time></trkpt><trkpt lat="43.63003" lon="11.4636083"><ele>121.0</ele><time>2026-04-17T13:52:52.093Z</time></trkpt><trkpt lat="43.629945" lon="11.46369"><ele>121.0</ele><time>2026-04-17T13:52:53.094Z</time></trkpt><trkpt lat="43.6298633" lon="11.46377"><ele>121.0</ele><time>2026-04-17T13:52:54.093Z</time></trkpt><trkpt lat="43.6297917" lon="11.4638417"><ele>121.0</ele><time>2026-04-17T13:52:55.093Z</time></trkpt><trkpt lat="43.6297033" lon="11.4639167"><ele>121.0</ele><time>2026-04-17T13:52:57.093Z</time></trkpt><trkpt lat="43.629635" lon="11.4639667"><ele>121.0</ele><time>2026-04-17T13:52:59.094Z</time></trkpt><trkpt lat="43.6295683" lon="11.4640017"><ele>121.0</ele><time>2026-04-17T13:53:01.094Z</time></trkpt><trkpt lat="43.62948" lon="11.4640083"><ele>121.0</ele><time>2026-04-17T13:53:03.094Z</time></trkpt><trkpt lat="43.6293617" lon="11.46401"><ele>121.19999999999999</ele><time>2026-04-17T13:53:05.093Z</time></trkpt><trkpt lat="43.6292483" lon="11.4639883"><ele>121.39999999999999</ele><time>2026-04-17T13:53:07.093Z</time></trkpt><trkpt lat="43.6291633" lon="11.463875"><ele>121.6</ele><time>2026-04-17T13:53:09.093Z</time></trkpt><trkpt lat="43.6291283" lon="11.4637983"><ele>121.8</ele><time>2026-04-17T13:53:10.094Z</time></trkpt><trkpt lat="43.629085" lon="11.463715"><ele>122.0</ele><time>2026-04-17T13:53:11.093Z</time></trkpt><trkpt lat="43.6290433" lon="11.463625"><ele>122.6</ele><time>2026-04-17T13:53:12.093Z</time></trkpt><trkpt lat="43.6289967" lon="11.4635283"><ele>123.19999999999999</ele><time>2026-04-17T13:53:13.093Z</time></trkpt><trkpt lat="43.6289417" lon="11.4634283"><ele>123.8</ele><time>2026-04-17T13:53:14.093Z</time></trkpt><trkpt lat="43.628885" lon="11.46332"><ele>124.4</ele><time>2026-04-17T13:53:15.093Z</time></trkpt><trkpt lat="43.6288267" lon="11.46321"><ele>125.0</ele><time>2026-04-17T13:53:16.093Z</time></trkpt><trkpt lat="43.62877" lon="11.46309"><ele>125.0</ele><time>2026-04-17T13:53:17.094Z</time></trkpt><trkpt lat="43.62871" lon="11.4629733"><ele>125.0</ele><time>2026-04-17T13:53:18.093Z</time></trkpt><trkpt lat="43.62865" lon="11.4628533"><ele>125.0</ele><time>2026-04-17T13:53:19.093Z</time></trkpt><trkpt lat="43.6285883" lon="11.4627333"><ele>125.0</ele><time>2026-04-17T13:53:20.093Z</time></trkpt><trkpt lat="43.6285283" lon="11.46261"><ele>125.0</ele><time>2026-04-17T13:53:21.093Z</time></trkpt><trkpt lat="43.6284683" lon="11.4624883"><ele>124.6</ele><time>2026-04-17T13:53:22.094Z</time></trkpt><trkpt lat="43.6284083" lon="11.4623683"><ele>124.2</ele><time>2026-04-17T13:53:23.093Z</time></trkpt><trkpt lat="43.62835" lon="11.4622483"><ele>123.80000000000001</ele><time>2026-04-17T13:53:24.093Z</time></trkpt><trkpt lat="43.628295" lon="11.4621217"><ele>123.4</ele><time>2026-04-17T13:53:25.093Z</time></trkpt><trkpt lat="43.62824" lon="11.4619967"><ele>123.0</ele><time>2026-04-17T13:53:26.094Z</time></trkpt><trkpt lat="43.6281817" lon="11.4618683"><ele>122.66666666666667</ele><time>2026-04-17T13:53:27.094Z</time></trkpt><trkpt lat="43.6281183" lon="11.4617467"><ele>122.33333333333334</ele><time>2026-04-17T13:53:28.094Z</time></trkpt><trkpt lat="43.6280633" lon="11.46164"><ele>122.0</ele><time>2026-04-17T13:53:29.093Z</time></trkpt><trkpt lat="43.6280133" lon="11.4615417"><ele>121.66666666666667</ele><time>2026-04-17T13:53:30.093Z</time></trkpt><trkpt lat="43.6279683" lon="11.4614467"><ele>121.33333333333334</ele><time>2026-04-17T13:53:31.093Z</time></trkpt><trkpt lat="43.6279283" lon="11.46136"><ele>121.0</ele><time>2026-04-17T13:53:32.093Z</time></trkpt><trkpt lat="43.6278917" lon="11.4612833"><ele>121.0</ele><time>2026-04-17T13:53:33.093Z</time></trkpt><trkpt lat="43.6278317" lon="11.4611517"><ele>121.0</ele><time>2026-04-17T13:53:35.093Z</time></trkpt><trkpt lat="43.6278067" lon="11.4610283"><ele>121.0</ele><time>2026-04-17T13:53:37.094Z</time></trkpt><trkpt lat="43.6277983" lon="11.4609017"><ele>121.0</ele><time>2026-04-17T13:53:39.094Z</time></trkpt><trkpt lat="43.6277567" lon="11.4607867"><ele>121.0</ele><time>2026-04-17T13:53:41.093Z</time></trkpt><trkpt lat="43.627655" lon="11.460735"><ele>121.0</ele><time>2026-04-17T13:53:43.093Z</time></trkpt><trkpt lat="43.62758" lon="11.4607817"><ele>121.0</ele><time>2026-04-17T13:53:44.093Z</time></trkpt><trkpt lat="43.6275067" lon="11.4608567"><ele>121.0</ele><time>2026-04-17T13:53:45.093Z</time></trkpt><trkpt lat="43.6274517" lon="11.460955"><ele>121.0</ele><time>2026-04-17T13:53:46.093Z</time></trkpt><trkpt lat="43.6273883" lon="11.4610467"><ele>121.0</ele><time>2026-04-17T13:53:47.093Z</time></trkpt><trkpt lat="43.6273117" lon="11.4611233"><ele>121.0</ele><time>2026-04-17T13:53:48.093Z</time></trkpt><trkpt lat="43.627235" lon="11.46121"><ele>121.0</ele><time>2026-04-17T13:53:49.093Z</time></trkpt><trkpt lat="43.62715" lon="11.4612917"><ele>121.0</ele><time>2026-04-17T13:53:50.093Z</time></trkpt><trkpt lat="43.6270783" lon="11.461375"><ele>121.0</ele><time>2026-04-17T13:53:51.093Z</time></trkpt><trkpt lat="43.6270133" lon="11.46145"><ele>121.0</ele><time>2026-04-17T13:53:52.093Z</time></trkpt><trkpt lat="43.6269567" lon="11.4615167"><ele>121.16666666666667</ele><time>2026-04-17T13:53:53.094Z</time></trkpt><trkpt lat="43.6268983" lon="11.46157"><ele>121.33333333333334</ele><time>2026-04-17T13:53:54.093Z</time></trkpt><trkpt lat="43.6267983" lon="11.46162"><ele>121.5</ele><time>2026-04-17T13:53:56.094Z</time></trkpt><trkpt lat="43.6267333" lon="11.46168"><ele>121.66666666666666</ele><time>2026-04-17T13:53:58.093Z</time></trkpt><trkpt lat="43.6266767" lon="11.4617517"><ele>121.83333333333333</ele><time>2026-04-17T13:54:01.094Z</time></trkpt><trkpt lat="43.6266183" lon="11.4617967"><ele>122.0</ele><time>2026-04-17T13:54:31.093Z</time></trkpt><trkpt lat="43.6265317" lon="11.4619367"><ele>121.99999999999999</ele><time>2026-04-17T13:57:38.093Z</time></trkpt><trkpt lat="43.626515" lon="11.4620283"><ele>122.0</ele><time>2026-04-17T13:59:33.091Z</time></trkpt><trkpt lat="43.6265417" lon="11.4621183"><ele>122.0</ele><time>2026-04-17T13:59:49.092Z</time></trkpt><trkpt lat="43.62646" lon="11.462245"><ele>122.0</ele><time>2026-04-17T13:59:51.091Z</time></trkpt><trkpt lat="43.6264" lon="11.4623133"><ele>121.99999999999999</ele><time>2026-04-17T13:59:52.092Z</time></trkpt><trkpt lat="43.6263367" lon="11.46239"><ele>122.0</ele><time>2026-04-17T13:59:53.092Z</time></trkpt><trkpt lat="43.626275" lon="11.462475"><ele>121.8</ele><time>2026-04-17T13:59:54.091Z</time></trkpt><trkpt lat="43.62622" lon="11.4625517"><ele>121.6</ele><time>2026-04-17T13:59:55.092Z</time></trkpt><trkpt lat="43.6261733" lon="11.46262"><ele>121.39999999999999</ele><time>2026-04-17T13:59:56.091Z</time></trkpt><trkpt lat="43.6260783" lon="11.462725"><ele>121.19999999999999</ele><time>2026-04-17T13:59:58.091Z</time></trkpt><trkpt lat="43.626005" lon="11.4628067"><ele>121.0</ele><time>2026-04-17T14:00:00.091Z</time></trkpt><trkpt lat="43.6259317" lon="11.462875"><ele>121.4</ele><time>2026-04-17T14:00:02.092Z</time></trkpt><trkpt lat="43.6258733" lon="11.4629133"><ele>121.8</ele><time>2026-04-17T14:00:04.092Z</time></trkpt><trkpt lat="43.6258117" lon="11.4629867"><ele>122.20000000000002</ele><time>2026-04-17T14:00:07.091Z</time></trkpt><trkpt lat="43.6257317" lon="11.4630233"><ele>122.60000000000001</ele><time>2026-04-17T14:00:09.091Z</time></trkpt><trkpt lat="43.6256433" lon="11.4630617"><ele>123.0</ele><time>2026-04-17T14:00:11.092Z</time></trkpt><trkpt lat="43.62551" lon="11.4631017"><ele>123.0</ele><time>2026-04-17T14:00:13.092Z</time></trkpt><trkpt lat="43.6254333" lon="11.4631183"><ele>123.0</ele><time>2026-04-17T14:00:14.091Z</time></trkpt><trkpt lat="43.625355" lon="11.4631383"><ele>123.0</ele><time>2026-04-17T14:00:15.092Z</time></trkpt><trkpt lat="43.6252783" lon="11.463155"><ele>123.0</ele><time>2026-04-17T14:00:16.092Z</time></trkpt><trkpt lat="43.6252033" lon="11.4631683"><ele>123.0</ele><time>2026-04-17T14:00:17.091Z</time></trkpt><trkpt lat="43.6251283" lon="11.46318"><ele>123.0</ele><time>2026-04-17T14:00:18.091Z</time></trkpt><trkpt lat="43.62505" lon="11.46318"><ele>123.4</ele><time>2026-04-17T14:00:19.092Z</time></trkpt><trkpt lat="43.6249633" lon="11.4631933"><ele>123.80000000000001</ele><time>2026-04-17T14:00:20.091Z</time></trkpt><trkpt lat="43.62486" lon="11.4632117"><ele>124.2</ele><time>2026-04-17T14:00:21.091Z</time></trkpt><trkpt lat="43.624755" lon="11.46324"><ele>124.6</ele><time>2026-04-17T14:00:22.092Z</time></trkpt><trkpt lat="43.624645" lon="11.46327"><ele>125.0</ele><time>2026-04-17T14:00:23.091Z</time></trkpt><trkpt lat="43.6245383" lon="11.4632867"><ele>125.2</ele><time>2026-04-17T14:00:24.091Z</time></trkpt><trkpt lat="43.6244317" lon="11.463315"><ele>125.4</ele><time>2026-04-17T14:00:25.091Z</time></trkpt><trkpt lat="43.6243233" lon="11.4633367"><ele>125.6</ele><time>2026-04-17T14:00:26.091Z</time></trkpt><trkpt lat="43.6242167" lon="11.4633533"><ele>125.8</ele><time>2026-04-17T14:00:27.092Z</time></trkpt><trkpt lat="43.6241117" lon="11.4633733"><ele>126.0</ele><time>2026-04-17T14:00:28.091Z</time></trkpt><trkpt lat="43.6240067" lon="11.4633917"><ele>126.0</ele><time>2026-04-17T14:00:29.091Z</time></trkpt><trkpt lat="43.6239033" lon="11.4634033"><ele>126.0</ele><time>2026-04-17T14:00:30.091Z</time></trkpt><trkpt lat="43.6238083" lon="11.46341"><ele>126.0</ele><time>2026-04-17T14:00:31.091Z</time></trkpt><trkpt lat="43.623715" lon="11.4634083"><ele>126.0</ele><time>2026-04-17T14:00:32.091Z</time></trkpt><trkpt lat="43.62362" lon="11.4633817"><ele>126.0</ele><time>2026-04-17T14:00:33.091Z</time></trkpt><trkpt lat="43.6235367" lon="11.463315"><ele>126.0</ele><time>2026-04-17T14:00:34.091Z</time></trkpt><trkpt lat="43.62345" lon="11.4632067"><ele>126.0</ele><time>2026-04-17T14:00:35.092Z</time></trkpt><trkpt lat="43.623375" lon="11.46309"><ele>126.0</ele><time>2026-04-17T14:00:36.092Z</time></trkpt><trkpt lat="43.623305" lon="11.4629683"><ele>126.0</ele><time>2026-04-17T14:00:37.091Z</time></trkpt><trkpt lat="43.6232383" lon="11.4628417"><ele>126.25</ele><time>2026-04-17T14:00:38.091Z</time></trkpt><trkpt lat="43.6231733" lon="11.46271"><ele>126.5</ele><time>2026-04-17T14:00:39.092Z</time></trkpt><trkpt lat="43.6231067" lon="11.46257"><ele>126.75</ele><time>2026-04-17T14:00:40.092Z</time></trkpt><trkpt lat="43.6230433" lon="11.4624233"><ele>127.0</ele><time>2026-04-17T14:00:41.092Z</time></trkpt><trkpt lat="43.622975" lon="11.462275"><ele>127.0</ele><time>2026-04-17T14:00:42.09Z</time></trkpt><trkpt lat="43.6229033" lon="11.4621167"><ele>127.0</ele><time>2026-04-17T14:00:43.09Z</time></trkpt><trkpt lat="43.6228333" lon="11.461955"><ele>127.0</ele><time>2026-04-17T14:00:44.09Z</time></trkpt><trkpt lat="43.6227683" lon="11.4618"><ele>127.0</ele><time>2026-04-17T14:00:45.091Z</time></trkpt><trkpt lat="43.622705" lon="11.461645"><ele>126.75</ele><time>2026-04-17T14:00:46.09Z</time></trkpt><trkpt lat="43.6226417" lon="11.4614883"><ele>126.5</ele><time>2026-04-17T14:00:47.091Z</time></trkpt><trkpt lat="43.6225733" lon="11.4613317"><ele>126.25</ele><time>2026-04-17T14:00:48.091Z</time></trkpt><trkpt lat="43.62251" lon="11.4611683"><ele>126.0</ele><time>2026-04-17T14:00:49.091Z</time></trkpt><trkpt lat="43.62245" lon="11.461005"><ele>126.25</ele><time>2026-04-17T14:00:50.09Z</time></trkpt><trkpt lat="43.622395" lon="11.4608317"><ele>126.5</ele><time>2026-04-17T14:00:51.09Z</time></trkpt><trkpt lat="43.6223533" lon="11.4606483"><ele>126.75</ele><time>2026-04-17T14:00:52.09Z</time></trkpt><trkpt lat="43.6223333" lon="11.4604567"><ele>127.0</ele><time>2026-04-17T14:00:53.09Z</time></trkpt><trkpt lat="43.6223267" lon="11.4602683"><ele>127.0</ele><time>2026-04-17T14:00:54.091Z</time></trkpt><trkpt lat="43.6223083" lon="11.4600833"><ele>127.0</ele><time>2026-04-17T14:00:55.09Z</time></trkpt><trkpt lat="43.6222683" lon="11.459895"><ele>127.0</ele><time>2026-04-17T14:00:56.09Z</time></trkpt><trkpt lat="43.6222117" lon="11.45972"><ele>127.0</ele><time>2026-04-17T14:00:57.091Z</time></trkpt><trkpt lat="43.62216" lon="11.4595533"><ele>127.19999999999999</ele><time>2026-04-17T14:00:58.09Z</time></trkpt><trkpt lat="43.6221267" lon="11.4594083"><ele>127.39999999999999</ele><time>2026-04-17T14:00:59.09Z</time></trkpt><trkpt lat="43.6221" lon="11.4592717"><ele>127.60000000000001</ele><time>2026-04-17T14:01:00.09Z</time></trkpt><trkpt lat="43.6220867" lon="11.4591533"><ele>127.80000000000001</ele><time>2026-04-17T14:01:01.091Z</time></trkpt><trkpt lat="43.6220917" lon="11.459045"><ele>128.0</ele><time>2026-04-17T14:01:02.09Z</time></trkpt><trkpt lat="43.62212" lon="11.4589483"><ele>127.99999999999999</ele><time>2026-04-17T14:01:03.09Z</time></trkpt><trkpt lat="43.622175" lon="11.4588567"><ele>128.0</ele><time>2026-04-17T14:01:04.09Z</time></trkpt><trkpt lat="43.6222317" lon="11.4587683"><ele>128.0</ele><time>2026-04-17T14:01:05.091Z</time></trkpt><trkpt lat="43.6222717" lon="11.4586667"><ele>128.0</ele><time>2026-04-17T14:01:06.09Z</time></trkpt><trkpt lat="43.62228" lon="11.45856"><ele>127.99999999999999</ele><time>2026-04-17T14:01:07.09Z</time></trkpt><trkpt lat="43.6222583" lon="11.458465"><ele>128.0</ele><time>2026-04-17T14:01:08.09Z</time></trkpt><trkpt lat="43.6222133" lon="11.4583883"><ele>128.20000000000002</ele><time>2026-04-17T14:01:09.09Z</time></trkpt><trkpt lat="43.6221317" lon="11.45836"><ele>128.4</ele><time>2026-04-17T14:01:10.091Z</time></trkpt><trkpt lat="43.62204" lon="11.4583767"><ele>128.60000000000002</ele><time>2026-04-17T14:01:11.09Z</time></trkpt><trkpt lat="43.6219583" lon="11.4584367"><ele>128.8</ele><time>2026-04-17T14:01:12.09Z</time></trkpt><trkpt lat="43.6218783" lon="11.4585067"><ele>129.0</ele><time>2026-04-17T14:01:13.09Z</time></trkpt><trkpt lat="43.6217883" lon="11.45854"><ele>129.5</ele><time>2026-04-17T14:01:14.09Z</time></trkpt><trkpt lat="43.6216833" lon="11.4585233"><ele>130.0</ele><time>2026-04-17T14:01:15.09Z</time></trkpt><trkpt lat="43.6215717" lon="11.45846"><ele>130.5</ele><time>2026-04-17T14:01:16.09Z</time></trkpt><trkpt lat="43.6214517" lon="11.4583667"><ele>131.0</ele><time>2026-04-17T14:01:17.09Z</time></trkpt><trkpt lat="43.6213267" lon="11.4582667"><ele>131.0</ele><time>2026-04-17T14:01:18.091Z</time></trkpt><trkpt lat="43.6211967" lon="11.4581767"><ele>131.0</ele><time>2026-04-17T14:01:19.09Z</time></trkpt><trkpt lat="43.621055" lon="11.4580967"><ele>131.0</ele><time>2026-04-17T14:01:20.09Z</time></trkpt><trkpt lat="43.620915" lon="11.4580333"><ele>131.0</ele><time>2026-04-17T14:01:21.091Z</time></trkpt><trkpt lat="43.6207767" lon="11.45797"><ele>132.75</ele><time>2026-04-17T14:01:22.09Z</time></trkpt><trkpt lat="43.620645" lon="11.4578867"><ele>134.5</ele><time>2026-04-17T14:01:23.091Z</time></trkpt><trkpt lat="43.62052" lon="11.457775"><ele>136.25</ele><time>2026-04-17T14:01:24.09Z</time></trkpt><trkpt lat="43.6203933" lon="11.4576533"><ele>138.0</ele><time>2026-04-17T14:01:25.09Z</time></trkpt><trkpt lat="43.6202617" lon="11.4575217"><ele>138.33333333333334</ele><time>2026-04-17T14:01:26.09Z</time></trkpt><trkpt lat="43.6201367" lon="11.4573817"><ele>138.66666666666669</ele><time>2026-04-17T14:01:27.09Z</time></trkpt><trkpt lat="43.6200117" lon="11.45724"><ele>139.0</ele><time>2026-04-17T14:01:28.09Z</time></trkpt><trkpt lat="43.6198767" lon="11.4571083"><ele>141.66666666666669</ele><time>2026-04-17T14:01:29.09Z</time></trkpt><trkpt lat="43.6197433" lon="11.4569783"><ele>144.33333333333334</ele><time>2026-04-17T14:01:30.09Z</time></trkpt><trkpt lat="43.6195867" lon="11.4568633"><ele>147.0</ele><time>2026-04-17T14:01:31.09Z</time></trkpt><trkpt lat="43.6194433" lon="11.4567467"><ele>147.33333333333334</ele><time>2026-04-17T14:01:32.09Z</time></trkpt><trkpt lat="43.6193" lon="11.4566333"><ele>147.66666666666669</ele><time>2026-04-17T14:01:33.09Z</time></trkpt><trkpt lat="43.6191467" lon="11.456525"><ele>148.0</ele><time>2026-04-17T14:01:34.09Z</time></trkpt><trkpt lat="43.619" lon="11.45641"><ele>148.0</ele><time>2026-04-17T14:01:35.09Z</time></trkpt><trkpt lat="43.6188467" lon="11.456295"><ele>148.0</ele><time>2026-04-17T14:01:36.091Z</time></trkpt><trkpt lat="43.6186917" lon="11.4561867"><ele>148.0</ele><time>2026-04-17T14:01:37.09Z</time></trkpt><trkpt lat="43.6185433" lon="11.4560867"><ele>150.0</ele><time>2026-04-17T14:01:38.09Z</time></trkpt><trkpt lat="43.618385" lon="11.456005"><ele>152.0</ele><time>2026-04-17T14:01:39.09Z</time></trkpt><trkpt lat="43.6182317" lon="11.4559483"><ele>154.0</ele><time>2026-04-17T14:01:40.091Z</time></trkpt><trkpt lat="43.618085" lon="11.4558933"><ele>154.0</ele><time>2026-04-17T14:01:41.09Z</time></trkpt><trkpt lat="43.61796" lon="11.4557933"><ele>154.0</ele><time>2026-04-17T14:01:42.091Z</time></trkpt><trkpt lat="43.61787" lon="11.4556533"><ele>154.0</ele><time>2026-04-17T14:01:43.09Z</time></trkpt><trkpt lat="43.6178117" lon="11.4554817"><ele>154.0</ele><time>2026-04-17T14:01:44.09Z</time></trkpt><trkpt lat="43.6177867" lon="11.4552783"><ele>156.25</ele><time>2026-04-17T14:01:45.091Z</time></trkpt><trkpt lat="43.617785" lon="11.4550833"><ele>158.5</ele><time>2026-04-17T14:01:46.09Z</time></trkpt><trkpt lat="43.6177633" lon="11.4549167"><ele>160.75</ele><time>2026-04-17T14:01:47.09Z</time></trkpt><trkpt lat="43.6177067" lon="11.45479"><ele>163.0</ele><time>2026-04-17T14:01:48.09Z</time></trkpt><trkpt lat="43.617615" lon="11.4547217"><ele>163.0</ele><time>2026-04-17T14:01:49.09Z</time></trkpt><trkpt lat="43.6175033" lon="11.45472"><ele>163.0</ele><time>2026-04-17T14:01:50.091Z</time></trkpt><trkpt lat="43.6173983" lon="11.4547817"><ele>163.0</ele><time>2026-04-17T14:01:51.091Z</time></trkpt><trkpt lat="43.61729" lon="11.4548983"><ele>163.0</ele><time>2026-04-17T14:01:52.091Z</time></trkpt><trkpt lat="43.6171817" lon="11.4550267"><ele>163.0</ele><time>2026-04-17T14:01:53.09Z</time></trkpt><trkpt lat="43.61707" lon="11.4551383"><ele>163.0</ele><time>2026-04-17T14:01:54.09Z</time></trkpt><trkpt lat="43.6169617" lon="11.45523"><ele>163.0</ele><time>2026-04-17T14:01:55.091Z</time></trkpt><trkpt lat="43.6168583" lon="11.45528"><ele>163.0</ele><time>2026-04-17T14:01:56.091Z</time></trkpt><trkpt lat="43.6167533" lon="11.4552733"><ele>163.25</ele><time>2026-04-17T14:01:57.091Z</time></trkpt><trkpt lat="43.6166517" lon="11.455205"><ele>163.5</ele><time>2026-04-17T14:01:58.091Z</time></trkpt><trkpt lat="43.616575" lon="11.4550967"><ele>163.75</ele><time>2026-04-17T14:01:59.09Z</time></trkpt><trkpt lat="43.61653" lon="11.454945"><ele>164.0</ele><time>2026-04-17T14:02:00.091Z</time></trkpt><trkpt lat="43.6165267" lon="11.454755"><ele>166.25</ele><time>2026-04-17T14:02:01.09Z</time></trkpt><trkpt lat="43.6165667" lon="11.4545817"><ele>168.5</ele><time>2026-04-17T14:02:02.09Z</time></trkpt><trkpt lat="43.6166117" lon="11.45442"><ele>170.75</ele><time>2026-04-17T14:02:03.09Z</time></trkpt><trkpt lat="43.6166467" lon="11.454235"><ele>173.0</ele><time>2026-04-17T14:02:04.091Z</time></trkpt><trkpt lat="43.6166533" lon="11.45404"><ele>173.0</ele><time>2026-04-17T14:02:05.091Z</time></trkpt><trkpt lat="43.61662" lon="11.4538483"><ele>173.0</ele><time>2026-04-17T14:02:06.09Z</time></trkpt><trkpt lat="43.6165883" lon="11.453675"><ele>173.0</ele><time>2026-04-17T14:02:07.091Z</time></trkpt><trkpt lat="43.6165683" lon="11.4535017"><ele>173.0</ele><time>2026-04-17T14:02:08.09Z</time></trkpt><trkpt lat="43.6165733" lon="11.453335"><ele>173.0</ele><time>2026-04-17T14:02:09.091Z</time></trkpt><trkpt lat="43.6166117" lon="11.4532"><ele>173.0</ele><time>2026-04-17T14:02:10.091Z</time></trkpt><trkpt lat="43.616675" lon="11.4530817"><ele>173.0</ele><time>2026-04-17T14:02:11.09Z</time></trkpt><trkpt lat="43.6167567" lon="11.4529683"><ele>173.0</ele><time>2026-04-17T14:02:12.09Z</time></trkpt><trkpt lat="43.61686" lon="11.4528517"><ele>173.0</ele><time>2026-04-17T14:02:13.091Z</time></trkpt><trkpt lat="43.61698" lon="11.452745"><ele>173.0</ele><time>2026-04-17T14:02:14.091Z</time></trkpt><trkpt lat="43.6171017" lon="11.4526467"><ele>173.0</ele><time>2026-04-17T14:02:15.091Z</time></trkpt><trkpt lat="43.6172033" lon="11.4525517"><ele>173.0</ele><time>2026-04-17T14:02:16.09Z</time></trkpt><trkpt lat="43.6173083" lon="11.452475"><ele>176.8</ele><time>2026-04-17T14:02:17.091Z</time></trkpt><trkpt lat="43.6173983" lon="11.4523833"><ele>180.60000000000002</ele><time>2026-04-17T14:02:18.09Z</time></trkpt><trkpt lat="43.617465" lon="11.4522817"><ele>184.39999999999998</ele><time>2026-04-17T14:02:19.09Z</time></trkpt><trkpt lat="43.6175083" lon="11.4521733"><ele>188.2</ele><time>2026-04-17T14:02:20.091Z</time></trkpt><trkpt lat="43.6175" lon="11.45206"><ele>192.0</ele><time>2026-04-17T14:02:21.09Z</time></trkpt><trkpt lat="43.6174533" lon="11.45194"><ele>192.0</ele><time>2026-04-17T14:02:22.091Z</time></trkpt><trkpt lat="43.6173817" lon="11.4518283"><ele>192.0</ele><time>2026-04-17T14:02:23.09Z</time></trkpt><trkpt lat="43.6172733" lon="11.4517133"><ele>192.0</ele><time>2026-04-17T14:02:24.09Z</time></trkpt><trkpt lat="43.6172" lon="11.4515933"><ele>192.0</ele><time>2026-04-17T14:02:25.091Z</time></trkpt><trkpt lat="43.6171583" lon="11.45143"><ele>194.5</ele><time>2026-04-17T14:02:26.09Z</time></trkpt><trkpt lat="43.6171383" lon="11.4512567"><ele>197.0</ele><time>2026-04-17T14:02:27.09Z</time></trkpt><trkpt lat="43.6171433" lon="11.4510767"><ele>199.5</ele><time>2026-04-17T14:02:28.09Z</time></trkpt><trkpt lat="43.6171483" lon="11.4508917"><ele>202.0</ele><time>2026-04-17T14:02:29.09Z</time></trkpt><trkpt lat="43.61713" lon="11.45073"><ele>202.0</ele><time>2026-04-17T14:02:30.09Z</time></trkpt><trkpt lat="43.6170833" lon="11.4505833"><ele>202.0</ele><time>2026-04-17T14:02:31.091Z</time></trkpt><trkpt lat="43.6170067" lon="11.450465"><ele>202.0</ele><time>2026-04-17T14:02:32.09Z</time></trkpt><trkpt lat="43.6169083" lon="11.4503833"><ele>202.0</ele><time>2026-04-17T14:02:33.091Z</time></trkpt><trkpt lat="43.6167933" lon="11.450335"><ele>200.75</ele><time>2026-04-17T14:02:34.09Z</time></trkpt><trkpt lat="43.6166717" lon="11.4502967"><ele>199.5</ele><time>2026-04-17T14:02:35.091Z</time></trkpt><trkpt lat="43.6165617" lon="11.4502383"><ele>198.25</ele><time>2026-04-17T14:02:36.09Z</time></trkpt><trkpt lat="43.6164717" lon="11.4501483"><ele>197.0</ele><time>2026-04-17T14:02:37.091Z</time></trkpt><trkpt lat="43.6164167" lon="11.4500333"><ele>197.0</ele><time>2026-04-17T14:02:38.091Z</time></trkpt><trkpt lat="43.6163983" lon="11.4498983"><ele>197.0</ele><time>2026-04-17T14:02:39.09Z</time></trkpt><trkpt lat="43.61641" lon="11.449755"><ele>197.0</ele><time>2026-04-17T14:02:40.09Z</time></trkpt><trkpt lat="43.6164583" lon="11.4496233"><ele>197.0</ele><time>2026-04-17T14:02:41.09Z</time></trkpt><trkpt lat="43.6165467" lon="11.449505"><ele>197.0</ele><time>2026-04-17T14:02:42.091Z</time></trkpt><trkpt lat="43.6166283" lon="11.4493917"><ele>199.25</ele><time>2026-04-17T14:02:43.09Z</time></trkpt><trkpt lat="43.61669" lon="11.4492583"><ele>201.5</ele><time>2026-04-17T14:02:44.09Z</time></trkpt><trkpt lat="43.61673" lon="11.4491133"><ele>203.75</ele><time>2026-04-17T14:02:45.091Z</time></trkpt><trkpt lat="43.616725" lon="11.4489583"><ele>206.0</ele><time>2026-04-17T14:02:46.09Z</time></trkpt><trkpt lat="43.6166867" lon="11.4488"><ele>209.0</ele><time>2026-04-17T14:02:47.091Z</time></trkpt><trkpt lat="43.6166067" lon="11.4486467"><ele>212.0</ele><time>2026-04-17T14:02:48.091Z</time></trkpt><trkpt lat="43.6165117" lon="11.4485067"><ele>215.0</ele><time>2026-04-17T14:02:49.09Z</time></trkpt><trkpt lat="43.6164083" lon="11.44838"><ele>218.0</ele><time>2026-04-17T14:02:50.09Z</time></trkpt><trkpt lat="43.616295" lon="11.4482633"><ele>218.0</ele><time>2026-04-17T14:02:51.09Z</time></trkpt><trkpt lat="43.6161867" lon="11.4481517"><ele>218.0</ele><time>2026-04-17T14:02:52.091Z</time></trkpt><trkpt lat="43.61608" lon="11.4480283"><ele>218.0</ele><time>2026-04-17T14:02:53.09Z</time></trkpt><trkpt lat="43.6159783" lon="11.4478933"><ele>218.0</ele><time>2026-04-17T14:02:54.091Z</time></trkpt><trkpt lat="43.61589" lon="11.4477483"><ele>216.0</ele><time>2026-04-17T14:02:55.09Z</time></trkpt><trkpt lat="43.6158183" lon="11.4476"><ele>214.0</ele><time>2026-04-17T14:02:56.09Z</time></trkpt><trkpt lat="43.61574" lon="11.44745"><ele>212.0</ele><time>2026-04-17T14:02:57.091Z</time></trkpt><trkpt lat="43.615655" lon="11.447315"><ele>210.0</ele><time>2026-04-17T14:02:58.09Z</time></trkpt><trkpt lat="43.6155433" lon="11.4471967"><ele>211.0</ele><time>2026-04-17T14:02:59.09Z</time></trkpt><trkpt lat="43.6154333" lon="11.44708"><ele>212.0</ele><time>2026-04-17T14:03:00.09Z</time></trkpt><trkpt lat="43.6153367" lon="11.4469633"><ele>213.0</ele><time>2026-04-17T14:03:01.09Z</time></trkpt><trkpt lat="43.6152667" lon="11.4468267"><ele>214.0</ele><time>2026-04-17T14:03:02.09Z</time></trkpt><trkpt lat="43.6152" lon="11.446685"><ele>214.0</ele><time>2026-04-17T14:03:03.09Z</time></trkpt><trkpt lat="43.6151517" lon="11.4465517"><ele>213.99999999999997</ele><time>2026-04-17T14:03:04.09Z</time></trkpt><trkpt lat="43.6150983" lon="11.446425"><ele>213.99999999999997</ele><time>2026-04-17T14:03:05.091Z</time></trkpt><trkpt lat="43.6150117" lon="11.446325"><ele>214.0</ele><time>2026-04-17T14:03:06.091Z</time></trkpt><trkpt lat="43.6149083" lon="11.4462617"><ele>214.0</ele><time>2026-04-17T14:03:07.09Z</time></trkpt><trkpt lat="43.614785" lon="11.4462467"><ele>214.0</ele><time>2026-04-17T14:03:08.09Z</time></trkpt><trkpt lat="43.61465" lon="11.44628"><ele>214.0</ele><time>2026-04-17T14:03:09.091Z</time></trkpt><trkpt lat="43.6145217" lon="11.4463117"><ele>214.0</ele><time>2026-04-17T14:03:10.09Z</time></trkpt><trkpt lat="43.6143917" lon="11.446345"><ele>214.0</ele><time>2026-04-17T14:03:11.09Z</time></trkpt><trkpt lat="43.6142783" lon="11.446355"><ele>213.0</ele><time>2026-04-17T14:03:12.09Z</time></trkpt><trkpt lat="43.6141617" lon="11.4463233"><ele>212.0</ele><time>2026-04-17T14:03:13.09Z</time></trkpt><trkpt lat="43.6140533" lon="11.4462517"><ele>211.0</ele><time>2026-04-17T14:03:14.09Z</time></trkpt><trkpt lat="43.6139433" lon="11.446175"><ele>210.0</ele><time>2026-04-17T14:03:15.091Z</time></trkpt><trkpt lat="43.613835" lon="11.4461017"><ele>213.6</ele><time>2026-04-17T14:03:16.09Z</time></trkpt><trkpt lat="43.6137367" lon="11.44604"><ele>217.2</ele><time>2026-04-17T14:03:17.091Z</time></trkpt><trkpt lat="43.613645" lon="11.4460017"><ele>220.8</ele><time>2026-04-17T14:03:18.091Z</time></trkpt><trkpt lat="43.6135567" lon="11.4459583"><ele>224.4</ele><time>2026-04-17T14:03:19.09Z</time></trkpt><trkpt lat="43.6134683" lon="11.4458883"><ele>228.0</ele><time>2026-04-17T14:03:20.09Z</time></trkpt><trkpt lat="43.6133717" lon="11.4457883"><ele>228.0</ele><time>2026-04-17T14:03:21.091Z</time></trkpt><trkpt lat="43.6132583" lon="11.4456833"><ele>228.0</ele><time>2026-04-17T14:03:22.09Z</time></trkpt><trkpt lat="43.6131417" lon="11.4455717"><ele>228.0</ele><time>2026-04-17T14:03:23.091Z</time></trkpt><trkpt lat="43.6130233" lon="11.445475"><ele>228.0</ele><time>2026-04-17T14:03:24.091Z</time></trkpt><trkpt lat="43.6128917" lon="11.4454083"><ele>228.75</ele><time>2026-04-17T14:03:25.09Z</time></trkpt><trkpt lat="43.612755" lon="11.4453467"><ele>229.5</ele><time>2026-04-17T14:03:26.091Z</time></trkpt><trkpt lat="43.6126267" lon="11.4452767"><ele>230.25</ele><time>2026-04-17T14:03:27.09Z</time></trkpt><trkpt lat="43.6125033" lon="11.445185"><ele>231.0</ele><time>2026-04-17T14:03:28.091Z</time></trkpt><trkpt lat="43.6123867" lon="11.4450567"><ele>231.0</ele><time>2026-04-17T14:03:29.09Z</time></trkpt><trkpt lat="43.6122617" lon="11.44493"><ele>231.0</ele><time>2026-04-17T14:03:30.091Z</time></trkpt><trkpt lat="43.6121367" lon="11.4447967"><ele>231.0</ele><time>2026-04-17T14:03:31.09Z</time></trkpt><trkpt lat="43.6120217" lon="11.4446617"><ele>232.25</ele><time>2026-04-17T14:03:32.089Z</time></trkpt><trkpt lat="43.611915" lon="11.4445317"><ele>233.5</ele><time>2026-04-17T14:03:33.089Z</time></trkpt><trkpt lat="43.6118283" lon="11.4444083"><ele>234.75</ele><time>2026-04-17T14:03:34.089Z</time></trkpt><trkpt lat="43.6117583" lon="11.444255"><ele>236.0</ele><time>2026-04-17T14:03:35.089Z</time></trkpt><trkpt lat="43.611715" lon="11.4440733"><ele>236.0</ele><time>2026-04-17T14:03:36.089Z</time></trkpt><trkpt lat="43.6116917" lon="11.4438717"><ele>236.0</ele><time>2026-04-17T14:03:37.09Z</time></trkpt><trkpt lat="43.611685" lon="11.4436667"><ele>236.0</ele><time>2026-04-17T14:03:38.09Z</time></trkpt><trkpt lat="43.6116783" lon="11.44345"><ele>237.66666666666669</ele><time>2026-04-17T14:03:39.089Z</time></trkpt><trkpt lat="43.6116533" lon="11.4432333"><ele>239.33333333333331</ele><time>2026-04-17T14:03:40.09Z</time></trkpt><trkpt lat="43.6116117" lon="11.443025"><ele>241.0</ele><time>2026-04-17T14:03:41.09Z</time></trkpt><trkpt lat="43.6115433" lon="11.4428317"><ele>242.66666666666666</ele><time>2026-04-17T14:03:42.09Z</time></trkpt><trkpt lat="43.6114633" lon="11.4426417"><ele>244.33333333333331</ele><time>2026-04-17T14:03:43.09Z</time></trkpt><trkpt lat="43.6113867" lon="11.4424517"><ele>246.0</ele><time>2026-04-17T14:03:44.089Z</time></trkpt><trkpt lat="43.611315" lon="11.44227"><ele>246.66666666666669</ele><time>2026-04-17T14:03:45.09Z</time></trkpt><trkpt lat="43.611255" lon="11.4420817"><ele>247.33333333333334</ele><time>2026-04-17T14:03:46.09Z</time></trkpt><trkpt lat="43.6112017" lon="11.4418867"><ele>248.0</ele><time>2026-04-17T14:03:47.09Z</time></trkpt><trkpt lat="43.6111533" lon="11.4416717"><ele>248.0</ele><time>2026-04-17T14:03:48.089Z</time></trkpt><trkpt lat="43.6111183" lon="11.4414567"><ele>248.0</ele><time>2026-04-17T14:03:49.089Z</time></trkpt><trkpt lat="43.6110867" lon="11.441235"><ele>248.0</ele><time>2026-04-17T14:03:50.089Z</time></trkpt><trkpt lat="43.6110633" lon="11.4410083"><ele>249.0</ele><time>2026-04-17T14:03:51.09Z</time></trkpt><trkpt lat="43.611035" lon="11.44079"><ele>250.0</ele><time>2026-04-17T14:03:52.089Z</time></trkpt><trkpt lat="43.61101" lon="11.4405733"><ele>251.0</ele><time>2026-04-17T14:03:53.09Z</time></trkpt><trkpt lat="43.610985" lon="11.4403533"><ele>251.33333333333334</ele><time>2026-04-17T14:03:54.089Z</time></trkpt><trkpt lat="43.6109417" lon="11.4401417"><ele>251.66666666666669</ele><time>2026-04-17T14:03:55.089Z</time></trkpt><trkpt lat="43.61087" lon="11.439945"><ele>252.0</ele><time>2026-04-17T14:03:56.09Z</time></trkpt><trkpt lat="43.61077" lon="11.4397683"><ele>252.33333333333331</ele><time>2026-04-17T14:03:57.089Z</time></trkpt><trkpt lat="43.6106533" lon="11.439625"><ele>252.66666666666666</ele><time>2026-04-17T14:03:58.089Z</time></trkpt><trkpt lat="43.6105083" lon="11.4395167"><ele>253.0</ele><time>2026-04-17T14:03:59.09Z</time></trkpt><trkpt lat="43.6103467" lon="11.4394283"><ele>252.33333333333331</ele><time>2026-04-17T14:04:00.089Z</time></trkpt><trkpt lat="43.6101867" lon="11.439335"><ele>251.66666666666669</ele><time>2026-04-17T14:04:01.089Z</time></trkpt><trkpt lat="43.610025" lon="11.4392433"><ele>251.0</ele><time>2026-04-17T14:04:02.089Z</time></trkpt><trkpt lat="43.609875" lon="11.4391217"><ele>251.0</ele><time>2026-04-17T14:04:03.089Z</time></trkpt><trkpt lat="43.60973" lon="11.4389933"><ele>251.0</ele><time>2026-04-17T14:04:04.089Z</time></trkpt><trkpt lat="43.6095967" lon="11.4388333"><ele>251.0</ele><time>2026-04-17T14:04:05.089Z</time></trkpt><trkpt lat="43.60948" lon="11.4386617"><ele>252.0</ele><time>2026-04-17T14:04:06.09Z</time></trkpt><trkpt lat="43.609365" lon="11.4384833"><ele>253.0</ele><time>2026-04-17T14:04:07.089Z</time></trkpt><trkpt lat="43.6092533" lon="11.4383017"><ele>254.0</ele><time>2026-04-17T14:04:08.089Z</time></trkpt><trkpt lat="43.6091333" lon="11.43812"><ele>254.66666666666669</ele><time>2026-04-17T14:04:09.09Z</time></trkpt><trkpt lat="43.609015" lon="11.437935"><ele>255.33333333333331</ele><time>2026-04-17T14:04:10.09Z</time></trkpt><trkpt lat="43.6088967" lon="11.4377467"><ele>256.0</ele><time>2026-04-17T14:04:11.089Z</time></trkpt><trkpt lat="43.6087767" lon="11.437565"><ele>257.0</ele><time>2026-04-17T14:04:12.09Z</time></trkpt><trkpt lat="43.6086433" lon="11.4374117"><ele>258.0</ele><time>2026-04-17T14:04:13.09Z</time></trkpt><trkpt lat="43.60849" lon="11.437285"><ele>259.0</ele><time>2026-04-17T14:04:14.089Z</time></trkpt><trkpt lat="43.6083233" lon="11.4371883"><ele>259.0</ele><time>2026-04-17T14:04:15.089Z</time></trkpt><trkpt lat="43.6081467" lon="11.4371083"><ele>259.0</ele><time>2026-04-17T14:04:16.09Z</time></trkpt><trkpt lat="43.6079867" lon="11.4370083"><ele>259.0</ele><time>2026-04-17T14:04:17.089Z</time></trkpt><trkpt lat="43.60784" lon="11.436895"><ele>261.0</ele><time>2026-04-17T14:04:18.09Z</time></trkpt><trkpt lat="43.6077033" lon="11.4367467"><ele>263.0</ele><time>2026-04-17T14:04:19.089Z</time></trkpt><trkpt lat="43.607585" lon="11.436585"><ele>265.0</ele><time>2026-04-17T14:04:20.089Z</time></trkpt><trkpt lat="43.6074883" lon="11.4364067"><ele>265.0</ele><time>2026-04-17T14:04:21.089Z</time></trkpt><trkpt lat="43.60739" lon="11.4362117"><ele>265.0</ele><time>2026-04-17T14:04:22.089Z</time></trkpt><trkpt lat="43.6072967" lon="11.436005"><ele>265.0</ele><time>2026-04-17T14:04:23.089Z</time></trkpt><trkpt lat="43.6071983" lon="11.4357983"><ele>265.0</ele><time>2026-04-17T14:04:24.089Z</time></trkpt><trkpt lat="43.607105" lon="11.4355917"><ele>265.0</ele><time>2026-04-17T14:04:25.089Z</time></trkpt><trkpt lat="43.607005" lon="11.43537"><ele>265.0</ele><time>2026-04-17T14:04:26.09Z</time></trkpt><trkpt lat="43.606905" lon="11.4351567"><ele>266.3333333333333</ele><time>2026-04-17T14:04:27.09Z</time></trkpt><trkpt lat="43.6068067" lon="11.4349433"><ele>267.6666666666667</ele><time>2026-04-17T14:04:28.09Z</time></trkpt><trkpt lat="43.6067033" lon="11.4347333"><ele>269.0</ele><time>2026-04-17T14:04:29.089Z</time></trkpt><trkpt lat="43.606605" lon="11.43453"><ele>269.0</ele><time>2026-04-17T14:04:30.089Z</time></trkpt><trkpt lat="43.60651" lon="11.434325"><ele>269.0</ele><time>2026-04-17T14:04:31.09Z</time></trkpt><trkpt lat="43.6064167" lon="11.4341183"><ele>269.0</ele><time>2026-04-17T14:04:32.089Z</time></trkpt><trkpt lat="43.60632" lon="11.4339133"><ele>269.0</ele><time>2026-04-17T14:04:33.089Z</time></trkpt><trkpt lat="43.60622" lon="11.4337133"><ele>269.0</ele><time>2026-04-17T14:04:34.089Z</time></trkpt><trkpt lat="43.6061283" lon="11.43351"><ele>269.0</ele><time>2026-04-17T14:04:35.089Z</time></trkpt><trkpt lat="43.60604" lon="11.4333217"><ele>269.0</ele><time>2026-04-17T14:04:36.09Z</time></trkpt><trkpt lat="43.6059517" lon="11.4331383"><ele>269.0</ele><time>2026-04-17T14:04:37.09Z</time></trkpt><trkpt lat="43.605865" lon="11.4329617"><ele>269.0</ele><time>2026-04-17T14:04:38.089Z</time></trkpt><trkpt lat="43.605785" lon="11.4328017"><ele>268.75</ele><time>2026-04-17T14:04:39.089Z</time></trkpt><trkpt lat="43.6057167" lon="11.4326383"><ele>268.5</ele><time>2026-04-17T14:04:40.089Z</time></trkpt><trkpt lat="43.605675" lon="11.43247"><ele>268.25</ele><time>2026-04-17T14:04:41.089Z</time></trkpt><trkpt lat="43.6056767" lon="11.4322967"><ele>268.0</ele><time>2026-04-17T14:04:42.09Z</time></trkpt><trkpt lat="43.6057333" lon="11.4321233"><ele>268.5</ele><time>2026-04-17T14:04:43.089Z</time></trkpt><trkpt lat="43.6058133" lon="11.4319733"><ele>269.0</ele><time>2026-04-17T14:04:44.089Z</time></trkpt><trkpt lat="43.605915" lon="11.4318167"><ele>269.5</ele><time>2026-04-17T14:04:45.089Z</time></trkpt><trkpt lat="43.60603" lon="11.43166"><ele>270.0</ele><time>2026-04-17T14:04:46.089Z</time></trkpt><trkpt lat="43.6061567" lon="11.4314933"><ele>269.6666666666667</ele><time>2026-04-17T14:04:47.089Z</time></trkpt><trkpt lat="43.6062817" lon="11.4313217"><ele>269.33333333333337</ele><time>2026-04-17T14:04:48.089Z</time></trkpt><trkpt lat="43.6064017" lon="11.431155"><ele>269.0</ele><time>2026-04-17T14:04:49.089Z</time></trkpt><trkpt lat="43.6065167" lon="11.43099"><ele>269.0</ele><time>2026-04-17T14:04:50.089Z</time></trkpt><trkpt lat="43.606635" lon="11.4308383"><ele>269.0</ele><time>2026-04-17T14:04:51.089Z</time></trkpt><trkpt lat="43.60674" lon="11.4306833"><ele>269.0</ele><time>2026-04-17T14:04:52.089Z</time></trkpt><trkpt lat="43.60684" lon="11.4305267"><ele>269.33333333333337</ele><time>2026-04-17T14:04:53.089Z</time></trkpt><trkpt lat="43.6069217" lon="11.4303467"><ele>269.6666666666667</ele><time>2026-04-17T14:04:54.09Z</time></trkpt><trkpt lat="43.6069733" lon="11.43014"><ele>270.0</ele><time>2026-04-17T14:04:55.09Z</time></trkpt><trkpt lat="43.6069933" lon="11.4299183"><ele>270.0</ele><time>2026-04-17T14:04:56.09Z</time></trkpt><trkpt lat="43.6069867" lon="11.429685"><ele>270.0</ele><time>2026-04-17T14:04:57.089Z</time></trkpt><trkpt lat="43.6069667" lon="11.429445"><ele>270.0</ele><time>2026-04-17T14:04:58.09Z</time></trkpt><trkpt lat="43.6069533" lon="11.4292017"><ele>269.6666666666667</ele><time>2026-04-17T14:04:59.09Z</time></trkpt><trkpt lat="43.60694" lon="11.4289567"><ele>269.33333333333337</ele><time>2026-04-17T14:05:00.09Z</time></trkpt><trkpt lat="43.606925" lon="11.4287117"><ele>269.0</ele><time>2026-04-17T14:05:01.089Z</time></trkpt><trkpt lat="43.6069117" lon="11.4284783"><ele>269.0</ele><time>2026-04-17T14:05:02.089Z</time></trkpt><trkpt lat="43.6069" lon="11.4282433"><ele>269.0</ele><time>2026-04-17T14:05:03.089Z</time></trkpt><trkpt lat="43.6068883" lon="11.4280133"><ele>269.0</ele><time>2026-04-17T14:05:04.09Z</time></trkpt><trkpt lat="43.6068817" lon="11.427785"><ele>268.6666666666667</ele><time>2026-04-17T14:05:05.09Z</time></trkpt><trkpt lat="43.6068683" lon="11.4275667"><ele>268.3333333333333</ele><time>2026-04-17T14:05:06.089Z</time></trkpt><trkpt lat="43.6068533" lon="11.42735"><ele>268.0</ele><time>2026-04-17T14:05:07.089Z</time></trkpt><trkpt lat="43.6068383" lon="11.42714"><ele>267.66666666666663</ele><time>2026-04-17T14:05:08.09Z</time></trkpt><trkpt lat="43.6068217" lon="11.426935"><ele>267.3333333333333</ele><time>2026-04-17T14:05:09.089Z</time></trkpt><trkpt lat="43.60681" lon="11.4267233"><ele>267.0</ele><time>2026-04-17T14:05:10.089Z</time></trkpt><trkpt lat="43.6067867" lon="11.4265117"><ele>267.0</ele><time>2026-04-17T14:05:11.089Z</time></trkpt><trkpt lat="43.60675" lon="11.426305"><ele>267.0</ele><time>2026-04-17T14:05:12.09Z</time></trkpt><trkpt lat="43.6066967" lon="11.4261133"><ele>267.0</ele><time>2026-04-17T14:05:13.089Z</time></trkpt><trkpt lat="43.60662" lon="11.4259267"><ele>267.0</ele><time>2026-04-17T14:05:14.09Z</time></trkpt><trkpt lat="43.6065333" lon="11.4257417"><ele>267.0</ele><time>2026-04-17T14:05:15.089Z</time></trkpt><trkpt lat="43.606445" lon="11.4255683"><ele>267.0</ele><time>2026-04-17T14:05:16.089Z</time></trkpt><trkpt lat="43.6063633" lon="11.4254117"><ele>267.0</ele><time>2026-04-17T14:05:17.089Z</time></trkpt><trkpt lat="43.6062867" lon="11.4252583"><ele>267.0</ele><time>2026-04-17T14:05:18.089Z</time></trkpt><trkpt lat="43.606215" lon="11.4251117"><ele>267.0</ele><time>2026-04-17T14:05:19.09Z</time></trkpt><trkpt lat="43.6061467" lon="11.4249667"><ele>267.0</ele><time>2026-04-17T14:05:20.089Z</time></trkpt><trkpt lat="43.60608" lon="11.4248233"><ele>267.0</ele><time>2026-04-17T14:05:21.09Z</time></trkpt><trkpt lat="43.6060133" lon="11.424685"><ele>267.0</ele><time>2026-04-17T14:05:22.089Z</time></trkpt><trkpt lat="43.6059533" lon="11.42455"><ele>267.0</ele><time>2026-04-17T14:05:23.089Z</time></trkpt><trkpt lat="43.6058983" lon="11.4244133"><ele>267.0</ele><time>2026-04-17T14:05:24.09Z</time></trkpt><trkpt lat="43.6058433" lon="11.4242683"><ele>265.5</ele><time>2026-04-17T14:05:25.09Z</time></trkpt><trkpt lat="43.60578" lon="11.42412"><ele>264.0</ele><time>2026-04-17T14:05:26.089Z</time></trkpt><trkpt lat="43.6057067" lon="11.42397"><ele>262.5</ele><time>2026-04-17T14:05:27.089Z</time></trkpt><trkpt lat="43.6056217" lon="11.42382"><ele>261.0</ele><time>2026-04-17T14:05:28.09Z</time></trkpt><trkpt lat="43.605525" lon="11.423665"><ele>260.6666666666667</ele><time>2026-04-17T14:05:29.089Z</time></trkpt><trkpt lat="43.6054233" lon="11.4235067"><ele>260.33333333333337</ele><time>2026-04-17T14:05:30.089Z</time></trkpt><trkpt lat="43.6053217" lon="11.4233367"><ele>260.0</ele><time>2026-04-17T14:05:31.09Z</time></trkpt><trkpt lat="43.6052367" lon="11.4231633"><ele>262.33333333333337</ele><time>2026-04-17T14:05:32.089Z</time></trkpt><trkpt lat="43.605165" lon="11.42297"><ele>264.6666666666667</ele><time>2026-04-17T14:05:33.089Z</time></trkpt><trkpt lat="43.6051033" lon="11.4227817"><ele>267.0</ele><time>2026-04-17T14:05:34.09Z</time></trkpt><trkpt lat="43.605045" lon="11.4226"><ele>267.0</ele><time>2026-04-17T14:05:35.09Z</time></trkpt><trkpt lat="43.60499" lon="11.4224217"><ele>267.0</ele><time>2026-04-17T14:05:36.09Z</time></trkpt><trkpt lat="43.6049367" lon="11.4222433"><ele>267.0</ele><time>2026-04-17T14:05:37.089Z</time></trkpt><trkpt lat="43.6049017" lon="11.422045"><ele>267.0</ele><time>2026-04-17T14:05:38.089Z</time></trkpt><trkpt lat="43.6048767" lon="11.4218517"><ele>267.25</ele><time>2026-04-17T14:05:39.09Z</time></trkpt><trkpt lat="43.6048667" lon="11.42166"><ele>267.5</ele><time>2026-04-17T14:05:40.09Z</time></trkpt><trkpt lat="43.6048467" lon="11.4214833"><ele>267.75</ele><time>2026-04-17T14:05:41.089Z</time></trkpt><trkpt lat="43.6048133" lon="11.42131"><ele>268.0</ele><time>2026-04-17T14:05:42.089Z</time></trkpt><trkpt lat="43.6047683" lon="11.42114"><ele>268.0</ele><time>2026-04-17T14:05:43.089Z</time></trkpt><trkpt lat="43.60471" lon="11.420975"><ele>268.0</ele><time>2026-04-17T14:05:44.089Z</time></trkpt><trkpt lat="43.6046433" lon="11.4208217"><ele>268.0</ele><time>2026-04-17T14:05:45.09Z</time></trkpt><trkpt lat="43.60459" lon="11.4206833"><ele>268.0</ele><time>2026-04-17T14:05:46.089Z</time></trkpt><trkpt lat="43.6045283" lon="11.4205517"><ele>271.2</ele><time>2026-04-17T14:05:47.089Z</time></trkpt><trkpt lat="43.6044717" lon="11.4204183"><ele>274.4</ele><time>2026-04-17T14:05:48.09Z</time></trkpt><trkpt lat="43.6044217" lon="11.420295"><ele>277.59999999999997</ele><time>2026-04-17T14:05:49.089Z</time></trkpt><trkpt lat="43.6043683" lon="11.4201667"><ele>280.8</ele><time>2026-04-17T14:05:50.09Z</time></trkpt><trkpt lat="43.604325" lon="11.4200283"><ele>284.0</ele><time>2026-04-17T14:05:51.089Z</time></trkpt><trkpt lat="43.6042933" lon="11.4198817"><ele>284.0</ele><time>2026-04-17T14:05:52.089Z</time></trkpt><trkpt lat="43.6042667" lon="11.4197233"><ele>284.0</ele><time>2026-04-17T14:05:53.089Z</time></trkpt><trkpt lat="43.6042367" lon="11.419555"><ele>284.0</ele><time>2026-04-17T14:05:54.089Z</time></trkpt><trkpt lat="43.6042083" lon="11.4193833"><ele>284.0</ele><time>2026-04-17T14:05:55.089Z</time></trkpt><trkpt lat="43.60418" lon="11.419215"><ele>284.25</ele><time>2026-04-17T14:05:56.09Z</time></trkpt><trkpt lat="43.60415" lon="11.41905"><ele>284.5</ele><time>2026-04-17T14:05:57.089Z</time></trkpt><trkpt lat="43.6041267" lon="11.41889"><ele>284.75</ele><time>2026-04-17T14:05:58.089Z</time></trkpt><trkpt lat="43.6041017" lon="11.4187333"><ele>285.0</ele><time>2026-04-17T14:05:59.09Z</time></trkpt><trkpt lat="43.604075" lon="11.4185783"><ele>286.0</ele><time>2026-04-17T14:06:00.089Z</time></trkpt><trkpt lat="43.6040567" lon="11.4184267"><ele>287.0</ele><time>2026-04-17T14:06:01.09Z</time></trkpt><trkpt lat="43.604025" lon="11.418275"><ele>288.0</ele><time>2026-04-17T14:06:02.089Z</time></trkpt><trkpt lat="43.6039883" lon="11.4181283"><ele>289.0</ele><time>2026-04-17T14:06:03.089Z</time></trkpt><trkpt lat="43.6039433" lon="11.41798"><ele>290.25</ele><time>2026-04-17T14:06:04.09Z</time></trkpt><trkpt lat="43.6038817" lon="11.4178367"><ele>291.5</ele><time>2026-04-17T14:06:05.089Z</time></trkpt><trkpt lat="43.6038017" lon="11.4177017"><ele>292.75</ele><time>2026-04-17T14:06:06.089Z</time></trkpt><trkpt lat="43.6036967" lon="11.4175867"><ele>294.0</ele><time>2026-04-17T14:06:07.089Z</time></trkpt><trkpt lat="43.60358" lon="11.4174967"><ele>295.0</ele><time>2026-04-17T14:06:08.089Z</time></trkpt><trkpt lat="43.603465" lon="11.417435"><ele>296.0</ele><time>2026-04-17T14:06:09.09Z</time></trkpt><trkpt lat="43.6033317" lon="11.4174"><ele>297.0</ele><time>2026-04-17T14:06:10.09Z</time></trkpt><trkpt lat="43.6031967" lon="11.417385"><ele>298.0</ele><time>2026-04-17T14:06:11.089Z</time></trkpt><trkpt lat="43.6030633" lon="11.4173833"><ele>298.0</ele><time>2026-04-17T14:06:12.09Z</time></trkpt><trkpt lat="43.6029267" lon="11.41738"><ele>298.0</ele><time>2026-04-17T14:06:13.089Z</time></trkpt><trkpt lat="43.602795" lon="11.41738"><ele>298.0</ele><time>2026-04-17T14:06:14.089Z</time></trkpt><trkpt lat="43.602675" lon="11.4173867"><ele>298.0</ele><time>2026-04-17T14:06:15.089Z</time></trkpt><trkpt lat="43.6025633" lon="11.4173967"><ele>299.0</ele><time>2026-04-17T14:06:16.089Z</time></trkpt><trkpt lat="43.60247" lon="11.4174033"><ele>300.0</ele><time>2026-04-17T14:06:17.089Z</time></trkpt><trkpt lat="43.6023917" lon="11.4174033"><ele>301.0</ele><time>2026-04-17T14:06:18.089Z</time></trkpt><trkpt lat="43.6023117" lon="11.417405"><ele>302.0</ele><time>2026-04-17T14:06:20.09Z</time></trkpt><trkpt lat="43.6022217" lon="11.4174067"><ele>303.0</ele><time>2026-04-17T14:06:25.09Z</time></trkpt><trkpt lat="43.6021417" lon="11.4173883"><ele>304.0</ele><time>2026-04-17T14:06:27.09Z</time></trkpt><trkpt lat="43.602035" lon="11.4173267"><ele>303.66666666666663</ele><time>2026-04-17T14:06:29.089Z</time></trkpt><trkpt lat="43.6019833" lon="11.41727"><ele>303.3333333333333</ele><time>2026-04-17T14:06:30.089Z</time></trkpt><trkpt lat="43.6019317" lon="11.4172017"><ele>303.0</ele><time>2026-04-17T14:06:31.089Z</time></trkpt><trkpt lat="43.6018883" lon="11.4171183"><ele>302.6666666666667</ele><time>2026-04-17T14:06:32.09Z</time></trkpt><trkpt lat="43.601855" lon="11.4170117"><ele>302.33333333333337</ele><time>2026-04-17T14:06:33.089Z</time></trkpt><trkpt lat="43.60184" lon="11.4168883"><ele>302.0</ele><time>2026-04-17T14:06:34.088Z</time></trkpt><trkpt lat="43.6018467" lon="11.4167483"><ele>303.0</ele><time>2026-04-17T14:06:35.088Z</time></trkpt><trkpt lat="43.6018667" lon="11.4165967"><ele>304.0</ele><time>2026-04-17T14:06:36.088Z</time></trkpt><trkpt lat="43.6018817" lon="11.41645"><ele>305.0</ele><time>2026-04-17T14:06:37.089Z</time></trkpt><trkpt lat="43.601895" lon="11.416295"><ele>306.0</ele><time>2026-04-17T14:06:38.088Z</time></trkpt><trkpt lat="43.601915" lon="11.4161183"><ele>306.25</ele><time>2026-04-17T14:06:39.089Z</time></trkpt><trkpt lat="43.60193" lon="11.415945"><ele>306.5</ele><time>2026-04-17T14:06:40.088Z</time></trkpt><trkpt lat="43.6019483" lon="11.4157717"><ele>306.75</ele><time>2026-04-17T14:06:41.089Z</time></trkpt><trkpt lat="43.6019633" lon="11.415595"><ele>307.0</ele><time>2026-04-17T14:06:42.089Z</time></trkpt><trkpt lat="43.60198" lon="11.41543"><ele>306.5</ele><time>2026-04-17T14:06:43.088Z</time></trkpt><trkpt lat="43.6019983" lon="11.415265"><ele>306.0</ele><time>2026-04-17T14:06:44.088Z</time></trkpt><trkpt lat="43.6020183" lon="11.4150917"><ele>305.5</ele><time>2026-04-17T14:06:45.088Z</time></trkpt><trkpt lat="43.6020367" lon="11.4149267"><ele>305.0</ele><time>2026-04-17T14:06:46.088Z</time></trkpt><trkpt lat="43.602045" lon="11.41476"><ele>303.5</ele><time>2026-04-17T14:06:47.088Z</time></trkpt><trkpt lat="43.6020383" lon="11.4145833"><ele>302.0</ele><time>2026-04-17T14:06:48.088Z</time></trkpt><trkpt lat="43.6020167" lon="11.4144117"><ele>300.5</ele><time>2026-04-17T14:06:49.088Z</time></trkpt><trkpt lat="43.60199" lon="11.414245"><ele>299.0</ele><time>2026-04-17T14:06:50.088Z</time></trkpt><trkpt lat="43.6019617" lon="11.4140817"><ele>299.0</ele><time>2026-04-17T14:06:51.088Z</time></trkpt><trkpt lat="43.6019383" lon="11.4139267"><ele>299.0</ele><time>2026-04-17T14:06:52.089Z</time></trkpt><trkpt lat="43.6019283" lon="11.41377"><ele>299.0</ele><time>2026-04-17T14:06:53.088Z</time></trkpt><trkpt lat="43.601935" lon="11.4136117"><ele>299.0</ele><time>2026-04-17T14:06:54.088Z</time></trkpt><trkpt lat="43.6019517" lon="11.4134617"><ele>298.59999999999997</ele><time>2026-04-17T14:06:55.089Z</time></trkpt><trkpt lat="43.6019767" lon="11.4133267"><ele>298.2</ele><time>2026-04-17T14:06:56.088Z</time></trkpt><trkpt lat="43.601985" lon="11.4131933"><ele>297.79999999999995</ele><time>2026-04-17T14:06:57.089Z</time></trkpt><trkpt lat="43.6019633" lon="11.4130733"><ele>297.4</ele><time>2026-04-17T14:06:58.089Z</time></trkpt><trkpt lat="43.60192" lon="11.4129683"><ele>297.0</ele><time>2026-04-17T14:06:59.088Z</time></trkpt><trkpt lat="43.6018533" lon="11.412875"><ele>297.0</ele><time>2026-04-17T14:07:00.088Z</time></trkpt><trkpt lat="43.6017783" lon="11.4128233"><ele>297.0</ele><time>2026-04-17T14:07:01.088Z</time></trkpt><trkpt lat="43.6016917" lon="11.4127967"><ele>297.0</ele><time>2026-04-17T14:07:02.088Z</time></trkpt><trkpt lat="43.6016083" lon="11.4127883"><ele>297.0</ele><time>2026-04-17T14:07:03.088Z</time></trkpt><trkpt lat="43.6015217" lon="11.41279"><ele>297.0</ele><time>2026-04-17T14:07:04.088Z</time></trkpt><trkpt lat="43.601425" lon="11.412765"><ele>297.0</ele><time>2026-04-17T14:07:06.088Z</time></trkpt><trkpt lat="43.60138" lon="11.4126267"><ele>297.0</ele><time>2026-04-17T14:07:08.088Z</time></trkpt><trkpt lat="43.60138" lon="11.41245"><ele>297.0</ele><time>2026-04-17T14:07:10.089Z</time></trkpt><trkpt lat="43.6014017" lon="11.4123417"><ele>297.0</ele><time>2026-04-17T14:07:11.088Z</time></trkpt><trkpt lat="43.6014217" lon="11.412235"><ele>297.0</ele><time>2026-04-17T14:07:12.088Z</time></trkpt><trkpt lat="43.6014367" lon="11.41213"><ele>297.0</ele><time>2026-04-17T14:07:13.088Z</time></trkpt><trkpt lat="43.6014367" lon="11.4120233"><ele>297.0</ele><time>2026-04-17T14:07:14.088Z</time></trkpt><trkpt lat="43.6014233" lon="11.411935"><ele>297.2</ele><time>2026-04-17T14:07:15.088Z</time></trkpt><trkpt lat="43.601345" lon="11.4118117"><ele>297.4</ele><time>2026-04-17T14:07:17.088Z</time></trkpt><trkpt lat="43.601215" lon="11.4118217"><ele>297.6</ele><time>2026-04-17T14:07:19.089Z</time></trkpt><trkpt lat="43.6011433" lon="11.41187"><ele>297.8</ele><time>2026-04-17T14:07:20.088Z</time></trkpt><trkpt lat="43.601065" lon="11.4119267"><ele>298.0</ele><time>2026-04-17T14:07:21.088Z</time></trkpt><trkpt lat="43.600985" lon="11.4119817"><ele>298.0</ele><time>2026-04-17T14:07:22.089Z</time></trkpt><trkpt lat="43.6009117" lon="11.4120267"><ele>298.0</ele><time>2026-04-17T14:07:23.088Z</time></trkpt><trkpt lat="43.6008383" lon="11.4120467"><ele>298.0</ele><time>2026-04-17T14:07:24.088Z</time></trkpt><trkpt lat="43.6007183" lon="11.412055"><ele>298.0</ele><time>2026-04-17T14:07:26.089Z</time></trkpt><trkpt lat="43.6006033" lon="11.411955"><ele>298.0</ele><time>2026-04-17T14:07:28.088Z</time></trkpt><trkpt lat="43.6005533" lon="11.4118517"><ele>298.0</ele><time>2026-04-17T14:07:29.088Z</time></trkpt><trkpt lat="43.6005117" lon="11.4117267"><ele>298.0</ele><time>2026-04-17T14:07:30.089Z</time></trkpt><trkpt lat="43.600485" lon="11.4115883"><ele>298.0</ele><time>2026-04-17T14:07:31.089Z</time></trkpt><trkpt lat="43.600485" lon="11.4114533"><ele>298.0</ele><time>2026-04-17T14:07:32.089Z</time></trkpt><trkpt lat="43.6005117" lon="11.41131"><ele>298.0</ele><time>2026-04-17T14:07:33.089Z</time></trkpt><trkpt lat="43.6005483" lon="11.41117"><ele>299.6</ele><time>2026-04-17T14:07:34.089Z</time></trkpt><trkpt lat="43.600605" lon="11.41104"><ele>301.20000000000005</ele><time>2026-04-17T14:07:35.088Z</time></trkpt><trkpt lat="43.6006533" lon="11.4109133"><ele>302.8</ele><time>2026-04-17T14:07:36.088Z</time></trkpt><trkpt lat="43.6006933" lon="11.410785"><ele>304.40000000000003</ele><time>2026-04-17T14:07:37.089Z</time></trkpt><trkpt lat="43.60072" lon="11.4106517"><ele>306.0</ele><time>2026-04-17T14:07:38.088Z</time></trkpt><trkpt lat="43.60075" lon="11.4105117"><ele>306.8</ele><time>2026-04-17T14:07:39.088Z</time></trkpt><trkpt lat="43.6007667" lon="11.4103783"><ele>307.6</ele><time>2026-04-17T14:07:40.088Z</time></trkpt><trkpt lat="43.60079" lon="11.4102333"><ele>308.4</ele><time>2026-04-17T14:07:41.088Z</time></trkpt><trkpt lat="43.6008033" lon="11.4101017"><ele>309.2</ele><time>2026-04-17T14:07:42.089Z</time></trkpt><trkpt lat="43.6008" lon="11.4099683"><ele>310.0</ele><time>2026-04-17T14:07:43.088Z</time></trkpt><trkpt lat="43.6007783" lon="11.40982"><ele>310.0</ele><time>2026-04-17T14:07:44.088Z</time></trkpt><trkpt lat="43.6007367" lon="11.40968"><ele>310.0</ele><time>2026-04-17T14:07:45.088Z</time></trkpt><trkpt lat="43.6006883" lon="11.4095533"><ele>310.0</ele><time>2026-04-17T14:07:46.088Z</time></trkpt><trkpt lat="43.6006417" lon="11.4094283"><ele>310.0</ele><time>2026-04-17T14:07:47.089Z</time></trkpt><trkpt lat="43.600595" lon="11.4093017"><ele>310.0</ele><time>2026-04-17T14:07:48.089Z</time></trkpt><trkpt lat="43.6005483" lon="11.40918"><ele>310.4</ele><time>2026-04-17T14:07:49.089Z</time></trkpt><trkpt lat="43.600495" lon="11.4090567"><ele>310.8</ele><time>2026-04-17T14:07:50.088Z</time></trkpt><trkpt lat="43.6004417" lon="11.40894"><ele>311.2</ele><time>2026-04-17T14:07:51.088Z</time></trkpt><trkpt lat="43.6004017" lon="11.4088217"><ele>311.6</ele><time>2026-04-17T14:07:52.088Z</time></trkpt><trkpt lat="43.6003767" lon="11.4087033"><ele>312.0</ele><time>2026-04-17T14:07:53.088Z</time></trkpt><trkpt lat="43.6003683" lon="11.4085817"><ele>312.0</ele><time>2026-04-17T14:07:54.088Z</time></trkpt><trkpt lat="43.6003833" lon="11.4084633"><ele>312.0</ele><time>2026-04-17T14:07:55.088Z</time></trkpt><trkpt lat="43.6004217" lon="11.4083617"><ele>312.0</ele><time>2026-04-17T14:07:56.088Z</time></trkpt><trkpt lat="43.60048" lon="11.4082883"><ele>312.0</ele><time>2026-04-17T14:07:57.088Z</time></trkpt><trkpt lat="43.6005517" lon="11.4082317"><ele>312.0</ele><time>2026-04-17T14:07:58.089Z</time></trkpt><trkpt lat="43.60064" lon="11.4081917"><ele>312.0</ele><time>2026-04-17T14:07:59.088Z</time></trkpt><trkpt lat="43.6007317" lon="11.4081517"><ele>312.0</ele><time>2026-04-17T14:08:00.089Z</time></trkpt><trkpt lat="43.6008183" lon="11.40811"><ele>312.0</ele><time>2026-04-17T14:08:01.088Z</time></trkpt><trkpt lat="43.6009083" lon="11.40806"><ele>312.0</ele><time>2026-04-17T14:08:02.088Z</time></trkpt><trkpt lat="43.6009783" lon="11.4079867"><ele>312.0</ele><time>2026-04-17T14:08:03.089Z</time></trkpt><trkpt lat="43.6010317" lon="11.4078867"><ele>312.0</ele><time>2026-04-17T14:08:04.089Z</time></trkpt><trkpt lat="43.6010633" lon="11.40778"><ele>312.2</ele><time>2026-04-17T14:08:05.088Z</time></trkpt><trkpt lat="43.601085" lon="11.407665"><ele>312.4</ele><time>2026-04-17T14:08:06.088Z</time></trkpt><trkpt lat="43.601085" lon="11.40754"><ele>312.6</ele><time>2026-04-17T14:08:07.089Z</time></trkpt><trkpt lat="43.6010583" lon="11.4074067"><ele>312.8</ele><time>2026-04-17T14:08:08.088Z</time></trkpt><trkpt lat="43.6010333" lon="11.4072633"><ele>313.0</ele><time>2026-04-17T14:08:09.088Z</time></trkpt><trkpt lat="43.600995" lon="11.4071233"><ele>313.0</ele><time>2026-04-17T14:08:10.088Z</time></trkpt><trkpt lat="43.600945" lon="11.4069817"><ele>313.0</ele><time>2026-04-17T14:08:11.089Z</time></trkpt><trkpt lat="43.6009017" lon="11.4068433"><ele>313.0</ele><time>2026-04-17T14:08:12.088Z</time></trkpt><trkpt lat="43.6008633" lon="11.406715"><ele>313.0</ele><time>2026-04-17T14:08:13.088Z</time></trkpt><trkpt lat="43.600815" lon="11.40657"><ele>313.0</ele><time>2026-04-17T14:08:14.088Z</time></trkpt><trkpt lat="43.6007633" lon="11.40644"><ele>316.0</ele><time>2026-04-17T14:08:15.089Z</time></trkpt><trkpt lat="43.6007217" lon="11.4063083"><ele>319.0</ele><time>2026-04-17T14:08:16.089Z</time></trkpt><trkpt lat="43.60067" lon="11.4061867"><ele>322.0</ele><time>2026-04-17T14:08:17.088Z</time></trkpt><trkpt lat="43.6006083" lon="11.406065"><ele>325.0</ele><time>2026-04-17T14:08:18.088Z</time></trkpt><trkpt lat="43.6005283" lon="11.4059683"><ele>328.0</ele><time>2026-04-17T14:08:19.088Z</time></trkpt><trkpt lat="43.6004283" lon="11.405875"><ele>323.5</ele><time>2026-04-17T14:08:20.088Z</time></trkpt><trkpt lat="43.6003183" lon="11.405785"><ele>319.0</ele><time>2026-04-17T14:08:21.089Z</time></trkpt><trkpt lat="43.60021" lon="11.4057067"><ele>314.5</ele><time>2026-04-17T14:08:22.089Z</time></trkpt><trkpt lat="43.6001" lon="11.405625"><ele>310.0</ele><time>2026-04-17T14:08:23.088Z</time></trkpt><trkpt lat="43.5999933" lon="11.405545"><ele>312.0</ele><time>2026-04-17T14:08:24.088Z</time></trkpt><trkpt lat="43.599895" lon="11.4054333"><ele>314.0</ele><time>2026-04-17T14:08:25.089Z</time></trkpt><trkpt lat="43.59981" lon="11.40531"><ele>316.0</ele><time>2026-04-17T14:08:26.088Z</time></trkpt><trkpt lat="43.59973" lon="11.40517"><ele>318.0</ele><time>2026-04-17T14:08:27.088Z</time></trkpt><trkpt lat="43.5996533" lon="11.4050317"><ele>318.0</ele><time>2026-04-17T14:08:28.088Z</time></trkpt><trkpt lat="43.5995783" lon="11.4048933"><ele>318.0</ele><time>2026-04-17T14:08:29.088Z</time></trkpt><trkpt lat="43.599495" lon="11.4047617"><ele>318.0</ele><time>2026-04-17T14:08:30.089Z</time></trkpt><trkpt lat="43.599425" lon="11.4046133"><ele>318.0</ele><time>2026-04-17T14:08:31.088Z</time></trkpt><trkpt lat="43.5993633" lon="11.404455"><ele>317.3333333333333</ele><time>2026-04-17T14:08:32.089Z</time></trkpt><trkpt lat="43.59929" lon="11.40434"><ele>316.6666666666667</ele><time>2026-04-17T14:08:33.089Z</time></trkpt><trkpt lat="43.59922" lon="11.40423"><ele>316.0</ele><time>2026-04-17T14:08:34.088Z</time></trkpt><trkpt lat="43.5991667" lon="11.4041283"><ele>315.33333333333337</ele><time>2026-04-17T14:08:35.088Z</time></trkpt><trkpt lat="43.5991317" lon="11.404035"><ele>314.6666666666667</ele><time>2026-04-17T14:08:36.088Z</time></trkpt><trkpt lat="43.59911" lon="11.4039533"><ele>314.0</ele><time>2026-04-17T14:08:37.088Z</time></trkpt><trkpt lat="43.5991317" lon="11.4038017"><ele>314.0</ele><time>2026-04-17T14:08:39.089Z</time></trkpt><trkpt lat="43.599215" lon="11.4036717"><ele>314.0</ele><time>2026-04-17T14:08:41.088Z</time></trkpt><trkpt lat="43.5992833" lon="11.403605"><ele>314.0</ele><time>2026-04-17T14:08:42.088Z</time></trkpt><trkpt lat="43.599365" lon="11.4035383"><ele>314.0</ele><time>2026-04-17T14:08:43.089Z</time></trkpt><trkpt lat="43.59945" lon="11.4034717"><ele>314.0</ele><time>2026-04-17T14:08:44.089Z</time></trkpt><trkpt lat="43.5995333" lon="11.403405"><ele>316.4</ele><time>2026-04-17T14:08:45.089Z</time></trkpt><trkpt lat="43.599615" lon="11.403335"><ele>318.79999999999995</ele><time>2026-04-17T14:08:46.089Z</time></trkpt><trkpt lat="43.5997" lon="11.403265"><ele>321.20000000000005</ele><time>2026-04-17T14:08:47.088Z</time></trkpt><trkpt lat="43.59979" lon="11.4031933"><ele>323.6</ele><time>2026-04-17T14:08:48.089Z</time></trkpt><trkpt lat="43.5998817" lon="11.4031117"><ele>326.0</ele><time>2026-04-17T14:08:49.089Z</time></trkpt><trkpt lat="43.5999567" lon="11.4030267"><ele>326.4</ele><time>2026-04-17T14:08:50.089Z</time></trkpt><trkpt lat="43.6000417" lon="11.4029483"><ele>326.8</ele><time>2026-04-17T14:08:51.088Z</time></trkpt><trkpt lat="43.6001267" lon="11.4028733"><ele>327.2</ele><time>2026-04-17T14:08:52.088Z</time></trkpt><trkpt lat="43.60021" lon="11.402805"><ele>327.59999999999997</ele><time>2026-04-17T14:08:53.089Z</time></trkpt><trkpt lat="43.6002933" lon="11.4027267"><ele>328.0</ele><time>2026-04-17T14:08:54.089Z</time></trkpt><trkpt lat="43.6003817" lon="11.4026433"><ele>328.0</ele><time>2026-04-17T14:08:55.088Z</time></trkpt><trkpt lat="43.60044" lon="11.4025183"><ele>328.0</ele><time>2026-04-17T14:08:56.088Z</time></trkpt><trkpt lat="43.6005033" lon="11.4023867"><ele>328.0</ele><time>2026-04-17T14:08:57.089Z</time></trkpt><trkpt lat="43.6005417" lon="11.4022317"><ele>328.0</ele><time>2026-04-17T14:08:58.088Z</time></trkpt><trkpt lat="43.6005667" lon="11.4020617"><ele>326.25</ele><time>2026-04-17T14:08:59.088Z</time></trkpt><trkpt lat="43.6005983" lon="11.4019033"><ele>324.5</ele><time>2026-04-17T14:09:00.088Z</time></trkpt><trkpt lat="43.6006117" lon="11.4017367"><ele>322.75</ele><time>2026-04-17T14:09:01.088Z</time></trkpt><trkpt lat="43.60063" lon="11.4015617"><ele>321.0</ele><time>2026-04-17T14:09:02.088Z</time></trkpt><trkpt lat="43.6006567" lon="11.40139"><ele>320.25</ele><time>2026-04-17T14:09:03.089Z</time></trkpt><trkpt lat="43.6006817" lon="11.401225"><ele>319.5</ele><time>2026-04-17T14:09:04.089Z</time></trkpt><trkpt lat="43.6007067" lon="11.4010633"><ele>318.75</ele><time>2026-04-17T14:09:05.088Z</time></trkpt><trkpt lat="43.60073" lon="11.4008917"><ele>318.0</ele><time>2026-04-17T14:09:06.088Z</time></trkpt><trkpt lat="43.6007583" lon="11.4007167"><ele>318.0</ele><time>2026-04-17T14:09:07.088Z</time></trkpt><trkpt lat="43.6007867" lon="11.4005467"><ele>318.0</ele><time>2026-04-17T14:09:08.088Z</time></trkpt><trkpt lat="43.6008083" lon="11.40038"><ele>318.0</ele><time>2026-04-17T14:09:09.088Z</time></trkpt><trkpt lat="43.6008317" lon="11.4002133"><ele>318.0</ele><time>2026-04-17T14:09:10.088Z</time></trkpt><trkpt lat="43.6008667" lon="11.4000533"><ele>318.25</ele><time>2026-04-17T14:09:11.088Z</time></trkpt><trkpt lat="43.60089" lon="11.3999"><ele>318.5</ele><time>2026-04-17T14:09:12.089Z</time></trkpt><trkpt lat="43.6009117" lon="11.3997483"><ele>318.75</ele><time>2026-04-17T14:09:13.088Z</time></trkpt><trkpt lat="43.6009117" lon="11.39959"><ele>319.0</ele><time>2026-04-17T14:09:14.089Z</time></trkpt><trkpt lat="43.6008867" lon="11.3994317"><ele>320.0</ele><time>2026-04-17T14:09:15.088Z</time></trkpt><trkpt lat="43.6008483" lon="11.3992767"><ele>321.0</ele><time>2026-04-17T14:09:16.088Z</time></trkpt><trkpt lat="43.6008017" lon="11.3991233"><ele>322.0</ele><time>2026-04-17T14:09:17.088Z</time></trkpt><trkpt lat="43.60074" lon="11.3989633"><ele>323.0</ele><time>2026-04-17T14:09:18.089Z</time></trkpt><trkpt lat="43.600665" lon="11.398805"><ele>322.75</ele><time>2026-04-17T14:09:19.088Z</time></trkpt><trkpt lat="43.600585" lon="11.398655"><ele>322.5</ele><time>2026-04-17T14:09:20.088Z</time></trkpt><trkpt lat="43.6005033" lon="11.3985067"><ele>322.25</ele><time>2026-04-17T14:09:21.089Z</time></trkpt><trkpt lat="43.600415" lon="11.3983633"><ele>322.0</ele><time>2026-04-17T14:09:22.089Z</time></trkpt><trkpt lat="43.6003167" lon="11.398235"><ele>322.0</ele><time>2026-04-17T14:09:23.088Z</time></trkpt><trkpt lat="43.600215" lon="11.39811"><ele>322.0</ele><time>2026-04-17T14:09:24.088Z</time></trkpt><trkpt lat="43.6001133" lon="11.3979867"><ele>322.0</ele><time>2026-04-17T14:09:25.088Z</time></trkpt><trkpt lat="43.6000067" lon="11.3978667"><ele>322.0</ele><time>2026-04-17T14:09:26.089Z</time></trkpt><trkpt lat="43.5998933" lon="11.3977467"><ele>322.25</ele><time>2026-04-17T14:09:27.089Z</time></trkpt><trkpt lat="43.59978" lon="11.397625"><ele>322.5</ele><time>2026-04-17T14:09:28.089Z</time></trkpt><trkpt lat="43.59967" lon="11.3975083"><ele>322.75</ele><time>2026-04-17T14:09:29.089Z</time></trkpt><trkpt lat="43.5995567" lon="11.3974"><ele>323.0</ele><time>2026-04-17T14:09:30.088Z</time></trkpt><trkpt lat="43.5994433" lon="11.3973"><ele>323.0</ele><time>2026-04-17T14:09:31.088Z</time></trkpt><trkpt lat="43.5993283" lon="11.397215"><ele>323.0</ele><time>2026-04-17T14:09:32.089Z</time></trkpt><trkpt lat="43.5992083" lon="11.39712"><ele>323.0</ele><time>2026-04-17T14:09:33.089Z</time></trkpt><trkpt lat="43.5990867" lon="11.3970033"><ele>323.0</ele><time>2026-04-17T14:09:34.088Z</time></trkpt><trkpt lat="43.5989733" lon="11.3968767"><ele>324.0</ele><time>2026-04-17T14:09:35.087Z</time></trkpt><trkpt lat="43.598865" lon="11.3967383"><ele>325.0</ele><time>2026-04-17T14:09:36.087Z</time></trkpt><trkpt lat="43.5987683" lon="11.3965833"><ele>326.0</ele><time>2026-04-17T14:09:37.088Z</time></trkpt><trkpt lat="43.5986733" lon="11.396415"><ele>325.0</ele><time>2026-04-17T14:09:38.087Z</time></trkpt><trkpt lat="43.5985717" lon="11.396255"><ele>324.0</ele><time>2026-04-17T14:09:39.088Z</time></trkpt><trkpt lat="43.5984733" lon="11.3960933"><ele>323.0</ele><time>2026-04-17T14:09:40.087Z</time></trkpt><trkpt lat="43.598385" lon="11.3959333"><ele>323.0</ele><time>2026-04-17T14:09:41.087Z</time></trkpt><trkpt lat="43.5983" lon="11.3957867"><ele>323.0</ele><time>2026-04-17T14:09:42.088Z</time></trkpt><trkpt lat="43.5982183" lon="11.3956267"><ele>323.0</ele><time>2026-04-17T14:09:43.087Z</time></trkpt><trkpt lat="43.5981533" lon="11.3954517"><ele>323.0</ele><time>2026-04-17T14:09:44.088Z</time></trkpt><trkpt lat="43.5980917" lon="11.395275"><ele>324.25</ele><time>2026-04-17T14:09:45.087Z</time></trkpt><trkpt lat="43.5980483" lon="11.3950867"><ele>325.5</ele><time>2026-04-17T14:09:46.088Z</time></trkpt><trkpt lat="43.598005" lon="11.3948917"><ele>326.75</ele><time>2026-04-17T14:09:47.088Z</time></trkpt><trkpt lat="43.5979867" lon="11.3946933"><ele>328.0</ele><time>2026-04-17T14:09:48.087Z</time></trkpt><trkpt lat="43.5979717" lon="11.3945083"><ele>328.0</ele><time>2026-04-17T14:09:49.088Z</time></trkpt><trkpt lat="43.5979633" lon="11.394325"><ele>328.0</ele><time>2026-04-17T14:09:50.088Z</time></trkpt><trkpt lat="43.5979467" lon="11.3941467"><ele>328.0</ele><time>2026-04-17T14:09:51.088Z</time></trkpt><trkpt lat="43.5979017" lon="11.39399"><ele>328.0</ele><time>2026-04-17T14:09:52.087Z</time></trkpt><trkpt lat="43.5978367" lon="11.3938617"><ele>328.79999999999995</ele><time>2026-04-17T14:09:53.088Z</time></trkpt><trkpt lat="43.5977633" lon="11.3937583"><ele>329.6</ele><time>2026-04-17T14:09:54.088Z</time></trkpt><trkpt lat="43.5976767" lon="11.3936683"><ele>330.4</ele><time>2026-04-17T14:09:55.087Z</time></trkpt><trkpt lat="43.5975867" lon="11.3935983"><ele>331.20000000000005</ele><time>2026-04-17T14:09:56.087Z</time></trkpt><trkpt lat="43.5974783" lon="11.3935383"><ele>332.0</ele><time>2026-04-17T14:09:57.088Z</time></trkpt><trkpt lat="43.5973683" lon="11.3934533"><ele>332.0</ele><time>2026-04-17T14:09:58.088Z</time></trkpt><trkpt lat="43.5972633" lon="11.3933533"><ele>332.0</ele><time>2026-04-17T14:09:59.088Z</time></trkpt><trkpt lat="43.5971633" lon="11.39324"><ele>332.0</ele><time>2026-04-17T14:10:00.088Z</time></trkpt><trkpt lat="43.5970633" lon="11.3931183"><ele>332.0</ele><time>2026-04-17T14:10:01.087Z</time></trkpt><trkpt lat="43.5969817" lon="11.3929783"><ele>332.25</ele><time>2026-04-17T14:10:02.088Z</time></trkpt><trkpt lat="43.5969083" lon="11.3928267"><ele>332.5</ele><time>2026-04-17T14:10:03.087Z</time></trkpt><trkpt lat="43.5968483" lon="11.3926733"><ele>332.75</ele><time>2026-04-17T14:10:04.088Z</time></trkpt><trkpt lat="43.59679" lon="11.3925167"><ele>333.0</ele><time>2026-04-17T14:10:05.088Z</time></trkpt><trkpt lat="43.5967333" lon="11.39236"><ele>333.0</ele><time>2026-04-17T14:10:06.087Z</time></trkpt><trkpt lat="43.5966783" lon="11.39221"><ele>333.0</ele><time>2026-04-17T14:10:07.087Z</time></trkpt><trkpt lat="43.5966233" lon="11.392065"><ele>333.0</ele><time>2026-04-17T14:10:08.087Z</time></trkpt><trkpt lat="43.5965617" lon="11.3919183"><ele>333.0</ele><time>2026-04-17T14:10:09.088Z</time></trkpt><trkpt lat="43.5965083" lon="11.3917833"><ele>335.5</ele><time>2026-04-17T14:10:10.087Z</time></trkpt><trkpt lat="43.5964467" lon="11.3916483"><ele>338.0</ele><time>2026-04-17T14:10:11.087Z</time></trkpt><trkpt lat="43.596395" lon="11.39151"><ele>340.5</ele><time>2026-04-17T14:10:12.087Z</time></trkpt><trkpt lat="43.596345" lon="11.3913733"><ele>343.0</ele><time>2026-04-17T14:10:13.087Z</time></trkpt><trkpt lat="43.5962967" lon="11.39123"><ele>341.0</ele><time>2026-04-17T14:10:14.088Z</time></trkpt><trkpt lat="43.5962417" lon="11.3910867"><ele>339.0</ele><time>2026-04-17T14:10:15.088Z</time></trkpt><trkpt lat="43.5962017" lon="11.3909267"><ele>337.0</ele><time>2026-04-17T14:10:16.087Z</time></trkpt><trkpt lat="43.5961633" lon="11.3907667"><ele>335.0</ele><time>2026-04-17T14:10:17.087Z</time></trkpt><trkpt lat="43.596115" lon="11.3906017"><ele>336.0</ele><time>2026-04-17T14:10:18.087Z</time></trkpt><trkpt lat="43.5960733" lon="11.3904383"><ele>337.0</ele><time>2026-04-17T14:10:19.088Z</time></trkpt><trkpt lat="43.59602" lon="11.3902767"><ele>338.0</ele><time>2026-04-17T14:10:20.087Z</time></trkpt><trkpt lat="43.5959733" lon="11.3901117"><ele>339.0</ele><time>2026-04-17T14:10:21.088Z</time></trkpt><trkpt lat="43.595935" lon="11.3899417"><ele>339.0</ele><time>2026-04-17T14:10:22.088Z</time></trkpt><trkpt lat="43.5958833" lon="11.3897733"><ele>339.0</ele><time>2026-04-17T14:10:23.088Z</time></trkpt><trkpt lat="43.5958417" lon="11.3896033"><ele>339.0</ele><time>2026-04-17T14:10:24.087Z</time></trkpt><trkpt lat="43.5957983" lon="11.3894333"><ele>339.0</ele><time>2026-04-17T14:10:25.088Z</time></trkpt><trkpt lat="43.5957517" lon="11.3892717"><ele>339.2</ele><time>2026-04-17T14:10:26.087Z</time></trkpt><trkpt lat="43.5957083" lon="11.38913"><ele>339.4</ele><time>2026-04-17T14:10:27.087Z</time></trkpt><trkpt lat="43.5956817" lon="11.3889917"><ele>339.6</ele><time>2026-04-17T14:10:28.087Z</time></trkpt><trkpt lat="43.5956683" lon="11.3888583"><ele>339.8</ele><time>2026-04-17T14:10:29.087Z</time></trkpt><trkpt lat="43.5956517" lon="11.388745"><ele>340.0</ele><time>2026-04-17T14:10:30.088Z</time></trkpt><trkpt lat="43.5956417" lon="11.3886433"><ele>340.0</ele><time>2026-04-17T14:10:31.087Z</time></trkpt><trkpt lat="43.5955733" lon="11.388535"><ele>340.0</ele><time>2026-04-17T14:10:33.087Z</time></trkpt><trkpt lat="43.5955067" lon="11.3885283"><ele>340.0</ele><time>2026-04-17T14:10:34.088Z</time></trkpt><trkpt lat="43.5954267" lon="11.388545"><ele>340.0</ele><time>2026-04-17T14:10:35.087Z</time></trkpt><trkpt lat="43.5953383" lon="11.388565"><ele>340.0</ele><time>2026-04-17T14:10:36.087Z</time></trkpt><trkpt lat="43.5952383" lon="11.388575"><ele>340.0</ele><time>2026-04-17T14:10:37.087Z</time></trkpt><trkpt lat="43.5951267" lon="11.3885583"><ele>338.75</ele><time>2026-04-17T14:10:38.088Z</time></trkpt><trkpt lat="43.59502" lon="11.3885167"><ele>337.5</ele><time>2026-04-17T14:10:39.088Z</time></trkpt><trkpt lat="43.5949183" lon="11.38845"><ele>336.25</ele><time>2026-04-17T14:10:40.087Z</time></trkpt><trkpt lat="43.5948183" lon="11.3883683"><ele>335.0</ele><time>2026-04-17T14:10:41.087Z</time></trkpt><trkpt lat="43.59472" lon="11.3882683"><ele>335.0</ele><time>2026-04-17T14:10:42.088Z</time></trkpt><trkpt lat="43.5946283" lon="11.3881583"><ele>335.0</ele><time>2026-04-17T14:10:43.088Z</time></trkpt><trkpt lat="43.5945467" lon="11.3880567"><ele>335.0</ele><time>2026-04-17T14:10:44.087Z</time></trkpt><trkpt lat="43.59446" lon="11.3879617"><ele>335.0</ele><time>2026-04-17T14:10:45.088Z</time></trkpt><trkpt lat="43.59439" lon="11.387845"><ele>338.25</ele><time>2026-04-17T14:10:46.087Z</time></trkpt><trkpt lat="43.5943433" lon="11.3877117"><ele>341.5</ele><time>2026-04-17T14:10:47.088Z</time></trkpt><trkpt lat="43.5943183" lon="11.387565"><ele>344.75</ele><time>2026-04-17T14:10:48.087Z</time></trkpt><trkpt lat="43.5943117" lon="11.3874017"><ele>348.0</ele><time>2026-04-17T14:10:49.087Z</time></trkpt><trkpt lat="43.59431" lon="11.38724"><ele>347.79999999999995</ele><time>2026-04-17T14:10:50.087Z</time></trkpt><trkpt lat="43.5943" lon="11.38709"><ele>347.6</ele><time>2026-04-17T14:10:51.087Z</time></trkpt><trkpt lat="43.59428" lon="11.3869367"><ele>347.4</ele><time>2026-04-17T14:10:52.087Z</time></trkpt><trkpt lat="43.5942333" lon="11.3867933"><ele>347.20000000000005</ele><time>2026-04-17T14:10:53.087Z</time></trkpt><trkpt lat="43.5941567" lon="11.3866817"><ele>347.0</ele><time>2026-04-17T14:10:54.087Z</time></trkpt><trkpt lat="43.5940567" lon="11.3866083"><ele>347.0</ele><time>2026-04-17T14:10:55.088Z</time></trkpt><trkpt lat="43.593945" lon="11.3865733"><ele>347.0</ele><time>2026-04-17T14:10:56.087Z</time></trkpt><trkpt lat="43.5938267" lon="11.3865583"><ele>347.0</ele><time>2026-04-17T14:10:57.087Z</time></trkpt><trkpt lat="43.5937067" lon="11.3865617"><ele>347.0</ele><time>2026-04-17T14:10:58.088Z</time></trkpt><trkpt lat="43.593585" lon="11.3865783"><ele>349.0</ele><time>2026-04-17T14:10:59.088Z</time></trkpt><trkpt lat="43.5934717" lon="11.3865933"><ele>351.0</ele><time>2026-04-17T14:11:00.087Z</time></trkpt><trkpt lat="43.5933583" lon="11.3866"><ele>353.0</ele><time>2026-04-17T14:11:01.088Z</time></trkpt><trkpt lat="43.5932467" lon="11.386605"><ele>355.0</ele><time>2026-04-17T14:11:02.087Z</time></trkpt><trkpt lat="43.5931333" lon="11.3866167"><ele>355.0</ele><time>2026-04-17T14:11:03.087Z</time></trkpt><trkpt lat="43.59302" lon="11.3866333"><ele>355.0</ele><time>2026-04-17T14:11:04.087Z</time></trkpt><trkpt lat="43.5929033" lon="11.38665"><ele>355.0</ele><time>2026-04-17T14:11:05.087Z</time></trkpt><trkpt lat="43.59279" lon="11.3866767"><ele>355.0</ele><time>2026-04-17T14:11:06.087Z</time></trkpt><trkpt lat="43.59268" lon="11.38673"><ele>356.8</ele><time>2026-04-17T14:11:07.087Z</time></trkpt><trkpt lat="43.5925833" lon="11.3867967"><ele>358.6</ele><time>2026-04-17T14:11:08.087Z</time></trkpt><trkpt lat="43.5925033" lon="11.3869017"><ele>360.4</ele><time>2026-04-17T14:11:09.087Z</time></trkpt><trkpt lat="43.5924483" lon="11.3870333"><ele>362.2</ele><time>2026-04-17T14:11:10.087Z</time></trkpt><trkpt lat="43.5924417" lon="11.3871783"><ele>364.0</ele><time>2026-04-17T14:11:11.087Z</time></trkpt><trkpt lat="43.5924517" lon="11.3873217"><ele>365.0</ele><time>2026-04-17T14:11:12.088Z</time></trkpt><trkpt lat="43.5924667" lon="11.38747"><ele>366.0</ele><time>2026-04-17T14:11:13.088Z</time></trkpt><trkpt lat="43.5924717" lon="11.38762"><ele>367.0</ele><time>2026-04-17T14:11:14.088Z</time></trkpt><trkpt lat="43.592475" lon="11.3877717"><ele>368.0</ele><time>2026-04-17T14:11:15.087Z</time></trkpt><trkpt lat="43.5924717" lon="11.38792"><ele>369.0</ele><time>2026-04-17T14:11:16.088Z</time></trkpt><trkpt lat="43.5924617" lon="11.3880717"><ele>369.25</ele><time>2026-04-17T14:11:17.088Z</time></trkpt><trkpt lat="43.592445" lon="11.3882267"><ele>369.5</ele><time>2026-04-17T14:11:18.087Z</time></trkpt><trkpt lat="43.5924333" lon="11.3883833"><ele>369.75</ele><time>2026-04-17T14:11:19.088Z</time></trkpt><trkpt lat="43.5924233" lon="11.3885433"><ele>370.0</ele><time>2026-04-17T14:11:20.087Z</time></trkpt><trkpt lat="43.5924133" lon="11.3887033"><ele>371.4</ele><time>2026-04-17T14:11:21.088Z</time></trkpt><trkpt lat="43.5924067" lon="11.388855"><ele>372.8</ele><time>2026-04-17T14:11:22.088Z</time></trkpt><trkpt lat="43.5923983" lon="11.3890067"><ele>374.20000000000005</ele><time>2026-04-17T14:11:23.087Z</time></trkpt><trkpt lat="43.5923933" lon="11.3891467"><ele>375.6</ele><time>2026-04-17T14:11:24.087Z</time></trkpt><trkpt lat="43.592385" lon="11.389285"><ele>377.0</ele><time>2026-04-17T14:11:25.088Z</time></trkpt><trkpt lat="43.5923667" lon="11.3894083"><ele>377.0</ele><time>2026-04-17T14:11:26.088Z</time></trkpt><trkpt lat="43.59234" lon="11.3895133"><ele>377.0</ele><time>2026-04-17T14:11:27.087Z</time></trkpt><trkpt lat="43.592295" lon="11.3895917"><ele>377.0</ele><time>2026-04-17T14:11:28.087Z</time></trkpt><trkpt lat="43.5922183" lon="11.3895967"><ele>377.0</ele><time>2026-04-17T14:11:29.088Z</time></trkpt><trkpt lat="43.5921483" lon="11.389565"><ele>377.0</ele><time>2026-04-17T14:11:30.088Z</time></trkpt><trkpt lat="43.592085" lon="11.3895017"><ele>377.0</ele><time>2026-04-17T14:11:31.088Z</time></trkpt><trkpt lat="43.5920433" lon="11.3894083"><ele>377.0</ele><time>2026-04-17T14:11:32.087Z</time></trkpt><trkpt lat="43.5920367" lon="11.3892633"><ele>377.0</ele><time>2026-04-17T14:11:33.088Z</time></trkpt><trkpt lat="43.5920267" lon="11.3891283"><ele>377.0</ele><time>2026-04-17T14:11:34.087Z</time></trkpt><trkpt lat="43.5920117" lon="11.3890067"><ele>377.0</ele><time>2026-04-17T14:11:35.087Z</time></trkpt><trkpt lat="43.5919733" lon="11.3889033"><ele>377.0</ele><time>2026-04-17T14:11:36.087Z</time></trkpt><trkpt lat="43.5919283" lon="11.38881"><ele>378.75</ele><time>2026-04-17T14:11:37.088Z</time></trkpt><trkpt lat="43.5918583" lon="11.3887533"><ele>380.5</ele><time>2026-04-17T14:11:38.088Z</time></trkpt><trkpt lat="43.5917583" lon="11.3887367"><ele>382.25</ele><time>2026-04-17T14:11:39.088Z</time></trkpt><trkpt lat="43.5916267" lon="11.3887467"><ele>384.0</ele><time>2026-04-17T14:11:40.087Z</time></trkpt><trkpt lat="43.591465" lon="11.3887683"><ele>384.0</ele><time>2026-04-17T14:11:41.087Z</time></trkpt><trkpt lat="43.5912783" lon="11.3887717"><ele>384.0</ele><time>2026-04-17T14:11:42.087Z</time></trkpt><trkpt lat="43.59109" lon="11.38878"><ele>384.0</ele><time>2026-04-17T14:11:43.088Z</time></trkpt><trkpt lat="43.590915" lon="11.3887817"><ele>389.33333333333337</ele><time>2026-04-17T14:11:44.087Z</time></trkpt><trkpt lat="43.5907533" lon="11.3887883"><ele>394.6666666666667</ele><time>2026-04-17T14:11:45.087Z</time></trkpt><trkpt lat="43.590595" lon="11.3888017"><ele>400.0</ele><time>2026-04-17T14:11:46.088Z</time></trkpt><trkpt lat="43.5904383" lon="11.388835"><ele>406.6666666666667</ele><time>2026-04-17T14:11:47.087Z</time></trkpt><trkpt lat="43.5902833" lon="11.3888917"><ele>413.33333333333337</ele><time>2026-04-17T14:11:48.087Z</time></trkpt><trkpt lat="43.5901283" lon="11.3889617"><ele>420.0</ele><time>2026-04-17T14:11:49.087Z</time></trkpt><trkpt lat="43.5899733" lon="11.389035"><ele>420.0</ele><time>2026-04-17T14:11:50.088Z</time></trkpt><trkpt lat="43.5898083" lon="11.3890783"><ele>420.0</ele><time>2026-04-17T14:11:51.087Z</time></trkpt><trkpt lat="43.58963" lon="11.389105"><ele>420.0</ele><time>2026-04-17T14:11:52.088Z</time></trkpt><trkpt lat="43.5894533" lon="11.3890983"><ele>423.66666666666663</ele><time>2026-04-17T14:11:53.087Z</time></trkpt><trkpt lat="43.5892817" lon="11.3890567"><ele>427.3333333333333</ele><time>2026-04-17T14:11:54.087Z</time></trkpt><trkpt lat="43.5891183" lon="11.388995"><ele>431.0</ele><time>2026-04-17T14:11:55.087Z</time></trkpt><trkpt lat="43.5889567" lon="11.3888983"><ele>429.66666666666663</ele><time>2026-04-17T14:11:56.088Z</time></trkpt><trkpt lat="43.58879" lon="11.38877"><ele>428.33333333333337</ele><time>2026-04-17T14:11:57.087Z</time></trkpt><trkpt lat="43.5886233" lon="11.3886567"><ele>427.0</ele><time>2026-04-17T14:11:58.087Z</time></trkpt><trkpt lat="43.5884533" lon="11.3885467"><ele>427.0</ele><time>2026-04-17T14:11:59.088Z</time></trkpt><trkpt lat="43.5882733" lon="11.3884417"><ele>427.0</ele><time>2026-04-17T14:12:00.087Z</time></trkpt><trkpt lat="43.5880867" lon="11.388355"><ele>427.0</ele><time>2026-04-17T14:12:01.087Z</time></trkpt><trkpt lat="43.5878933" lon="11.3882867"><ele>430.0</ele><time>2026-04-17T14:12:02.087Z</time></trkpt><trkpt lat="43.5877" lon="11.3882317"><ele>433.0</ele><time>2026-04-17T14:12:03.087Z</time></trkpt><trkpt lat="43.5875083" lon="11.3881767"><ele>436.0</ele><time>2026-04-17T14:12:04.088Z</time></trkpt><trkpt lat="43.587325" lon="11.3881267"><ele>436.0</ele><time>2026-04-17T14:12:05.087Z</time></trkpt><trkpt lat="43.5871367" lon="11.3880783"><ele>436.0</ele><time>2026-04-17T14:12:06.088Z</time></trkpt><trkpt lat="43.5869517" lon="11.388035"><ele>436.0</ele><time>2026-04-17T14:12:07.087Z</time></trkpt><trkpt lat="43.5867683" lon="11.3879933"><ele>435.0</ele><time>2026-04-17T14:12:08.087Z</time></trkpt><trkpt lat="43.586585" lon="11.387955"><ele>434.0</ele><time>2026-04-17T14:12:09.087Z</time></trkpt><trkpt lat="43.5864017" lon="11.3879317"><ele>433.0</ele><time>2026-04-17T14:12:10.088Z</time></trkpt><trkpt lat="43.5862233" lon="11.3879283"><ele>434.6666666666667</ele><time>2026-04-17T14:12:11.087Z</time></trkpt><trkpt lat="43.586045" lon="11.38797"><ele>436.33333333333337</ele><time>2026-04-17T14:12:12.088Z</time></trkpt><trkpt lat="43.5858767" lon="11.3880533"><ele>438.0</ele><time>2026-04-17T14:12:13.087Z</time></trkpt><trkpt lat="43.5857233" lon="11.3881833"><ele>439.0</ele><time>2026-04-17T14:12:14.087Z</time></trkpt><trkpt lat="43.5855783" lon="11.3883333"><ele>440.0</ele><time>2026-04-17T14:12:15.087Z</time></trkpt><trkpt lat="43.5854333" lon="11.388495"><ele>441.0</ele><time>2026-04-17T14:12:16.088Z</time></trkpt><trkpt lat="43.5852883" lon="11.388665"><ele>441.0</ele><time>2026-04-17T14:12:17.088Z</time></trkpt><trkpt lat="43.5851567" lon="11.388825"><ele>441.0</ele><time>2026-04-17T14:12:18.088Z</time></trkpt><trkpt lat="43.5850333" lon="11.3889767"><ele>441.0</ele><time>2026-04-17T14:12:19.088Z</time></trkpt><trkpt lat="43.584915" lon="11.3891217"><ele>442.66666666666663</ele><time>2026-04-17T14:12:20.087Z</time></trkpt><trkpt lat="43.5847933" lon="11.3892483"><ele>444.3333333333333</ele><time>2026-04-17T14:12:21.087Z</time></trkpt><trkpt lat="43.58466" lon="11.3893417"><ele>446.0</ele><time>2026-04-17T14:12:22.087Z</time></trkpt><trkpt lat="43.5845083" lon="11.3893917"><ele>446.0</ele><time>2026-04-17T14:12:23.087Z</time></trkpt><trkpt lat="43.5843467" lon="11.3894133"><ele>446.0</ele><time>2026-04-17T14:12:24.087Z</time></trkpt><trkpt lat="43.58417" lon="11.3893917"><ele>446.0</ele><time>2026-04-17T14:12:25.087Z</time></trkpt><trkpt lat="43.5839983" lon="11.389345"><ele>446.0</ele><time>2026-04-17T14:12:26.087Z</time></trkpt><trkpt lat="43.5838267" lon="11.3892817"><ele>446.0</ele><time>2026-04-17T14:12:27.088Z</time></trkpt><trkpt lat="43.58366" lon="11.38921"><ele>446.0</ele><time>2026-04-17T14:12:28.087Z</time></trkpt><trkpt lat="43.58349" lon="11.3891367"><ele>447.3333333333333</ele><time>2026-04-17T14:12:29.087Z</time></trkpt><trkpt lat="43.58333" lon="11.3890483"><ele>448.66666666666663</ele><time>2026-04-17T14:12:30.087Z</time></trkpt><trkpt lat="43.5831667" lon="11.388945"><ele>450.0</ele><time>2026-04-17T14:12:31.088Z</time></trkpt><trkpt lat="43.5830067" lon="11.38883"><ele>450.0</ele><time>2026-04-17T14:12:32.087Z</time></trkpt><trkpt lat="43.5828567" lon="11.3887133"><ele>450.0</ele><time>2026-04-17T14:12:33.088Z</time></trkpt><trkpt lat="43.582705" lon="11.3885983"><ele>450.0</ele><time>2026-04-17T14:12:34.087Z</time></trkpt><trkpt lat="43.58255" lon="11.3884817"><ele>453.33333333333337</ele><time>2026-04-17T14:12:35.087Z</time></trkpt><trkpt lat="43.58239" lon="11.3883633"><ele>456.6666666666667</ele><time>2026-04-17T14:12:36.086Z</time></trkpt><trkpt lat="43.5822267" lon="11.3882433"><ele>460.0</ele><time>2026-04-17T14:12:37.086Z</time></trkpt><trkpt lat="43.5820667" lon="11.388125"><ele>465.0</ele><time>2026-04-17T14:12:38.086Z</time></trkpt><trkpt lat="43.5819083" lon="11.3880083"><ele>470.0</ele><time>2026-04-17T14:12:39.086Z</time></trkpt><trkpt lat="43.58175" lon="11.3878917"><ele>475.0</ele><time>2026-04-17T14:12:40.087Z</time></trkpt><trkpt lat="43.5815967" lon="11.3877867"><ele>475.0</ele><time>2026-04-17T14:12:41.086Z</time></trkpt><trkpt lat="43.5814467" lon="11.3877083"><ele>475.0</ele><time>2026-04-17T14:12:42.087Z</time></trkpt><trkpt lat="43.5812817" lon="11.387655"><ele>475.0</ele><time>2026-04-17T14:12:43.087Z</time></trkpt><trkpt lat="43.5811033" lon="11.3876317"><ele>477.6666666666667</ele><time>2026-04-17T14:12:44.086Z</time></trkpt><trkpt lat="43.5809217" lon="11.3876283"><ele>480.33333333333337</ele><time>2026-04-17T14:12:45.086Z</time></trkpt><trkpt lat="43.5807317" lon="11.3876317"><ele>483.0</ele><time>2026-04-17T14:12:46.086Z</time></trkpt><trkpt lat="43.5805333" lon="11.3876417"><ele>484.0</ele><time>2026-04-17T14:12:47.087Z</time></trkpt><trkpt lat="43.5803417" lon="11.387665"><ele>485.0</ele><time>2026-04-17T14:12:48.087Z</time></trkpt><trkpt lat="43.580145" lon="11.3877"><ele>486.0</ele><time>2026-04-17T14:12:49.086Z</time></trkpt><trkpt lat="43.5799583" lon="11.3877383"><ele>486.0</ele><time>2026-04-17T14:12:50.086Z</time></trkpt><trkpt lat="43.5797767" lon="11.3877883"><ele>486.0</ele><time>2026-04-17T14:12:51.087Z</time></trkpt><trkpt lat="43.5796067" lon="11.3878417"><ele>486.0</ele><time>2026-04-17T14:12:52.086Z</time></trkpt><trkpt lat="43.57946" lon="11.3878833"><ele>487.33333333333337</ele><time>2026-04-17T14:12:53.087Z</time></trkpt><trkpt lat="43.579315" lon="11.38789"><ele>488.6666666666667</ele><time>2026-04-17T14:12:54.086Z</time></trkpt><trkpt lat="43.57916" lon="11.3878483"><ele>490.0</ele><time>2026-04-17T14:12:55.086Z</time></trkpt><trkpt lat="43.5790167" lon="11.3877567"><ele>490.0</ele><time>2026-04-17T14:12:56.087Z</time></trkpt><trkpt lat="43.5788717" lon="11.3876333"><ele>490.0</ele><time>2026-04-17T14:12:57.086Z</time></trkpt><trkpt lat="43.5787167" lon="11.3874983"><ele>490.0</ele><time>2026-04-17T14:12:58.086Z</time></trkpt><trkpt lat="43.5785517" lon="11.3873417"><ele>492.0</ele><time>2026-04-17T14:12:59.087Z</time></trkpt><trkpt lat="43.5783833" lon="11.3871833"><ele>494.0</ele><time>2026-04-17T14:13:00.086Z</time></trkpt><trkpt lat="43.5782167" lon="11.387025"><ele>496.0</ele><time>2026-04-17T14:13:01.086Z</time></trkpt><trkpt lat="43.578055" lon="11.3868717"><ele>496.0</ele><time>2026-04-17T14:13:02.086Z</time></trkpt><trkpt lat="43.577895" lon="11.38672"><ele>496.0</ele><time>2026-04-17T14:13:03.087Z</time></trkpt><trkpt lat="43.57774" lon="11.3865817"><ele>496.0</ele><time>2026-04-17T14:13:04.087Z</time></trkpt><trkpt lat="43.5775917" lon="11.3864467"><ele>501.0</ele><time>2026-04-17T14:13:05.086Z</time></trkpt><trkpt lat="43.5774333" lon="11.386335"><ele>506.0</ele><time>2026-04-17T14:13:06.086Z</time></trkpt><trkpt lat="43.5772767" lon="11.3862433"><ele>511.0</ele><time>2026-04-17T14:13:07.087Z</time></trkpt><trkpt lat="43.5771117" lon="11.38618"><ele>513.0</ele><time>2026-04-17T14:13:08.087Z</time></trkpt><trkpt lat="43.5769383" lon="11.3861567"><ele>515.0</ele><time>2026-04-17T14:13:09.086Z</time></trkpt><trkpt lat="43.5767617" lon="11.386165"><ele>517.0</ele><time>2026-04-17T14:13:10.086Z</time></trkpt><trkpt lat="43.57658" lon="11.3862033"><ele>517.0</ele><time>2026-04-17T14:13:11.086Z</time></trkpt><trkpt lat="43.5763933" lon="11.3862467"><ele>517.0</ele><time>2026-04-17T14:13:12.086Z</time></trkpt><trkpt lat="43.5762167" lon="11.3862817"><ele>517.0</ele><time>2026-04-17T14:13:13.087Z</time></trkpt><trkpt lat="43.5760383" lon="11.3863217"><ele>515.0</ele><time>2026-04-17T14:13:14.086Z</time></trkpt><trkpt lat="43.5758567" lon="11.3863667"><ele>513.0</ele><time>2026-04-17T14:13:15.086Z</time></trkpt><trkpt lat="43.5756733" lon="11.3864133"><ele>511.0</ele><time>2026-04-17T14:13:16.087Z</time></trkpt><trkpt lat="43.575495" lon="11.3864517"><ele>514.6666666666667</ele><time>2026-04-17T14:13:17.087Z</time></trkpt><trkpt lat="43.57531" lon="11.38649"><ele>518.3333333333334</ele><time>2026-04-17T14:13:18.087Z</time></trkpt><trkpt lat="43.57513" lon="11.3865217"><ele>522.0</ele><time>2026-04-17T14:13:19.086Z</time></trkpt><trkpt lat="43.5749533" lon="11.3865533"><ele>522.0</ele><time>2026-04-17T14:13:20.086Z</time></trkpt><trkpt lat="43.5747883" lon="11.38659"><ele>522.0</ele><time>2026-04-17T14:13:21.086Z</time></trkpt><trkpt lat="43.574635" lon="11.3866367"><ele>522.0</ele><time>2026-04-17T14:13:22.086Z</time></trkpt><trkpt lat="43.574495" lon="11.3866967"><ele>523.75</ele><time>2026-04-17T14:13:23.087Z</time></trkpt><trkpt lat="43.5743633" lon="11.3867983"><ele>525.5</ele><time>2026-04-17T14:13:24.086Z</time></trkpt><trkpt lat="43.5742567" lon="11.3869167"><ele>527.25</ele><time>2026-04-17T14:13:25.086Z</time></trkpt><trkpt lat="43.5741617" lon="11.3870783"><ele>529.0</ele><time>2026-04-17T14:13:26.086Z</time></trkpt><trkpt lat="43.574095" lon="11.3872733"><ele>529.0</ele><time>2026-04-17T14:13:27.086Z</time></trkpt><trkpt lat="43.5740633" lon="11.38748"><ele>529.0</ele><time>2026-04-17T14:13:28.086Z</time></trkpt><trkpt lat="43.5740667" lon="11.3877017"><ele>529.0</ele><time>2026-04-17T14:13:29.086Z</time></trkpt><trkpt lat="43.5741217" lon="11.3879283"><ele>528.3333333333334</ele><time>2026-04-17T14:13:30.086Z</time></trkpt><trkpt lat="43.5741983" lon="11.388145"><ele>527.6666666666666</ele><time>2026-04-17T14:13:31.086Z</time></trkpt><trkpt lat="43.574265" lon="11.388355"><ele>527.0</ele><time>2026-04-17T14:13:32.086Z</time></trkpt><trkpt lat="43.5743283" lon="11.3885483"><ele>527.0</ele><time>2026-04-17T14:13:33.087Z</time></trkpt><trkpt lat="43.5743833" lon="11.3887317"><ele>527.0</ele><time>2026-04-17T14:13:34.087Z</time></trkpt><trkpt lat="43.57442" lon="11.388905"><ele>527.0</ele><time>2026-04-17T14:13:35.086Z</time></trkpt><trkpt lat="43.5744167" lon="11.389065"><ele>527.0</ele><time>2026-04-17T14:13:36.086Z</time></trkpt><trkpt lat="43.5743683" lon="11.3892217"><ele>526.5</ele><time>2026-04-17T14:13:37.087Z</time></trkpt><trkpt lat="43.5742867" lon="11.389365"><ele>526.0</ele><time>2026-04-17T14:13:38.086Z</time></trkpt><trkpt lat="43.57418" lon="11.3894583"><ele>525.5</ele><time>2026-04-17T14:13:39.086Z</time></trkpt><trkpt lat="43.5740533" lon="11.3895083"><ele>525.0</ele><time>2026-04-17T14:13:40.086Z</time></trkpt><trkpt lat="43.5739017" lon="11.3895117"><ele>525.0</ele><time>2026-04-17T14:13:41.087Z</time></trkpt><trkpt lat="43.5737517" lon="11.3894933"><ele>525.0</ele><time>2026-04-17T14:13:42.087Z</time></trkpt><trkpt lat="43.5735883" lon="11.3894617"><ele>525.0</ele><time>2026-04-17T14:13:43.087Z</time></trkpt><trkpt lat="43.5734183" lon="11.3893917"><ele>526.25</ele><time>2026-04-17T14:13:44.087Z</time></trkpt><trkpt lat="43.573275" lon="11.3893133"><ele>527.5</ele><time>2026-04-17T14:13:45.086Z</time></trkpt><trkpt lat="43.573145" lon="11.389225"><ele>528.75</ele><time>2026-04-17T14:13:46.087Z</time></trkpt><trkpt lat="43.5730383" lon="11.3891283"><ele>530.0</ele><time>2026-04-17T14:13:47.086Z</time></trkpt><trkpt lat="43.57295" lon="11.38902"><ele>530.0</ele><time>2026-04-17T14:13:48.086Z</time></trkpt><trkpt lat="43.5728967" lon="11.38886"><ele>530.0</ele><time>2026-04-17T14:13:49.086Z</time></trkpt><trkpt lat="43.572895" lon="11.3886783"><ele>530.0</ele><time>2026-04-17T14:13:50.087Z</time></trkpt><trkpt lat="43.5729333" lon="11.3885167"><ele>530.0</ele><time>2026-04-17T14:13:51.086Z</time></trkpt><trkpt lat="43.5729883" lon="11.3883417"><ele>532.0</ele><time>2026-04-17T14:13:52.086Z</time></trkpt><trkpt lat="43.5730467" lon="11.3881633"><ele>534.0</ele><time>2026-04-17T14:13:53.086Z</time></trkpt><trkpt lat="43.5731" lon="11.3879883"><ele>536.0</ele><time>2026-04-17T14:13:54.086Z</time></trkpt><trkpt lat="43.573135" lon="11.3878167"><ele>538.0</ele><time>2026-04-17T14:13:55.087Z</time></trkpt><trkpt lat="43.57316" lon="11.3876517"><ele>538.25</ele><time>2026-04-17T14:13:56.086Z</time></trkpt><trkpt lat="43.5731517" lon="11.387475"><ele>538.5</ele><time>2026-04-17T14:13:57.087Z</time></trkpt><trkpt lat="43.5731183" lon="11.3873"><ele>538.75</ele><time>2026-04-17T14:13:58.087Z</time></trkpt><trkpt lat="43.5730617" lon="11.3871383"><ele>539.0</ele><time>2026-04-17T14:13:59.086Z</time></trkpt><trkpt lat="43.5729783" lon="11.3870033"><ele>541.0</ele><time>2026-04-17T14:14:00.086Z</time></trkpt><trkpt lat="43.572865" lon="11.386895"><ele>543.0</ele><time>2026-04-17T14:14:01.086Z</time></trkpt><trkpt lat="43.5727233" lon="11.3868133"><ele>545.0</ele><time>2026-04-17T14:14:02.086Z</time></trkpt><trkpt lat="43.5725683" lon="11.38676"><ele>547.3333333333333</ele><time>2026-04-17T14:14:03.086Z</time></trkpt><trkpt lat="43.5724167" lon="11.3867117"><ele>549.6666666666666</ele><time>2026-04-17T14:14:04.086Z</time></trkpt><trkpt lat="43.5722617" lon="11.3866933"><ele>552.0</ele><time>2026-04-17T14:14:05.087Z</time></trkpt><trkpt lat="43.5721067" lon="11.3867333"><ele>558.6666666666666</ele><time>2026-04-17T14:14:06.086Z</time></trkpt><trkpt lat="43.571945" lon="11.38679"><ele>565.3333333333333</ele><time>2026-04-17T14:14:07.086Z</time></trkpt><trkpt lat="43.5717983" lon="11.3868633"><ele>572.0</ele><time>2026-04-17T14:14:08.086Z</time></trkpt><trkpt lat="43.5716617" lon="11.3869717"><ele>572.0</ele><time>2026-04-17T14:14:09.087Z</time></trkpt><trkpt lat="43.5715483" lon="11.387115"><ele>572.0</ele><time>2026-04-17T14:14:10.087Z</time></trkpt><trkpt lat="43.5714383" lon="11.3872517"><ele>572.0</ele><time>2026-04-17T14:14:11.086Z</time></trkpt><trkpt lat="43.571335" lon="11.3873733"><ele>572.0</ele><time>2026-04-17T14:14:12.087Z</time></trkpt><trkpt lat="43.57121" lon="11.38742"><ele>574.25</ele><time>2026-04-17T14:14:13.086Z</time></trkpt><trkpt lat="43.571085" lon="11.3874117"><ele>576.5</ele><time>2026-04-17T14:14:14.087Z</time></trkpt><trkpt lat="43.5709433" lon="11.3873483"><ele>578.75</ele><time>2026-04-17T14:14:15.086Z</time></trkpt><trkpt lat="43.5708" lon="11.387265"><ele>581.0</ele><time>2026-04-17T14:14:16.087Z</time></trkpt><trkpt lat="43.57066" lon="11.3871517"><ele>581.0</ele><time>2026-04-17T14:14:17.087Z</time></trkpt><trkpt lat="43.570525" lon="11.3870217"><ele>581.0</ele><time>2026-04-17T14:14:18.086Z</time></trkpt><trkpt lat="43.5703917" lon="11.38688"><ele>581.0</ele><time>2026-04-17T14:14:19.086Z</time></trkpt><trkpt lat="43.57026" lon="11.3867233"><ele>583.3333333333333</ele><time>2026-04-17T14:14:20.087Z</time></trkpt><trkpt lat="43.570135" lon="11.3865683"><ele>585.6666666666666</ele><time>2026-04-17T14:14:21.087Z</time></trkpt><trkpt lat="43.57" lon="11.38643"><ele>588.0</ele><time>2026-04-17T14:14:22.087Z</time></trkpt><trkpt lat="43.569865" lon="11.3863333"><ele>588.0</ele><time>2026-04-17T14:14:23.086Z</time></trkpt><trkpt lat="43.5697467" lon="11.38625"><ele>588.0</ele><time>2026-04-17T14:14:24.086Z</time></trkpt><trkpt lat="43.5696467" lon="11.3861617"><ele>588.0</ele><time>2026-04-17T14:14:25.086Z</time></trkpt><trkpt lat="43.5695867" lon="11.38607"><ele>588.0</ele><time>2026-04-17T14:14:26.086Z</time></trkpt><trkpt lat="43.5695567" lon="11.3859433"><ele>588.0</ele><time>2026-04-17T14:14:27.086Z</time></trkpt><trkpt lat="43.5695833" lon="11.38582"><ele>588.0</ele><time>2026-04-17T14:14:28.086Z</time></trkpt><trkpt lat="43.569655" lon="11.3857183"><ele>588.0</ele><time>2026-04-17T14:14:29.086Z</time></trkpt><trkpt lat="43.5697517" lon="11.3856717"><ele>588.0</ele><time>2026-04-17T14:14:30.086Z</time></trkpt><trkpt lat="43.5698633" lon="11.385685"><ele>588.0</ele><time>2026-04-17T14:14:31.087Z</time></trkpt><trkpt lat="43.569955" lon="11.3857517"><ele>588.0</ele><time>2026-04-17T14:14:32.086Z</time></trkpt><trkpt lat="43.5700383" lon="11.3858783"><ele>588.0</ele><time>2026-04-17T14:14:33.087Z</time></trkpt><trkpt lat="43.5701383" lon="11.386015"><ele>588.0</ele><time>2026-04-17T14:14:34.087Z</time></trkpt><trkpt lat="43.5702433" lon="11.3861317"><ele>588.0</ele><time>2026-04-17T14:14:35.087Z</time></trkpt><trkpt lat="43.5703667" lon="11.38622"><ele>588.0</ele><time>2026-04-17T14:14:36.086Z</time></trkpt><trkpt lat="43.57051" lon="11.386285"><ele>592.0</ele><time>2026-04-17T14:14:37.086Z</time></trkpt><trkpt lat="43.5706717" lon="11.38631"><ele>596.0</ele><time>2026-04-17T14:14:38.087Z</time></trkpt><trkpt lat="43.570835" lon="11.3863167"><ele>600.0</ele><time>2026-04-17T14:14:39.086Z</time></trkpt><trkpt lat="43.5709983" lon="11.3863017"><ele>600.0</ele><time>2026-04-17T14:14:40.086Z</time></trkpt><trkpt lat="43.57115" lon="11.38631"><ele>600.0</ele><time>2026-04-17T14:14:41.087Z</time></trkpt><trkpt lat="43.5712867" lon="11.3862917"><ele>600.0</ele><time>2026-04-17T14:14:42.087Z</time></trkpt><trkpt lat="43.57142" lon="11.3862167"><ele>600.0</ele><time>2026-04-17T14:14:43.087Z</time></trkpt><trkpt lat="43.5715483" lon="11.3860967"><ele>599.0</ele><time>2026-04-17T14:14:44.087Z</time></trkpt><trkpt lat="43.5716533" lon="11.38593"><ele>598.0</ele><time>2026-04-17T14:14:45.086Z</time></trkpt><trkpt lat="43.5717483" lon="11.385745"><ele>597.0</ele><time>2026-04-17T14:14:46.087Z</time></trkpt><trkpt lat="43.571825" lon="11.38554"><ele>599.75</ele><time>2026-04-17T14:14:47.086Z</time></trkpt><trkpt lat="43.571865" lon="11.385335"><ele>602.5</ele><time>2026-04-17T14:14:48.086Z</time></trkpt><trkpt lat="43.5718633" lon="11.385145"><ele>605.25</ele><time>2026-04-17T14:14:49.086Z</time></trkpt><trkpt lat="43.5718133" lon="11.384965"><ele>608.0</ele><time>2026-04-17T14:14:50.086Z</time></trkpt><trkpt lat="43.5717367" lon="11.3848217"><ele>608.0</ele><time>2026-04-17T14:14:51.086Z</time></trkpt><trkpt lat="43.5716133" lon="11.3847267"><ele>608.0</ele><time>2026-04-17T14:14:52.087Z</time></trkpt><trkpt lat="43.5714617" lon="11.3846617"><ele>608.0</ele><time>2026-04-17T14:14:53.086Z</time></trkpt><trkpt lat="43.5712933" lon="11.38461"><ele>610.3333333333333</ele><time>2026-04-17T14:14:54.087Z</time></trkpt><trkpt lat="43.571125" lon="11.3845383"><ele>612.6666666666666</ele><time>2026-04-17T14:14:55.086Z</time></trkpt><trkpt lat="43.5709683" lon="11.38445"><ele>615.0</ele><time>2026-04-17T14:14:56.087Z</time></trkpt><trkpt lat="43.5708267" lon="11.384335"><ele>615.0</ele><time>2026-04-17T14:14:57.086Z</time></trkpt><trkpt lat="43.570695" lon="11.3842067"><ele>615.0</ele><time>2026-04-17T14:14:58.087Z</time></trkpt><trkpt lat="43.5705633" lon="11.3840683"><ele>615.0</ele><time>2026-04-17T14:14:59.087Z</time></trkpt><trkpt lat="43.5704383" lon="11.3839267"><ele>616.5</ele><time>2026-04-17T14:15:00.087Z</time></trkpt><trkpt lat="43.57033" lon="11.3837833"><ele>618.0</ele><time>2026-04-17T14:15:01.086Z</time></trkpt><trkpt lat="43.5702283" lon="11.383645"><ele>619.5</ele><time>2026-04-17T14:15:02.086Z</time></trkpt><trkpt lat="43.570145" lon="11.383495"><ele>621.0</ele><time>2026-04-17T14:15:03.086Z</time></trkpt><trkpt lat="43.5700667" lon="11.38335"><ele>621.0</ele><time>2026-04-17T14:15:04.087Z</time></trkpt><trkpt lat="43.5699933" lon="11.3832383"><ele>621.0</ele><time>2026-04-17T14:15:05.086Z</time></trkpt><trkpt lat="43.5699117" lon="11.3831483"><ele>621.0</ele><time>2026-04-17T14:15:06.086Z</time></trkpt><trkpt lat="43.5698133" lon="11.3831217"><ele>621.0</ele><time>2026-04-17T14:15:07.087Z</time></trkpt><trkpt lat="43.5697133" lon="11.3831217"><ele>621.0</ele><time>2026-04-17T14:15:08.087Z</time></trkpt><trkpt lat="43.5696133" lon="11.383095"><ele>621.75</ele><time>2026-04-17T14:15:09.087Z</time></trkpt><trkpt lat="43.5695233" lon="11.3830333"><ele>622.5</ele><time>2026-04-17T14:15:10.087Z</time></trkpt><trkpt lat="43.569415" lon="11.382965"><ele>623.25</ele><time>2026-04-17T14:15:11.086Z</time></trkpt><trkpt lat="43.56929" lon="11.38291"><ele>624.0</ele><time>2026-04-17T14:15:12.086Z</time></trkpt><trkpt lat="43.569145" lon="11.3829117"><ele>630.0</ele><time>2026-04-17T14:15:13.086Z</time></trkpt><trkpt lat="43.56899" lon="11.3829467"><ele>636.0</ele><time>2026-04-17T14:15:14.086Z</time></trkpt><trkpt lat="43.568835" lon="11.3830017"><ele>642.0</ele><time>2026-04-17T14:15:15.086Z</time></trkpt><trkpt lat="43.5686733" lon="11.383065"><ele>642.0</ele><time>2026-04-17T14:15:16.086Z</time></trkpt><trkpt lat="43.5685183" lon="11.3831217"><ele>642.0</ele><time>2026-04-17T14:15:17.087Z</time></trkpt><trkpt lat="43.5683683" lon="11.3831867"><ele>642.0</ele><time>2026-04-17T14:15:18.086Z</time></trkpt><trkpt lat="43.5682" lon="11.3832533"><ele>642.0</ele><time>2026-04-17T14:15:19.086Z</time></trkpt><trkpt lat="43.5680383" lon="11.38333"><ele>642.0</ele><time>2026-04-17T14:15:20.086Z</time></trkpt><trkpt lat="43.5678683" lon="11.3834"><ele>642.0</ele><time>2026-04-17T14:15:21.087Z</time></trkpt><trkpt lat="43.5677033" lon="11.383465"><ele>646.3333333333334</ele><time>2026-04-17T14:15:22.087Z</time></trkpt><trkpt lat="43.5675417" lon="11.3835217"><ele>650.6666666666667</ele><time>2026-04-17T14:15:23.086Z</time></trkpt><trkpt lat="43.5673833" lon="11.3835933"><ele>655.0</ele><time>2026-04-17T14:15:24.087Z</time></trkpt><trkpt lat="43.56721" lon="11.38364"><ele>655.0</ele><time>2026-04-17T14:15:25.087Z</time></trkpt><trkpt lat="43.5670367" lon="11.3836683"><ele>655.0</ele><time>2026-04-17T14:15:26.086Z</time></trkpt><trkpt lat="43.5668667" lon="11.3836683"><ele>655.0</ele><time>2026-04-17T14:15:27.086Z</time></trkpt><trkpt lat="43.5666917" lon="11.38366"><ele>659.3333333333334</ele><time>2026-04-17T14:15:28.086Z</time></trkpt><trkpt lat="43.56652" lon="11.38365"><ele>663.6666666666666</ele><time>2026-04-17T14:15:29.086Z</time></trkpt><trkpt lat="43.5663383" lon="11.3836417"><ele>668.0</ele><time>2026-04-17T14:15:30.086Z</time></trkpt><trkpt lat="43.56614" lon="11.3836383"><ele>671.6666666666666</ele><time>2026-04-17T14:15:31.086Z</time></trkpt><trkpt lat="43.565955" lon="11.38367"><ele>675.3333333333334</ele><time>2026-04-17T14:15:32.086Z</time></trkpt><trkpt lat="43.5657767" lon="11.3837083"><ele>679.0</ele><time>2026-04-17T14:15:33.086Z</time></trkpt><trkpt lat="43.5656017" lon="11.3837533"><ele>679.0</ele><time>2026-04-17T14:15:34.087Z</time></trkpt><trkpt lat="43.5654317" lon="11.3837933"><ele>679.0</ele><time>2026-04-17T14:15:35.086Z</time></trkpt><trkpt lat="43.565265" lon="11.383825"><ele>679.0</ele><time>2026-04-17T14:15:36.087Z</time></trkpt><trkpt lat="43.5651117" lon="11.3838533"><ele>678.25</ele><time>2026-04-17T14:15:37.087Z</time></trkpt><trkpt lat="43.5649717" lon="11.3838783"><ele>677.5</ele><time>2026-04-17T14:15:38.086Z</time></trkpt><trkpt lat="43.5648467" lon="11.38393"><ele>676.75</ele><time>2026-04-17T14:15:39.086Z</time></trkpt><trkpt lat="43.564735" lon="11.3840383"><ele>676.0</ele><time>2026-04-17T14:15:40.086Z</time></trkpt><trkpt lat="43.5646367" lon="11.3841833"><ele>676.0</ele><time>2026-04-17T14:15:41.087Z</time></trkpt><trkpt lat="43.56456" lon="11.3843233"><ele>676.0</ele><time>2026-04-17T14:15:42.086Z</time></trkpt><trkpt lat="43.56447" lon="11.3844117"><ele>676.0</ele><time>2026-04-17T14:15:43.086Z</time></trkpt><trkpt lat="43.5643517" lon="11.3844583"><ele>676.0</ele><time>2026-04-17T14:15:44.087Z</time></trkpt><trkpt lat="43.5642033" lon="11.384495"><ele>676.6666666666667</ele><time>2026-04-17T14:15:45.086Z</time></trkpt><trkpt lat="43.564045" lon="11.3845433"><ele>677.3333333333334</ele><time>2026-04-17T14:15:46.086Z</time></trkpt><trkpt lat="43.5638833" lon="11.384605"><ele>678.0</ele><time>2026-04-17T14:15:47.086Z</time></trkpt><trkpt lat="43.563725" lon="11.3846883"><ele>686.3333333333334</ele><time>2026-04-17T14:15:48.087Z</time></trkpt><trkpt lat="43.5635817" lon="11.3847817"><ele>694.6666666666667</ele><time>2026-04-17T14:15:49.086Z</time></trkpt><trkpt lat="43.5634383" lon="11.3848817"><ele>703.0</ele><time>2026-04-17T14:15:50.086Z</time></trkpt><trkpt lat="43.5633067" lon="11.3849467"><ele>703.0</ele><time>2026-04-17T14:15:51.087Z</time></trkpt><trkpt lat="43.5631767" lon="11.38501"><ele>703.0</ele><time>2026-04-17T14:15:52.087Z</time></trkpt><trkpt lat="43.56306" lon="11.3850567"><ele>703.0</ele><time>2026-04-17T14:15:53.086Z</time></trkpt><trkpt lat="43.5629667" lon="11.3851017"><ele>703.0</ele><time>2026-04-17T14:15:54.086Z</time></trkpt><trkpt lat="43.56289" lon="11.385175"><ele>704.75</ele><time>2026-04-17T14:15:55.087Z</time></trkpt><trkpt lat="43.5628333" lon="11.3852733"><ele>706.5</ele><time>2026-04-17T14:15:56.086Z</time></trkpt><trkpt lat="43.5628167" lon="11.3854067"><ele>708.25</ele><time>2026-04-17T14:15:57.086Z</time></trkpt><trkpt lat="43.562825" lon="11.3855833"><ele>710.0</ele><time>2026-04-17T14:15:58.087Z</time></trkpt><trkpt lat="43.5628717" lon="11.3857783"><ele>705.0</ele><time>2026-04-17T14:15:59.086Z</time></trkpt><trkpt lat="43.562925" lon="11.38599"><ele>700.0</ele><time>2026-04-17T14:16:00.087Z</time></trkpt><trkpt lat="43.5629433" lon="11.3861983"><ele>695.0</ele><time>2026-04-17T14:16:01.087Z</time></trkpt><trkpt lat="43.5629283" lon="11.3863917"><ele>695.0</ele><time>2026-04-17T14:16:02.087Z</time></trkpt><trkpt lat="43.5628767" lon="11.3865833"><ele>695.0</ele><time>2026-04-17T14:16:03.086Z</time></trkpt><trkpt lat="43.5628067" lon="11.3867567"><ele>695.0</ele><time>2026-04-17T14:16:04.086Z</time></trkpt><trkpt lat="43.5627083" lon="11.3868833"><ele>695.0</ele><time>2026-04-17T14:16:05.087Z</time></trkpt><trkpt lat="43.56259" lon="11.387"><ele>696.0</ele><time>2026-04-17T14:16:06.086Z</time></trkpt><trkpt lat="43.5624633" lon="11.3870983"><ele>697.0</ele><time>2026-04-17T14:16:07.086Z</time></trkpt><trkpt lat="43.5623317" lon="11.3872183"><ele>698.0</ele><time>2026-04-17T14:16:08.085Z</time></trkpt><trkpt lat="43.562205" lon="11.387355"><ele>698.0</ele><time>2026-04-17T14:16:09.086Z</time></trkpt><trkpt lat="43.5621033" lon="11.3875083"><ele>698.0</ele><time>2026-04-17T14:16:10.085Z</time></trkpt><trkpt lat="43.5620333" lon="11.387685"><ele>698.0</ele><time>2026-04-17T14:16:11.086Z</time></trkpt><trkpt lat="43.56196" lon="11.3878733"><ele>702.0</ele><time>2026-04-17T14:16:12.085Z</time></trkpt><trkpt lat="43.5618733" lon="11.3880617"><ele>706.0</ele><time>2026-04-17T14:16:13.085Z</time></trkpt><trkpt lat="43.5617617" lon="11.3882467"><ele>710.0</ele><time>2026-04-17T14:16:14.086Z</time></trkpt><trkpt lat="43.5616333" lon="11.388415"><ele>710.0</ele><time>2026-04-17T14:16:15.086Z</time></trkpt><trkpt lat="43.5615117" lon="11.3885883"><ele>710.0</ele><time>2026-04-17T14:16:16.085Z</time></trkpt><trkpt lat="43.5613883" lon="11.3887467"><ele>710.0</ele><time>2026-04-17T14:16:17.085Z</time></trkpt><trkpt lat="43.5612483" lon="11.38888"><ele>708.0</ele><time>2026-04-17T14:16:18.086Z</time></trkpt><trkpt lat="43.5610967" lon="11.388985"><ele>706.0</ele><time>2026-04-17T14:16:19.085Z</time></trkpt><trkpt lat="43.5609283" lon="11.3890883"><ele>704.0</ele><time>2026-04-17T14:16:20.086Z</time></trkpt><trkpt lat="43.5607683" lon="11.3892033"><ele>704.0</ele><time>2026-04-17T14:16:21.086Z</time></trkpt><trkpt lat="43.56063" lon="11.3893583"><ele>704.0</ele><time>2026-04-17T14:16:22.085Z</time></trkpt><trkpt lat="43.5604983" lon="11.3895483"><ele>704.0</ele><time>2026-04-17T14:16:23.086Z</time></trkpt><trkpt lat="43.560375" lon="11.389735"><ele>704.0</ele><time>2026-04-17T14:16:24.085Z</time></trkpt><trkpt lat="43.5602467" lon="11.3899067"><ele>704.0</ele><time>2026-04-17T14:16:25.086Z</time></trkpt><trkpt lat="43.5601267" lon="11.390065"><ele>704.0</ele><time>2026-04-17T14:16:26.085Z</time></trkpt><trkpt lat="43.5600083" lon="11.39023"><ele>704.0</ele><time>2026-04-17T14:16:27.085Z</time></trkpt><trkpt lat="43.5599083" lon="11.3904017"><ele>704.0</ele><time>2026-04-17T14:16:28.086Z</time></trkpt><trkpt lat="43.559845" lon="11.3905967"><ele>704.0</ele><time>2026-04-17T14:16:29.085Z</time></trkpt><trkpt lat="43.5597917" lon="11.3908083"><ele>701.3333333333333</ele><time>2026-04-17T14:16:30.085Z</time></trkpt><trkpt lat="43.5597333" lon="11.3910183"><ele>698.6666666666666</ele><time>2026-04-17T14:16:31.085Z</time></trkpt><trkpt lat="43.5596667" lon="11.3911967"><ele>696.0</ele><time>2026-04-17T14:16:32.085Z</time></trkpt><trkpt lat="43.5595917" lon="11.39137"><ele>698.5</ele><time>2026-04-17T14:16:33.085Z</time></trkpt><trkpt lat="43.5594917" lon="11.3915133"><ele>701.0</ele><time>2026-04-17T14:16:34.085Z</time></trkpt><trkpt lat="43.5593633" lon="11.391635"><ele>703.5</ele><time>2026-04-17T14:16:35.086Z</time></trkpt><trkpt lat="43.5592383" lon="11.3917367"><ele>706.0</ele><time>2026-04-17T14:16:36.085Z</time></trkpt><trkpt lat="43.5591283" lon="11.3918617"><ele>706.0</ele><time>2026-04-17T14:16:37.086Z</time></trkpt><trkpt lat="43.5590317" lon="11.3920333"><ele>706.0</ele><time>2026-04-17T14:16:38.085Z</time></trkpt><trkpt lat="43.5589717" lon="11.3922283"><ele>706.0</ele><time>2026-04-17T14:16:39.085Z</time></trkpt><trkpt lat="43.55891" lon="11.3924317"><ele>703.6666666666667</ele><time>2026-04-17T14:16:40.085Z</time></trkpt><trkpt lat="43.558835" lon="11.3926333"><ele>701.3333333333334</ele><time>2026-04-17T14:16:41.085Z</time></trkpt><trkpt lat="43.55874" lon="11.3927883"><ele>699.0</ele><time>2026-04-17T14:16:42.085Z</time></trkpt><trkpt lat="43.5586133" lon="11.39292"><ele>705.0</ele><time>2026-04-17T14:16:43.086Z</time></trkpt><trkpt lat="43.5584767" lon="11.3930567"><ele>711.0</ele><time>2026-04-17T14:16:44.085Z</time></trkpt><trkpt lat="43.55835" lon="11.3932233"><ele>717.0</ele><time>2026-04-17T14:16:45.086Z</time></trkpt><trkpt lat="43.55826" lon="11.3934267"><ele>717.0</ele><time>2026-04-17T14:16:46.085Z</time></trkpt><trkpt lat="43.5581767" lon="11.3936417"><ele>717.0</ele><time>2026-04-17T14:16:47.085Z</time></trkpt><trkpt lat="43.5580883" lon="11.3938583"><ele>717.0</ele><time>2026-04-17T14:16:48.085Z</time></trkpt><trkpt lat="43.557975" lon="11.3940333"><ele>719.6666666666666</ele><time>2026-04-17T14:16:49.086Z</time></trkpt><trkpt lat="43.5578467" lon="11.3942117"><ele>722.3333333333333</ele><time>2026-04-17T14:16:50.085Z</time></trkpt><trkpt lat="43.5577133" lon="11.3943717"><ele>725.0</ele><time>2026-04-17T14:16:51.085Z</time></trkpt><trkpt lat="43.5575883" lon="11.394505"><ele>725.0</ele><time>2026-04-17T14:16:52.086Z</time></trkpt><trkpt lat="43.5574533" lon="11.3945967"><ele>725.0</ele><time>2026-04-17T14:16:53.085Z</time></trkpt><trkpt lat="43.5573067" lon="11.3946433"><ele>725.0</ele><time>2026-04-17T14:16:54.086Z</time></trkpt><trkpt lat="43.5571383" lon="11.3946417"><ele>725.6666666666666</ele><time>2026-04-17T14:16:55.085Z</time></trkpt><trkpt lat="43.5569633" lon="11.39464"><ele>726.3333333333334</ele><time>2026-04-17T14:16:56.086Z</time></trkpt><trkpt lat="43.556785" lon="11.3946517"><ele>727.0</ele><time>2026-04-17T14:16:57.086Z</time></trkpt><trkpt lat="43.5566017" lon="11.3946833"><ele>724.6666666666667</ele><time>2026-04-17T14:16:58.085Z</time></trkpt><trkpt lat="43.5564217" lon="11.3947283"><ele>722.3333333333334</ele><time>2026-04-17T14:16:59.085Z</time></trkpt><trkpt lat="43.556255" lon="11.3947867"><ele>720.0</ele><time>2026-04-17T14:17:00.086Z</time></trkpt><trkpt lat="43.5560733" lon="11.394855"><ele>719.0</ele><time>2026-04-17T14:17:01.086Z</time></trkpt><trkpt lat="43.555895" lon="11.3948933"><ele>718.0</ele><time>2026-04-17T14:17:02.085Z</time></trkpt><trkpt lat="43.555715" lon="11.3949067"><ele>717.0</ele><time>2026-04-17T14:17:03.085Z</time></trkpt><trkpt lat="43.5555383" lon="11.3948917"><ele>719.6666666666666</ele><time>2026-04-17T14:17:04.085Z</time></trkpt><trkpt lat="43.5553617" lon="11.39488"><ele>722.3333333333333</ele><time>2026-04-17T14:17:05.085Z</time></trkpt><trkpt lat="43.5551967" lon="11.3949167"><ele>725.0</ele><time>2026-04-17T14:17:06.085Z</time></trkpt><trkpt lat="43.5550383" lon="11.3949933"><ele>725.0</ele><time>2026-04-17T14:17:07.085Z</time></trkpt><trkpt lat="43.554885" lon="11.3950967"><ele>725.0</ele><time>2026-04-17T14:17:08.085Z</time></trkpt><trkpt lat="43.554735" lon="11.3951983"><ele>725.0</ele><time>2026-04-17T14:17:09.085Z</time></trkpt><trkpt lat="43.554595" lon="11.3952667"><ele>727.75</ele><time>2026-04-17T14:17:10.085Z</time></trkpt><trkpt lat="43.5544583" lon="11.3952617"><ele>730.5</ele><time>2026-04-17T14:17:11.086Z</time></trkpt><trkpt lat="43.5543233" lon="11.3951983"><ele>733.25</ele><time>2026-04-17T14:17:12.085Z</time></trkpt><trkpt lat="43.554185" lon="11.395085"><ele>736.0</ele><time>2026-04-17T14:17:13.085Z</time></trkpt><trkpt lat="43.554045" lon="11.39497"><ele>736.0</ele><time>2026-04-17T14:17:14.086Z</time></trkpt><trkpt lat="43.5539067" lon="11.3948567"><ele>736.0</ele><time>2026-04-17T14:17:15.086Z</time></trkpt><trkpt lat="43.55379" lon="11.39478"><ele>736.0</ele><time>2026-04-17T14:17:16.086Z</time></trkpt><trkpt lat="43.5536667" lon="11.3947683"><ele>736.0</ele><time>2026-04-17T14:17:17.085Z</time></trkpt><trkpt lat="43.55356" lon="11.3948167"><ele>737.0</ele><time>2026-04-17T14:17:18.086Z</time></trkpt><trkpt lat="43.55347" lon="11.394935"><ele>738.0</ele><time>2026-04-17T14:17:19.085Z</time></trkpt><trkpt lat="43.553395" lon="11.3951117"><ele>739.0</ele><time>2026-04-17T14:17:20.086Z</time></trkpt><trkpt lat="43.5533333" lon="11.3953333"><ele>740.0</ele><time>2026-04-17T14:17:21.085Z</time></trkpt><trkpt lat="43.553275" lon="11.3955567"><ele>740.0</ele><time>2026-04-17T14:17:22.085Z</time></trkpt><trkpt lat="43.5532017" lon="11.3957567"><ele>740.0</ele><time>2026-04-17T14:17:23.085Z</time></trkpt><trkpt lat="43.553105" lon="11.3959333"><ele>740.0</ele><time>2026-04-17T14:17:24.086Z</time></trkpt><trkpt lat="43.55298" lon="11.3960817"><ele>744.3333333333333</ele><time>2026-04-17T14:17:25.085Z</time></trkpt><trkpt lat="43.5528383" lon="11.3962017"><ele>748.6666666666666</ele><time>2026-04-17T14:17:26.086Z</time></trkpt><trkpt lat="43.5526767" lon="11.396315"><ele>753.0</ele><time>2026-04-17T14:17:27.086Z</time></trkpt><trkpt lat="43.5525083" lon="11.3964283"><ele>753.0</ele><time>2026-04-17T14:17:28.086Z</time></trkpt><trkpt lat="43.5523467" lon="11.39658"><ele>753.0</ele><time>2026-04-17T14:17:29.086Z</time></trkpt><trkpt lat="43.5521967" lon="11.3967683"><ele>753.0</ele><time>2026-04-17T14:17:30.085Z</time></trkpt><trkpt lat="43.55204" lon="11.3969567"><ele>752.6666666666666</ele><time>2026-04-17T14:17:31.085Z</time></trkpt><trkpt lat="43.5518717" lon="11.3971367"><ele>752.3333333333333</ele><time>2026-04-17T14:17:32.085Z</time></trkpt><trkpt lat="43.5516983" lon="11.3972983"><ele>752.0</ele><time>2026-04-17T14:17:33.085Z</time></trkpt><trkpt lat="43.551515" lon="11.39745"><ele>752.0</ele><time>2026-04-17T14:17:34.085Z</time></trkpt><trkpt lat="43.5513267" lon="11.3976017"><ele>752.0</ele><time>2026-04-17T14:17:35.085Z</time></trkpt><trkpt lat="43.551145" lon="11.3977483"><ele>752.0</ele><time>2026-04-17T14:17:36.085Z</time></trkpt><trkpt lat="43.550975" lon="11.39788"><ele>750.3333333333333</ele><time>2026-04-17T14:17:37.085Z</time></trkpt><trkpt lat="43.55082" lon="11.3980033"><ele>748.6666666666666</ele><time>2026-04-17T14:17:38.086Z</time></trkpt><trkpt lat="43.550675" lon="11.3981217"><ele>747.0</ele><time>2026-04-17T14:17:39.085Z</time></trkpt><trkpt lat="43.5505517" lon="11.3982283"><ele>747.0</ele><time>2026-04-17T14:17:40.085Z</time></trkpt><trkpt lat="43.55043" lon="11.398325"><ele>747.0</ele><time>2026-04-17T14:17:41.086Z</time></trkpt><trkpt lat="43.5503233" lon="11.39839"><ele>747.0</ele><time>2026-04-17T14:17:42.086Z</time></trkpt><trkpt lat="43.5501983" lon="11.3983967"><ele>747.0</ele><time>2026-04-17T14:17:43.086Z</time></trkpt><trkpt lat="43.550065" lon="11.3983583"><ele>746.3333333333334</ele><time>2026-04-17T14:17:44.086Z</time></trkpt><trkpt lat="43.549925" lon="11.3983017"><ele>745.6666666666667</ele><time>2026-04-17T14:17:45.085Z</time></trkpt><trkpt lat="43.5497717" lon="11.398225"><ele>745.0</ele><time>2026-04-17T14:17:46.086Z</time></trkpt><trkpt lat="43.5496133" lon="11.398135"><ele>744.0</ele><time>2026-04-17T14:17:47.086Z</time></trkpt><trkpt lat="43.5494417" lon="11.3980533"><ele>743.0</ele><time>2026-04-17T14:17:48.086Z</time></trkpt><trkpt lat="43.5492733" lon="11.3979767"><ele>742.0</ele><time>2026-04-17T14:17:49.085Z</time></trkpt><trkpt lat="43.549115" lon="11.3978933"><ele>742.0</ele><time>2026-04-17T14:17:50.086Z</time></trkpt><trkpt lat="43.5489583" lon="11.3978167"><ele>742.0</ele><time>2026-04-17T14:17:51.085Z</time></trkpt><trkpt lat="43.5487933" lon="11.39775"><ele>742.0</ele><time>2026-04-17T14:17:52.085Z</time></trkpt><trkpt lat="43.5486367" lon="11.397685"><ele>738.3333333333334</ele><time>2026-04-17T14:17:53.085Z</time></trkpt><trkpt lat="43.548485" lon="11.3976233"><ele>734.6666666666666</ele><time>2026-04-17T14:17:54.085Z</time></trkpt><trkpt lat="43.5483167" lon="11.3975833"><ele>731.0</ele><time>2026-04-17T14:17:55.086Z</time></trkpt><trkpt lat="43.5481433" lon="11.3975767"><ele>731.0</ele><time>2026-04-17T14:17:56.086Z</time></trkpt><trkpt lat="43.5479783" lon="11.39757"><ele>731.0</ele><time>2026-04-17T14:17:57.086Z</time></trkpt><trkpt lat="43.5478167" lon="11.3975783"><ele>731.0</ele><time>2026-04-17T14:17:58.086Z</time></trkpt><trkpt lat="43.54765" lon="11.3975717"><ele>727.3333333333333</ele><time>2026-04-17T14:17:59.086Z</time></trkpt><trkpt lat="43.5474917" lon="11.3975583"><ele>723.6666666666666</ele><time>2026-04-17T14:18:00.086Z</time></trkpt><trkpt lat="43.54734" lon="11.3975283"><ele>720.0</ele><time>2026-04-17T14:18:01.085Z</time></trkpt><trkpt lat="43.547195" lon="11.3974933"><ele>720.0</ele><time>2026-04-17T14:18:02.085Z</time></trkpt><trkpt lat="43.5470633" lon="11.3974667"><ele>720.0</ele><time>2026-04-17T14:18:03.086Z</time></trkpt><trkpt lat="43.546945" lon="11.397455"><ele>720.0</ele><time>2026-04-17T14:18:04.085Z</time></trkpt><trkpt lat="43.5468383" lon="11.3974583"><ele>720.0</ele><time>2026-04-17T14:18:05.086Z</time></trkpt><trkpt lat="43.5467483" lon="11.3975217"><ele>717.4</ele><time>2026-04-17T14:18:06.086Z</time></trkpt><trkpt lat="43.5466817" lon="11.3976233"><ele>714.8</ele><time>2026-04-17T14:18:07.086Z</time></trkpt><trkpt lat="43.5466533" lon="11.3977483"><ele>712.2</ele><time>2026-04-17T14:18:08.086Z</time></trkpt><trkpt lat="43.54667" lon="11.3979017"><ele>709.6</ele><time>2026-04-17T14:18:09.086Z</time></trkpt><trkpt lat="43.546725" lon="11.3980433"><ele>707.0</ele><time>2026-04-17T14:18:10.085Z</time></trkpt><trkpt lat="43.5468217" lon="11.3981867"><ele>705.3333333333333</ele><time>2026-04-17T14:18:11.085Z</time></trkpt><trkpt lat="43.5469333" lon="11.3983417"><ele>703.6666666666666</ele><time>2026-04-17T14:18:12.085Z</time></trkpt><trkpt lat="43.5470467" lon="11.39851"><ele>702.0</ele><time>2026-04-17T14:18:13.086Z</time></trkpt><trkpt lat="43.5471617" lon="11.3986967"><ele>705.3333333333334</ele><time>2026-04-17T14:18:14.085Z</time></trkpt><trkpt lat="43.5472683" lon="11.3989117"><ele>708.6666666666667</ele><time>2026-04-17T14:18:15.085Z</time></trkpt><trkpt lat="43.54738" lon="11.3991517"><ele>712.0</ele><time>2026-04-17T14:18:16.086Z</time></trkpt><trkpt lat="43.5474883" lon="11.3993967"><ele>712.0</ele><time>2026-04-17T14:18:17.085Z</time></trkpt><trkpt lat="43.5476" lon="11.3996533"><ele>712.0</ele><time>2026-04-17T14:18:18.086Z</time></trkpt><trkpt lat="43.54771" lon="11.3998983"><ele>712.0</ele><time>2026-04-17T14:18:19.085Z</time></trkpt><trkpt lat="43.5478033" lon="11.4001267"><ele>712.6666666666667</ele><time>2026-04-17T14:18:20.086Z</time></trkpt><trkpt lat="43.5478967" lon="11.400345"><ele>713.3333333333334</ele><time>2026-04-17T14:18:21.085Z</time></trkpt><trkpt lat="43.54799" lon="11.4005467"><ele>714.0</ele><time>2026-04-17T14:18:22.086Z</time></trkpt><trkpt lat="43.54807" lon="11.4007367"><ele>714.0</ele><time>2026-04-17T14:18:23.085Z</time></trkpt><trkpt lat="43.548135" lon="11.4009333"><ele>714.0</ele><time>2026-04-17T14:18:24.085Z</time></trkpt><trkpt lat="43.54818" lon="11.4011417"><ele>714.0</ele><time>2026-04-17T14:18:25.085Z</time></trkpt><trkpt lat="43.5481967" lon="11.4013733"><ele>713.0</ele><time>2026-04-17T14:18:26.085Z</time></trkpt><trkpt lat="43.5481867" lon="11.4015867"><ele>712.0</ele><time>2026-04-17T14:18:27.085Z</time></trkpt><trkpt lat="43.5481467" lon="11.4017833"><ele>711.0</ele><time>2026-04-17T14:18:28.085Z</time></trkpt><trkpt lat="43.5481283" lon="11.4019783"><ele>710.0</ele><time>2026-04-17T14:18:29.085Z</time></trkpt><trkpt lat="43.548145" lon="11.4021817"><ele>708.75</ele><time>2026-04-17T14:18:30.085Z</time></trkpt><trkpt lat="43.54819" lon="11.40238"><ele>707.5</ele><time>2026-04-17T14:18:31.085Z</time></trkpt><trkpt lat="43.5482417" lon="11.4025683"><ele>706.25</ele><time>2026-04-17T14:18:32.085Z</time></trkpt><trkpt lat="43.54828" lon="11.4027333"><ele>705.0</ele><time>2026-04-17T14:18:33.086Z</time></trkpt><trkpt lat="43.5482817" lon="11.4029083"><ele>706.25</ele><time>2026-04-17T14:18:34.085Z</time></trkpt><trkpt lat="43.5482283" lon="11.40307"><ele>707.5</ele><time>2026-04-17T14:18:35.085Z</time></trkpt><trkpt lat="43.5481483" lon="11.4032133"><ele>708.75</ele><time>2026-04-17T14:18:36.085Z</time></trkpt><trkpt lat="43.5480333" lon="11.4033233"><ele>710.0</ele><time>2026-04-17T14:18:37.085Z</time></trkpt><trkpt lat="43.54788" lon="11.4033967"><ele>706.3333333333333</ele><time>2026-04-17T14:18:38.085Z</time></trkpt><trkpt lat="43.5477033" lon="11.403465"><ele>702.6666666666666</ele><time>2026-04-17T14:18:39.085Z</time></trkpt><trkpt lat="43.5475283" lon="11.4035333"><ele>699.0</ele><time>2026-04-17T14:18:40.086Z</time></trkpt><trkpt lat="43.547365" lon="11.4036217"><ele>699.0</ele><time>2026-04-17T14:18:41.086Z</time></trkpt><trkpt lat="43.5472367" lon="11.40375"><ele>699.0</ele><time>2026-04-17T14:18:42.085Z</time></trkpt><trkpt lat="43.5471333" lon="11.4039317"><ele>699.0</ele><time>2026-04-17T14:18:43.086Z</time></trkpt><trkpt lat="43.5470417" lon="11.4041383"><ele>698.6666666666666</ele><time>2026-04-17T14:18:44.085Z</time></trkpt><trkpt lat="43.5469467" lon="11.4043667"><ele>698.3333333333333</ele><time>2026-04-17T14:18:45.085Z</time></trkpt><trkpt lat="43.546845" lon="11.4045917"><ele>698.0</ele><time>2026-04-17T14:18:46.086Z</time></trkpt><trkpt lat="43.5467417" lon="11.4048183"><ele>700.3333333333333</ele><time>2026-04-17T14:18:47.085Z</time></trkpt><trkpt lat="43.5466417" lon="11.4050417"><ele>702.6666666666666</ele><time>2026-04-17T14:18:48.085Z</time></trkpt><trkpt lat="43.5465517" lon="11.40527"><ele>705.0</ele><time>2026-04-17T14:18:49.085Z</time></trkpt><trkpt lat="43.5464567" lon="11.4054983"><ele>706.0</ele><time>2026-04-17T14:18:50.085Z</time></trkpt><trkpt lat="43.54635" lon="11.4057217"><ele>707.0</ele><time>2026-04-17T14:18:51.085Z</time></trkpt><trkpt lat="43.5462383" lon="11.405955"><ele>708.0</ele><time>2026-04-17T14:18:52.086Z</time></trkpt><trkpt lat="43.5461233" lon="11.406175"><ele>702.6666666666666</ele><time>2026-04-17T14:18:53.085Z</time></trkpt><trkpt lat="43.5459967" lon="11.4063933"><ele>697.3333333333333</ele><time>2026-04-17T14:18:54.085Z</time></trkpt><trkpt lat="43.5458467" lon="11.4065967"><ele>692.0</ele><time>2026-04-17T14:18:55.086Z</time></trkpt><trkpt lat="43.5456767" lon="11.406775"><ele>692.0</ele><time>2026-04-17T14:18:56.085Z</time></trkpt><trkpt lat="43.5454933" lon="11.4069283"><ele>692.0</ele><time>2026-04-17T14:18:57.085Z</time></trkpt><trkpt lat="43.5452983" lon="11.4070533"><ele>692.0</ele><time>2026-04-17T14:18:58.085Z</time></trkpt><trkpt lat="43.5450983" lon="11.4071717"><ele>692.6666666666666</ele><time>2026-04-17T14:18:59.086Z</time></trkpt><trkpt lat="43.5448917" lon="11.40728"><ele>693.3333333333334</ele><time>2026-04-17T14:19:00.085Z</time></trkpt><trkpt lat="43.5446917" lon="11.407395"><ele>694.0</ele><time>2026-04-17T14:19:01.086Z</time></trkpt><trkpt lat="43.5444967" lon="11.407515"><ele>694.0</ele><time>2026-04-17T14:19:02.086Z</time></trkpt><trkpt lat="43.5443133" lon="11.4076167"><ele>694.0</ele><time>2026-04-17T14:19:03.086Z</time></trkpt><trkpt lat="43.5441333" lon="11.4077117"><ele>694.0</ele><time>2026-04-17T14:19:04.086Z</time></trkpt><trkpt lat="43.543965" lon="11.4078083"><ele>694.0</ele><time>2026-04-17T14:19:05.085Z</time></trkpt><trkpt lat="43.5437867" lon="11.4079067"><ele>694.0</ele><time>2026-04-17T14:19:06.085Z</time></trkpt><trkpt lat="43.543615" lon="11.408005"><ele>694.0</ele><time>2026-04-17T14:19:07.085Z</time></trkpt><trkpt lat="43.5434333" lon="11.4080983"><ele>690.3333333333334</ele><time>2026-04-17T14:19:08.086Z</time></trkpt><trkpt lat="43.5432583" lon="11.4081967"><ele>686.6666666666666</ele><time>2026-04-17T14:19:09.085Z</time></trkpt><trkpt lat="43.5430867" lon="11.4082917"><ele>683.0</ele><time>2026-04-17T14:19:10.086Z</time></trkpt><trkpt lat="43.542915" lon="11.408365"><ele>680.0</ele><time>2026-04-17T14:19:11.085Z</time></trkpt><trkpt lat="43.542735" lon="11.408415"><ele>677.0</ele><time>2026-04-17T14:19:12.085Z</time></trkpt><trkpt lat="43.5425483" lon="11.4084433"><ele>674.0</ele><time>2026-04-17T14:19:13.085Z</time></trkpt><trkpt lat="43.5423417" lon="11.40845"><ele>674.0</ele><time>2026-04-17T14:19:14.085Z</time></trkpt><trkpt lat="43.5421383" lon="11.408445"><ele>674.0</ele><time>2026-04-17T14:19:15.086Z</time></trkpt><trkpt lat="43.5419233" lon="11.4084333"><ele>674.0</ele><time>2026-04-17T14:19:16.085Z</time></trkpt><trkpt lat="43.5417217" lon="11.4084317"><ele>674.6666666666666</ele><time>2026-04-17T14:19:17.085Z</time></trkpt><trkpt lat="43.54151" lon="11.4084283"><ele>675.3333333333334</ele><time>2026-04-17T14:19:18.085Z</time></trkpt><trkpt lat="43.541305" lon="11.4084233"><ele>676.0</ele><time>2026-04-17T14:19:19.085Z</time></trkpt><trkpt lat="43.5411083" lon="11.408415"><ele>680.6666666666667</ele><time>2026-04-17T14:19:20.085Z</time></trkpt><trkpt lat="43.5409117" lon="11.408405"><ele>685.3333333333334</ele><time>2026-04-17T14:19:21.085Z</time></trkpt><trkpt lat="43.5407233" lon="11.4084017"><ele>690.0</ele><time>2026-04-17T14:19:22.085Z</time></trkpt><trkpt lat="43.5405383" lon="11.4083933"><ele>693.0</ele><time>2026-04-17T14:19:23.085Z</time></trkpt><trkpt lat="43.540355" lon="11.4083933"><ele>696.0</ele><time>2026-04-17T14:19:24.086Z</time></trkpt><trkpt lat="43.5401783" lon="11.4083933"><ele>699.0</ele><time>2026-04-17T14:19:25.086Z</time></trkpt><trkpt lat="43.5400033" lon="11.4083933"><ele>699.0</ele><time>2026-04-17T14:19:26.086Z</time></trkpt><trkpt lat="43.5398267" lon="11.408385"><ele>699.0</ele><time>2026-04-17T14:19:27.085Z</time></trkpt><trkpt lat="43.53965" lon="11.4083783"><ele>699.0</ele><time>2026-04-17T14:19:28.085Z</time></trkpt><trkpt lat="43.5394917" lon="11.4083733"><ele>701.0</ele><time>2026-04-17T14:19:29.085Z</time></trkpt><trkpt lat="43.5393483" lon="11.4083983"><ele>703.0</ele><time>2026-04-17T14:19:30.086Z</time></trkpt><trkpt lat="43.5392167" lon="11.40846"><ele>705.0</ele><time>2026-04-17T14:19:31.085Z</time></trkpt><trkpt lat="43.53909" lon="11.40857"><ele>707.0</ele><time>2026-04-17T14:19:32.086Z</time></trkpt><trkpt lat="43.53897" lon="11.40872"><ele>706.6666666666666</ele><time>2026-04-17T14:19:33.085Z</time></trkpt><trkpt lat="43.5388717" lon="11.4089017"><ele>706.3333333333334</ele><time>2026-04-17T14:19:34.085Z</time></trkpt><trkpt lat="43.53878" lon="11.4091083"><ele>706.0</ele><time>2026-04-17T14:19:35.085Z</time></trkpt><trkpt lat="43.5386933" lon="11.4093183"><ele>711.3333333333334</ele><time>2026-04-17T14:19:36.085Z</time></trkpt><trkpt lat="43.5386133" lon="11.409535"><ele>716.6666666666666</ele><time>2026-04-17T14:19:37.085Z</time></trkpt><trkpt lat="43.5385317" lon="11.409735"><ele>722.0</ele><time>2026-04-17T14:19:38.085Z</time></trkpt><trkpt lat="43.5384483" lon="11.4099167"><ele>722.0</ele><time>2026-04-17T14:19:39.086Z</time></trkpt><trkpt lat="43.53837" lon="11.410085"><ele>722.0</ele><time>2026-04-17T14:19:40.085Z</time></trkpt><trkpt lat="43.5382867" lon="11.4102583"><ele>722.0</ele><time>2026-04-17T14:19:41.085Z</time></trkpt><trkpt lat="43.5381783" lon="11.4104183"><ele>723.3333333333333</ele><time>2026-04-17T14:19:42.085Z</time></trkpt><trkpt lat="43.5380567" lon="11.4105583"><ele>724.6666666666666</ele><time>2026-04-17T14:19:43.085Z</time></trkpt><trkpt lat="43.537915" lon="11.4106967"><ele>726.0</ele><time>2026-04-17T14:19:44.086Z</time></trkpt><trkpt lat="43.5377583" lon="11.41081"><ele>722.3333333333334</ele><time>2026-04-17T14:19:45.085Z</time></trkpt><trkpt lat="43.5375917" lon="11.4109017"><ele>718.6666666666667</ele><time>2026-04-17T14:19:46.085Z</time></trkpt><trkpt lat="43.53743" lon="11.410985"><ele>715.0</ele><time>2026-04-17T14:19:47.085Z</time></trkpt><trkpt lat="43.5372733" lon="11.41104"><ele>715.0</ele><time>2026-04-17T14:19:48.086Z</time></trkpt><trkpt lat="43.5371083" lon="11.4110583"><ele>715.0</ele><time>2026-04-17T14:19:49.085Z</time></trkpt><trkpt lat="43.5369417" lon="11.4110217"><ele>715.0</ele><time>2026-04-17T14:19:50.086Z</time></trkpt><trkpt lat="43.5367783" lon="11.410955"><ele>712.0</ele><time>2026-04-17T14:19:51.085Z</time></trkpt><trkpt lat="43.53662" lon="11.4108817"><ele>709.0</ele><time>2026-04-17T14:19:52.085Z</time></trkpt><trkpt lat="43.536465" lon="11.4108433"><ele>706.0</ele><time>2026-04-17T14:19:53.085Z</time></trkpt><trkpt lat="43.5362967" lon="11.4108533"><ele>704.3333333333334</ele><time>2026-04-17T14:19:54.085Z</time></trkpt><trkpt lat="43.5361283" lon="11.410915"><ele>702.6666666666666</ele><time>2026-04-17T14:19:55.086Z</time></trkpt><trkpt lat="43.5359483" lon="11.410985"><ele>701.0</ele><time>2026-04-17T14:19:56.085Z</time></trkpt><trkpt lat="43.5357533" lon="11.411055"><ele>701.0</ele><time>2026-04-17T14:19:57.085Z</time></trkpt><trkpt lat="43.5355717" lon="11.4111133"><ele>701.0</ele><time>2026-04-17T14:19:58.085Z</time></trkpt><trkpt lat="43.535395" lon="11.4111633"><ele>701.0</ele><time>2026-04-17T14:19:59.086Z</time></trkpt><trkpt lat="43.5352283" lon="11.4112233"><ele>702.3333333333333</ele><time>2026-04-17T14:20:00.086Z</time></trkpt><trkpt lat="43.53508" lon="11.4113083"><ele>703.6666666666666</ele><time>2026-04-17T14:20:01.085Z</time></trkpt><trkpt lat="43.5349333" lon="11.4114233"><ele>705.0</ele><time>2026-04-17T14:20:02.085Z</time></trkpt><trkpt lat="43.5347967" lon="11.411535"><ele>705.0</ele><time>2026-04-17T14:20:03.085Z</time></trkpt><trkpt lat="43.534665" lon="11.4116233"><ele>705.0</ele><time>2026-04-17T14:20:04.086Z</time></trkpt><trkpt lat="43.53453" lon="11.411665"><ele>705.0</ele><time>2026-04-17T14:20:05.085Z</time></trkpt><trkpt lat="43.5343983" lon="11.4116367"><ele>705.0</ele><time>2026-04-17T14:20:06.085Z</time></trkpt><trkpt lat="43.5342817" lon="11.4115467"><ele>707.0</ele><time>2026-04-17T14:20:07.086Z</time></trkpt><trkpt lat="43.5341767" lon="11.4114217"><ele>709.0</ele><time>2026-04-17T14:20:08.085Z</time></trkpt><trkpt lat="43.5340683" lon="11.4113233"><ele>711.0</ele><time>2026-04-17T14:20:09.085Z</time></trkpt><trkpt lat="43.5339267" lon="11.4112483"><ele>713.0</ele><time>2026-04-17T14:20:10.085Z</time></trkpt><trkpt lat="43.5337583" lon="11.4111717"><ele>709.3333333333333</ele><time>2026-04-17T14:20:11.085Z</time></trkpt><trkpt lat="43.5335767" lon="11.4110933"><ele>705.6666666666666</ele><time>2026-04-17T14:20:12.085Z</time></trkpt><trkpt lat="43.53339" lon="11.4110133"><ele>702.0</ele><time>2026-04-17T14:20:13.085Z</time></trkpt><trkpt lat="43.5332067" lon="11.41093"><ele>702.0</ele><time>2026-04-17T14:20:14.085Z</time></trkpt><trkpt lat="43.5330333" lon="11.410865"><ele>702.0</ele><time>2026-04-17T14:20:15.085Z</time></trkpt><trkpt lat="43.5328617" lon="11.4108367"><ele>702.0</ele><time>2026-04-17T14:20:16.085Z</time></trkpt><trkpt lat="43.5326817" lon="11.410865"><ele>703.0</ele><time>2026-04-17T14:20:17.086Z</time></trkpt><trkpt lat="43.5325133" lon="11.4109633"><ele>704.0</ele><time>2026-04-17T14:20:18.085Z</time></trkpt><trkpt lat="43.53235" lon="11.4110733"><ele>705.0</ele><time>2026-04-17T14:20:19.085Z</time></trkpt><trkpt lat="43.5321883" lon="11.411205"><ele>704.3333333333334</ele><time>2026-04-17T14:20:20.085Z</time></trkpt><trkpt lat="43.5320167" lon="11.4113417"><ele>703.6666666666667</ele><time>2026-04-17T14:20:21.085Z</time></trkpt><trkpt lat="43.5318467" lon="11.4114933"><ele>703.0</ele><time>2026-04-17T14:20:22.085Z</time></trkpt><trkpt lat="43.531685" lon="11.4116883"><ele>703.0</ele><time>2026-04-17T14:20:23.086Z</time></trkpt><trkpt lat="43.53153" lon="11.41189"><ele>703.0</ele><time>2026-04-17T14:20:24.085Z</time></trkpt><trkpt lat="43.53138" lon="11.4120783"><ele>703.0</ele><time>2026-04-17T14:20:25.086Z</time></trkpt><trkpt lat="43.53123" lon="11.4122383"><ele>703.0</ele><time>2026-04-17T14:20:26.086Z</time></trkpt><trkpt lat="43.5310867" lon="11.41239"><ele>703.0</ele><time>2026-04-17T14:20:27.086Z</time></trkpt><trkpt lat="43.5309467" lon="11.41253"><ele>703.0</ele><time>2026-04-17T14:20:28.085Z</time></trkpt><trkpt lat="43.53081" lon="11.41265"><ele>703.0</ele><time>2026-04-17T14:20:29.085Z</time></trkpt><trkpt lat="43.5306817" lon="11.4127367"><ele>703.0</ele><time>2026-04-17T14:20:30.086Z</time></trkpt><trkpt lat="43.5305433" lon="11.412755"><ele>703.0</ele><time>2026-04-17T14:20:31.085Z</time></trkpt><trkpt lat="43.5304017" lon="11.412715"><ele>703.0</ele><time>2026-04-17T14:20:32.086Z</time></trkpt><trkpt lat="43.5302433" lon="11.412635"><ele>703.6666666666667</ele><time>2026-04-17T14:20:33.085Z</time></trkpt><trkpt lat="43.5301" lon="11.4125183"><ele>704.3333333333334</ele><time>2026-04-17T14:20:34.085Z</time></trkpt><trkpt lat="43.5299683" lon="11.4124033"><ele>705.0</ele><time>2026-04-17T14:20:35.086Z</time></trkpt><trkpt lat="43.5298433" lon="11.4122833"><ele>705.0</ele><time>2026-04-17T14:20:36.085Z</time></trkpt><trkpt lat="43.5297233" lon="11.4122233"><ele>705.0</ele><time>2026-04-17T14:20:37.086Z</time></trkpt><trkpt lat="43.529595" lon="11.412235"><ele>705.0</ele><time>2026-04-17T14:20:38.085Z</time></trkpt><trkpt lat="43.529475" lon="11.4122683"><ele>705.0</ele><time>2026-04-17T14:20:39.085Z</time></trkpt><trkpt lat="43.5293533" lon="11.4122933"><ele>705.75</ele><time>2026-04-17T14:20:40.086Z</time></trkpt><trkpt lat="43.52925" lon="11.412255"><ele>706.5</ele><time>2026-04-17T14:20:41.085Z</time></trkpt><trkpt lat="43.5291533" lon="11.4121467"><ele>707.25</ele><time>2026-04-17T14:20:42.086Z</time></trkpt><trkpt lat="43.5290733" lon="11.41198"><ele>708.0</ele><time>2026-04-17T14:20:43.086Z</time></trkpt><trkpt lat="43.529015" lon="11.411795"><ele>704.5</ele><time>2026-04-17T14:20:44.085Z</time></trkpt><trkpt lat="43.5289567" lon="11.4116217"><ele>701.0</ele><time>2026-04-17T14:20:45.085Z</time></trkpt><trkpt lat="43.5288833" lon="11.4114733"><ele>697.5</ele><time>2026-04-17T14:20:46.086Z</time></trkpt><trkpt lat="43.5287817" lon="11.4113667"><ele>694.0</ele><time>2026-04-17T14:20:47.084Z</time></trkpt><trkpt lat="43.52865" lon="11.4113133"><ele>689.6666666666667</ele><time>2026-04-17T14:20:48.084Z</time></trkpt><trkpt lat="43.528485" lon="11.4112833"><ele>685.3333333333334</ele><time>2026-04-17T14:20:49.084Z</time></trkpt><trkpt lat="43.5283167" lon="11.4112783"><ele>681.0</ele><time>2026-04-17T14:20:50.085Z</time></trkpt><trkpt lat="43.5281567" lon="11.4112867"><ele>681.5</ele><time>2026-04-17T14:20:51.085Z</time></trkpt><trkpt lat="43.5280033" lon="11.411325"><ele>682.0</ele><time>2026-04-17T14:20:52.084Z</time></trkpt><trkpt lat="43.5278683" lon="11.4113767"><ele>682.5</ele><time>2026-04-17T14:20:53.084Z</time></trkpt><trkpt lat="43.527745" lon="11.411415"><ele>683.0</ele><time>2026-04-17T14:20:54.084Z</time></trkpt><trkpt lat="43.5276267" lon="11.41142"><ele>683.0</ele><time>2026-04-17T14:20:55.084Z</time></trkpt><trkpt lat="43.52752" lon="11.41136"><ele>683.0</ele><time>2026-04-17T14:20:56.085Z</time></trkpt><trkpt lat="43.527415" lon="11.4112433"><ele>683.0</ele><time>2026-04-17T14:20:57.085Z</time></trkpt><trkpt lat="43.52732" lon="11.4111017"><ele>683.0</ele><time>2026-04-17T14:20:58.084Z</time></trkpt><trkpt lat="43.5272083" lon="11.410965"><ele>680.75</ele><time>2026-04-17T14:20:59.084Z</time></trkpt><trkpt lat="43.5270817" lon="11.4108383"><ele>678.5</ele><time>2026-04-17T14:21:00.085Z</time></trkpt><trkpt lat="43.5269467" lon="11.41075"><ele>676.25</ele><time>2026-04-17T14:21:01.084Z</time></trkpt><trkpt lat="43.5268233" lon="11.4106633"><ele>674.0</ele><time>2026-04-17T14:21:02.084Z</time></trkpt><trkpt lat="43.5267083" lon="11.410565"><ele>674.0</ele><time>2026-04-17T14:21:03.084Z</time></trkpt><trkpt lat="43.5266133" lon="11.4104367"><ele>674.0</ele><time>2026-04-17T14:21:04.084Z</time></trkpt><trkpt lat="43.5265283" lon="11.410275"><ele>674.0</ele><time>2026-04-17T14:21:05.085Z</time></trkpt><trkpt lat="43.5264483" lon="11.41009"><ele>674.0</ele><time>2026-04-17T14:21:06.085Z</time></trkpt><trkpt lat="43.526365" lon="11.4098967"><ele>674.0</ele><time>2026-04-17T14:21:07.084Z</time></trkpt><trkpt lat="43.5262917" lon="11.4096967"><ele>674.0</ele><time>2026-04-17T14:21:08.084Z</time></trkpt><trkpt lat="43.5262267" lon="11.4094983"><ele>674.0</ele><time>2026-04-17T14:21:09.085Z</time></trkpt><trkpt lat="43.5261667" lon="11.4092933"><ele>671.0</ele><time>2026-04-17T14:21:10.084Z</time></trkpt><trkpt lat="43.5261" lon="11.409095"><ele>668.0</ele><time>2026-04-17T14:21:11.084Z</time></trkpt><trkpt lat="43.526005" lon="11.4089133"><ele>665.0</ele><time>2026-04-17T14:21:12.085Z</time></trkpt><trkpt lat="43.525885" lon="11.40875"><ele>665.0</ele><time>2026-04-17T14:21:13.084Z</time></trkpt><trkpt lat="43.52576" lon="11.408605"><ele>665.0</ele><time>2026-04-17T14:21:14.084Z</time></trkpt><trkpt lat="43.525645" lon="11.4084517"><ele>665.0</ele><time>2026-04-17T14:21:15.084Z</time></trkpt><trkpt lat="43.52555" lon="11.408275"><ele>665.0</ele><time>2026-04-17T14:21:16.084Z</time></trkpt><trkpt lat="43.5254667" lon="11.4080883"><ele>665.0</ele><time>2026-04-17T14:21:17.085Z</time></trkpt><trkpt lat="43.5253967" lon="11.4078833"><ele>665.0</ele><time>2026-04-17T14:21:18.084Z</time></trkpt><trkpt lat="43.52534" lon="11.4076783"><ele>664.6666666666666</ele><time>2026-04-17T14:21:19.084Z</time></trkpt><trkpt lat="43.5252767" lon="11.4074733"><ele>664.3333333333334</ele><time>2026-04-17T14:21:20.085Z</time></trkpt><trkpt lat="43.5251967" lon="11.4072817"><ele>664.0</ele><time>2026-04-17T14:21:21.084Z</time></trkpt><trkpt lat="43.5250983" lon="11.4071133"><ele>664.0</ele><time>2026-04-17T14:21:22.084Z</time></trkpt><trkpt lat="43.5249667" lon="11.4069517"><ele>664.0</ele><time>2026-04-17T14:21:23.084Z</time></trkpt><trkpt lat="43.5248133" lon="11.40681"><ele>664.0</ele><time>2026-04-17T14:21:24.084Z</time></trkpt><trkpt lat="43.5246683" lon="11.40669"><ele>659.6666666666667</ele><time>2026-04-17T14:21:25.084Z</time></trkpt><trkpt lat="43.5245333" lon="11.406565"><ele>655.3333333333334</ele><time>2026-04-17T14:21:26.084Z</time></trkpt><trkpt lat="43.524405" lon="11.406435"><ele>651.0</ele><time>2026-04-17T14:21:27.084Z</time></trkpt><trkpt lat="43.5242817" lon="11.4062817"><ele>651.0</ele><time>2026-04-17T14:21:28.085Z</time></trkpt><trkpt lat="43.5241533" lon="11.4061"><ele>651.0</ele><time>2026-04-17T14:21:29.085Z</time></trkpt><trkpt lat="43.5240267" lon="11.4059267"><ele>651.0</ele><time>2026-04-17T14:21:30.085Z</time></trkpt><trkpt lat="43.5238917" lon="11.4057583"><ele>651.0</ele><time>2026-04-17T14:21:31.084Z</time></trkpt><trkpt lat="43.52375" lon="11.4056"><ele>651.0</ele><time>2026-04-17T14:21:32.084Z</time></trkpt><trkpt lat="43.5235967" lon="11.405455"><ele>651.0</ele><time>2026-04-17T14:21:33.085Z</time></trkpt><trkpt lat="43.5234417" lon="11.4053283"><ele>652.3333333333334</ele><time>2026-04-17T14:21:34.084Z</time></trkpt><trkpt lat="43.5232767" lon="11.4052483"><ele>653.6666666666667</ele><time>2026-04-17T14:21:35.084Z</time></trkpt><trkpt lat="43.5231167" lon="11.405205"><ele>655.0</ele><time>2026-04-17T14:21:36.084Z</time></trkpt><trkpt lat="43.52296" lon="11.4051617"><ele>650.0</ele><time>2026-04-17T14:21:37.084Z</time></trkpt><trkpt lat="43.5228217" lon="11.4050933"><ele>645.0</ele><time>2026-04-17T14:21:38.085Z</time></trkpt><trkpt lat="43.522685" lon="11.4049717"><ele>640.0</ele><time>2026-04-17T14:21:39.085Z</time></trkpt><trkpt lat="43.5225633" lon="11.4048167"><ele>644.6666666666667</ele><time>2026-04-17T14:21:40.085Z</time></trkpt><trkpt lat="43.5224267" lon="11.4046567"><ele>649.3333333333334</ele><time>2026-04-17T14:21:41.085Z</time></trkpt><trkpt lat="43.5222717" lon="11.4045333"><ele>654.0</ele><time>2026-04-17T14:21:42.084Z</time></trkpt><trkpt lat="43.5220983" lon="11.4044667"><ele>647.6666666666666</ele><time>2026-04-17T14:21:43.084Z</time></trkpt><trkpt lat="43.52191" lon="11.4044367"><ele>641.3333333333333</ele><time>2026-04-17T14:21:44.085Z</time></trkpt><trkpt lat="43.521725" lon="11.4044167"><ele>635.0</ele><time>2026-04-17T14:21:45.084Z</time></trkpt><trkpt lat="43.5215383" lon="11.4043967"><ele>635.0</ele><time>2026-04-17T14:21:46.085Z</time></trkpt><trkpt lat="43.52135" lon="11.404365"><ele>635.0</ele><time>2026-04-17T14:21:47.085Z</time></trkpt><trkpt lat="43.5211717" lon="11.404325"><ele>635.0</ele><time>2026-04-17T14:21:48.085Z</time></trkpt><trkpt lat="43.52099" lon="11.4042767"><ele>631.0</ele><time>2026-04-17T14:21:49.084Z</time></trkpt><trkpt lat="43.5208083" lon="11.40423"><ele>627.0</ele><time>2026-04-17T14:21:50.084Z</time></trkpt><trkpt lat="43.5206333" lon="11.4041667"><ele>623.0</ele><time>2026-04-17T14:21:51.084Z</time></trkpt><trkpt lat="43.5204583" lon="11.404095"><ele>619.3333333333333</ele><time>2026-04-17T14:21:52.084Z</time></trkpt><trkpt lat="43.520285" lon="11.4040167"><ele>615.6666666666666</ele><time>2026-04-17T14:21:53.084Z</time></trkpt><trkpt lat="43.520115" lon="11.4039517"><ele>612.0</ele><time>2026-04-17T14:21:54.084Z</time></trkpt><trkpt lat="43.519945" lon="11.403895"><ele>612.0</ele><time>2026-04-17T14:21:55.084Z</time></trkpt><trkpt lat="43.5197817" lon="11.4038483"><ele>612.0</ele><time>2026-04-17T14:21:56.085Z</time></trkpt><trkpt lat="43.5196117" lon="11.4038183"><ele>612.0</ele><time>2026-04-17T14:21:57.084Z</time></trkpt><trkpt lat="43.5194367" lon="11.4038"><ele>612.0</ele><time>2026-04-17T14:21:58.085Z</time></trkpt><trkpt lat="43.5192583" lon="11.4038"><ele>612.0</ele><time>2026-04-17T14:21:59.085Z</time></trkpt><trkpt lat="43.519075" lon="11.4038167"><ele>612.0</ele><time>2026-04-17T14:22:00.085Z</time></trkpt><trkpt lat="43.518885" lon="11.4038583"><ele>605.6666666666666</ele><time>2026-04-17T14:22:01.085Z</time></trkpt><trkpt lat="43.5186967" lon="11.40392"><ele>599.3333333333333</ele><time>2026-04-17T14:22:02.085Z</time></trkpt><trkpt lat="43.5185067" lon="11.4039933"><ele>593.0</ele><time>2026-04-17T14:22:03.085Z</time></trkpt><trkpt lat="43.5183183" lon="11.4040633"><ele>593.0</ele><time>2026-04-17T14:22:04.084Z</time></trkpt><trkpt lat="43.5181283" lon="11.404125"><ele>593.0</ele><time>2026-04-17T14:22:05.084Z</time></trkpt><trkpt lat="43.5179483" lon="11.40417"><ele>593.0</ele><time>2026-04-17T14:22:06.084Z</time></trkpt><trkpt lat="43.517775" lon="11.4042133"><ele>588.6666666666666</ele><time>2026-04-17T14:22:07.085Z</time></trkpt><trkpt lat="43.5176" lon="11.4042683"><ele>584.3333333333334</ele><time>2026-04-17T14:22:08.084Z</time></trkpt><trkpt lat="43.51744" lon="11.4043417"><ele>580.0</ele><time>2026-04-17T14:22:09.085Z</time></trkpt><trkpt lat="43.5172883" lon="11.40442"><ele>580.0</ele><time>2026-04-17T14:22:10.084Z</time></trkpt><trkpt lat="43.51716" lon="11.4045033"><ele>580.0</ele><time>2026-04-17T14:22:11.084Z</time></trkpt><trkpt lat="43.5170433" lon="11.4045767"><ele>580.0</ele><time>2026-04-17T14:22:12.085Z</time></trkpt><trkpt lat="43.5169417" lon="11.4046467"><ele>580.0</ele><time>2026-04-17T14:22:13.085Z</time></trkpt><trkpt lat="43.5168533" lon="11.4047167"><ele>577.2</ele><time>2026-04-17T14:22:14.085Z</time></trkpt><trkpt lat="43.516785" lon="11.4048"><ele>574.4</ele><time>2026-04-17T14:22:15.085Z</time></trkpt><trkpt lat="43.5167583" lon="11.404915"><ele>571.6</ele><time>2026-04-17T14:22:16.084Z</time></trkpt><trkpt lat="43.5167767" lon="11.405045"><ele>568.8</ele><time>2026-04-17T14:22:17.084Z</time></trkpt><trkpt lat="43.5168167" lon="11.4051683"><ele>566.0</ele><time>2026-04-17T14:22:18.085Z</time></trkpt><trkpt lat="43.5168433" lon="11.4052867"><ele>566.0</ele><time>2026-04-17T14:22:19.085Z</time></trkpt><trkpt lat="43.51684" lon="11.405405"><ele>566.0</ele><time>2026-04-17T14:22:20.084Z</time></trkpt><trkpt lat="43.5168033" lon="11.4055117"><ele>566.0</ele><time>2026-04-17T14:22:21.085Z</time></trkpt><trkpt lat="43.5167183" lon="11.40558"><ele>566.0</ele><time>2026-04-17T14:22:22.085Z</time></trkpt><trkpt lat="43.5166233" lon="11.4056167"><ele>566.0</ele><time>2026-04-17T14:22:23.085Z</time></trkpt><trkpt lat="43.51651" lon="11.4056167"><ele>564.4</ele><time>2026-04-17T14:22:24.084Z</time></trkpt><trkpt lat="43.516395" lon="11.4055933"><ele>562.8</ele><time>2026-04-17T14:22:25.084Z</time></trkpt><trkpt lat="43.516285" lon="11.4055583"><ele>561.1999999999999</ele><time>2026-04-17T14:22:26.085Z</time></trkpt><trkpt lat="43.5161917" lon="11.4055217"><ele>559.6</ele><time>2026-04-17T14:22:27.084Z</time></trkpt><trkpt lat="43.5161133" lon="11.4055067"><ele>558.0</ele><time>2026-04-17T14:22:28.084Z</time></trkpt><trkpt lat="43.51604" lon="11.405525"><ele>556.3333333333334</ele><time>2026-04-17T14:22:29.084Z</time></trkpt><trkpt lat="43.51598" lon="11.40558"><ele>554.6666666666666</ele><time>2026-04-17T14:22:30.085Z</time></trkpt><trkpt lat="43.5159633" lon="11.4056933"><ele>553.0</ele><time>2026-04-17T14:22:31.085Z</time></trkpt><trkpt lat="43.51597" lon="11.4058167"><ele>551.3333333333333</ele><time>2026-04-17T14:22:32.084Z</time></trkpt><trkpt lat="43.51599" lon="11.40594"><ele>549.6666666666666</ele><time>2026-04-17T14:22:33.085Z</time></trkpt><trkpt lat="43.516" lon="11.4060633"><ele>548.0</ele><time>2026-04-17T14:22:34.085Z</time></trkpt><trkpt lat="43.5159833" lon="11.406195"><ele>548.0</ele><time>2026-04-17T14:22:35.084Z</time></trkpt><trkpt lat="43.5159217" lon="11.4063"><ele>548.0</ele><time>2026-04-17T14:22:36.084Z</time></trkpt><trkpt lat="43.515825" lon="11.40636"><ele>548.0</ele><time>2026-04-17T14:22:37.084Z</time></trkpt><trkpt lat="43.51571" lon="11.4063833"><ele>548.0</ele><time>2026-04-17T14:22:38.084Z</time></trkpt><trkpt lat="43.5155783" lon="11.40637"><ele>546.0</ele><time>2026-04-17T14:22:39.084Z</time></trkpt><trkpt lat="43.5154233" lon="11.4063367"><ele>544.0</ele><time>2026-04-17T14:22:40.084Z</time></trkpt><trkpt lat="43.515285" lon="11.406305"><ele>542.0</ele><time>2026-04-17T14:22:41.084Z</time></trkpt><trkpt lat="43.5151467" lon="11.4062983"><ele>540.0</ele><time>2026-04-17T14:22:42.084Z</time></trkpt><trkpt lat="43.5150183" lon="11.4063267"><ele>537.0</ele><time>2026-04-17T14:22:43.084Z</time></trkpt><trkpt lat="43.5148967" lon="11.406415"><ele>534.0</ele><time>2026-04-17T14:22:44.084Z</time></trkpt><trkpt lat="43.5147733" lon="11.4065383"><ele>531.0</ele><time>2026-04-17T14:22:45.085Z</time></trkpt><trkpt lat="43.5146517" lon="11.4066717"><ele>528.0</ele><time>2026-04-17T14:22:46.084Z</time></trkpt><trkpt lat="43.5145233" lon="11.4068083"><ele>524.6666666666666</ele><time>2026-04-17T14:22:47.084Z</time></trkpt><trkpt lat="43.5143967" lon="11.4069467"><ele>521.3333333333333</ele><time>2026-04-17T14:22:48.085Z</time></trkpt><trkpt lat="43.5142767" lon="11.4070717"><ele>518.0</ele><time>2026-04-17T14:22:49.085Z</time></trkpt><trkpt lat="43.5141583" lon="11.4071783"><ele>517.75</ele><time>2026-04-17T14:22:50.084Z</time></trkpt><trkpt lat="43.5140283" lon="11.4072567"><ele>517.5</ele><time>2026-04-17T14:22:51.085Z</time></trkpt><trkpt lat="43.5138917" lon="11.40731"><ele>517.25</ele><time>2026-04-17T14:22:52.084Z</time></trkpt><trkpt lat="43.513765" lon="11.4073433"><ele>517.0</ele><time>2026-04-17T14:22:53.084Z</time></trkpt><trkpt lat="43.5136317" lon="11.4073567"><ele>515.25</ele><time>2026-04-17T14:22:54.085Z</time></trkpt><trkpt lat="43.5135" lon="11.4073517"><ele>513.5</ele><time>2026-04-17T14:22:55.085Z</time></trkpt><trkpt lat="43.513355" lon="11.407325"><ele>511.75</ele><time>2026-04-17T14:22:56.085Z</time></trkpt><trkpt lat="43.5132" lon="11.407275"><ele>510.0</ele><time>2026-04-17T14:22:57.084Z</time></trkpt><trkpt lat="43.5130517" lon="11.4072167"><ele>509.4</ele><time>2026-04-17T14:22:58.084Z</time></trkpt><trkpt lat="43.5129167" lon="11.40716"><ele>508.8</ele><time>2026-04-17T14:22:59.084Z</time></trkpt><trkpt lat="43.5128033" lon="11.407115"><ele>508.20000000000005</ele><time>2026-04-17T14:23:00.084Z</time></trkpt><trkpt lat="43.5127067" lon="11.4070783"><ele>507.6</ele><time>2026-04-17T14:23:01.085Z</time></trkpt><trkpt lat="43.5126217" lon="11.407075"><ele>507.0</ele><time>2026-04-17T14:23:02.084Z</time></trkpt><trkpt lat="43.51255" lon="11.4071233"><ele>504.75</ele><time>2026-04-17T14:23:03.084Z</time></trkpt><trkpt lat="43.5125033" lon="11.407235"><ele>502.5</ele><time>2026-04-17T14:23:04.085Z</time></trkpt><trkpt lat="43.5124967" lon="11.4073983"><ele>500.25</ele><time>2026-04-17T14:23:05.084Z</time></trkpt><trkpt lat="43.512505" lon="11.4075667"><ele>498.0</ele><time>2026-04-17T14:23:06.084Z</time></trkpt><trkpt lat="43.51251" lon="11.4077267"><ele>498.0</ele><time>2026-04-17T14:23:07.084Z</time></trkpt><trkpt lat="43.51252" lon="11.40786"><ele>497.99999999999994</ele><time>2026-04-17T14:23:08.084Z</time></trkpt><trkpt lat="43.512525" lon="11.4079633"><ele>497.99999999999994</ele><time>2026-04-17T14:23:09.084Z</time></trkpt><trkpt lat="43.5124867" lon="11.408035"><ele>498.0</ele><time>2026-04-17T14:23:10.085Z</time></trkpt><trkpt lat="43.5123533" lon="11.408035"><ele>498.0</ele><time>2026-04-17T14:23:12.084Z</time></trkpt><trkpt lat="43.512245" lon="11.40792"><ele>498.0</ele><time>2026-04-17T14:23:13.085Z</time></trkpt><trkpt lat="43.5121383" lon="11.4077983"><ele>498.0</ele><time>2026-04-17T14:23:14.085Z</time></trkpt><trkpt lat="43.5120217" lon="11.4076667"><ele>498.0</ele><time>2026-04-17T14:23:15.085Z</time></trkpt><trkpt lat="43.5119033" lon="11.407525"><ele>498.0</ele><time>2026-04-17T14:23:16.084Z</time></trkpt><trkpt lat="43.5117983" lon="11.4073967"><ele>494.0</ele><time>2026-04-17T14:23:17.084Z</time></trkpt><trkpt lat="43.511705" lon="11.4072533"><ele>490.0</ele><time>2026-04-17T14:23:18.084Z</time></trkpt><trkpt lat="43.5116367" lon="11.4070783"><ele>486.0</ele><time>2026-04-17T14:23:19.084Z</time></trkpt><trkpt lat="43.5115917" lon="11.4068867"><ele>482.0</ele><time>2026-04-17T14:23:20.084Z</time></trkpt><trkpt lat="43.5115617" lon="11.406695"><ele>482.0</ele><time>2026-04-17T14:23:21.084Z</time></trkpt><trkpt lat="43.5115733" lon="11.4065217"><ele>482.0</ele><time>2026-04-17T14:23:22.085Z</time></trkpt><trkpt lat="43.5115967" lon="11.4063467"><ele>482.0</ele><time>2026-04-17T14:23:23.085Z</time></trkpt><trkpt lat="43.51161" lon="11.4061867"><ele>482.0</ele><time>2026-04-17T14:23:24.084Z</time></trkpt><trkpt lat="43.5115917" lon="11.406055"><ele>481.5</ele><time>2026-04-17T14:23:25.084Z</time></trkpt><trkpt lat="43.51153" lon="11.405925"><ele>481.0</ele><time>2026-04-17T14:23:26.085Z</time></trkpt><trkpt lat="43.5114317" lon="11.4058317"><ele>480.5</ele><time>2026-04-17T14:23:27.084Z</time></trkpt><trkpt lat="43.5113067" lon="11.4057783"><ele>480.0</ele><time>2026-04-17T14:23:28.085Z</time></trkpt><trkpt lat="43.51115" lon="11.40575"><ele>476.0</ele><time>2026-04-17T14:23:29.084Z</time></trkpt><trkpt lat="43.5109817" lon="11.4057317"><ele>472.0</ele><time>2026-04-17T14:23:30.084Z</time></trkpt><trkpt lat="43.51082" lon="11.4056983"><ele>468.0</ele><time>2026-04-17T14:23:31.085Z</time></trkpt><trkpt lat="43.510675" lon="11.4056383"><ele>468.0</ele><time>2026-04-17T14:23:32.085Z</time></trkpt><trkpt lat="43.5105283" lon="11.4055967"><ele>468.0</ele><time>2026-04-17T14:23:33.085Z</time></trkpt><trkpt lat="43.510395" lon="11.405565"><ele>468.0</ele><time>2026-04-17T14:23:34.084Z</time></trkpt><trkpt lat="43.5102833" lon="11.4055417"><ele>468.0</ele><time>2026-04-17T14:23:35.085Z</time></trkpt><trkpt lat="43.5101867" lon="11.405515"><ele>468.0</ele><time>2026-04-17T14:23:36.084Z</time></trkpt><trkpt lat="43.5101017" lon="11.4054683"><ele>467.99999999999994</ele><time>2026-04-17T14:23:37.085Z</time></trkpt><trkpt lat="43.51004" lon="11.4053717"><ele>467.99999999999994</ele><time>2026-04-17T14:23:38.085Z</time></trkpt><trkpt lat="43.5100017" lon="11.4052233"><ele>468.0</ele><time>2026-04-17T14:23:39.085Z</time></trkpt><trkpt lat="43.5099767" lon="11.4050467"><ele>468.0</ele><time>2026-04-17T14:23:40.084Z</time></trkpt><trkpt lat="43.5099567" lon="11.4048467"><ele>466.33333333333337</ele><time>2026-04-17T14:23:41.084Z</time></trkpt><trkpt lat="43.5099333" lon="11.404635"><ele>464.6666666666667</ele><time>2026-04-17T14:23:42.084Z</time></trkpt><trkpt lat="43.50989" lon="11.40442"><ele>463.0</ele><time>2026-04-17T14:23:43.084Z</time></trkpt><trkpt lat="43.509835" lon="11.404195"><ele>463.0</ele><time>2026-04-17T14:23:44.085Z</time></trkpt><trkpt lat="43.509765" lon="11.4039783"><ele>463.0</ele><time>2026-04-17T14:23:45.085Z</time></trkpt><trkpt lat="43.5097067" lon="11.403775"><ele>463.0</ele><time>2026-04-17T14:23:46.084Z</time></trkpt><trkpt lat="43.50965" lon="11.4035817"><ele>463.25</ele><time>2026-04-17T14:23:47.085Z</time></trkpt><trkpt lat="43.5096033" lon="11.4033983"><ele>463.5</ele><time>2026-04-17T14:23:48.085Z</time></trkpt><trkpt lat="43.509535" lon="11.4032283"><ele>463.75</ele><time>2026-04-17T14:23:49.084Z</time></trkpt><trkpt lat="43.5094583" lon="11.4030867"><ele>464.0</ele><time>2026-04-17T14:23:50.084Z</time></trkpt><trkpt lat="43.50937" lon="11.4029683"><ele>462.75</ele><time>2026-04-17T14:23:51.084Z</time></trkpt><trkpt lat="43.5092483" lon="11.4028883"><ele>461.5</ele><time>2026-04-17T14:23:52.085Z</time></trkpt><trkpt lat="43.5091117" lon="11.4028483"><ele>460.25</ele><time>2026-04-17T14:23:53.084Z</time></trkpt><trkpt lat="43.508955" lon="11.4028267"><ele>459.0</ele><time>2026-04-17T14:23:54.084Z</time></trkpt><trkpt lat="43.5087717" lon="11.4027983"><ele>455.0</ele><time>2026-04-17T14:23:55.085Z</time></trkpt><trkpt lat="43.5085717" lon="11.40276"><ele>451.0</ele><time>2026-04-17T14:23:56.085Z</time></trkpt><trkpt lat="43.5083783" lon="11.4027167"><ele>447.0</ele><time>2026-04-17T14:23:57.084Z</time></trkpt><trkpt lat="43.508195" lon="11.4026867"><ele>447.0</ele><time>2026-04-17T14:23:58.084Z</time></trkpt><trkpt lat="43.5080167" lon="11.402665"><ele>447.0</ele><time>2026-04-17T14:23:59.084Z</time></trkpt><trkpt lat="43.5078433" lon="11.402635"><ele>447.0</ele><time>2026-04-17T14:24:00.084Z</time></trkpt><trkpt lat="43.5076717" lon="11.4025867"><ele>445.0</ele><time>2026-04-17T14:24:01.084Z</time></trkpt><trkpt lat="43.5075017" lon="11.4025367"><ele>443.0</ele><time>2026-04-17T14:24:02.084Z</time></trkpt><trkpt lat="43.507335" lon="11.402475"><ele>441.0</ele><time>2026-04-17T14:24:03.084Z</time></trkpt><trkpt lat="43.50717" lon="11.4024067"><ele>436.66666666666663</ele><time>2026-04-17T14:24:04.085Z</time></trkpt><trkpt lat="43.5070117" lon="11.40233"><ele>432.3333333333333</ele><time>2026-04-17T14:24:05.084Z</time></trkpt><trkpt lat="43.50686" lon="11.40224"><ele>428.0</ele><time>2026-04-17T14:24:06.084Z</time></trkpt><trkpt lat="43.506715" lon="11.4021283"><ele>424.75</ele><time>2026-04-17T14:24:07.084Z</time></trkpt><trkpt lat="43.5065917" lon="11.402015"><ele>421.5</ele><time>2026-04-17T14:24:08.084Z</time></trkpt><trkpt lat="43.506485" lon="11.4019033"><ele>418.25</ele><time>2026-04-17T14:24:09.084Z</time></trkpt><trkpt lat="43.50639" lon="11.401795"><ele>415.0</ele><time>2026-04-17T14:24:10.085Z</time></trkpt><trkpt lat="43.5062967" lon="11.4017"><ele>413.6</ele><time>2026-04-17T14:24:11.084Z</time></trkpt><trkpt lat="43.50619" lon="11.401655"><ele>412.2</ele><time>2026-04-17T14:24:12.085Z</time></trkpt><trkpt lat="43.5060933" lon="11.4016433"><ele>410.79999999999995</ele><time>2026-04-17T14:24:13.084Z</time></trkpt><trkpt lat="43.5060033" lon="11.401645"><ele>409.4</ele><time>2026-04-17T14:24:14.085Z</time></trkpt><trkpt lat="43.5059267" lon="11.4016217"><ele>408.0</ele><time>2026-04-17T14:24:15.084Z</time></trkpt><trkpt lat="43.50587" lon="11.401555"><ele>408.0</ele><time>2026-04-17T14:24:16.084Z</time></trkpt><trkpt lat="43.5058517" lon="11.4014417"><ele>408.0</ele><time>2026-04-17T14:24:17.084Z</time></trkpt><trkpt lat="43.505885" lon="11.4013133"><ele>408.0</ele><time>2026-04-17T14:24:18.085Z</time></trkpt><trkpt lat="43.50594" lon="11.40119"><ele>408.0</ele><time>2026-04-17T14:24:19.084Z</time></trkpt><trkpt lat="43.5060317" lon="11.40111"><ele>408.0</ele><time>2026-04-17T14:24:20.085Z</time></trkpt><trkpt lat="43.506125" lon="11.40107"><ele>408.59999999999997</ele><time>2026-04-17T14:24:21.085Z</time></trkpt><trkpt lat="43.5062367" lon="11.4010433"><ele>409.2</ele><time>2026-04-17T14:24:22.084Z</time></trkpt><trkpt lat="43.5063217" lon="11.4009817"><ele>409.8</ele><time>2026-04-17T14:24:23.084Z</time></trkpt><trkpt lat="43.5063717" lon="11.4008833"><ele>410.4</ele><time>2026-04-17T14:24:24.084Z</time></trkpt><trkpt lat="43.506365" lon="11.4007633"><ele>411.0</ele><time>2026-04-17T14:24:25.084Z</time></trkpt><trkpt lat="43.5063067" lon="11.4006467"><ele>408.75</ele><time>2026-04-17T14:24:26.085Z</time></trkpt><trkpt lat="43.506205" lon="11.4005567"><ele>406.5</ele><time>2026-04-17T14:24:27.084Z</time></trkpt><trkpt lat="43.5060783" lon="11.4004933"><ele>404.25</ele><time>2026-04-17T14:24:28.085Z</time></trkpt><trkpt lat="43.5059283" lon="11.4004367"><ele>402.0</ele><time>2026-04-17T14:24:29.084Z</time></trkpt><trkpt lat="43.5057667" lon="11.4003733"><ele>402.0</ele><time>2026-04-17T14:24:30.085Z</time></trkpt><trkpt lat="43.505615" lon="11.4003083"><ele>402.0</ele><time>2026-04-17T14:24:31.085Z</time></trkpt><trkpt lat="43.5054633" lon="11.4002417"><ele>402.0</ele><time>2026-04-17T14:24:32.084Z</time></trkpt><trkpt lat="43.5053117" lon="11.4001683"><ele>398.0</ele><time>2026-04-17T14:24:33.084Z</time></trkpt><trkpt lat="43.505165" lon="11.4001017"><ele>394.0</ele><time>2026-04-17T14:24:34.084Z</time></trkpt><trkpt lat="43.5050233" lon="11.4000267"><ele>390.0</ele><time>2026-04-17T14:24:35.084Z</time></trkpt><trkpt lat="43.5048933" lon="11.39992"><ele>390.0</ele><time>2026-04-17T14:24:36.085Z</time></trkpt><trkpt lat="43.5047717" lon="11.3997717"><ele>390.0</ele><time>2026-04-17T14:24:37.084Z</time></trkpt><trkpt lat="43.5046717" lon="11.3995833"><ele>390.0</ele><time>2026-04-17T14:24:38.085Z</time></trkpt><trkpt lat="43.5045817" lon="11.399385"><ele>389.66666666666663</ele><time>2026-04-17T14:24:39.084Z</time></trkpt><trkpt lat="43.504505" lon="11.3991567"><ele>389.3333333333333</ele><time>2026-04-17T14:24:40.084Z</time></trkpt><trkpt lat="43.5044083" lon="11.3989267"><ele>389.0</ele><time>2026-04-17T14:24:41.084Z</time></trkpt><trkpt lat="43.5042883" lon="11.398715"><ele>388.3333333333333</ele><time>2026-04-17T14:24:42.084Z</time></trkpt><trkpt lat="43.5041633" lon="11.3985067"><ele>387.66666666666663</ele><time>2026-04-17T14:24:43.085Z</time></trkpt><trkpt lat="43.504035" lon="11.3982967"><ele>387.0</ele><time>2026-04-17T14:24:44.084Z</time></trkpt><trkpt lat="43.50392" lon="11.3981"><ele>388.66666666666663</ele><time>2026-04-17T14:24:45.085Z</time></trkpt><trkpt lat="43.5038017" lon="11.397915"><ele>390.3333333333333</ele><time>2026-04-17T14:24:46.085Z</time></trkpt><trkpt lat="43.5036783" lon="11.3977317"><ele>392.0</ele><time>2026-04-17T14:24:47.084Z</time></trkpt><trkpt lat="43.5035467" lon="11.3975567"><ele>388.66666666666663</ele><time>2026-04-17T14:24:48.084Z</time></trkpt><trkpt lat="43.5033967" lon="11.3974017"><ele>385.3333333333333</ele><time>2026-04-17T14:24:49.084Z</time></trkpt><trkpt lat="43.5032433" lon="11.39725"><ele>382.0</ele><time>2026-04-17T14:24:50.084Z</time></trkpt><trkpt lat="43.50309" lon="11.3971067"><ele>380.66666666666663</ele><time>2026-04-17T14:24:51.085Z</time></trkpt><trkpt lat="43.50294" lon="11.3969717"><ele>379.3333333333333</ele><time>2026-04-17T14:24:52.084Z</time></trkpt><trkpt lat="43.5027917" lon="11.3968433"><ele>378.0</ele><time>2026-04-17T14:24:53.084Z</time></trkpt><trkpt lat="43.5026467" lon="11.3967167"><ele>378.0</ele><time>2026-04-17T14:24:54.085Z</time></trkpt><trkpt lat="43.502505" lon="11.3965917"><ele>378.0</ele><time>2026-04-17T14:24:55.084Z</time></trkpt><trkpt lat="43.5023633" lon="11.3964717"><ele>378.0</ele><time>2026-04-17T14:24:56.084Z</time></trkpt><trkpt lat="43.5022283" lon="11.39635"><ele>377.3333333333333</ele><time>2026-04-17T14:24:57.084Z</time></trkpt><trkpt lat="43.5020933" lon="11.3962383"><ele>376.66666666666663</ele><time>2026-04-17T14:24:58.085Z</time></trkpt><trkpt lat="43.5019617" lon="11.3961283"><ele>376.0</ele><time>2026-04-17T14:24:59.085Z</time></trkpt><trkpt lat="43.5018333" lon="11.3960217"><ele>376.0</ele><time>2026-04-17T14:25:00.085Z</time></trkpt><trkpt lat="43.5017117" lon="11.3959083"><ele>376.0</ele><time>2026-04-17T14:25:01.085Z</time></trkpt><trkpt lat="43.5015933" lon="11.3957967"><ele>376.0</ele><time>2026-04-17T14:25:02.084Z</time></trkpt><trkpt lat="43.5014683" lon="11.3956833"><ele>376.0</ele><time>2026-04-17T14:25:03.085Z</time></trkpt><trkpt lat="43.501335" lon="11.3955617"><ele>375.66666666666663</ele><time>2026-04-17T14:25:04.084Z</time></trkpt><trkpt lat="43.5012017" lon="11.39544"><ele>375.3333333333333</ele><time>2026-04-17T14:25:05.085Z</time></trkpt><trkpt lat="43.5010683" lon="11.39532"><ele>375.0</ele><time>2026-04-17T14:25:06.084Z</time></trkpt><trkpt lat="43.5009367" lon="11.3952"><ele>375.0</ele><time>2026-04-17T14:25:07.084Z</time></trkpt><trkpt lat="43.500805" lon="11.3950817"><ele>375.0</ele><time>2026-04-17T14:25:08.085Z</time></trkpt><trkpt lat="43.500675" lon="11.394965"><ele>375.0</ele><time>2026-04-17T14:25:09.084Z</time></trkpt><trkpt lat="43.5005483" lon="11.3948533"><ele>375.0</ele><time>2026-04-17T14:25:10.085Z</time></trkpt><trkpt lat="43.50042" lon="11.394745"><ele>375.0</ele><time>2026-04-17T14:25:11.085Z</time></trkpt><trkpt lat="43.5002967" lon="11.3946267"><ele>375.0</ele><time>2026-04-17T14:25:12.084Z</time></trkpt><trkpt lat="43.5001733" lon="11.3945117"><ele>374.0</ele><time>2026-04-17T14:25:13.084Z</time></trkpt><trkpt lat="43.500045" lon="11.3944017"><ele>373.0</ele><time>2026-04-17T14:25:14.084Z</time></trkpt><trkpt lat="43.4999183" lon="11.3943"><ele>372.0</ele><time>2026-04-17T14:25:15.084Z</time></trkpt><trkpt lat="43.49979" lon="11.39421"><ele>371.0</ele><time>2026-04-17T14:25:16.084Z</time></trkpt><trkpt lat="43.49964" lon="11.3941383"><ele>372.0</ele><time>2026-04-17T14:25:17.085Z</time></trkpt><trkpt lat="43.499495" lon="11.3940683"><ele>373.0</ele><time>2026-04-17T14:25:18.084Z</time></trkpt><trkpt lat="43.4993483" lon="11.3940067"><ele>374.0</ele><time>2026-04-17T14:25:19.084Z</time></trkpt><trkpt lat="43.49921" lon="11.3939417"><ele>374.0</ele><time>2026-04-17T14:25:20.085Z</time></trkpt><trkpt lat="43.4990683" lon="11.3938767"><ele>374.0</ele><time>2026-04-17T14:25:21.085Z</time></trkpt><trkpt lat="43.4989333" lon="11.3938083"><ele>374.0</ele><time>2026-04-17T14:25:22.084Z</time></trkpt><trkpt lat="43.4987933" lon="11.39373"><ele>374.0</ele><time>2026-04-17T14:25:23.084Z</time></trkpt><trkpt lat="43.4986533" lon="11.3936467"><ele>376.6666666666667</ele><time>2026-04-17T14:25:24.085Z</time></trkpt><trkpt lat="43.49851" lon="11.3935583"><ele>379.3333333333333</ele><time>2026-04-17T14:25:25.084Z</time></trkpt><trkpt lat="43.498375" lon="11.3934567"><ele>382.0</ele><time>2026-04-17T14:25:26.085Z</time></trkpt><trkpt lat="43.498235" lon="11.3933417"><ele>382.0</ele><time>2026-04-17T14:25:27.084Z</time></trkpt><trkpt lat="43.4981" lon="11.393245"><ele>382.0</ele><time>2026-04-17T14:25:28.085Z</time></trkpt><trkpt lat="43.4979617" lon="11.3931483"><ele>382.0</ele><time>2026-04-17T14:25:29.084Z</time></trkpt><trkpt lat="43.49783" lon="11.3930367"><ele>385.0</ele><time>2026-04-17T14:25:30.084Z</time></trkpt><trkpt lat="43.4977067" lon="11.392915"><ele>388.0</ele><time>2026-04-17T14:25:31.084Z</time></trkpt><trkpt lat="43.4975817" lon="11.3927783"><ele>391.0</ele><time>2026-04-17T14:25:32.084Z</time></trkpt><trkpt lat="43.4974733" lon="11.3926617"><ele>394.0</ele><time>2026-04-17T14:25:33.084Z</time></trkpt><trkpt lat="43.4973717" lon="11.3925467"><ele>394.0</ele><time>2026-04-17T14:25:34.085Z</time></trkpt><trkpt lat="43.4972667" lon="11.3924433"><ele>394.0</ele><time>2026-04-17T14:25:35.084Z</time></trkpt><trkpt lat="43.49715" lon="11.3923467"><ele>394.0</ele><time>2026-04-17T14:25:36.084Z</time></trkpt><trkpt lat="43.4970317" lon="11.3922883"><ele>394.0</ele><time>2026-04-17T14:25:37.084Z</time></trkpt><trkpt lat="43.4969067" lon="11.3922683"><ele>397.75</ele><time>2026-04-17T14:25:38.084Z</time></trkpt><trkpt lat="43.4967767" lon="11.3922767"><ele>401.5</ele><time>2026-04-17T14:25:39.085Z</time></trkpt><trkpt lat="43.49663" lon="11.392305"><ele>405.25</ele><time>2026-04-17T14:25:40.084Z</time></trkpt><trkpt lat="43.4964833" lon="11.3923383"><ele>409.0</ele><time>2026-04-17T14:25:41.084Z</time></trkpt><trkpt lat="43.4963583" lon="11.3923567"><ele>410.75</ele><time>2026-04-17T14:25:42.085Z</time></trkpt><trkpt lat="43.49623" lon="11.3923583"><ele>412.5</ele><time>2026-04-17T14:25:43.084Z</time></trkpt><trkpt lat="43.4961167" lon="11.392335"><ele>414.25</ele><time>2026-04-17T14:25:44.085Z</time></trkpt><trkpt lat="43.49601" lon="11.392265"><ele>416.0</ele><time>2026-04-17T14:25:45.084Z</time></trkpt><trkpt lat="43.4959067" lon="11.3921633"><ele>416.0</ele><time>2026-04-17T14:25:46.084Z</time></trkpt><trkpt lat="43.4958133" lon="11.3920567"><ele>416.0</ele><time>2026-04-17T14:25:47.084Z</time></trkpt><trkpt lat="43.495735" lon="11.391945"><ele>416.0</ele><time>2026-04-17T14:25:48.084Z</time></trkpt><trkpt lat="43.4956783" lon="11.3918217"><ele>416.0</ele><time>2026-04-17T14:25:49.084Z</time></trkpt><trkpt lat="43.49564" lon="11.391685"><ele>416.0</ele><time>2026-04-17T14:25:50.085Z</time></trkpt><trkpt lat="43.4956333" lon="11.391545"><ele>416.0</ele><time>2026-04-17T14:25:51.085Z</time></trkpt><trkpt lat="43.49566" lon="11.3914"><ele>416.0</ele><time>2026-04-17T14:25:52.085Z</time></trkpt><trkpt lat="43.4957167" lon="11.3912683"><ele>416.0</ele><time>2026-04-17T14:25:53.085Z</time></trkpt><trkpt lat="43.4958" lon="11.3911583"><ele>416.0</ele><time>2026-04-17T14:25:54.084Z</time></trkpt><trkpt lat="43.4958833" lon="11.39108"><ele>416.0</ele><time>2026-04-17T14:25:55.084Z</time></trkpt><trkpt lat="43.4959567" lon="11.39099"><ele>416.99999999999994</ele><time>2026-04-17T14:25:56.085Z</time></trkpt><trkpt lat="43.4960183" lon="11.3908867"><ele>418.0</ele><time>2026-04-17T14:25:57.084Z</time></trkpt><trkpt lat="43.49603" lon="11.39079"><ele>419.0</ele><time>2026-04-17T14:25:58.084Z</time></trkpt><trkpt lat="43.4960133" lon="11.3906817"><ele>420.0</ele><time>2026-04-17T14:25:59.084Z</time></trkpt><trkpt lat="43.4959617" lon="11.390575"><ele>420.99999999999994</ele><time>2026-04-17T14:26:00.084Z</time></trkpt><trkpt lat="43.495885" lon="11.390475"><ele>422.0</ele><time>2026-04-17T14:26:01.084Z</time></trkpt><trkpt lat="43.495785" lon="11.3903783"><ele>422.5</ele><time>2026-04-17T14:26:02.085Z</time></trkpt><trkpt lat="43.4956817" lon="11.3902917"><ele>423.0</ele><time>2026-04-17T14:26:03.085Z</time></trkpt><trkpt lat="43.4955833" lon="11.3902217"><ele>423.5</ele><time>2026-04-17T14:26:04.084Z</time></trkpt><trkpt lat="43.4954783" lon="11.39014"><ele>424.0</ele><time>2026-04-17T14:26:05.084Z</time></trkpt><trkpt lat="43.4953667" lon="11.3900367"><ele>425.25</ele><time>2026-04-17T14:26:06.084Z</time></trkpt><trkpt lat="43.495255" lon="11.3899383"><ele>426.5</ele><time>2026-04-17T14:26:07.084Z</time></trkpt><trkpt lat="43.49515" lon="11.3898283"><ele>427.75</ele><time>2026-04-17T14:26:08.083Z</time></trkpt><trkpt lat="43.4950383" lon="11.38972"><ele>429.0</ele><time>2026-04-17T14:26:09.083Z</time></trkpt><trkpt lat="43.4949267" lon="11.3896167"><ele>429.0</ele><time>2026-04-17T14:26:10.083Z</time></trkpt><trkpt lat="43.4948183" lon="11.389515"><ele>429.0</ele><time>2026-04-17T14:26:11.083Z</time></trkpt><trkpt lat="43.4947117" lon="11.389405"><ele>429.0</ele><time>2026-04-17T14:26:12.084Z</time></trkpt><trkpt lat="43.4946017" lon="11.3892883"><ele>429.0</ele><time>2026-04-17T14:26:13.083Z</time></trkpt><trkpt lat="43.4945033" lon="11.3891533"><ele>429.75</ele><time>2026-04-17T14:26:14.083Z</time></trkpt><trkpt lat="43.49441" lon="11.3890017"><ele>430.5</ele><time>2026-04-17T14:26:15.083Z</time></trkpt><trkpt lat="43.4943267" lon="11.3888533"><ele>431.25</ele><time>2026-04-17T14:26:16.083Z</time></trkpt><trkpt lat="43.4942333" lon="11.3887183"><ele>432.0</ele><time>2026-04-17T14:26:17.083Z</time></trkpt><trkpt lat="43.4941283" lon="11.3885933"><ele>432.0</ele><time>2026-04-17T14:26:18.083Z</time></trkpt><trkpt lat="43.49401" lon="11.3885"><ele>432.0</ele><time>2026-04-17T14:26:19.084Z</time></trkpt><trkpt lat="43.493895" lon="11.3884183"><ele>432.0</ele><time>2026-04-17T14:26:20.083Z</time></trkpt><trkpt lat="43.4937733" lon="11.38836"><ele>432.0</ele><time>2026-04-17T14:26:21.083Z</time></trkpt><trkpt lat="43.4936517" lon="11.388315"><ele>436.5</ele><time>2026-04-17T14:26:22.083Z</time></trkpt><trkpt lat="43.49352" lon="11.388305"><ele>441.0</ele><time>2026-04-17T14:26:23.084Z</time></trkpt><trkpt lat="43.493395" lon="11.3883183"><ele>445.5</ele><time>2026-04-17T14:26:24.083Z</time></trkpt><trkpt lat="43.4932783" lon="11.3883433"><ele>450.0</ele><time>2026-04-17T14:26:25.084Z</time></trkpt><trkpt lat="43.49317" lon="11.388385"><ele>450.0</ele><time>2026-04-17T14:26:26.083Z</time></trkpt><trkpt lat="43.4930733" lon="11.38845"><ele>450.0</ele><time>2026-04-17T14:26:27.084Z</time></trkpt><trkpt lat="43.4929883" lon="11.3884933"><ele>450.0</ele><time>2026-04-17T14:26:28.084Z</time></trkpt><trkpt lat="43.4929167" lon="11.3885067"><ele>450.0</ele><time>2026-04-17T14:26:29.083Z</time></trkpt><trkpt lat="43.49281" lon="11.38845"><ele>450.0</ele><time>2026-04-17T14:26:31.084Z</time></trkpt><trkpt lat="43.4927617" lon="11.3883667"><ele>449.6</ele><time>2026-04-17T14:26:32.084Z</time></trkpt><trkpt lat="43.4927033" lon="11.3882517"><ele>449.2</ele><time>2026-04-17T14:26:33.083Z</time></trkpt><trkpt lat="43.4926317" lon="11.3881383"><ele>448.79999999999995</ele><time>2026-04-17T14:26:34.084Z</time></trkpt><trkpt lat="43.4925467" lon="11.388045"><ele>448.4</ele><time>2026-04-17T14:26:35.083Z</time></trkpt><trkpt lat="43.49246" lon="11.3879667"><ele>448.0</ele><time>2026-04-17T14:26:36.084Z</time></trkpt><trkpt lat="43.4923683" lon="11.3878933"><ele>448.0</ele><time>2026-04-17T14:26:37.083Z</time></trkpt><trkpt lat="43.4922667" lon="11.38782"><ele>448.0</ele><time>2026-04-17T14:26:38.084Z</time></trkpt><trkpt lat="43.4921667" lon="11.3877467"><ele>448.0</ele><time>2026-04-17T14:26:39.083Z</time></trkpt><trkpt lat="43.49206" lon="11.3876633"><ele>448.0</ele><time>2026-04-17T14:26:40.083Z</time></trkpt><trkpt lat="43.491955" lon="11.3875733"><ele>451.75</ele><time>2026-04-17T14:26:41.083Z</time></trkpt><trkpt lat="43.49185" lon="11.3874817"><ele>455.5</ele><time>2026-04-17T14:26:42.083Z</time></trkpt><trkpt lat="43.4917433" lon="11.38738"><ele>459.25</ele><time>2026-04-17T14:26:43.083Z</time></trkpt><trkpt lat="43.4916383" lon="11.38729"><ele>463.0</ele><time>2026-04-17T14:26:44.083Z</time></trkpt><trkpt lat="43.4915333" lon="11.3871883"><ele>464.25</ele><time>2026-04-17T14:26:45.083Z</time></trkpt><trkpt lat="43.4914317" lon="11.3870883"><ele>465.5</ele><time>2026-04-17T14:26:46.084Z</time></trkpt><trkpt lat="43.4913267" lon="11.386995"><ele>466.75</ele><time>2026-04-17T14:26:47.083Z</time></trkpt><trkpt lat="43.4912267" lon="11.3869067"><ele>468.0</ele><time>2026-04-17T14:26:48.084Z</time></trkpt><trkpt lat="43.4911217" lon="11.3868"><ele>468.0</ele><time>2026-04-17T14:26:49.083Z</time></trkpt><trkpt lat="43.4910267" lon="11.3866867"><ele>468.0</ele><time>2026-04-17T14:26:50.083Z</time></trkpt><trkpt lat="43.4909417" lon="11.3865617"><ele>468.0</ele><time>2026-04-17T14:26:51.083Z</time></trkpt><trkpt lat="43.4908733" lon="11.3864283"><ele>468.0</ele><time>2026-04-17T14:26:52.083Z</time></trkpt><trkpt lat="43.49082" lon="11.3863"><ele>467.3333333333333</ele><time>2026-04-17T14:26:53.083Z</time></trkpt><trkpt lat="43.4907667" lon="11.3861683"><ele>466.66666666666663</ele><time>2026-04-17T14:26:54.083Z</time></trkpt><trkpt lat="43.4907233" lon="11.3860533"><ele>466.0</ele><time>2026-04-17T14:26:55.084Z</time></trkpt><trkpt lat="43.4906867" lon="11.3859533"><ele>465.3333333333333</ele><time>2026-04-17T14:26:56.083Z</time></trkpt><trkpt lat="43.4906517" lon="11.385875"><ele>464.66666666666663</ele><time>2026-04-17T14:26:57.083Z</time></trkpt><trkpt lat="43.4906033" lon="11.3857617"><ele>464.0</ele><time>2026-04-17T14:26:59.083Z</time></trkpt><trkpt lat="43.4905683" lon="11.385685"><ele>463.99999999999994</ele><time>2026-04-17T14:27:01.084Z</time></trkpt><trkpt lat="43.4905183" lon="11.3855683"><ele>464.0</ele><time>2026-04-17T14:27:03.083Z</time></trkpt><trkpt lat="43.4904867" lon="11.38549"><ele>464.0</ele><time>2026-04-17T14:27:04.084Z</time></trkpt><trkpt lat="43.49043" lon="11.3853567"><ele>464.0</ele><time>2026-04-17T14:27:06.083Z</time></trkpt><trkpt lat="43.49039" lon="11.385285"><ele>463.99999999999994</ele><time>2026-04-17T14:27:09.083Z</time></trkpt><trkpt lat="43.4903167" lon="11.3852933"><ele>464.0</ele><time>2026-04-17T14:27:14.083Z</time></trkpt><trkpt lat="43.4902883" lon="11.3854683"><ele>463.0</ele><time>2026-04-17T14:27:16.083Z</time></trkpt><trkpt lat="43.4902883" lon="11.38559"><ele>462.0</ele><time>2026-04-17T14:27:17.084Z</time></trkpt><trkpt lat="43.4902917" lon="11.38572"><ele>461.0</ele><time>2026-04-17T14:27:18.084Z</time></trkpt><trkpt lat="43.490285" lon="11.38585"><ele>460.0</ele><time>2026-04-17T14:27:19.083Z</time></trkpt><trkpt lat="43.4902633" lon="11.3859767"><ele>459.0</ele><time>2026-04-17T14:27:20.084Z</time></trkpt><trkpt lat="43.4902133" lon="11.3861017"><ele>459.0</ele><time>2026-04-17T14:27:21.084Z</time></trkpt><trkpt lat="43.490145" lon="11.3861917"><ele>459.0</ele><time>2026-04-17T14:27:22.084Z</time></trkpt><trkpt lat="43.4900817" lon="11.386255"><ele>459.0</ele><time>2026-04-17T14:27:23.083Z</time></trkpt><trkpt lat="43.4900183" lon="11.3863"><ele>459.0</ele><time>2026-04-17T14:27:24.083Z</time></trkpt><trkpt lat="43.4899533" lon="11.3863167"><ele>459.0</ele><time>2026-04-17T14:27:25.084Z</time></trkpt><trkpt lat="43.489825" lon="11.386255"><ele>459.0</ele><time>2026-04-17T14:27:27.083Z</time></trkpt><trkpt lat="43.4897617" lon="11.3862283"><ele>459.0</ele><time>2026-04-17T14:27:28.083Z</time></trkpt><trkpt lat="43.4896617" lon="11.3863"><ele>459.0</ele><time>2026-04-17T14:27:30.084Z</time></trkpt><trkpt lat="43.4896317" lon="11.386405"><ele>459.0</ele><time>2026-04-17T14:27:31.083Z</time></trkpt><trkpt lat="43.4896033" lon="11.3865483"><ele>459.0</ele><time>2026-04-17T14:27:32.084Z</time></trkpt><trkpt lat="43.4895767" lon="11.3867183"><ele>459.0</ele><time>2026-04-17T14:27:33.084Z</time></trkpt><trkpt lat="43.4895517" lon="11.3869017"><ele>456.25</ele><time>2026-04-17T14:27:34.083Z</time></trkpt><trkpt lat="43.4895267" lon="11.3870833"><ele>453.5</ele><time>2026-04-17T14:27:35.084Z</time></trkpt><trkpt lat="43.4895067" lon="11.3872767"><ele>450.75</ele><time>2026-04-17T14:27:36.084Z</time></trkpt><trkpt lat="43.4894917" lon="11.387475"><ele>448.0</ele><time>2026-04-17T14:27:37.084Z</time></trkpt><trkpt lat="43.489475" lon="11.3876683"><ele>448.0</ele><time>2026-04-17T14:27:38.083Z</time></trkpt><trkpt lat="43.4894533" lon="11.3878517"><ele>448.0</ele><time>2026-04-17T14:27:39.084Z</time></trkpt><trkpt lat="43.4894417" lon="11.388035"><ele>448.0</ele><time>2026-04-17T14:27:40.083Z</time></trkpt><trkpt lat="43.4894217" lon="11.3882117"><ele>448.0</ele><time>2026-04-17T14:27:41.083Z</time></trkpt><trkpt lat="43.4894033" lon="11.38839"><ele>448.75</ele><time>2026-04-17T14:27:42.083Z</time></trkpt><trkpt lat="43.4893767" lon="11.3885717"><ele>449.5</ele><time>2026-04-17T14:27:43.083Z</time></trkpt><trkpt lat="43.4893417" lon="11.3887367"><ele>450.25</ele><time>2026-04-17T14:27:44.083Z</time></trkpt><trkpt lat="43.4893" lon="11.3889017"><ele>451.0</ele><time>2026-04-17T14:27:45.084Z</time></trkpt><trkpt lat="43.4892617" lon="11.389055"><ele>451.5</ele><time>2026-04-17T14:27:46.084Z</time></trkpt><trkpt lat="43.4892533" lon="11.3892117"><ele>452.0</ele><time>2026-04-17T14:27:47.083Z</time></trkpt><trkpt lat="43.4892783" lon="11.3893667"><ele>452.5</ele><time>2026-04-17T14:27:48.083Z</time></trkpt><trkpt lat="43.4893283" lon="11.38952"><ele>453.0</ele><time>2026-04-17T14:27:49.083Z</time></trkpt><trkpt lat="43.4893783" lon="11.3896817"><ele>453.0</ele><time>2026-04-17T14:27:50.083Z</time></trkpt><trkpt lat="43.4894367" lon="11.389845"><ele>453.0</ele><time>2026-04-17T14:27:51.083Z</time></trkpt><trkpt lat="43.4894917" lon="11.39"><ele>453.0</ele><time>2026-04-17T14:27:52.083Z</time></trkpt><trkpt lat="43.4895417" lon="11.3901467"><ele>453.0</ele><time>2026-04-17T14:27:53.083Z</time></trkpt><trkpt lat="43.4896033" lon="11.3902783"><ele>454.2</ele><time>2026-04-17T14:27:54.084Z</time></trkpt><trkpt lat="43.4896433" lon="11.3904133"><ele>455.4</ele><time>2026-04-17T14:27:55.083Z</time></trkpt><trkpt lat="43.4896917" lon="11.3905483"><ele>456.59999999999997</ele><time>2026-04-17T14:27:56.083Z</time></trkpt><trkpt lat="43.4897483" lon="11.3906783"><ele>457.79999999999995</ele><time>2026-04-17T14:27:57.083Z</time></trkpt><trkpt lat="43.489815" lon="11.3908133"><ele>459.0</ele><time>2026-04-17T14:27:58.084Z</time></trkpt><trkpt lat="43.4898967" lon="11.3909367"><ele>459.0</ele><time>2026-04-17T14:27:59.084Z</time></trkpt><trkpt lat="43.4899867" lon="11.39105"><ele>459.0</ele><time>2026-04-17T14:28:00.084Z</time></trkpt><trkpt lat="43.4900683" lon="11.3911617"><ele>459.0</ele><time>2026-04-17T14:28:01.083Z</time></trkpt><trkpt lat="43.49014" lon="11.39129"><ele>459.0</ele><time>2026-04-17T14:28:02.083Z</time></trkpt><trkpt lat="43.490185" lon="11.391435"><ele>458.4</ele><time>2026-04-17T14:28:03.084Z</time></trkpt><trkpt lat="43.4901983" lon="11.3915933"><ele>457.79999999999995</ele><time>2026-04-17T14:28:04.083Z</time></trkpt><trkpt lat="43.4901933" lon="11.3917533"><ele>457.20000000000005</ele><time>2026-04-17T14:28:05.084Z</time></trkpt><trkpt lat="43.4901867" lon="11.3919067"><ele>456.6</ele><time>2026-04-17T14:28:06.083Z</time></trkpt><trkpt lat="43.4901833" lon="11.3920417"><ele>456.0</ele><time>2026-04-17T14:28:07.084Z</time></trkpt><trkpt lat="43.4901783" lon="11.3921567"><ele>456.20000000000005</ele><time>2026-04-17T14:28:08.083Z</time></trkpt><trkpt lat="43.49016" lon="11.3922967"><ele>456.40000000000003</ele><time>2026-04-17T14:28:10.083Z</time></trkpt><trkpt lat="43.490085" lon="11.3923133"><ele>456.6</ele><time>2026-04-17T14:28:12.083Z</time></trkpt><trkpt lat="43.48997" lon="11.3922717"><ele>456.8</ele><time>2026-04-17T14:28:14.083Z</time></trkpt><trkpt lat="43.4898617" lon="11.3922417"><ele>457.0</ele><time>2026-04-17T14:28:16.083Z</time></trkpt><trkpt lat="43.489755" lon="11.3922567"><ele>457.00000000000006</ele><time>2026-04-17T14:28:18.084Z</time></trkpt><trkpt lat="43.4896917" lon="11.3922783"><ele>457.0</ele><time>2026-04-17T14:28:19.084Z</time></trkpt><trkpt lat="43.48962" lon="11.3923117"><ele>457.00000000000006</ele><time>2026-04-17T14:28:20.084Z</time></trkpt><trkpt lat="43.4895433" lon="11.392355"><ele>457.00000000000006</ele><time>2026-04-17T14:28:21.083Z</time></trkpt><trkpt lat="43.4894683" lon="11.392395"><ele>457.0</ele><time>2026-04-17T14:28:22.084Z</time></trkpt><trkpt lat="43.4893983" lon="11.392435"><ele>457.00000000000006</ele><time>2026-04-17T14:28:23.083Z</time></trkpt><trkpt lat="43.4893417" lon="11.3924783"><ele>457.00000000000006</ele><time>2026-04-17T14:28:24.083Z</time></trkpt><trkpt lat="43.4892667" lon="11.3926067"><ele>456.50000000000006</ele><time>2026-04-17T14:28:26.083Z</time></trkpt><trkpt lat="43.4892367" lon="11.3926933"><ele>456.0</ele><time>2026-04-17T14:28:27.083Z</time></trkpt><trkpt lat="43.48921" lon="11.3927917"><ele>455.5</ele><time>2026-04-17T14:28:28.084Z</time></trkpt><trkpt lat="43.4891883" lon="11.3928867"><ele>455.0</ele><time>2026-04-17T14:28:29.083Z</time></trkpt><trkpt lat="43.4891617" lon="11.3929767"><ele>454.50000000000006</ele><time>2026-04-17T14:28:30.083Z</time></trkpt><trkpt lat="43.4891183" lon="11.3931133"><ele>454.0</ele><time>2026-04-17T14:28:32.083Z</time></trkpt><trkpt lat="43.48906" lon="11.3931667"><ele>454.00000000000006</ele><time>2026-04-17T14:28:34.083Z</time></trkpt><trkpt lat="43.48898" lon="11.3931117"><ele>454.0</ele><time>2026-04-17T14:30:21.084Z</time></trkpt><trkpt lat="43.48892" lon="11.393035"><ele>454.0</ele><time>2026-04-17T14:30:24.083Z</time></trkpt><trkpt lat="43.4888783" lon="11.3929667"><ele>454.0</ele><time>2026-04-17T14:30:55.082Z</time></trkpt><trkpt lat="43.4887983" lon="11.39287"><ele>454.00000000000006</ele><time>2026-04-17T14:30:58.082Z</time></trkpt><trkpt lat="43.4887267" lon="11.3928"><ele>454.0</ele><time>2026-04-17T14:31:00.082Z</time></trkpt><trkpt lat="43.4886567" lon="11.3927817"><ele>454.0</ele><time>2026-04-17T14:31:02.082Z</time></trkpt><trkpt lat="43.4885933" lon="11.392845"><ele>454.0</ele><time>2026-04-17T14:31:04.082Z</time></trkpt><trkpt lat="43.48853" lon="11.39299"><ele>454.0</ele><time>2026-04-17T14:31:06.082Z</time></trkpt><trkpt lat="43.4884917" lon="11.393085"><ele>454.0</ele><time>2026-04-17T14:31:07.082Z</time></trkpt><trkpt lat="43.4884467" lon="11.393185"><ele>454.0</ele><time>2026-04-17T14:31:08.082Z</time></trkpt><trkpt lat="43.4884" lon="11.3932883"><ele>455.2</ele><time>2026-04-17T14:31:09.082Z</time></trkpt><trkpt lat="43.4883533" lon="11.3933967"><ele>456.4</ele><time>2026-04-17T14:31:10.082Z</time></trkpt><trkpt lat="43.488305" lon="11.393505"><ele>457.6</ele><time>2026-04-17T14:31:11.082Z</time></trkpt><trkpt lat="43.4882533" lon="11.3936117"><ele>458.8</ele><time>2026-04-17T14:31:12.083Z</time></trkpt><trkpt lat="43.4882033" lon="11.3937167"><ele>460.0</ele><time>2026-04-17T14:31:13.082Z</time></trkpt><trkpt lat="43.488155" lon="11.3938167"><ele>461.00000000000006</ele><time>2026-04-17T14:31:14.082Z</time></trkpt><trkpt lat="43.4881083" lon="11.3939233"><ele>462.0</ele><time>2026-04-17T14:31:15.083Z</time></trkpt><trkpt lat="43.488055" lon="11.39403"><ele>463.0</ele><time>2026-04-17T14:31:16.082Z</time></trkpt><trkpt lat="43.4880033" lon="11.394135"><ele>464.0</ele><time>2026-04-17T14:31:17.083Z</time></trkpt><trkpt lat="43.487955" lon="11.394235"><ele>465.00000000000006</ele><time>2026-04-17T14:31:18.082Z</time></trkpt><trkpt lat="43.48791" lon="11.3943333"><ele>466.0</ele><time>2026-04-17T14:31:19.083Z</time></trkpt><trkpt lat="43.4878583" lon="11.394435"><ele>466.6666666666667</ele><time>2026-04-17T14:31:20.082Z</time></trkpt><trkpt lat="43.4878067" lon="11.39454"><ele>467.33333333333337</ele><time>2026-04-17T14:31:21.082Z</time></trkpt><trkpt lat="43.4877583" lon="11.394635"><ele>468.0</ele><time>2026-04-17T14:31:22.082Z</time></trkpt><trkpt lat="43.4877133" lon="11.3947333"><ele>468.66666666666663</ele><time>2026-04-17T14:31:23.082Z</time></trkpt><trkpt lat="43.48767" lon="11.3948333"><ele>469.3333333333333</ele><time>2026-04-17T14:31:24.082Z</time></trkpt><trkpt lat="43.4876267" lon="11.3949333"><ele>470.0</ele><time>2026-04-17T14:31:25.082Z</time></trkpt><trkpt lat="43.4875783" lon="11.3950217"><ele>471.99999999999994</ele><time>2026-04-17T14:31:26.082Z</time></trkpt><trkpt lat="43.487525" lon="11.3950983"><ele>474.0</ele><time>2026-04-17T14:31:27.082Z</time></trkpt><trkpt lat="43.4874683" lon="11.39517"><ele>476.0</ele><time>2026-04-17T14:31:28.082Z</time></trkpt><trkpt lat="43.487405" lon="11.3952383"><ele>478.0</ele><time>2026-04-17T14:31:29.083Z</time></trkpt><trkpt lat="43.4873383" lon="11.3953133"><ele>479.99999999999994</ele><time>2026-04-17T14:31:30.083Z</time></trkpt><trkpt lat="43.4872767" lon="11.39539"><ele>482.0</ele><time>2026-04-17T14:31:31.082Z</time></trkpt><trkpt lat="43.487215" lon="11.39547"><ele>483.40000000000003</ele><time>2026-04-17T14:31:32.083Z</time></trkpt><trkpt lat="43.4871567" lon="11.3955483"><ele>484.80000000000007</ele><time>2026-04-17T14:31:33.083Z</time></trkpt><trkpt lat="43.4871067" lon="11.3956117"><ele>486.2</ele><time>2026-04-17T14:31:34.082Z</time></trkpt><trkpt lat="43.4870233" lon="11.3957233"><ele>487.6</ele><time>2026-04-17T14:31:36.082Z</time></trkpt><trkpt lat="43.4869333" lon="11.39583"><ele>489.0</ele><time>2026-04-17T14:31:38.083Z</time></trkpt><trkpt lat="43.4868783" lon="11.39589"><ele>491.6666666666667</ele><time>2026-04-17T14:31:39.082Z</time></trkpt><trkpt lat="43.4868183" lon="11.39595"><ele>494.33333333333337</ele><time>2026-04-17T14:31:40.082Z</time></trkpt><trkpt lat="43.48676" lon="11.3960217"><ele>497.0</ele><time>2026-04-17T14:31:41.083Z</time></trkpt><trkpt lat="43.4867" lon="11.3960967"><ele>499.6666666666667</ele><time>2026-04-17T14:31:42.082Z</time></trkpt><trkpt lat="43.4866467" lon="11.3961583"><ele>502.33333333333337</ele><time>2026-04-17T14:31:43.082Z</time></trkpt><trkpt lat="43.486565" lon="11.396205"><ele>505.0</ele><time>2026-04-17T14:31:45.082Z</time></trkpt><trkpt lat="43.486495" lon="11.396115"><ele>505.00000000000006</ele><time>2026-04-17T14:31:47.082Z</time></trkpt><trkpt lat="43.486455" lon="11.3960367"><ele>505.0</ele><time>2026-04-17T14:31:48.083Z</time></trkpt><trkpt lat="43.4864117" lon="11.3959517"><ele>505.0</ele><time>2026-04-17T14:31:49.082Z</time></trkpt><trkpt lat="43.486365" lon="11.395855"><ele>505.0</ele><time>2026-04-17T14:31:50.082Z</time></trkpt><trkpt lat="43.486315" lon="11.3957517"><ele>505.00000000000006</ele><time>2026-04-17T14:31:51.082Z</time></trkpt><trkpt lat="43.48627" lon="11.395655"><ele>505.0</ele><time>2026-04-17T14:31:52.082Z</time></trkpt><trkpt lat="43.4862217" lon="11.3955617"><ele>505.33333333333337</ele><time>2026-04-17T14:31:53.082Z</time></trkpt><trkpt lat="43.4861767" lon="11.3954667"><ele>505.6666666666667</ele><time>2026-04-17T14:31:54.083Z</time></trkpt><trkpt lat="43.486135" lon="11.3953783"><ele>506.0</ele><time>2026-04-17T14:31:55.082Z</time></trkpt><trkpt lat="43.486095" lon="11.3952817"><ele>506.33333333333337</ele><time>2026-04-17T14:31:56.082Z</time></trkpt><trkpt lat="43.4860583" lon="11.3951917"><ele>506.6666666666667</ele><time>2026-04-17T14:31:57.082Z</time></trkpt><trkpt lat="43.4860233" lon="11.3950967"><ele>507.0</ele><time>2026-04-17T14:31:58.082Z</time></trkpt><trkpt lat="43.485985" lon="11.3950117"><ele>507.0</ele><time>2026-04-17T14:31:59.082Z</time></trkpt><trkpt lat="43.4859533" lon="11.3949317"><ele>507.0</ele><time>2026-04-17T14:32:00.082Z</time></trkpt><trkpt lat="43.4859233" lon="11.3948483"><ele>507.0</ele><time>2026-04-17T14:32:01.083Z</time></trkpt><trkpt lat="43.485885" lon="11.3947617"><ele>507.0</ele><time>2026-04-17T14:32:02.083Z</time></trkpt><trkpt lat="43.4858483" lon="11.3946767"><ele>507.0</ele><time>2026-04-17T14:32:03.082Z</time></trkpt><trkpt lat="43.4858133" lon="11.394585"><ele>507.0</ele><time>2026-04-17T14:32:04.082Z</time></trkpt><trkpt lat="43.4857783" lon="11.3944933"><ele>507.0</ele><time>2026-04-17T14:32:05.082Z</time></trkpt><trkpt lat="43.4857417" lon="11.3944"><ele>506.0</ele><time>2026-04-17T14:32:06.082Z</time></trkpt><trkpt lat="43.485705" lon="11.3943067"><ele>505.0</ele><time>2026-04-17T14:32:07.082Z</time></trkpt><trkpt lat="43.48566" lon="11.3942"><ele>504.0</ele><time>2026-04-17T14:32:08.082Z</time></trkpt><trkpt lat="43.485615" lon="11.3941017"><ele>503.0</ele><time>2026-04-17T14:32:09.083Z</time></trkpt><trkpt lat="43.48557" lon="11.394005"><ele>502.0</ele><time>2026-04-17T14:32:10.082Z</time></trkpt><trkpt lat="43.4855333" lon="11.3939067"><ele>501.0</ele><time>2026-04-17T14:32:11.082Z</time></trkpt><trkpt lat="43.4854933" lon="11.39381"><ele>501.0</ele><time>2026-04-17T14:32:12.082Z</time></trkpt><trkpt lat="43.4854533" lon="11.3937133"><ele>501.0</ele><time>2026-04-17T14:32:13.082Z</time></trkpt><trkpt lat="43.4854183" lon="11.3936267"><ele>501.0</ele><time>2026-04-17T14:32:14.082Z</time></trkpt><trkpt lat="43.4853817" lon="11.3935467"><ele>501.0</ele><time>2026-04-17T14:32:15.082Z</time></trkpt><trkpt lat="43.4853267" lon="11.3934183"><ele>501.0</ele><time>2026-04-17T14:32:17.082Z</time></trkpt><trkpt lat="43.4853" lon="11.3933133"><ele>501.0</ele><time>2026-04-17T14:35:09.081Z</time></trkpt><trkpt lat="43.485235" lon="11.3933083"><ele>503.6</ele><time>2026-04-17T14:35:12.081Z</time></trkpt><trkpt lat="43.4851733" lon="11.3933483"><ele>506.20000000000005</ele><time>2026-04-17T14:35:14.081Z</time></trkpt><trkpt lat="43.48507" lon="11.3933267"><ele>508.79999999999995</ele><time>2026-04-17T14:35:45.081Z</time></trkpt><trkpt lat="43.48496" lon="11.39328"><ele>511.4</ele><time>2026-04-17T14:35:47.082Z</time></trkpt><trkpt lat="43.4848633" lon="11.3932533"><ele>514.0</ele><time>2026-04-17T14:35:48.081Z</time></trkpt><trkpt lat="43.4847533" lon="11.393225"><ele>514.0</ele><time>2026-04-17T14:35:49.081Z</time></trkpt><trkpt lat="43.4846467" lon="11.3931867"><ele>514.0</ele><time>2026-04-17T14:35:50.081Z</time></trkpt><trkpt lat="43.4845533" lon="11.3931483"><ele>514.0</ele><time>2026-04-17T14:35:51.081Z</time></trkpt><trkpt lat="43.4844683" lon="11.3931117"><ele>514.0</ele><time>2026-04-17T14:35:52.082Z</time></trkpt><trkpt lat="43.4844" lon="11.39307"><ele>514.0</ele><time>2026-04-17T14:35:53.082Z</time></trkpt><trkpt lat="43.4843467" lon="11.3930167"><ele>514.0</ele><time>2026-04-17T14:35:54.081Z</time></trkpt><trkpt lat="43.4843017" lon="11.3929533"><ele>513.4285714285714</ele><time>2026-04-17T14:35:55.081Z</time></trkpt><trkpt lat="43.48425" lon="11.3928767"><ele>512.8571428571429</ele><time>2026-04-17T14:35:56.081Z</time></trkpt><trkpt lat="43.4841967" lon="11.3927917"><ele>512.2857142857143</ele><time>2026-04-17T14:35:57.082Z</time></trkpt><trkpt lat="43.48415" lon="11.3927183"><ele>511.7142857142857</ele><time>2026-04-17T14:35:58.082Z</time></trkpt><trkpt lat="43.4841033" lon="11.3926433"><ele>511.1428571428572</ele><time>2026-04-17T14:35:59.082Z</time></trkpt><trkpt lat="43.4840633" lon="11.3925683"><ele>510.5714285714286</ele><time>2026-04-17T14:36:00.082Z</time></trkpt><trkpt lat="43.4840233" lon="11.3924833"><ele>510.0</ele><time>2026-04-17T14:36:01.081Z</time></trkpt><trkpt lat="43.4839883" lon="11.392405"><ele>510.0</ele><time>2026-04-17T14:36:02.081Z</time></trkpt><trkpt lat="43.48393" lon="11.39225"><ele>510.0</ele><time>2026-04-17T14:36:04.082Z</time></trkpt><trkpt lat="43.4839083" lon="11.3921583"><ele>510.0</ele><time>2026-04-17T14:36:05.082Z</time></trkpt><trkpt lat="43.4838833" lon="11.3919983"><ele>510.0</ele><time>2026-04-17T14:36:07.082Z</time></trkpt><trkpt lat="43.4838167" lon="11.391865"><ele>510.0</ele><time>2026-04-17T14:36:09.081Z</time></trkpt><trkpt lat="43.48376" lon="11.3918233"><ele>509.14285714285717</ele><time>2026-04-17T14:36:10.081Z</time></trkpt><trkpt lat="43.4836983" lon="11.3917767"><ele>508.28571428571433</ele><time>2026-04-17T14:36:11.081Z</time></trkpt><trkpt lat="43.4836317" lon="11.3917267"><ele>507.42857142857144</ele><time>2026-04-17T14:36:12.082Z</time></trkpt><trkpt lat="43.4835683" lon="11.3916717"><ele>506.57142857142856</ele><time>2026-04-17T14:36:13.081Z</time></trkpt><trkpt lat="43.4835033" lon="11.3916133"><ele>505.7142857142857</ele><time>2026-04-17T14:36:14.081Z</time></trkpt><trkpt lat="43.4834367" lon="11.3915617"><ele>504.8571428571429</ele><time>2026-04-17T14:36:15.081Z</time></trkpt><trkpt lat="43.4833783" lon="11.3915117"><ele>504.0</ele><time>2026-04-17T14:36:16.081Z</time></trkpt><trkpt lat="43.4833117" lon="11.3914633"><ele>504.0</ele><time>2026-04-17T14:36:17.082Z</time></trkpt><trkpt lat="43.48325" lon="11.3914117"><ele>504.0</ele><time>2026-04-17T14:36:18.081Z</time></trkpt><trkpt lat="43.483185" lon="11.3913683"><ele>504.0</ele><time>2026-04-17T14:36:19.082Z</time></trkpt><trkpt lat="43.48312" lon="11.3913133"><ele>504.0</ele><time>2026-04-17T14:36:20.081Z</time></trkpt><trkpt lat="43.4830617" lon="11.39126"><ele>504.0</ele><time>2026-04-17T14:36:21.082Z</time></trkpt><trkpt lat="43.4829967" lon="11.391205"><ele>504.0</ele><time>2026-04-17T14:36:22.081Z</time></trkpt><trkpt lat="43.48293" lon="11.3911483"><ele>504.0</ele><time>2026-04-17T14:36:23.082Z</time></trkpt><trkpt lat="43.4828533" lon="11.3910833"><ele>504.1666666666667</ele><time>2026-04-17T14:36:24.081Z</time></trkpt><trkpt lat="43.48278" lon="11.39102"><ele>504.33333333333337</ele><time>2026-04-17T14:36:25.081Z</time></trkpt><trkpt lat="43.482705" lon="11.3909533"><ele>504.5</ele><time>2026-04-17T14:36:26.082Z</time></trkpt><trkpt lat="43.482635" lon="11.3908817"><ele>504.6666666666667</ele><time>2026-04-17T14:36:27.081Z</time></trkpt><trkpt lat="43.482575" lon="11.3908133"><ele>504.83333333333337</ele><time>2026-04-17T14:36:28.081Z</time></trkpt><trkpt lat="43.4825267" lon="11.3907433"><ele>505.0</ele><time>2026-04-17T14:36:29.081Z</time></trkpt><trkpt lat="43.4824833" lon="11.3906733"><ele>505.0</ele><time>2026-04-17T14:36:30.081Z</time></trkpt><trkpt lat="43.4824383" lon="11.3906017"><ele>504.99999999999994</ele><time>2026-04-17T14:36:31.082Z</time></trkpt><trkpt lat="43.482395" lon="11.3905317"><ele>505.0</ele><time>2026-04-17T14:36:32.081Z</time></trkpt><trkpt lat="43.482355" lon="11.3904567"><ele>505.0</ele><time>2026-04-17T14:36:33.081Z</time></trkpt><trkpt lat="43.4823183" lon="11.3903683"><ele>504.99999999999994</ele><time>2026-04-17T14:36:34.082Z</time></trkpt><trkpt lat="43.48228" lon="11.39027"><ele>505.0</ele><time>2026-04-17T14:36:35.082Z</time></trkpt><trkpt lat="43.482235" lon="11.3901783"><ele>505.0</ele><time>2026-04-17T14:36:36.081Z</time></trkpt><trkpt lat="43.4821867" lon="11.3901"><ele>504.83333333333337</ele><time>2026-04-17T14:36:37.081Z</time></trkpt><trkpt lat="43.48213" lon="11.3900367"><ele>504.6666666666667</ele><time>2026-04-17T14:36:38.082Z</time></trkpt><trkpt lat="43.482075" lon="11.3899733"><ele>504.5</ele><time>2026-04-17T14:36:39.081Z</time></trkpt><trkpt lat="43.4820133" lon="11.3899067"><ele>504.33333333333337</ele><time>2026-04-17T14:36:40.081Z</time></trkpt><trkpt lat="43.4819483" lon="11.3898367"><ele>504.1666666666667</ele><time>2026-04-17T14:36:41.081Z</time></trkpt><trkpt lat="43.4818767" lon="11.3897533"><ele>504.0</ele><time>2026-04-17T14:36:42.081Z</time></trkpt><trkpt lat="43.4818067" lon="11.389665"><ele>503.6666666666667</ele><time>2026-04-17T14:36:43.081Z</time></trkpt><trkpt lat="43.48174" lon="11.3895883"><ele>503.33333333333337</ele><time>2026-04-17T14:36:44.082Z</time></trkpt><trkpt lat="43.4816683" lon="11.3895083"><ele>503.0</ele><time>2026-04-17T14:36:45.081Z</time></trkpt><trkpt lat="43.4816" lon="11.38944"><ele>502.6666666666667</ele><time>2026-04-17T14:36:46.081Z</time></trkpt><trkpt lat="43.4815333" lon="11.38937"><ele>502.33333333333337</ele><time>2026-04-17T14:36:47.082Z</time></trkpt><trkpt lat="43.4814717" lon="11.3893033"><ele>502.0</ele><time>2026-04-17T14:36:48.081Z</time></trkpt><trkpt lat="43.4814067" lon="11.3892367"><ele>501.99999999999994</ele><time>2026-04-17T14:36:49.081Z</time></trkpt><trkpt lat="43.481355" lon="11.3891667"><ele>502.0</ele><time>2026-04-17T14:36:50.082Z</time></trkpt><trkpt lat="43.4813" lon="11.3890983"><ele>501.99999999999994</ele><time>2026-04-17T14:36:51.081Z</time></trkpt><trkpt lat="43.4812467" lon="11.38905"><ele>501.99999999999994</ele><time>2026-04-17T14:36:52.082Z</time></trkpt><trkpt lat="43.4811867" lon="11.3890217"><ele>502.0</ele><time>2026-04-17T14:36:53.081Z</time></trkpt><trkpt lat="43.4811233" lon="11.3890167"><ele>501.99999999999994</ele><time>2026-04-17T14:36:54.081Z</time></trkpt><trkpt lat="43.48106" lon="11.3890017"><ele>501.99999999999994</ele><time>2026-04-17T14:36:55.081Z</time></trkpt><trkpt lat="43.4809467" lon="11.3889633"><ele>502.40000000000003</ele><time>2026-04-17T14:36:57.081Z</time></trkpt><trkpt lat="43.480845" lon="11.3888767"><ele>502.80000000000007</ele><time>2026-04-17T14:36:59.081Z</time></trkpt><trkpt lat="43.4807633" lon="11.3887617"><ele>503.2</ele><time>2026-04-17T14:37:01.081Z</time></trkpt><trkpt lat="43.4807183" lon="11.388685"><ele>503.6</ele><time>2026-04-17T14:37:02.081Z</time></trkpt><trkpt lat="43.480665" lon="11.3886"><ele>504.0</ele><time>2026-04-17T14:37:03.082Z</time></trkpt><trkpt lat="43.48061" lon="11.388505"><ele>504.0</ele><time>2026-04-17T14:37:04.081Z</time></trkpt><trkpt lat="43.4805533" lon="11.38841"><ele>504.0</ele><time>2026-04-17T14:37:05.082Z</time></trkpt><trkpt lat="43.480505" lon="11.3883267"><ele>504.0</ele><time>2026-04-17T14:37:06.081Z</time></trkpt><trkpt lat="43.480455" lon="11.3882467"><ele>504.0</ele><time>2026-04-17T14:37:07.082Z</time></trkpt><trkpt lat="43.480415" lon="11.3881733"><ele>504.0</ele><time>2026-04-17T14:37:08.081Z</time></trkpt><trkpt lat="43.4803817" lon="11.3880983"><ele>504.0</ele><time>2026-04-17T14:37:09.081Z</time></trkpt><trkpt lat="43.4803533" lon="11.38802"><ele>504.0</ele><time>2026-04-17T14:37:10.082Z</time></trkpt><trkpt lat="43.4803367" lon="11.387855"><ele>506.6</ele><time>2026-04-17T14:37:12.082Z</time></trkpt><trkpt lat="43.4803683" lon="11.3876817"><ele>509.2</ele><time>2026-04-17T14:37:14.082Z</time></trkpt><trkpt lat="43.4803883" lon="11.387575"><ele>511.80000000000007</ele><time>2026-04-17T14:37:15.081Z</time></trkpt><trkpt lat="43.4804067" lon="11.3874667"><ele>514.4</ele><time>2026-04-17T14:37:16.082Z</time></trkpt><trkpt lat="43.4804083" lon="11.38735"><ele>517.0</ele><time>2026-04-17T14:37:17.081Z</time></trkpt><trkpt lat="43.4804017" lon="11.3872467"><ele>516.8333333333334</ele><time>2026-04-17T14:37:18.082Z</time></trkpt><trkpt lat="43.4803767" lon="11.3871517"><ele>516.6666666666667</ele><time>2026-04-17T14:37:19.082Z</time></trkpt><trkpt lat="43.48034" lon="11.3870583"><ele>516.5</ele><time>2026-04-17T14:37:20.082Z</time></trkpt><trkpt lat="43.48031" lon="11.3869783"><ele>516.3333333333334</ele><time>2026-04-17T14:37:21.082Z</time></trkpt><trkpt lat="43.4802367" lon="11.3868533"><ele>516.1666666666666</ele><time>2026-04-17T14:37:23.082Z</time></trkpt><trkpt lat="43.4801433" lon="11.3867583"><ele>516.0</ele><time>2026-04-17T14:37:25.082Z</time></trkpt><trkpt lat="43.4800483" lon="11.3866617"><ele>516.0</ele><time>2026-04-17T14:37:27.082Z</time></trkpt><trkpt lat="43.47999" lon="11.386605"><ele>516.0</ele><time>2026-04-17T14:37:28.081Z</time></trkpt><trkpt lat="43.479925" lon="11.386545"><ele>516.0</ele><time>2026-04-17T14:37:29.081Z</time></trkpt><trkpt lat="43.47986" lon="11.3864767"><ele>516.0</ele><time>2026-04-17T14:37:30.081Z</time></trkpt><trkpt lat="43.47979" lon="11.3864033"><ele>516.0</ele><time>2026-04-17T14:37:31.081Z</time></trkpt><trkpt lat="43.47972" lon="11.3863367"><ele>516.0</ele><time>2026-04-17T14:37:32.082Z</time></trkpt><trkpt lat="43.47965" lon="11.3862717"><ele>515.6666666666666</ele><time>2026-04-17T14:37:33.081Z</time></trkpt><trkpt lat="43.4795817" lon="11.3862117"><ele>515.3333333333334</ele><time>2026-04-17T14:37:34.081Z</time></trkpt><trkpt lat="43.4795233" lon="11.3861533"><ele>515.0</ele><time>2026-04-17T14:37:35.081Z</time></trkpt><trkpt lat="43.479475" lon="11.38609"><ele>514.6666666666667</ele><time>2026-04-17T14:37:36.081Z</time></trkpt><trkpt lat="43.4794333" lon="11.3860133"><ele>514.3333333333334</ele><time>2026-04-17T14:37:37.082Z</time></trkpt><trkpt lat="43.4793867" lon="11.3859233"><ele>514.0</ele><time>2026-04-17T14:37:38.081Z</time></trkpt><trkpt lat="43.4793483" lon="11.38582"><ele>514.0</ele><time>2026-04-17T14:37:39.081Z</time></trkpt><trkpt lat="43.4793217" lon="11.385725"><ele>514.0</ele><time>2026-04-17T14:37:40.081Z</time></trkpt><trkpt lat="43.4793033" lon="11.3856333"><ele>514.0</ele><time>2026-04-17T14:37:41.081Z</time></trkpt><trkpt lat="43.4792867" lon="11.3855417"><ele>514.0</ele><time>2026-04-17T14:37:42.081Z</time></trkpt><trkpt lat="43.479265" lon="11.3854483"><ele>514.0</ele><time>2026-04-17T14:37:43.081Z</time></trkpt><trkpt lat="43.4792367" lon="11.3853667"><ele>514.0</ele><time>2026-04-17T14:37:44.081Z</time></trkpt><trkpt lat="43.479165" lon="11.3852317"><ele>513.5</ele><time>2026-04-17T14:37:46.082Z</time></trkpt><trkpt lat="43.4790567" lon="11.385185"><ele>513.0</ele><time>2026-04-17T14:37:48.081Z</time></trkpt><trkpt lat="43.4789467" lon="11.3851917"><ele>512.5</ele><time>2026-04-17T14:37:50.081Z</time></trkpt><trkpt lat="43.4788233" lon="11.38519"><ele>512.0</ele><time>2026-04-17T14:37:52.082Z</time></trkpt><trkpt lat="43.478695" lon="11.3852183"><ele>513.6666666666666</ele><time>2026-04-17T14:37:54.081Z</time></trkpt><trkpt lat="43.4786267" lon="11.385235"><ele>515.3333333333333</ele><time>2026-04-17T14:37:55.081Z</time></trkpt><trkpt lat="43.4785517" lon="11.3852467"><ele>517.0</ele><time>2026-04-17T14:37:56.081Z</time></trkpt><trkpt lat="43.4784683" lon="11.3852667"><ele>518.6666666666666</ele><time>2026-04-17T14:37:57.081Z</time></trkpt><trkpt lat="43.4783817" lon="11.38528"><ele>520.3333333333334</ele><time>2026-04-17T14:37:58.081Z</time></trkpt><trkpt lat="43.4782867" lon="11.3852817"><ele>522.0</ele><time>2026-04-17T14:37:59.082Z</time></trkpt><trkpt lat="43.4781883" lon="11.385265"><ele>522.0</ele><time>2026-04-17T14:38:00.081Z</time></trkpt><trkpt lat="43.4780933" lon="11.385235"><ele>522.0</ele><time>2026-04-17T14:38:01.081Z</time></trkpt><trkpt lat="43.4780083" lon="11.385195"><ele>522.0</ele><time>2026-04-17T14:38:02.082Z</time></trkpt><trkpt lat="43.4779217" lon="11.38515"><ele>522.0</ele><time>2026-04-17T14:38:03.082Z</time></trkpt><trkpt lat="43.47784" lon="11.3851017"><ele>522.0</ele><time>2026-04-17T14:38:04.081Z</time></trkpt><trkpt lat="43.47776" lon="11.3850583"><ele>522.1666666666666</ele><time>2026-04-17T14:38:05.082Z</time></trkpt><trkpt lat="43.4776833" lon="11.3850033"><ele>522.3333333333334</ele><time>2026-04-17T14:38:06.081Z</time></trkpt><trkpt lat="43.4776017" lon="11.384965"><ele>522.5</ele><time>2026-04-17T14:38:07.081Z</time></trkpt><trkpt lat="43.4775283" lon="11.38493"><ele>522.6666666666667</ele><time>2026-04-17T14:38:08.082Z</time></trkpt><trkpt lat="43.4774583" lon="11.3849"><ele>522.8333333333334</ele><time>2026-04-17T14:38:09.081Z</time></trkpt><trkpt lat="43.47738" lon="11.3849"><ele>523.0</ele><time>2026-04-17T14:38:10.081Z</time></trkpt><trkpt lat="43.4772983" lon="11.384905"><ele>523.0</ele><time>2026-04-17T14:38:11.081Z</time></trkpt><trkpt lat="43.4772117" lon="11.384915"><ele>523.0</ele><time>2026-04-17T14:38:12.081Z</time></trkpt><trkpt lat="43.4771267" lon="11.3849283"><ele>523.0</ele><time>2026-04-17T14:38:13.081Z</time></trkpt><trkpt lat="43.4770317" lon="11.3849233"><ele>523.0</ele><time>2026-04-17T14:38:14.081Z</time></trkpt><trkpt lat="43.476935" lon="11.3849267"><ele>523.0</ele><time>2026-04-17T14:38:15.081Z</time></trkpt><trkpt lat="43.47685" lon="11.3849367"><ele>522.1999999999999</ele><time>2026-04-17T14:38:16.081Z</time></trkpt><trkpt lat="43.47676" lon="11.3849333"><ele>521.4</ele><time>2026-04-17T14:38:17.082Z</time></trkpt><trkpt lat="43.47667" lon="11.3849283"><ele>520.5999999999999</ele><time>2026-04-17T14:38:18.081Z</time></trkpt><trkpt lat="43.4765717" lon="11.38493"><ele>519.8</ele><time>2026-04-17T14:38:19.081Z</time></trkpt><trkpt lat="43.476475" lon="11.3849233"><ele>519.0</ele><time>2026-04-17T14:38:20.081Z</time></trkpt><trkpt lat="43.4763833" lon="11.3849217"><ele>519.0</ele><time>2026-04-17T14:38:21.082Z</time></trkpt><trkpt lat="43.4762933" lon="11.384915"><ele>519.0</ele><time>2026-04-17T14:38:22.081Z</time></trkpt><trkpt lat="43.4762" lon="11.3849017"><ele>519.0</ele><time>2026-04-17T14:38:23.081Z</time></trkpt><trkpt lat="43.4761117" lon="11.38489"><ele>519.0</ele><time>2026-04-17T14:38:24.081Z</time></trkpt><trkpt lat="43.4760267" lon="11.3848767"><ele>519.0</ele><time>2026-04-17T14:38:25.082Z</time></trkpt><trkpt lat="43.4759483" lon="11.3848533"><ele>519.0</ele><time>2026-04-17T14:38:26.082Z</time></trkpt><trkpt lat="43.47587" lon="11.38481"><ele>518.5</ele><time>2026-04-17T14:38:27.081Z</time></trkpt><trkpt lat="43.4757833" lon="11.3847617"><ele>518.0</ele><time>2026-04-17T14:38:28.082Z</time></trkpt><trkpt lat="43.4757" lon="11.3847083"><ele>517.5</ele><time>2026-04-17T14:38:29.081Z</time></trkpt><trkpt lat="43.4756267" lon="11.3846583"><ele>517.0</ele><time>2026-04-17T14:38:30.081Z</time></trkpt><trkpt lat="43.475555" lon="11.3846033"><ele>516.5</ele><time>2026-04-17T14:38:31.082Z</time></trkpt><trkpt lat="43.475485" lon="11.384555"><ele>516.0</ele><time>2026-04-17T14:38:32.082Z</time></trkpt><trkpt lat="43.475405" lon="11.3844917"><ele>515.5</ele><time>2026-04-17T14:38:33.081Z</time></trkpt><trkpt lat="43.475325" lon="11.3844167"><ele>515.0</ele><time>2026-04-17T14:38:34.081Z</time></trkpt><trkpt lat="43.4752583" lon="11.384345"><ele>514.5</ele><time>2026-04-17T14:38:35.081Z</time></trkpt><trkpt lat="43.4752" lon="11.3842667"><ele>514.0</ele><time>2026-04-17T14:38:36.082Z</time></trkpt><trkpt lat="43.4751417" lon="11.3841783"><ele>513.5</ele><time>2026-04-17T14:38:37.082Z</time></trkpt><trkpt lat="43.4750867" lon="11.3840817"><ele>513.0</ele><time>2026-04-17T14:38:38.082Z</time></trkpt><trkpt lat="43.4750367" lon="11.383985"><ele>513.0</ele><time>2026-04-17T14:38:39.081Z</time></trkpt><trkpt lat="43.47499" lon="11.383885"><ele>513.0</ele><time>2026-04-17T14:38:40.081Z</time></trkpt><trkpt lat="43.4749433" lon="11.3837967"><ele>513.0</ele><time>2026-04-17T14:38:41.082Z</time></trkpt><trkpt lat="43.4748967" lon="11.3837167"><ele>513.0</ele><time>2026-04-17T14:38:42.081Z</time></trkpt><trkpt lat="43.4748433" lon="11.3836483"><ele>513.0</ele><time>2026-04-17T14:38:43.081Z</time></trkpt><trkpt lat="43.474785" lon="11.3835817"><ele>513.0</ele><time>2026-04-17T14:38:44.081Z</time></trkpt><trkpt lat="43.4747183" lon="11.3835267"><ele>510.5</ele><time>2026-04-17T14:38:45.081Z</time></trkpt><trkpt lat="43.4746433" lon="11.3834833"><ele>508.0</ele><time>2026-04-17T14:38:46.082Z</time></trkpt><trkpt lat="43.4745567" lon="11.38344"><ele>505.5</ele><time>2026-04-17T14:38:47.082Z</time></trkpt><trkpt lat="43.4744717" lon="11.3834067"><ele>503.0</ele><time>2026-04-17T14:38:48.081Z</time></trkpt><trkpt lat="43.4743833" lon="11.3833767"><ele>500.5</ele><time>2026-04-17T14:38:49.082Z</time></trkpt><trkpt lat="43.4743033" lon="11.3833483"><ele>498.0</ele><time>2026-04-17T14:38:50.081Z</time></trkpt><trkpt lat="43.4742217" lon="11.38332"><ele>498.0</ele><time>2026-04-17T14:38:51.082Z</time></trkpt><trkpt lat="43.47414" lon="11.3833083"><ele>497.99999999999994</ele><time>2026-04-17T14:38:52.082Z</time></trkpt><trkpt lat="43.4740517" lon="11.3833133"><ele>497.99999999999994</ele><time>2026-04-17T14:38:53.081Z</time></trkpt><trkpt lat="43.4739583" lon="11.3833367"><ele>498.0</ele><time>2026-04-17T14:38:54.082Z</time></trkpt><trkpt lat="43.4738633" lon="11.383385"><ele>498.0</ele><time>2026-04-17T14:38:55.081Z</time></trkpt><trkpt lat="43.473785" lon="11.3834317"><ele>497.3333333333333</ele><time>2026-04-17T14:38:56.082Z</time></trkpt><trkpt lat="43.4737083" lon="11.3834733"><ele>496.66666666666663</ele><time>2026-04-17T14:38:57.082Z</time></trkpt><trkpt lat="43.47363" lon="11.3835033"><ele>496.0</ele><time>2026-04-17T14:38:58.082Z</time></trkpt><trkpt lat="43.47356" lon="11.3835183"><ele>495.3333333333333</ele><time>2026-04-17T14:38:59.081Z</time></trkpt><trkpt lat="43.4734883" lon="11.3835017"><ele>494.66666666666663</ele><time>2026-04-17T14:39:00.082Z</time></trkpt><trkpt lat="43.4734083" lon="11.3834583"><ele>494.0</ele><time>2026-04-17T14:39:01.082Z</time></trkpt><trkpt lat="43.4733333" lon="11.3834017"><ele>494.0</ele><time>2026-04-17T14:39:02.081Z</time></trkpt><trkpt lat="43.4732617" lon="11.3833317"><ele>494.0</ele><time>2026-04-17T14:39:03.081Z</time></trkpt><trkpt lat="43.4731933" lon="11.3832533"><ele>494.0</ele><time>2026-04-17T14:39:04.081Z</time></trkpt><trkpt lat="43.4731217" lon="11.3831517"><ele>494.0</ele><time>2026-04-17T14:39:05.082Z</time></trkpt><trkpt lat="43.47304" lon="11.3830367"><ele>494.0</ele><time>2026-04-17T14:39:06.081Z</time></trkpt><trkpt lat="43.4729533" lon="11.3829167"><ele>492.0</ele><time>2026-04-17T14:39:07.082Z</time></trkpt><trkpt lat="43.472865" lon="11.382795"><ele>490.0</ele><time>2026-04-17T14:39:08.081Z</time></trkpt><trkpt lat="43.4727817" lon="11.382675"><ele>488.0</ele><time>2026-04-17T14:39:09.081Z</time></trkpt><trkpt lat="43.4727067" lon="11.382565"><ele>486.0</ele><time>2026-04-17T14:39:10.081Z</time></trkpt><trkpt lat="43.4726333" lon="11.38246"><ele>486.0</ele><time>2026-04-17T14:39:11.081Z</time></trkpt><trkpt lat="43.47256" lon="11.3823533"><ele>486.0</ele><time>2026-04-17T14:39:12.081Z</time></trkpt><trkpt lat="43.4724983" lon="11.3822333"><ele>486.0</ele><time>2026-04-17T14:39:13.081Z</time></trkpt><trkpt lat="43.472435" lon="11.3821133"><ele>486.0</ele><time>2026-04-17T14:39:14.081Z</time></trkpt><trkpt lat="43.472365" lon="11.38199"><ele>486.0</ele><time>2026-04-17T14:39:15.08Z</time></trkpt><trkpt lat="43.4723" lon="11.381865"><ele>484.8333333333333</ele><time>2026-04-17T14:39:16.081Z</time></trkpt><trkpt lat="43.4722383" lon="11.3817567"><ele>483.66666666666663</ele><time>2026-04-17T14:39:17.081Z</time></trkpt><trkpt lat="43.472185" lon="11.3816533"><ele>482.5</ele><time>2026-04-17T14:39:18.081Z</time></trkpt><trkpt lat="43.4721367" lon="11.3815533"><ele>481.3333333333333</ele><time>2026-04-17T14:39:19.08Z</time></trkpt><trkpt lat="43.4720917" lon="11.3814683"><ele>480.16666666666663</ele><time>2026-04-17T14:39:20.08Z</time></trkpt><trkpt lat="43.4720467" lon="11.38136"><ele>479.0</ele><time>2026-04-17T14:39:22.081Z</time></trkpt><trkpt lat="43.4719917" lon="11.3813133"><ele>478.79999999999995</ele><time>2026-04-17T14:39:25.08Z</time></trkpt><trkpt lat="43.4719417" lon="11.381375"><ele>478.59999999999997</ele><time>2026-04-17T14:39:27.08Z</time></trkpt><trkpt lat="43.4718867" lon="11.3815417"><ele>478.4</ele><time>2026-04-17T14:39:29.08Z</time></trkpt><trkpt lat="43.47186" lon="11.38163"><ele>478.2</ele><time>2026-04-17T14:39:30.081Z</time></trkpt><trkpt lat="43.4718283" lon="11.3817067"><ele>478.0</ele><time>2026-04-17T14:39:31.08Z</time></trkpt><trkpt lat="43.4717533" lon="11.3818433"><ele>478.0</ele><time>2026-04-17T14:39:33.08Z</time></trkpt><trkpt lat="43.4716617" lon="11.38196"><ele>477.99999999999994</ele><time>2026-04-17T14:39:35.08Z</time></trkpt><trkpt lat="43.4715867" lon="11.3820667"><ele>477.99999999999994</ele><time>2026-04-17T14:39:37.081Z</time></trkpt><trkpt lat="43.4715433" lon="11.3821383"><ele>478.0</ele><time>2026-04-17T14:39:40.08Z</time></trkpt><trkpt lat="43.4715083" lon="11.3822583"><ele>478.0</ele><time>2026-04-17T14:39:45.081Z</time></trkpt><trkpt lat="43.4714833" lon="11.3823433"><ele>478.00000000000006</ele><time>2026-04-17T14:39:46.08Z</time></trkpt><trkpt lat="43.4714483" lon="11.3824383"><ele>478.0</ele><time>2026-04-17T14:39:47.081Z</time></trkpt><trkpt lat="43.4713983" lon="11.3825533"><ele>478.0</ele><time>2026-04-17T14:39:48.081Z</time></trkpt><trkpt lat="43.4713367" lon="11.3826483"><ele>478.0</ele><time>2026-04-17T14:39:49.081Z</time></trkpt><trkpt lat="43.47127" lon="11.382725"><ele>478.00000000000006</ele><time>2026-04-17T14:39:50.081Z</time></trkpt><trkpt lat="43.4711967" lon="11.382795"><ele>478.0</ele><time>2026-04-17T14:39:51.081Z</time></trkpt><trkpt lat="43.47112" lon="11.3828567"><ele>476.1666666666667</ele><time>2026-04-17T14:39:52.081Z</time></trkpt><trkpt lat="43.471045" lon="11.3829133"><ele>474.33333333333337</ele><time>2026-04-17T14:39:53.08Z</time></trkpt><trkpt lat="43.4709633" lon="11.3829633"><ele>472.5</ele><time>2026-04-17T14:39:54.081Z</time></trkpt><trkpt lat="43.4708883" lon="11.3830133"><ele>470.66666666666663</ele><time>2026-04-17T14:39:55.08Z</time></trkpt><trkpt lat="43.4708017" lon="11.3830517"><ele>468.8333333333333</ele><time>2026-04-17T14:39:56.081Z</time></trkpt><trkpt lat="43.4707267" lon="11.383095"><ele>467.0</ele><time>2026-04-17T14:39:57.08Z</time></trkpt><trkpt lat="43.4706483" lon="11.3831333"><ele>466.99999999999994</ele><time>2026-04-17T14:39:58.08Z</time></trkpt><trkpt lat="43.4705733" lon="11.3831883"><ele>467.0</ele><time>2026-04-17T14:39:59.081Z</time></trkpt><trkpt lat="43.47051" lon="11.3832433"><ele>467.0</ele><time>2026-04-17T14:40:00.081Z</time></trkpt><trkpt lat="43.470445" lon="11.38331"><ele>467.0</ele><time>2026-04-17T14:40:01.08Z</time></trkpt><trkpt lat="43.4703917" lon="11.3833883"><ele>466.99999999999994</ele><time>2026-04-17T14:40:02.08Z</time></trkpt><trkpt lat="43.4703417" lon="11.3834867"><ele>467.0</ele><time>2026-04-17T14:40:03.08Z</time></trkpt><trkpt lat="43.4702917" lon="11.3836117"><ele>464.20000000000005</ele><time>2026-04-17T14:40:04.08Z</time></trkpt><trkpt lat="43.47026" lon="11.38375"><ele>461.40000000000003</ele><time>2026-04-17T14:40:05.08Z</time></trkpt><trkpt lat="43.4702283" lon="11.383885"><ele>458.59999999999997</ele><time>2026-04-17T14:40:06.08Z</time></trkpt><trkpt lat="43.4702033" lon="11.3840017"><ele>455.79999999999995</ele><time>2026-04-17T14:40:07.081Z</time></trkpt><trkpt lat="43.4701817" lon="11.3841333"><ele>453.0</ele><time>2026-04-17T14:40:08.08Z</time></trkpt><trkpt lat="43.4701633" lon="11.3842633"><ele>453.0</ele><time>2026-04-17T14:40:09.08Z</time></trkpt><trkpt lat="43.470145" lon="11.3843817"><ele>453.0</ele><time>2026-04-17T14:40:10.08Z</time></trkpt><trkpt lat="43.4701267" lon="11.3845"><ele>453.0</ele><time>2026-04-17T14:40:11.08Z</time></trkpt><trkpt lat="43.4700917" lon="11.3846183"><ele>453.0</ele><time>2026-04-17T14:40:12.08Z</time></trkpt><trkpt lat="43.4700533" lon="11.38472"><ele>453.0</ele><time>2026-04-17T14:40:13.081Z</time></trkpt><trkpt lat="43.4700133" lon="11.3848383"><ele>453.0</ele><time>2026-04-17T14:40:14.08Z</time></trkpt><trkpt lat="43.469975" lon="11.3849633"><ele>453.59999999999997</ele><time>2026-04-17T14:40:15.081Z</time></trkpt><trkpt lat="43.4699517" lon="11.3850967"><ele>454.19999999999993</ele><time>2026-04-17T14:40:16.08Z</time></trkpt><trkpt lat="43.46993" lon="11.3852433"><ele>454.8</ele><time>2026-04-17T14:40:17.081Z</time></trkpt><trkpt lat="43.4699117" lon="11.3853517"><ele>455.4</ele><time>2026-04-17T14:40:18.08Z</time></trkpt><trkpt lat="43.469865" lon="11.3854767"><ele>456.0</ele><time>2026-04-17T14:40:20.08Z</time></trkpt><trkpt lat="43.469775" lon="11.3855017"><ele>456.0</ele><time>2026-04-17T14:40:22.08Z</time></trkpt><trkpt lat="43.46971" lon="11.3854267"><ele>456.0</ele><time>2026-04-17T14:40:24.08Z</time></trkpt><trkpt lat="43.4696267" lon="11.3852583"><ele>456.0</ele><time>2026-04-17T14:40:26.08Z</time></trkpt><trkpt lat="43.46957" lon="11.3851567"><ele>456.0</ele><time>2026-04-17T14:40:27.08Z</time></trkpt><trkpt lat="43.469505" lon="11.385055"><ele>456.0</ele><time>2026-04-17T14:40:28.08Z</time></trkpt><trkpt lat="43.46943" lon="11.3849833"><ele>458.3333333333333</ele><time>2026-04-17T14:40:29.081Z</time></trkpt><trkpt lat="43.4693567" lon="11.38493"><ele>460.66666666666663</ele><time>2026-04-17T14:40:30.08Z</time></trkpt><trkpt lat="43.4692767" lon="11.3849"><ele>463.0</ele><time>2026-04-17T14:40:31.08Z</time></trkpt><trkpt lat="43.4691917" lon="11.3848983"><ele>465.3333333333333</ele><time>2026-04-17T14:40:32.08Z</time></trkpt><trkpt lat="43.4691" lon="11.3849117"><ele>467.66666666666663</ele><time>2026-04-17T14:40:33.08Z</time></trkpt><trkpt lat="43.4690083" lon="11.3849383"><ele>470.0</ele><time>2026-04-17T14:40:34.08Z</time></trkpt><trkpt lat="43.4689167" lon="11.3849783"><ele>469.99999999999994</ele><time>2026-04-17T14:40:35.081Z</time></trkpt><trkpt lat="43.4688333" lon="11.3850267"><ele>470.0</ele><time>2026-04-17T14:40:36.08Z</time></trkpt><trkpt lat="43.4687633" lon="11.38509"><ele>470.0</ele><time>2026-04-17T14:40:37.081Z</time></trkpt><trkpt lat="43.468705" lon="11.3851633"><ele>470.0</ele><time>2026-04-17T14:40:38.081Z</time></trkpt><trkpt lat="43.4686567" lon="11.385255"><ele>469.99999999999994</ele><time>2026-04-17T14:40:39.081Z</time></trkpt><trkpt lat="43.4686233" lon="11.3853567"><ele>470.0</ele><time>2026-04-17T14:40:40.081Z</time></trkpt><trkpt lat="43.4686133" lon="11.3854617"><ele>471.4</ele><time>2026-04-17T14:40:41.08Z</time></trkpt><trkpt lat="43.4686117" lon="11.3855817"><ele>472.8</ele><time>2026-04-17T14:40:42.08Z</time></trkpt><trkpt lat="43.468615" lon="11.385705"><ele>474.20000000000005</ele><time>2026-04-17T14:40:43.081Z</time></trkpt><trkpt lat="43.4686317" lon="11.385825"><ele>475.6</ele><time>2026-04-17T14:40:44.081Z</time></trkpt><trkpt lat="43.4686367" lon="11.3859517"><ele>477.0</ele><time>2026-04-17T14:40:45.08Z</time></trkpt><trkpt lat="43.4686183" lon="11.3860783"><ele>477.0</ele><time>2026-04-17T14:40:46.08Z</time></trkpt><trkpt lat="43.4685983" lon="11.3862217"><ele>477.0</ele><time>2026-04-17T14:40:47.081Z</time></trkpt><trkpt lat="43.4685867" lon="11.386355"><ele>477.0</ele><time>2026-04-17T14:40:48.08Z</time></trkpt><trkpt lat="43.468585" lon="11.3864667"><ele>477.0</ele><time>2026-04-17T14:40:49.081Z</time></trkpt><trkpt lat="43.4685817" lon="11.3865783"><ele>477.0</ele><time>2026-04-17T14:40:50.08Z</time></trkpt><trkpt lat="43.468575" lon="11.3866817"><ele>477.0</ele><time>2026-04-17T14:40:51.08Z</time></trkpt><trkpt lat="43.4685533" lon="11.3867767"><ele>478.40000000000003</ele><time>2026-04-17T14:40:52.081Z</time></trkpt><trkpt lat="43.4685133" lon="11.3868767"><ele>479.80000000000007</ele><time>2026-04-17T14:40:53.08Z</time></trkpt><trkpt lat="43.4684617" lon="11.3869783"><ele>481.2</ele><time>2026-04-17T14:40:54.081Z</time></trkpt><trkpt lat="43.4683933" lon="11.3870917"><ele>482.6</ele><time>2026-04-17T14:40:55.081Z</time></trkpt><trkpt lat="43.4683217" lon="11.387215"><ele>484.0</ele><time>2026-04-17T14:40:56.08Z</time></trkpt><trkpt lat="43.4682633" lon="11.3873383"><ele>486.2</ele><time>2026-04-17T14:40:57.081Z</time></trkpt><trkpt lat="43.46822" lon="11.3874567"><ele>488.4</ele><time>2026-04-17T14:40:58.08Z</time></trkpt><trkpt lat="43.4681733" lon="11.3875767"><ele>490.6</ele><time>2026-04-17T14:40:59.081Z</time></trkpt><trkpt lat="43.4681217" lon="11.3876917"><ele>492.8</ele><time>2026-04-17T14:41:00.081Z</time></trkpt><trkpt lat="43.4680767" lon="11.3878017"><ele>495.0</ele><time>2026-04-17T14:41:01.08Z</time></trkpt><trkpt lat="43.468025" lon="11.3879067"><ele>495.6666666666667</ele><time>2026-04-17T14:41:02.08Z</time></trkpt><trkpt lat="43.46797" lon="11.38802"><ele>496.33333333333337</ele><time>2026-04-17T14:41:03.081Z</time></trkpt><trkpt lat="43.46792" lon="11.3881267"><ele>497.0</ele><time>2026-04-17T14:41:04.081Z</time></trkpt><trkpt lat="43.4678733" lon="11.38823"><ele>497.6666666666667</ele><time>2026-04-17T14:41:05.081Z</time></trkpt><trkpt lat="43.4678233" lon="11.3883267"><ele>498.33333333333337</ele><time>2026-04-17T14:41:06.08Z</time></trkpt><trkpt lat="43.467775" lon="11.38841"><ele>499.0</ele><time>2026-04-17T14:41:07.081Z</time></trkpt><trkpt lat="43.467735" lon="11.38849"><ele>499.00000000000006</ele><time>2026-04-17T14:41:08.08Z</time></trkpt><trkpt lat="43.4677033" lon="11.3885733"><ele>499.0</ele><time>2026-04-17T14:41:09.08Z</time></trkpt><trkpt lat="43.4676817" lon="11.3886667"><ele>499.0</ele><time>2026-04-17T14:41:10.08Z</time></trkpt><trkpt lat="43.4676917" lon="11.388845"><ele>499.0</ele><time>2026-04-17T14:41:12.081Z</time></trkpt><trkpt lat="43.4677067" lon="11.388935"><ele>499.00000000000006</ele><time>2026-04-17T14:41:13.081Z</time></trkpt><trkpt lat="43.4677233" lon="11.389025"><ele>499.0</ele><time>2026-04-17T14:41:14.08Z</time></trkpt><trkpt lat="43.4677417" lon="11.3891167"><ele>498.75</ele><time>2026-04-17T14:41:15.081Z</time></trkpt><trkpt lat="43.4677667" lon="11.3892717"><ele>498.5</ele><time>2026-04-17T14:41:17.08Z</time></trkpt><trkpt lat="43.467805" lon="11.38942"><ele>498.25</ele><time>2026-04-17T14:41:19.08Z</time></trkpt><trkpt lat="43.4678517" lon="11.389575"><ele>498.0</ele><time>2026-04-17T14:41:21.081Z</time></trkpt><trkpt lat="43.4679" lon="11.3897367"><ele>496.5</ele><time>2026-04-17T14:41:23.081Z</time></trkpt><trkpt lat="43.467925" lon="11.3898167"><ele>495.0</ele><time>2026-04-17T14:41:24.081Z</time></trkpt><trkpt lat="43.4679767" lon="11.3899667"><ele>493.5</ele><time>2026-04-17T14:41:26.081Z</time></trkpt><trkpt lat="43.4679983" lon="11.3900483"><ele>492.0</ele><time>2026-04-17T14:41:27.08Z</time></trkpt><trkpt lat="43.4680217" lon="11.390135"><ele>490.5</ele><time>2026-04-17T14:41:28.081Z</time></trkpt><trkpt lat="43.4680467" lon="11.3902333"><ele>489.0</ele><time>2026-04-17T14:41:29.08Z</time></trkpt><trkpt lat="43.468065" lon="11.39032"><ele>489.4</ele><time>2026-04-17T14:41:30.08Z</time></trkpt><trkpt lat="43.4680967" lon="11.3904517"><ele>489.79999999999995</ele><time>2026-04-17T14:41:32.08Z</time></trkpt><trkpt lat="43.4680817" lon="11.3905817"><ele>490.20000000000005</ele><time>2026-04-17T14:41:34.081Z</time></trkpt><trkpt lat="43.46802" lon="11.3907"><ele>490.6</ele><time>2026-04-17T14:41:36.08Z</time></trkpt><trkpt lat="43.4679633" lon="11.39077"><ele>491.0</ele><time>2026-04-17T14:41:37.08Z</time></trkpt><trkpt lat="43.4679" lon="11.3908467"><ele>490.99999999999994</ele><time>2026-04-17T14:41:38.08Z</time></trkpt><trkpt lat="43.4678367" lon="11.3909167"><ele>491.0</ele><time>2026-04-17T14:41:39.081Z</time></trkpt><trkpt lat="43.467775" lon="11.3910017"><ele>491.0</ele><time>2026-04-17T14:41:40.08Z</time></trkpt><trkpt lat="43.4677117" lon="11.39109"><ele>491.0</ele><time>2026-04-17T14:41:41.08Z</time></trkpt><trkpt lat="43.467655" lon="11.3911817"><ele>490.99999999999994</ele><time>2026-04-17T14:41:42.081Z</time></trkpt><trkpt lat="43.4676217" lon="11.391265"><ele>491.0</ele><time>2026-04-17T14:41:43.08Z</time></trkpt><trkpt lat="43.4675933" lon="11.39136"><ele>492.66666666666663</ele><time>2026-04-17T14:41:44.08Z</time></trkpt><trkpt lat="43.4675733" lon="11.3914667"><ele>494.3333333333333</ele><time>2026-04-17T14:41:45.08Z</time></trkpt><trkpt lat="43.4675633" lon="11.3915783"><ele>496.0</ele><time>2026-04-17T14:41:46.08Z</time></trkpt><trkpt lat="43.4675683" lon="11.3916883"><ele>497.66666666666663</ele><time>2026-04-17T14:41:47.08Z</time></trkpt><trkpt lat="43.467575" lon="11.3918017"><ele>499.3333333333333</ele><time>2026-04-17T14:41:48.081Z</time></trkpt><trkpt lat="43.4675867" lon="11.3919133"><ele>501.0</ele><time>2026-04-17T14:41:49.08Z</time></trkpt><trkpt lat="43.4675983" lon="11.3920283"><ele>501.0</ele><time>2026-04-17T14:41:50.081Z</time></trkpt><trkpt lat="43.4676167" lon="11.3921417"><ele>501.0</ele><time>2026-04-17T14:41:51.08Z</time></trkpt><trkpt lat="43.4676417" lon="11.392255"><ele>501.0</ele><time>2026-04-17T14:41:52.081Z</time></trkpt><trkpt lat="43.4676733" lon="11.3923717"><ele>501.0</ele><time>2026-04-17T14:41:53.081Z</time></trkpt><trkpt lat="43.4677017" lon="11.3924817"><ele>501.0</ele><time>2026-04-17T14:41:54.081Z</time></trkpt><trkpt lat="43.4677317" lon="11.3925833"><ele>501.0</ele><time>2026-04-17T14:41:55.08Z</time></trkpt><trkpt lat="43.4677583" lon="11.3926783"><ele>500.5</ele><time>2026-04-17T14:41:56.081Z</time></trkpt><trkpt lat="43.4677667" lon="11.39277"><ele>500.0</ele><time>2026-04-17T14:41:57.08Z</time></trkpt><trkpt lat="43.4677617" lon="11.3929217"><ele>499.5</ele><time>2026-04-17T14:41:59.081Z</time></trkpt><trkpt lat="43.46774" lon="11.3930317"><ele>499.0</ele><time>2026-04-17T14:42:01.08Z</time></trkpt><trkpt lat="43.467715" lon="11.3931567"><ele>498.5</ele><time>2026-04-17T14:42:03.08Z</time></trkpt><trkpt lat="43.4677067" lon="11.3932867"><ele>498.0</ele><time>2026-04-17T14:42:05.08Z</time></trkpt><trkpt lat="43.467685" lon="11.3934067"><ele>497.0</ele><time>2026-04-17T14:42:07.08Z</time></trkpt><trkpt lat="43.4676433" lon="11.393535"><ele>495.99999999999994</ele><time>2026-04-17T14:42:09.08Z</time></trkpt><trkpt lat="43.46756" lon="11.3936817"><ele>494.99999999999994</ele><time>2026-04-17T14:42:11.08Z</time></trkpt><trkpt lat="43.467505" lon="11.393765"><ele>494.0</ele><time>2026-04-17T14:42:12.081Z</time></trkpt><trkpt lat="43.4674433" lon="11.3938533"><ele>493.0</ele><time>2026-04-17T14:42:13.08Z</time></trkpt><trkpt lat="43.4673917" lon="11.3939133"><ele>491.79999999999995</ele><time>2026-04-17T14:42:14.08Z</time></trkpt><trkpt lat="43.4672817" lon="11.393985"><ele>490.59999999999997</ele><time>2026-04-17T14:42:16.08Z</time></trkpt><trkpt lat="43.4672133" lon="11.394"><ele>489.40000000000003</ele><time>2026-04-17T14:42:17.081Z</time></trkpt><trkpt lat="43.46711" lon="11.393975"><ele>488.20000000000005</ele><time>2026-04-17T14:42:19.08Z</time></trkpt><trkpt lat="43.4670167" lon="11.393905"><ele>487.0</ele><time>2026-04-17T14:42:21.08Z</time></trkpt><trkpt lat="43.466945" lon="11.3938533"><ele>487.50000000000006</ele><time>2026-04-17T14:42:22.08Z</time></trkpt><trkpt lat="43.466865" lon="11.39381"><ele>488.0</ele><time>2026-04-17T14:42:23.08Z</time></trkpt><trkpt lat="43.4667883" lon="11.393775"><ele>488.5</ele><time>2026-04-17T14:42:24.08Z</time></trkpt><trkpt lat="43.466705" lon="11.3937383"><ele>489.0</ele><time>2026-04-17T14:42:25.08Z</time></trkpt><trkpt lat="43.46663" lon="11.3936983"><ele>489.50000000000006</ele><time>2026-04-17T14:42:26.081Z</time></trkpt><trkpt lat="43.4665467" lon="11.3936633"><ele>490.0</ele><time>2026-04-17T14:42:27.08Z</time></trkpt><trkpt lat="43.46646" lon="11.39364"><ele>490.00000000000006</ele><time>2026-04-17T14:42:28.081Z</time></trkpt><trkpt lat="43.4663733" lon="11.393615"><ele>490.0</ele><time>2026-04-17T14:42:29.081Z</time></trkpt><trkpt lat="43.46629" lon="11.3936"><ele>490.0</ele><time>2026-04-17T14:42:30.08Z</time></trkpt><trkpt lat="43.4662067" lon="11.3935883"><ele>490.0</ele><time>2026-04-17T14:42:31.081Z</time></trkpt><trkpt lat="43.4661183" lon="11.393575"><ele>490.00000000000006</ele><time>2026-04-17T14:42:32.08Z</time></trkpt><trkpt lat="43.46602" lon="11.3935617"><ele>490.0</ele><time>2026-04-17T14:42:33.08Z</time></trkpt><trkpt lat="43.46592" lon="11.3935417"><ele>491.6</ele><time>2026-04-17T14:42:34.08Z</time></trkpt><trkpt lat="43.4658117" lon="11.3935367"><ele>493.2</ele><time>2026-04-17T14:42:35.08Z</time></trkpt><trkpt lat="43.4657067" lon="11.3935367"><ele>494.79999999999995</ele><time>2026-04-17T14:42:36.081Z</time></trkpt><trkpt lat="43.4656017" lon="11.3935183"><ele>496.4</ele><time>2026-04-17T14:42:37.081Z</time></trkpt><trkpt lat="43.4654983" lon="11.3934967"><ele>498.0</ele><time>2026-04-17T14:42:38.081Z</time></trkpt><trkpt lat="43.46541" lon="11.39348"><ele>499.57142857142856</ele><time>2026-04-17T14:42:39.08Z</time></trkpt><trkpt lat="43.46533" lon="11.3934583"><ele>501.1428571428571</ele><time>2026-04-17T14:42:40.08Z</time></trkpt><trkpt lat="43.4652533" lon="11.3934367"><ele>502.71428571428567</ele><time>2026-04-17T14:42:41.08Z</time></trkpt><trkpt lat="43.465185" lon="11.3934083"><ele>504.2857142857142</ele><time>2026-04-17T14:42:42.08Z</time></trkpt><trkpt lat="43.4651167" lon="11.39338"><ele>505.85714285714283</ele><time>2026-04-17T14:42:43.08Z</time></trkpt><trkpt lat="43.4650483" lon="11.3933483"><ele>507.42857142857133</ele><time>2026-04-17T14:42:44.08Z</time></trkpt><trkpt lat="43.4649883" lon="11.393315"><ele>508.99999999999994</ele><time>2026-04-17T14:42:45.08Z</time></trkpt><trkpt lat="43.4649117" lon="11.3932783"><ele>508.99999999999994</ele><time>2026-04-17T14:42:46.08Z</time></trkpt><trkpt lat="43.46483" lon="11.3932483"><ele>509.0</ele><time>2026-04-17T14:42:47.081Z</time></trkpt><trkpt lat="43.4647617" lon="11.39322"><ele>509.0</ele><time>2026-04-17T14:42:48.081Z</time></trkpt><trkpt lat="43.4646883" lon="11.393185"><ele>509.0</ele><time>2026-04-17T14:42:49.081Z</time></trkpt><trkpt lat="43.46461" lon="11.3931533"><ele>508.99999999999994</ele><time>2026-04-17T14:42:50.081Z</time></trkpt><trkpt lat="43.4645433" lon="11.3931217"><ele>509.0</ele><time>2026-04-17T14:42:51.081Z</time></trkpt><trkpt lat="43.4644817" lon="11.393095"><ele>510.8333333333333</ele><time>2026-04-17T14:42:52.08Z</time></trkpt><trkpt lat="43.464415" lon="11.3930733"><ele>512.6666666666666</ele><time>2026-04-17T14:42:53.081Z</time></trkpt><trkpt lat="43.4643183" lon="11.3930467"><ele>514.5</ele><time>2026-04-17T14:42:55.08Z</time></trkpt><trkpt lat="43.464245" lon="11.3930533"><ele>516.3333333333334</ele><time>2026-04-17T14:42:57.08Z</time></trkpt><trkpt lat="43.4642" lon="11.3931183"><ele>518.1666666666667</ele><time>2026-04-17T14:42:59.081Z</time></trkpt><trkpt lat="43.4641733" lon="11.3933033"><ele>520.0</ele><time>2026-04-17T14:43:01.08Z</time></trkpt><trkpt lat="43.4641517" lon="11.3934267"><ele>520.0</ele><time>2026-04-17T14:43:02.081Z</time></trkpt><trkpt lat="43.4641267" lon="11.39355"><ele>520.0</ele><time>2026-04-17T14:43:03.08Z</time></trkpt><trkpt lat="43.4641017" lon="11.39366"><ele>520.0</ele><time>2026-04-17T14:43:04.08Z</time></trkpt><trkpt lat="43.4640733" lon="11.393755"><ele>520.0</ele><time>2026-04-17T14:43:05.081Z</time></trkpt><trkpt lat="43.4640383" lon="11.393835"><ele>520.0</ele><time>2026-04-17T14:43:06.08Z</time></trkpt><trkpt lat="43.4639883" lon="11.393925"><ele>520.0</ele><time>2026-04-17T14:43:07.081Z</time></trkpt><trkpt lat="43.4639333" lon="11.3940333"><ele>520.6</ele><time>2026-04-17T14:43:08.081Z</time></trkpt><trkpt lat="43.4638717" lon="11.3941433"><ele>521.2</ele><time>2026-04-17T14:43:09.08Z</time></trkpt><trkpt lat="43.46381" lon="11.394255"><ele>521.8</ele><time>2026-04-17T14:43:10.081Z</time></trkpt><trkpt lat="43.463745" lon="11.3943683"><ele>522.4</ele><time>2026-04-17T14:43:11.08Z</time></trkpt><trkpt lat="43.463685" lon="11.39449"><ele>523.0</ele><time>2026-04-17T14:43:12.08Z</time></trkpt><trkpt lat="43.463625" lon="11.3946167"><ele>521.25</ele><time>2026-04-17T14:43:13.081Z</time></trkpt><trkpt lat="43.4635667" lon="11.39473"><ele>519.5</ele><time>2026-04-17T14:43:14.08Z</time></trkpt><trkpt lat="43.4634983" lon="11.3948383"><ele>517.75</ele><time>2026-04-17T14:43:15.08Z</time></trkpt><trkpt lat="43.4634117" lon="11.3949617"><ele>516.0</ele><time>2026-04-17T14:43:16.08Z</time></trkpt><trkpt lat="43.463325" lon="11.3950783"><ele>516.0</ele><time>2026-04-17T14:43:17.081Z</time></trkpt><trkpt lat="43.4632517" lon="11.3951833"><ele>516.0</ele><time>2026-04-17T14:43:18.08Z</time></trkpt><trkpt lat="43.463195" lon="11.3952983"><ele>516.0</ele><time>2026-04-17T14:43:19.08Z</time></trkpt><trkpt lat="43.4631433" lon="11.3954283"><ele>516.0</ele><time>2026-04-17T14:43:20.081Z</time></trkpt><trkpt lat="43.4630983" lon="11.395565"><ele>516.0</ele><time>2026-04-17T14:43:21.08Z</time></trkpt><trkpt lat="43.4630583" lon="11.3957033"><ele>516.0</ele><time>2026-04-17T14:43:22.08Z</time></trkpt><trkpt lat="43.4630133" lon="11.39584"><ele>516.0</ele><time>2026-04-17T14:43:23.08Z</time></trkpt><trkpt lat="43.4629733" lon="11.3959617"><ele>516.0</ele><time>2026-04-17T14:43:24.081Z</time></trkpt><trkpt lat="43.4629267" lon="11.396085"><ele>516.0</ele><time>2026-04-17T14:43:25.08Z</time></trkpt><trkpt lat="43.46289" lon="11.3962083"><ele>516.0</ele><time>2026-04-17T14:43:26.08Z</time></trkpt><trkpt lat="43.4628667" lon="11.396345"><ele>516.0</ele><time>2026-04-17T14:43:27.08Z</time></trkpt><trkpt lat="43.46284" lon="11.3965083"><ele>516.0</ele><time>2026-04-17T14:43:28.08Z</time></trkpt><trkpt lat="43.4628067" lon="11.3966917"><ele>516.0</ele><time>2026-04-17T14:43:29.081Z</time></trkpt><trkpt lat="43.462765" lon="11.3969067"><ele>516.0</ele><time>2026-04-17T14:43:30.081Z</time></trkpt><trkpt lat="43.4627283" lon="11.3971183"><ele>514.75</ele><time>2026-04-17T14:43:31.081Z</time></trkpt><trkpt lat="43.4626883" lon="11.3973133"><ele>513.5</ele><time>2026-04-17T14:43:32.08Z</time></trkpt><trkpt lat="43.46266" lon="11.39749"><ele>512.25</ele><time>2026-04-17T14:43:33.08Z</time></trkpt><trkpt lat="43.4626367" lon="11.3976433"><ele>511.0</ele><time>2026-04-17T14:43:34.08Z</time></trkpt><trkpt lat="43.4626217" lon="11.397785"><ele>511.0</ele><time>2026-04-17T14:43:35.081Z</time></trkpt><trkpt lat="43.4626133" lon="11.3979117"><ele>511.0</ele><time>2026-04-17T14:43:36.081Z</time></trkpt><trkpt lat="43.4625917" lon="11.3980417"><ele>511.0</ele><time>2026-04-17T14:43:37.08Z</time></trkpt><trkpt lat="43.4625667" lon="11.398165"><ele>511.0</ele><time>2026-04-17T14:43:38.08Z</time></trkpt><trkpt lat="43.4625367" lon="11.3982867"><ele>511.0</ele><time>2026-04-17T14:43:39.08Z</time></trkpt><trkpt lat="43.4625067" lon="11.39842"><ele>509.20000000000005</ele><time>2026-04-17T14:43:40.081Z</time></trkpt><trkpt lat="43.4624767" lon="11.3985567"><ele>507.40000000000003</ele><time>2026-04-17T14:43:41.081Z</time></trkpt><trkpt lat="43.46245" lon="11.3987"><ele>505.6</ele><time>2026-04-17T14:43:42.08Z</time></trkpt><trkpt lat="43.4624117" lon="11.39883"><ele>503.8</ele><time>2026-04-17T14:43:43.08Z</time></trkpt><trkpt lat="43.462365" lon="11.398955"><ele>502.0</ele><time>2026-04-17T14:43:44.081Z</time></trkpt><trkpt lat="43.4623033" lon="11.399065"><ele>503.20000000000005</ele><time>2026-04-17T14:43:45.08Z</time></trkpt><trkpt lat="43.4622317" lon="11.3991717"><ele>504.40000000000003</ele><time>2026-04-17T14:43:46.081Z</time></trkpt><trkpt lat="43.46216" lon="11.3992833"><ele>505.59999999999997</ele><time>2026-04-17T14:43:47.081Z</time></trkpt><trkpt lat="43.4620817" lon="11.3994"><ele>506.79999999999995</ele><time>2026-04-17T14:43:48.081Z</time></trkpt><trkpt lat="43.4620083" lon="11.3995167"><ele>508.0</ele><time>2026-04-17T14:43:49.079Z</time></trkpt><trkpt lat="43.4619417" lon="11.39964"><ele>504.2</ele><time>2026-04-17T14:43:50.08Z</time></trkpt><trkpt lat="43.4618783" lon="11.3997617"><ele>500.4</ele><time>2026-04-17T14:43:51.079Z</time></trkpt><trkpt lat="43.461825" lon="11.3998817"><ele>496.59999999999997</ele><time>2026-04-17T14:43:52.079Z</time></trkpt><trkpt lat="43.461775" lon="11.399995"><ele>492.79999999999995</ele><time>2026-04-17T14:43:53.079Z</time></trkpt><trkpt lat="43.4617233" lon="11.4001117"><ele>489.0</ele><time>2026-04-17T14:43:54.08Z</time></trkpt><trkpt lat="43.4616867" lon="11.400235"><ele>489.0</ele><time>2026-04-17T14:43:55.08Z</time></trkpt><trkpt lat="43.4616633" lon="11.40035"><ele>489.0</ele><time>2026-04-17T14:43:56.079Z</time></trkpt><trkpt lat="43.46165" lon="11.400455"><ele>489.0</ele><time>2026-04-17T14:43:57.08Z</time></trkpt><trkpt lat="43.46165" lon="11.4005617"><ele>489.0</ele><time>2026-04-17T14:43:58.079Z</time></trkpt><trkpt lat="43.46166" lon="11.4006717"><ele>489.0</ele><time>2026-04-17T14:43:59.08Z</time></trkpt><trkpt lat="43.4616833" lon="11.4007833"><ele>489.0</ele><time>2026-04-17T14:44:00.08Z</time></trkpt><trkpt lat="43.4617183" lon="11.4008933"><ele>487.5</ele><time>2026-04-17T14:44:01.079Z</time></trkpt><trkpt lat="43.4617683" lon="11.4009967"><ele>486.0</ele><time>2026-04-17T14:44:02.08Z</time></trkpt><trkpt lat="43.46182" lon="11.4010933"><ele>484.5</ele><time>2026-04-17T14:44:03.079Z</time></trkpt><trkpt lat="43.4618633" lon="11.4011917"><ele>483.0</ele><time>2026-04-17T14:44:04.079Z</time></trkpt><trkpt lat="43.4619033" lon="11.4012867"><ele>481.5</ele><time>2026-04-17T14:44:05.08Z</time></trkpt><trkpt lat="43.4619383" lon="11.401365"><ele>480.0</ele><time>2026-04-17T14:44:06.079Z</time></trkpt><trkpt lat="43.461965" lon="11.4014517"><ele>478.8</ele><time>2026-04-17T14:44:07.079Z</time></trkpt><trkpt lat="43.4619783" lon="11.401545"><ele>477.6</ele><time>2026-04-17T14:44:08.08Z</time></trkpt><trkpt lat="43.46197" lon="11.4016517"><ele>476.4</ele><time>2026-04-17T14:44:09.08Z</time></trkpt><trkpt lat="43.4619417" lon="11.401775"><ele>475.2</ele><time>2026-04-17T14:44:10.079Z</time></trkpt><trkpt lat="43.461895" lon="11.40194"><ele>474.0</ele><time>2026-04-17T14:44:11.08Z</time></trkpt><trkpt lat="43.4618533" lon="11.4020867"><ele>472.6666666666667</ele><time>2026-04-17T14:44:12.079Z</time></trkpt><trkpt lat="43.4618333" lon="11.40222"><ele>471.33333333333337</ele><time>2026-04-17T14:44:13.079Z</time></trkpt><trkpt lat="43.4618167" lon="11.40232"><ele>470.0</ele><time>2026-04-17T14:44:14.079Z</time></trkpt><trkpt lat="43.4618017" lon="11.4024283"><ele>468.6666666666667</ele><time>2026-04-17T14:44:15.079Z</time></trkpt><trkpt lat="43.4617933" lon="11.40253"><ele>467.33333333333337</ele><time>2026-04-17T14:44:16.079Z</time></trkpt><trkpt lat="43.4617983" lon="11.4026433"><ele>466.0</ele><time>2026-04-17T14:44:17.08Z</time></trkpt><trkpt lat="43.46179" lon="11.4027517"><ele>466.0</ele><time>2026-04-17T14:44:18.08Z</time></trkpt><trkpt lat="43.4617767" lon="11.4028567"><ele>466.0</ele><time>2026-04-17T14:44:19.08Z</time></trkpt><trkpt lat="43.4617517" lon="11.40294"><ele>466.0</ele><time>2026-04-17T14:44:20.08Z</time></trkpt><trkpt lat="43.4616583" lon="11.4030583"><ele>466.0</ele><time>2026-04-17T14:44:22.079Z</time></trkpt><trkpt lat="43.4615883" lon="11.4031117"><ele>466.0</ele><time>2026-04-17T14:44:23.08Z</time></trkpt><trkpt lat="43.461495" lon="11.4031717"><ele>465.4</ele><time>2026-04-17T14:44:24.08Z</time></trkpt><trkpt lat="43.4614017" lon="11.4032367"><ele>464.8</ele><time>2026-04-17T14:44:25.08Z</time></trkpt><trkpt lat="43.4613083" lon="11.4033017"><ele>464.19999999999993</ele><time>2026-04-17T14:44:26.08Z</time></trkpt><trkpt lat="43.46123" lon="11.4033633"><ele>463.59999999999997</ele><time>2026-04-17T14:44:27.079Z</time></trkpt><trkpt lat="43.46115" lon="11.4034417"><ele>463.0</ele><time>2026-04-17T14:44:28.079Z</time></trkpt><trkpt lat="43.4610817" lon="11.4035217"><ele>463.0</ele><time>2026-04-17T14:44:29.079Z</time></trkpt><trkpt lat="43.461005" lon="11.4035933"><ele>462.99999999999994</ele><time>2026-04-17T14:44:30.079Z</time></trkpt><trkpt lat="43.46092" lon="11.40367"><ele>462.99999999999994</ele><time>2026-04-17T14:44:31.079Z</time></trkpt><trkpt lat="43.4608367" lon="11.4037467"><ele>463.0</ele><time>2026-04-17T14:44:32.08Z</time></trkpt><trkpt lat="43.4607583" lon="11.403815"><ele>463.0</ele><time>2026-04-17T14:44:33.079Z</time></trkpt><trkpt lat="43.46069" lon="11.4038817"><ele>463.1428571428571</ele><time>2026-04-17T14:44:34.079Z</time></trkpt><trkpt lat="43.460615" lon="11.4039417"><ele>463.2857142857142</ele><time>2026-04-17T14:44:35.079Z</time></trkpt><trkpt lat="43.4605517" lon="11.4039933"><ele>463.42857142857144</ele><time>2026-04-17T14:44:36.079Z</time></trkpt><trkpt lat="43.4604983" lon="11.40405"><ele>463.57142857142856</ele><time>2026-04-17T14:44:37.079Z</time></trkpt><trkpt lat="43.4604633" lon="11.4041267"><ele>463.7142857142857</ele><time>2026-04-17T14:44:38.08Z</time></trkpt><trkpt lat="43.4604483" lon="11.4042117"><ele>463.8571428571429</ele><time>2026-04-17T14:44:39.08Z</time></trkpt><trkpt lat="43.4604483" lon="11.4043367"><ele>464.00000000000006</ele><time>2026-04-17T14:44:40.079Z</time></trkpt><trkpt lat="43.4604667" lon="11.40447"><ele>459.6</ele><time>2026-04-17T14:44:41.079Z</time></trkpt><trkpt lat="43.4605017" lon="11.404585"><ele>455.2</ele><time>2026-04-17T14:44:42.079Z</time></trkpt><trkpt lat="43.46055" lon="11.4046933"><ele>450.80000000000007</ele><time>2026-04-17T14:44:43.079Z</time></trkpt><trkpt lat="43.4606183" lon="11.4048133"><ele>446.40000000000003</ele><time>2026-04-17T14:44:44.079Z</time></trkpt><trkpt lat="43.4606867" lon="11.40492"><ele>442.0</ele><time>2026-04-17T14:44:45.079Z</time></trkpt><trkpt lat="43.4607517" lon="11.4050283"><ele>440.6666666666667</ele><time>2026-04-17T14:44:46.079Z</time></trkpt><trkpt lat="43.4608117" lon="11.4051333"><ele>439.33333333333337</ele><time>2026-04-17T14:44:47.08Z</time></trkpt><trkpt lat="43.46086" lon="11.4052333"><ele>438.0</ele><time>2026-04-17T14:44:48.08Z</time></trkpt><trkpt lat="43.4609133" lon="11.405325"><ele>436.66666666666663</ele><time>2026-04-17T14:44:49.079Z</time></trkpt><trkpt lat="43.460955" lon="11.405425"><ele>435.3333333333333</ele><time>2026-04-17T14:44:50.079Z</time></trkpt><trkpt lat="43.461" lon="11.40553"><ele>434.0</ele><time>2026-04-17T14:44:51.079Z</time></trkpt><trkpt lat="43.4610433" lon="11.405635"><ele>433.66666666666663</ele><time>2026-04-17T14:44:52.079Z</time></trkpt><trkpt lat="43.4610833" lon="11.4057317"><ele>433.3333333333333</ele><time>2026-04-17T14:44:53.079Z</time></trkpt><trkpt lat="43.461115" lon="11.4058217"><ele>433.0</ele><time>2026-04-17T14:44:54.079Z</time></trkpt><trkpt lat="43.46114" lon="11.4059167"><ele>432.66666666666663</ele><time>2026-04-17T14:44:55.08Z</time></trkpt><trkpt lat="43.461145" lon="11.406015"><ele>432.3333333333333</ele><time>2026-04-17T14:44:56.079Z</time></trkpt><trkpt lat="43.461135" lon="11.406125"><ele>432.0</ele><time>2026-04-17T14:44:57.08Z</time></trkpt><trkpt lat="43.4611183" lon="11.40623"><ele>430.0</ele><time>2026-04-17T14:44:58.08Z</time></trkpt><trkpt lat="43.4611017" lon="11.4063283"><ele>428.0</ele><time>2026-04-17T14:44:59.08Z</time></trkpt><trkpt lat="43.4610783" lon="11.4064217"><ele>426.0</ele><time>2026-04-17T14:45:00.079Z</time></trkpt><trkpt lat="43.4610583" lon="11.4065183"><ele>424.0</ele><time>2026-04-17T14:45:01.08Z</time></trkpt><trkpt lat="43.4610433" lon="11.4066133"><ele>422.0</ele><time>2026-04-17T14:45:02.079Z</time></trkpt><trkpt lat="43.461025" lon="11.40675"><ele>420.0</ele><time>2026-04-17T14:45:04.08Z</time></trkpt><trkpt lat="43.4610667" lon="11.406855"><ele>420.0</ele><time>2026-04-17T14:45:06.08Z</time></trkpt><trkpt lat="43.4611433" lon="11.4068733"><ele>420.0</ele><time>2026-04-17T14:45:08.079Z</time></trkpt><trkpt lat="43.4612483" lon="11.406845"><ele>420.0</ele><time>2026-04-17T14:45:10.08Z</time></trkpt><trkpt lat="43.461325" lon="11.4068217"><ele>420.0</ele><time>2026-04-17T14:45:11.08Z</time></trkpt><trkpt lat="43.4614117" lon="11.4067983"><ele>420.0</ele><time>2026-04-17T14:45:12.079Z</time></trkpt><trkpt lat="43.4615" lon="11.4067767"><ele>420.0</ele><time>2026-04-17T14:45:13.079Z</time></trkpt><trkpt lat="43.461585" lon="11.4067667"><ele>416.5</ele><time>2026-04-17T14:45:14.08Z</time></trkpt><trkpt lat="43.46168" lon="11.4067767"><ele>413.0</ele><time>2026-04-17T14:45:15.08Z</time></trkpt><trkpt lat="43.4617683" lon="11.4067817"><ele>409.5</ele><time>2026-04-17T14:45:16.079Z</time></trkpt><trkpt lat="43.46185" lon="11.4067733"><ele>406.0</ele><time>2026-04-17T14:45:17.08Z</time></trkpt><trkpt lat="43.4619283" lon="11.4067683"><ele>402.5</ele><time>2026-04-17T14:45:18.079Z</time></trkpt><trkpt lat="43.4620083" lon="11.406765"><ele>399.0</ele><time>2026-04-17T14:45:19.08Z</time></trkpt><trkpt lat="43.4620833" lon="11.4067717"><ele>396.85714285714283</ele><time>2026-04-17T14:45:20.079Z</time></trkpt><trkpt lat="43.46215" lon="11.4067767"><ele>394.7142857142857</ele><time>2026-04-17T14:45:21.08Z</time></trkpt><trkpt lat="43.462215" lon="11.40679"><ele>392.57142857142856</ele><time>2026-04-17T14:45:22.079Z</time></trkpt><trkpt lat="43.462285" lon="11.4068067"><ele>390.42857142857144</ele><time>2026-04-17T14:45:23.08Z</time></trkpt><trkpt lat="43.4623467" lon="11.4068283"><ele>388.2857142857143</ele><time>2026-04-17T14:45:24.08Z</time></trkpt><trkpt lat="43.4624083" lon="11.406865"><ele>386.1428571428571</ele><time>2026-04-17T14:45:25.08Z</time></trkpt><trkpt lat="43.462465" lon="11.4069317"><ele>384.0</ele><time>2026-04-17T14:45:26.079Z</time></trkpt><trkpt lat="43.4625217" lon="11.4070167"><ele>384.0</ele><time>2026-04-17T14:45:27.08Z</time></trkpt><trkpt lat="43.4625833" lon="11.407105"><ele>384.0</ele><time>2026-04-17T14:45:28.079Z</time></trkpt><trkpt lat="43.46264" lon="11.4071767"><ele>384.0</ele><time>2026-04-17T14:45:29.079Z</time></trkpt><trkpt lat="43.4626983" lon="11.4072333"><ele>384.0</ele><time>2026-04-17T14:45:30.08Z</time></trkpt><trkpt lat="43.4627583" lon="11.4072917"><ele>384.0</ele><time>2026-04-17T14:45:31.079Z</time></trkpt><trkpt lat="43.46282" lon="11.4073667"><ele>384.0</ele><time>2026-04-17T14:45:32.08Z</time></trkpt><trkpt lat="43.4628817" lon="11.4074533"><ele>382.6</ele><time>2026-04-17T14:45:33.079Z</time></trkpt><trkpt lat="43.4629467" lon="11.40755"><ele>381.2</ele><time>2026-04-17T14:45:34.079Z</time></trkpt><trkpt lat="43.4630233" lon="11.4076567"><ele>379.8</ele><time>2026-04-17T14:45:35.079Z</time></trkpt><trkpt lat="43.4631083" lon="11.4077533"><ele>378.40000000000003</ele><time>2026-04-17T14:45:36.08Z</time></trkpt><trkpt lat="43.463195" lon="11.4078533"><ele>377.0</ele><time>2026-04-17T14:45:37.079Z</time></trkpt><trkpt lat="43.4632767" lon="11.4079567"><ele>373.6</ele><time>2026-04-17T14:45:38.079Z</time></trkpt><trkpt lat="43.4633633" lon="11.4080533"><ele>370.20000000000005</ele><time>2026-04-17T14:45:39.079Z</time></trkpt><trkpt lat="43.4634467" lon="11.4081533"><ele>366.8</ele><time>2026-04-17T14:45:40.079Z</time></trkpt><trkpt lat="43.463525" lon="11.40826"><ele>363.4</ele><time>2026-04-17T14:45:41.08Z</time></trkpt><trkpt lat="43.463595" lon="11.4083683"><ele>360.0</ele><time>2026-04-17T14:45:42.079Z</time></trkpt><trkpt lat="43.46366" lon="11.4084783"><ele>360.0</ele><time>2026-04-17T14:45:43.079Z</time></trkpt><trkpt lat="43.4637233" lon="11.4085917"><ele>360.0</ele><time>2026-04-17T14:45:44.08Z</time></trkpt><trkpt lat="43.46379" lon="11.4086867"><ele>360.0</ele><time>2026-04-17T14:45:45.079Z</time></trkpt><trkpt lat="43.4638517" lon="11.4087783"><ele>360.0</ele><time>2026-04-17T14:45:46.079Z</time></trkpt><trkpt lat="43.4639117" lon="11.4088817"><ele>360.0</ele><time>2026-04-17T14:45:47.08Z</time></trkpt><trkpt lat="43.46396" lon="11.40899"><ele>360.0</ele><time>2026-04-17T14:45:48.08Z</time></trkpt><trkpt lat="43.4640033" lon="11.4091033"><ele>360.0</ele><time>2026-04-17T14:45:49.08Z</time></trkpt><trkpt lat="43.464035" lon="11.4092"><ele>360.0</ele><time>2026-04-17T14:45:50.079Z</time></trkpt><trkpt lat="43.4640733" lon="11.4093183"><ele>360.0</ele><time>2026-04-17T14:45:52.079Z</time></trkpt><trkpt lat="43.4641" lon="11.40941"><ele>360.0</ele><time>2026-04-17T14:45:55.079Z</time></trkpt><trkpt lat="43.4641017" lon="11.4095117"><ele>360.0</ele><time>2026-04-17T14:47:03.079Z</time></trkpt><trkpt lat="43.4640883" lon="11.4096667"><ele>360.0</ele><time>2026-04-17T14:47:05.079Z</time></trkpt><trkpt lat="43.4640717" lon="11.40977"><ele>360.0</ele><time>2026-04-17T14:47:06.079Z</time></trkpt><trkpt lat="43.46405" lon="11.4098817"><ele>360.0</ele><time>2026-04-17T14:47:07.08Z</time></trkpt><trkpt lat="43.4640267" lon="11.410005"><ele>360.0</ele><time>2026-04-17T14:47:08.079Z</time></trkpt><trkpt lat="43.4640033" lon="11.4101333"><ele>360.0</ele><time>2026-04-17T14:47:09.08Z</time></trkpt><trkpt lat="43.46397" lon="11.4102533"><ele>360.0</ele><time>2026-04-17T14:47:10.079Z</time></trkpt><trkpt lat="43.463915" lon="11.4103767"><ele>361.0</ele><time>2026-04-17T14:47:11.079Z</time></trkpt><trkpt lat="43.463855" lon="11.4105"><ele>362.0</ele><time>2026-04-17T14:47:12.079Z</time></trkpt><trkpt lat="43.4637883" lon="11.410625"><ele>363.0</ele><time>2026-04-17T14:47:13.08Z</time></trkpt><trkpt lat="43.4637183" lon="11.410755"><ele>364.0</ele><time>2026-04-17T14:47:14.079Z</time></trkpt><trkpt lat="43.4636483" lon="11.4108917"><ele>362.0</ele><time>2026-04-17T14:47:15.079Z</time></trkpt><trkpt lat="43.4635717" lon="11.4110417"><ele>360.0</ele><time>2026-04-17T14:47:16.079Z</time></trkpt><trkpt lat="43.4634933" lon="11.411195"><ele>358.0</ele><time>2026-04-17T14:47:17.08Z</time></trkpt><trkpt lat="43.463405" lon="11.4113467"><ele>356.0</ele><time>2026-04-17T14:47:18.079Z</time></trkpt><trkpt lat="43.463325" lon="11.4115017"><ele>356.0</ele><time>2026-04-17T14:47:19.079Z</time></trkpt><trkpt lat="43.4632383" lon="11.4116567"><ele>356.0</ele><time>2026-04-17T14:47:20.079Z</time></trkpt><trkpt lat="43.4631517" lon="11.4118167"><ele>356.0</ele><time>2026-04-17T14:47:21.079Z</time></trkpt><trkpt lat="43.463065" lon="11.41198"><ele>356.0</ele><time>2026-04-17T14:47:22.079Z</time></trkpt><trkpt lat="43.4629783" lon="11.4121367"><ele>355.0</ele><time>2026-04-17T14:47:23.079Z</time></trkpt><trkpt lat="43.4628933" lon="11.4122983"><ele>354.0</ele><time>2026-04-17T14:47:24.08Z</time></trkpt><trkpt lat="43.4628017" lon="11.4124517"><ele>353.0</ele><time>2026-04-17T14:47:25.079Z</time></trkpt><trkpt lat="43.462715" lon="11.412605"><ele>352.0</ele><time>2026-04-17T14:47:26.079Z</time></trkpt><trkpt lat="43.462635" lon="11.4127617"><ele>352.0</ele><time>2026-04-17T14:47:27.08Z</time></trkpt><trkpt lat="43.4625517" lon="11.4129133"><ele>352.0</ele><time>2026-04-17T14:47:28.079Z</time></trkpt><trkpt lat="43.4624717" lon="11.4130717"><ele>352.0</ele><time>2026-04-17T14:47:29.08Z</time></trkpt><trkpt lat="43.4623867" lon="11.41322"><ele>352.0</ele><time>2026-04-17T14:47:30.079Z</time></trkpt><trkpt lat="43.462295" lon="11.413355"><ele>352.25</ele><time>2026-04-17T14:47:31.08Z</time></trkpt><trkpt lat="43.4622" lon="11.41348"><ele>352.5</ele><time>2026-04-17T14:47:32.079Z</time></trkpt><trkpt lat="43.462075" lon="11.4135833"><ele>352.75</ele><time>2026-04-17T14:47:33.079Z</time></trkpt><trkpt lat="43.4619433" lon="11.4136533"><ele>353.0</ele><time>2026-04-17T14:47:34.08Z</time></trkpt><trkpt lat="43.46181" lon="11.4137167"><ele>352.0</ele><time>2026-04-17T14:47:35.08Z</time></trkpt><trkpt lat="43.4616783" lon="11.413775"><ele>351.0</ele><time>2026-04-17T14:47:36.08Z</time></trkpt><trkpt lat="43.461555" lon="11.41384"><ele>350.0</ele><time>2026-04-17T14:47:37.08Z</time></trkpt><trkpt lat="43.4614283" lon="11.4139383"><ele>349.0</ele><time>2026-04-17T14:47:38.079Z</time></trkpt><trkpt lat="43.4613083" lon="11.4140583"><ele>348.66666666666663</ele><time>2026-04-17T14:47:39.079Z</time></trkpt><trkpt lat="43.461195" lon="11.4141967"><ele>348.3333333333333</ele><time>2026-04-17T14:47:40.079Z</time></trkpt><trkpt lat="43.4610817" lon="11.414335"><ele>348.0</ele><time>2026-04-17T14:47:41.08Z</time></trkpt><trkpt lat="43.4609683" lon="11.4144717"><ele>348.0</ele><time>2026-04-17T14:47:42.079Z</time></trkpt><trkpt lat="43.4608483" lon="11.4146"><ele>348.0</ele><time>2026-04-17T14:47:43.079Z</time></trkpt><trkpt lat="43.46073" lon="11.4147183"><ele>348.0</ele><time>2026-04-17T14:47:44.08Z</time></trkpt><trkpt lat="43.4605917" lon="11.4147983"><ele>348.0</ele><time>2026-04-17T14:47:45.079Z</time></trkpt><trkpt lat="43.4604517" lon="11.41488"><ele>348.0</ele><time>2026-04-17T14:47:46.079Z</time></trkpt><trkpt lat="43.4603067" lon="11.4149617"><ele>348.0</ele><time>2026-04-17T14:47:47.08Z</time></trkpt><trkpt lat="43.4601717" lon="11.4150533"><ele>348.0</ele><time>2026-04-17T14:47:48.08Z</time></trkpt><trkpt lat="43.4600267" lon="11.4151517"><ele>348.0</ele><time>2026-04-17T14:47:49.08Z</time></trkpt><trkpt lat="43.459885" lon="11.4152483"><ele>348.0</ele><time>2026-04-17T14:47:50.079Z</time></trkpt><trkpt lat="43.45974" lon="11.4153517"><ele>348.0</ele><time>2026-04-17T14:47:51.079Z</time></trkpt><trkpt lat="43.4595933" lon="11.41545"><ele>347.6666666666667</ele><time>2026-04-17T14:47:52.08Z</time></trkpt><trkpt lat="43.4594467" lon="11.415555"><ele>347.33333333333337</ele><time>2026-04-17T14:47:53.08Z</time></trkpt><trkpt lat="43.4593017" lon="11.4156633"><ele>347.0</ele><time>2026-04-17T14:47:54.08Z</time></trkpt><trkpt lat="43.459155" lon="11.4157767"><ele>347.0</ele><time>2026-04-17T14:47:55.079Z</time></trkpt><trkpt lat="43.459015" lon="11.4158817"><ele>347.0</ele><time>2026-04-17T14:47:56.08Z</time></trkpt><trkpt lat="43.4588717" lon="11.41598"><ele>347.0</ele><time>2026-04-17T14:47:57.079Z</time></trkpt><trkpt lat="43.458725" lon="11.4160683"><ele>345.0</ele><time>2026-04-17T14:47:58.08Z</time></trkpt><trkpt lat="43.45857" lon="11.416145"><ele>343.0</ele><time>2026-04-17T14:47:59.079Z</time></trkpt><trkpt lat="43.458415" lon="11.4162133"><ele>341.0</ele><time>2026-04-17T14:48:00.079Z</time></trkpt><trkpt lat="43.4582617" lon="11.4162683"><ele>340.6666666666667</ele><time>2026-04-17T14:48:01.08Z</time></trkpt><trkpt lat="43.45811" lon="11.4163367"><ele>340.3333333333333</ele><time>2026-04-17T14:48:02.08Z</time></trkpt><trkpt lat="43.45797" lon="11.4164167"><ele>340.0</ele><time>2026-04-17T14:48:03.079Z</time></trkpt><trkpt lat="43.4578417" lon="11.4165133"><ele>340.0</ele><time>2026-04-17T14:48:04.08Z</time></trkpt><trkpt lat="43.4577233" lon="11.4166333"><ele>340.0</ele><time>2026-04-17T14:48:05.079Z</time></trkpt><trkpt lat="43.4576133" lon="11.4167733"><ele>340.0</ele><time>2026-04-17T14:48:06.079Z</time></trkpt><trkpt lat="43.457525" lon="11.41694"><ele>340.0</ele><time>2026-04-17T14:48:07.079Z</time></trkpt><trkpt lat="43.4574467" lon="11.4171167"><ele>340.75</ele><time>2026-04-17T14:48:08.079Z</time></trkpt><trkpt lat="43.4573867" lon="11.4173017"><ele>341.5</ele><time>2026-04-17T14:48:09.08Z</time></trkpt><trkpt lat="43.4573383" lon="11.4174817"><ele>342.25</ele><time>2026-04-17T14:48:10.079Z</time></trkpt><trkpt lat="43.457305" lon="11.417665"><ele>343.0</ele><time>2026-04-17T14:48:11.079Z</time></trkpt><trkpt lat="43.4572917" lon="11.417835"><ele>343.2</ele><time>2026-04-17T14:48:12.08Z</time></trkpt><trkpt lat="43.4572817" lon="11.4179933"><ele>343.4</ele><time>2026-04-17T14:48:13.08Z</time></trkpt><trkpt lat="43.457265" lon="11.41814"><ele>343.59999999999997</ele><time>2026-04-17T14:48:14.079Z</time></trkpt><trkpt lat="43.45724" lon="11.41827"><ele>343.79999999999995</ele><time>2026-04-17T14:48:15.08Z</time></trkpt><trkpt lat="43.4572117" lon="11.4183667"><ele>344.0</ele><time>2026-04-17T14:48:16.079Z</time></trkpt><trkpt lat="43.4571883" lon="11.41845"><ele>344.0</ele><time>2026-04-17T14:48:17.079Z</time></trkpt><trkpt lat="43.4572067" lon="11.41859"><ele>344.0</ele><time>2026-04-17T14:48:19.08Z</time></trkpt><trkpt lat="43.4572383" lon="11.4186767"><ele>344.0</ele><time>2026-04-17T14:48:20.078Z</time></trkpt><trkpt lat="43.4572617" lon="11.4187683"><ele>344.0</ele><time>2026-04-17T14:48:21.078Z</time></trkpt><trkpt lat="43.4572517" lon="11.418895"><ele>344.0</ele><time>2026-04-17T14:48:23.079Z</time></trkpt><trkpt lat="43.457175" lon="11.41905"><ele>343.2</ele><time>2026-04-17T14:48:25.078Z</time></trkpt><trkpt lat="43.4571283" lon="11.4191517"><ele>342.4</ele><time>2026-04-17T14:48:26.078Z</time></trkpt><trkpt lat="43.45708" lon="11.4192483"><ele>341.6</ele><time>2026-04-17T14:48:27.079Z</time></trkpt><trkpt lat="43.4570567" lon="11.4193433"><ele>340.8</ele><time>2026-04-17T14:48:28.078Z</time></trkpt><trkpt lat="43.4570733" lon="11.41947"><ele>340.0</ele><time>2026-04-17T14:48:30.079Z</time></trkpt><trkpt lat="43.4571833" lon="11.419555"><ele>341.5</ele><time>2026-04-17T14:48:32.078Z</time></trkpt><trkpt lat="43.4572483" lon="11.4196067"><ele>343.0</ele><time>2026-04-17T14:48:33.079Z</time></trkpt><trkpt lat="43.45731" lon="11.419665"><ele>344.5</ele><time>2026-04-17T14:48:34.078Z</time></trkpt><trkpt lat="43.4573667" lon="11.4197267"><ele>346.0</ele><time>2026-04-17T14:48:35.078Z</time></trkpt><trkpt lat="43.45742" lon="11.4197767"><ele>347.5</ele><time>2026-04-17T14:48:36.078Z</time></trkpt><trkpt lat="43.4575217" lon="11.419875"><ele>349.0</ele><time>2026-04-17T14:48:38.079Z</time></trkpt><trkpt lat="43.4575833" lon="11.4199267"><ele>350.0</ele><time>2026-04-17T14:48:39.078Z</time></trkpt><trkpt lat="43.4576567" lon="11.419965"><ele>351.0</ele><time>2026-04-17T14:48:40.078Z</time></trkpt><trkpt lat="43.45774" lon="11.42"><ele>352.0</ele><time>2026-04-17T14:48:41.078Z</time></trkpt><trkpt lat="43.4578317" lon="11.4200383"><ele>353.0</ele><time>2026-04-17T14:48:42.078Z</time></trkpt><trkpt lat="43.4579167" lon="11.4200783"><ele>354.0</ele><time>2026-04-17T14:48:43.079Z</time></trkpt><trkpt lat="43.4579983" lon="11.4201283"><ele>355.0</ele><time>2026-04-17T14:48:44.078Z</time></trkpt><trkpt lat="43.4580733" lon="11.4201883"><ele>356.16666666666663</ele><time>2026-04-17T14:48:45.079Z</time></trkpt><trkpt lat="43.45814" lon="11.420265"><ele>357.3333333333333</ele><time>2026-04-17T14:48:46.078Z</time></trkpt><trkpt lat="43.458205" lon="11.42034"><ele>358.5</ele><time>2026-04-17T14:48:47.078Z</time></trkpt><trkpt lat="43.45827" lon="11.4204133"><ele>359.6666666666667</ele><time>2026-04-17T14:48:48.079Z</time></trkpt><trkpt lat="43.4583333" lon="11.4204883"><ele>360.83333333333337</ele><time>2026-04-17T14:48:49.079Z</time></trkpt><trkpt lat="43.4584017" lon="11.4205767"><ele>362.0</ele><time>2026-04-17T14:48:50.078Z</time></trkpt><trkpt lat="43.4584733" lon="11.420665"><ele>363.6666666666667</ele><time>2026-04-17T14:48:51.078Z</time></trkpt><trkpt lat="43.458545" lon="11.42075"><ele>365.33333333333337</ele><time>2026-04-17T14:48:52.078Z</time></trkpt><trkpt lat="43.4586183" lon="11.4208317"><ele>367.0</ele><time>2026-04-17T14:48:53.078Z</time></trkpt><trkpt lat="43.4586867" lon="11.4209117"><ele>368.6666666666667</ele><time>2026-04-17T14:48:54.079Z</time></trkpt><trkpt lat="43.4587517" lon="11.42099"><ele>370.3333333333333</ele><time>2026-04-17T14:48:55.078Z</time></trkpt><trkpt lat="43.4588183" lon="11.42106"><ele>372.0</ele><time>2026-04-17T14:48:56.078Z</time></trkpt><trkpt lat="43.45888" lon="11.42113"><ele>373.0</ele><time>2026-04-17T14:48:57.079Z</time></trkpt><trkpt lat="43.4589367" lon="11.4212017"><ele>374.0</ele><time>2026-04-17T14:48:58.079Z</time></trkpt><trkpt lat="43.4590033" lon="11.421305"><ele>375.0</ele><time>2026-04-17T14:49:00.079Z</time></trkpt><trkpt lat="43.4589683" lon="11.4214"><ele>376.0</ele><time>2026-04-17T14:49:03.078Z</time></trkpt><trkpt lat="43.4588517" lon="11.42147"><ele>377.0</ele><time>2026-04-17T14:49:05.079Z</time></trkpt><trkpt lat="43.4587833" lon="11.4215183"><ele>377.0</ele><time>2026-04-17T14:49:06.078Z</time></trkpt><trkpt lat="43.458705" lon="11.4215733"><ele>377.0</ele><time>2026-04-17T14:49:07.078Z</time></trkpt><trkpt lat="43.458625" lon="11.42164"><ele>377.0</ele><time>2026-04-17T14:49:08.078Z</time></trkpt><trkpt lat="43.4585367" lon="11.4217067"><ele>377.0</ele><time>2026-04-17T14:49:09.078Z</time></trkpt><trkpt lat="43.4584483" lon="11.421785"><ele>377.0</ele><time>2026-04-17T14:49:10.078Z</time></trkpt><trkpt lat="43.4583567" lon="11.4218583"><ele>377.0</ele><time>2026-04-17T14:49:11.078Z</time></trkpt><trkpt lat="43.4582733" lon="11.42193"><ele>377.0</ele><time>2026-04-17T14:49:12.079Z</time></trkpt><trkpt lat="43.4581917" lon="11.422"><ele>377.0</ele><time>2026-04-17T14:49:13.079Z</time></trkpt><trkpt lat="43.458115" lon="11.4220767"><ele>377.0</ele><time>2026-04-17T14:49:14.079Z</time></trkpt><trkpt lat="43.4580383" lon="11.4221683"><ele>377.0</ele><time>2026-04-17T14:49:15.078Z</time></trkpt><trkpt lat="43.4579517" lon="11.4222567"><ele>375.8</ele><time>2026-04-17T14:49:16.078Z</time></trkpt><trkpt lat="43.45787" lon="11.4223483"><ele>374.6</ele><time>2026-04-17T14:49:17.078Z</time></trkpt><trkpt lat="43.4577833" lon="11.422435"><ele>373.40000000000003</ele><time>2026-04-17T14:49:18.079Z</time></trkpt><trkpt lat="43.457695" lon="11.42252"><ele>372.20000000000005</ele><time>2026-04-17T14:49:19.079Z</time></trkpt><trkpt lat="43.4576" lon="11.4225967"><ele>371.0</ele><time>2026-04-17T14:49:20.079Z</time></trkpt><trkpt lat="43.4575133" lon="11.42268"><ele>371.0</ele><time>2026-04-17T14:49:21.079Z</time></trkpt><trkpt lat="43.4574317" lon="11.4227533"><ele>371.0</ele><time>2026-04-17T14:49:22.079Z</time></trkpt><trkpt lat="43.4573517" lon="11.4228217"><ele>371.0</ele><time>2026-04-17T14:49:23.079Z</time></trkpt><trkpt lat="43.45726" lon="11.4228867"><ele>371.0</ele><time>2026-04-17T14:49:24.078Z</time></trkpt><trkpt lat="43.457175" lon="11.4229583"><ele>371.0</ele><time>2026-04-17T14:49:25.078Z</time></trkpt><trkpt lat="43.4570983" lon="11.4230317"><ele>369.5</ele><time>2026-04-17T14:49:26.079Z</time></trkpt><trkpt lat="43.4570217" lon="11.4231067"><ele>368.0</ele><time>2026-04-17T14:49:27.078Z</time></trkpt><trkpt lat="43.4569467" lon="11.4231767"><ele>366.5</ele><time>2026-04-17T14:49:28.079Z</time></trkpt><trkpt lat="43.4568667" lon="11.4232433"><ele>365.0</ele><time>2026-04-17T14:49:29.078Z</time></trkpt><trkpt lat="43.45679" lon="11.4233"><ele>363.5</ele><time>2026-04-17T14:49:30.078Z</time></trkpt><trkpt lat="43.45672" lon="11.4233533"><ele>362.0</ele><time>2026-04-17T14:49:31.078Z</time></trkpt><trkpt lat="43.45666" lon="11.4233967"><ele>362.0</ele><time>2026-04-17T14:49:32.078Z</time></trkpt><trkpt lat="43.4565617" lon="11.4234833"><ele>362.0</ele><time>2026-04-17T14:49:34.078Z</time></trkpt><trkpt lat="43.456545" lon="11.4235983"><ele>362.0</ele><time>2026-04-17T14:49:36.078Z</time></trkpt><trkpt lat="43.456575" lon="11.4237267"><ele>362.0</ele><time>2026-04-17T14:49:38.078Z</time></trkpt><trkpt lat="43.4566533" lon="11.42387"><ele>362.0</ele><time>2026-04-17T14:49:40.078Z</time></trkpt><trkpt lat="43.4567033" lon="11.42395"><ele>360.6666666666667</ele><time>2026-04-17T14:49:41.079Z</time></trkpt><trkpt lat="43.45676" lon="11.424035"><ele>359.33333333333337</ele><time>2026-04-17T14:49:42.079Z</time></trkpt><trkpt lat="43.456815" lon="11.4241217"><ele>358.0</ele><time>2026-04-17T14:49:43.078Z</time></trkpt><trkpt lat="43.4568633" lon="11.424205"><ele>356.6666666666667</ele><time>2026-04-17T14:49:44.079Z</time></trkpt><trkpt lat="43.4569133" lon="11.4242933"><ele>355.3333333333333</ele><time>2026-04-17T14:49:45.078Z</time></trkpt><trkpt lat="43.4569633" lon="11.42438"><ele>354.0</ele><time>2026-04-17T14:49:46.079Z</time></trkpt><trkpt lat="43.4570067" lon="11.4244617"><ele>354.0</ele><time>2026-04-17T14:49:47.078Z</time></trkpt><trkpt lat="43.4570417" lon="11.42454"><ele>354.0</ele><time>2026-04-17T14:49:48.078Z</time></trkpt><trkpt lat="43.45707" lon="11.4246183"><ele>354.0</ele><time>2026-04-17T14:49:49.079Z</time></trkpt><trkpt lat="43.457095" lon="11.4247083"><ele>354.0</ele><time>2026-04-17T14:49:50.079Z</time></trkpt><trkpt lat="43.4571167" lon="11.4247983"><ele>354.0</ele><time>2026-04-17T14:49:51.078Z</time></trkpt><trkpt lat="43.4571483" lon="11.4248933"><ele>354.0</ele><time>2026-04-17T14:49:52.079Z</time></trkpt><trkpt lat="43.457185" lon="11.4249767"><ele>354.0</ele><time>2026-04-17T14:49:53.078Z</time></trkpt><trkpt lat="43.4572467" lon="11.425035"><ele>352.2</ele><time>2026-04-17T14:49:54.078Z</time></trkpt><trkpt lat="43.4573183" lon="11.42509"><ele>350.4</ele><time>2026-04-17T14:49:55.079Z</time></trkpt><trkpt lat="43.4574067" lon="11.4251433"><ele>348.6</ele><time>2026-04-17T14:49:56.078Z</time></trkpt><trkpt lat="43.4574983" lon="11.4252"><ele>346.8</ele><time>2026-04-17T14:49:57.078Z</time></trkpt><trkpt lat="43.4575833" lon="11.42525"><ele>345.0</ele><time>2026-04-17T14:49:58.079Z</time></trkpt><trkpt lat="43.45766" lon="11.4252983"><ele>345.0</ele><time>2026-04-17T14:49:59.078Z</time></trkpt><trkpt lat="43.4577383" lon="11.4253417"><ele>345.0</ele><time>2026-04-17T14:50:00.078Z</time></trkpt><trkpt lat="43.4578067" lon="11.4253767"><ele>345.0</ele><time>2026-04-17T14:50:01.078Z</time></trkpt><trkpt lat="43.4578717" lon="11.42541"><ele>345.0</ele><time>2026-04-17T14:50:02.079Z</time></trkpt><trkpt lat="43.4579667" lon="11.4254817"><ele>345.0</ele><time>2026-04-17T14:50:04.078Z</time></trkpt><trkpt lat="43.4579933" lon="11.4255933"><ele>345.0</ele><time>2026-04-17T14:50:06.078Z</time></trkpt><trkpt lat="43.45797" lon="11.42574"><ele>343.5</ele><time>2026-04-17T14:50:08.079Z</time></trkpt><trkpt lat="43.4579367" lon="11.4258517"><ele>342.0</ele><time>2026-04-17T14:50:10.079Z</time></trkpt><trkpt lat="43.4578917" lon="11.4259183"><ele>340.5</ele><time>2026-04-17T14:50:13.079Z</time></trkpt><trkpt lat="43.457825" lon="11.4259217"><ele>339.0</ele><time>2026-04-17T14:50:15.078Z</time></trkpt><trkpt lat="43.4577633" lon="11.4258967"><ele>337.5</ele><time>2026-04-17T14:50:16.078Z</time></trkpt><trkpt lat="43.4576817" lon="11.42586"><ele>336.0</ele><time>2026-04-17T14:50:17.079Z</time></trkpt><trkpt lat="43.457595" lon="11.4258183"><ele>336.0</ele><time>2026-04-17T14:50:18.078Z</time></trkpt><trkpt lat="43.4575" lon="11.425775"><ele>336.0</ele><time>2026-04-17T14:50:19.079Z</time></trkpt><trkpt lat="43.457405" lon="11.4257317"><ele>336.0</ele><time>2026-04-17T14:50:20.079Z</time></trkpt><trkpt lat="43.457305" lon="11.4256783"><ele>336.0</ele><time>2026-04-17T14:50:21.078Z</time></trkpt><trkpt lat="43.4572033" lon="11.42564"><ele>336.0</ele><time>2026-04-17T14:50:22.078Z</time></trkpt><trkpt lat="43.4570883" lon="11.4255967"><ele>337.5</ele><time>2026-04-17T14:50:23.079Z</time></trkpt><trkpt lat="43.4569817" lon="11.42556"><ele>339.0</ele><time>2026-04-17T14:50:24.079Z</time></trkpt><trkpt lat="43.4568733" lon="11.4255217"><ele>340.5</ele><time>2026-04-17T14:50:25.078Z</time></trkpt><trkpt lat="43.45675" lon="11.4255067"><ele>342.0</ele><time>2026-04-17T14:50:26.078Z</time></trkpt><trkpt lat="43.4566267" lon="11.4254833"><ele>341.0</ele><time>2026-04-17T14:50:27.079Z</time></trkpt><trkpt lat="43.4565083" lon="11.4254717"><ele>340.0</ele><time>2026-04-17T14:50:28.079Z</time></trkpt><trkpt lat="43.4563983" lon="11.4254533"><ele>339.0</ele><time>2026-04-17T14:50:29.078Z</time></trkpt><trkpt lat="43.4563" lon="11.4254333"><ele>338.0</ele><time>2026-04-17T14:50:30.078Z</time></trkpt><trkpt lat="43.456205" lon="11.4253817"><ele>337.0</ele><time>2026-04-17T14:50:31.078Z</time></trkpt><trkpt lat="43.4560967" lon="11.4253083"><ele>337.0</ele><time>2026-04-17T14:50:32.078Z</time></trkpt><trkpt lat="43.45599" lon="11.4252133"><ele>337.0</ele><time>2026-04-17T14:50:33.078Z</time></trkpt><trkpt lat="43.4558767" lon="11.425105"><ele>337.0</ele><time>2026-04-17T14:50:34.078Z</time></trkpt><trkpt lat="43.45576" lon="11.4249933"><ele>337.0</ele><time>2026-04-17T14:50:35.079Z</time></trkpt><trkpt lat="43.45565" lon="11.4248833"><ele>337.0</ele><time>2026-04-17T14:50:36.079Z</time></trkpt><trkpt lat="43.4555417" lon="11.4247717"><ele>337.0</ele><time>2026-04-17T14:50:37.078Z</time></trkpt><trkpt lat="43.4554317" lon="11.4246617"><ele>337.0</ele><time>2026-04-17T14:50:38.078Z</time></trkpt><trkpt lat="43.455315" lon="11.4245517"><ele>337.0</ele><time>2026-04-17T14:50:39.078Z</time></trkpt><trkpt lat="43.4552083" lon="11.42445"><ele>336.20000000000005</ele><time>2026-04-17T14:50:40.079Z</time></trkpt><trkpt lat="43.455115" lon="11.424345"><ele>335.4</ele><time>2026-04-17T14:50:41.079Z</time></trkpt><trkpt lat="43.455025" lon="11.4242483"><ele>334.6</ele><time>2026-04-17T14:50:42.078Z</time></trkpt><trkpt lat="43.4549467" lon="11.42417"><ele>333.79999999999995</ele><time>2026-04-17T14:50:43.078Z</time></trkpt><trkpt lat="43.4548817" lon="11.4241083"><ele>333.0</ele><time>2026-04-17T14:50:44.078Z</time></trkpt><trkpt lat="43.454825" lon="11.4240567"><ele>333.0</ele><time>2026-04-17T14:50:45.078Z</time></trkpt><trkpt lat="43.454725" lon="11.4239783"><ele>333.0</ele><time>2026-04-17T14:50:47.079Z</time></trkpt><trkpt lat="43.4546333" lon="11.424045"><ele>333.0</ele><time>2026-04-17T14:50:49.079Z</time></trkpt><trkpt lat="43.45458" lon="11.424125"><ele>333.0</ele><time>2026-04-17T14:50:50.078Z</time></trkpt><trkpt lat="43.4545133" lon="11.42424"><ele>333.0</ele><time>2026-04-17T14:50:51.078Z</time></trkpt><trkpt lat="43.4544383" lon="11.4243617"><ele>332.75</ele><time>2026-04-17T14:50:52.078Z</time></trkpt><trkpt lat="43.4543767" lon="11.4244833"><ele>332.5</ele><time>2026-04-17T14:50:53.078Z</time></trkpt><trkpt lat="43.45431" lon="11.42461"><ele>332.25</ele><time>2026-04-17T14:50:54.079Z</time></trkpt><trkpt lat="43.4542317" lon="11.42474"><ele>332.0</ele><time>2026-04-17T14:50:55.078Z</time></trkpt><trkpt lat="43.4541583" lon="11.4248667"><ele>332.0</ele><time>2026-04-17T14:50:56.078Z</time></trkpt><trkpt lat="43.4540767" lon="11.425"><ele>332.0</ele><time>2026-04-17T14:50:57.079Z</time></trkpt><trkpt lat="43.4539967" lon="11.4251183"><ele>332.0</ele><time>2026-04-17T14:50:58.078Z</time></trkpt><trkpt lat="43.4539217" lon="11.4252233"><ele>332.0</ele><time>2026-04-17T14:50:59.078Z</time></trkpt><trkpt lat="43.4538583" lon="11.4253083"><ele>332.0</ele><time>2026-04-17T14:51:00.078Z</time></trkpt><trkpt lat="43.4538017" lon="11.42538"><ele>333.40000000000003</ele><time>2026-04-17T14:51:01.078Z</time></trkpt><trkpt lat="43.4537517" lon="11.4254467"><ele>334.8</ele><time>2026-04-17T14:51:02.078Z</time></trkpt><trkpt lat="43.4536967" lon="11.4255283"><ele>336.2</ele><time>2026-04-17T14:51:03.078Z</time></trkpt><trkpt lat="43.4536283" lon="11.4256183"><ele>337.6</ele><time>2026-04-17T14:51:04.079Z</time></trkpt><trkpt lat="43.4535517" lon="11.425725"><ele>339.0</ele><time>2026-04-17T14:51:05.079Z</time></trkpt><trkpt lat="43.4534733" lon="11.42584"><ele>339.0</ele><time>2026-04-17T14:51:06.079Z</time></trkpt><trkpt lat="43.45339" lon="11.425965"><ele>339.0</ele><time>2026-04-17T14:51:07.078Z</time></trkpt><trkpt lat="43.4533033" lon="11.4260883"><ele>339.0</ele><time>2026-04-17T14:51:08.078Z</time></trkpt><trkpt lat="43.453215" lon="11.4262"><ele>339.0</ele><time>2026-04-17T14:51:09.079Z</time></trkpt><trkpt lat="43.4531283" lon="11.4263267"><ele>338.5</ele><time>2026-04-17T14:51:10.078Z</time></trkpt><trkpt lat="43.453045" lon="11.42645"><ele>338.0</ele><time>2026-04-17T14:51:11.079Z</time></trkpt><trkpt lat="43.4529567" lon="11.4265767"><ele>337.5</ele><time>2026-04-17T14:51:12.079Z</time></trkpt><trkpt lat="43.4528717" lon="11.426705"><ele>337.0</ele><time>2026-04-17T14:51:13.078Z</time></trkpt><trkpt lat="43.4527817" lon="11.4268333"><ele>339.25</ele><time>2026-04-17T14:51:14.079Z</time></trkpt><trkpt lat="43.4526967" lon="11.42695"><ele>341.5</ele><time>2026-04-17T14:51:15.078Z</time></trkpt><trkpt lat="43.4526117" lon="11.4270667"><ele>343.75</ele><time>2026-04-17T14:51:16.079Z</time></trkpt><trkpt lat="43.452525" lon="11.427185"><ele>346.0</ele><time>2026-04-17T14:51:17.079Z</time></trkpt><trkpt lat="43.4524383" lon="11.427295"><ele>346.0</ele><time>2026-04-17T14:51:18.078Z</time></trkpt><trkpt lat="43.45235" lon="11.4273933"><ele>346.0</ele><time>2026-04-17T14:51:19.078Z</time></trkpt><trkpt lat="43.4522467" lon="11.4274817"><ele>346.0</ele><time>2026-04-17T14:51:20.079Z</time></trkpt><trkpt lat="43.4521283" lon="11.4275567"><ele>346.0</ele><time>2026-04-17T14:51:21.078Z</time></trkpt><trkpt lat="43.451995" lon="11.42762"><ele>348.75</ele><time>2026-04-17T14:51:22.079Z</time></trkpt><trkpt lat="43.4518617" lon="11.4276933"><ele>351.5</ele><time>2026-04-17T14:51:23.079Z</time></trkpt><trkpt lat="43.451725" lon="11.4277567"><ele>354.25</ele><time>2026-04-17T14:51:24.079Z</time></trkpt><trkpt lat="43.4515967" lon="11.4278233"><ele>357.0</ele><time>2026-04-17T14:51:25.078Z</time></trkpt><trkpt lat="43.45147" lon="11.4278883"><ele>357.0</ele><time>2026-04-17T14:51:26.078Z</time></trkpt><trkpt lat="43.451345" lon="11.4279517"><ele>357.0</ele><time>2026-04-17T14:51:27.078Z</time></trkpt><trkpt lat="43.451225" lon="11.4280317"><ele>357.0</ele><time>2026-04-17T14:51:28.079Z</time></trkpt><trkpt lat="43.4511117" lon="11.4281317"><ele>357.0</ele><time>2026-04-17T14:51:29.079Z</time></trkpt><trkpt lat="43.451015" lon="11.4282583"><ele>360.0</ele><time>2026-04-17T14:51:30.078Z</time></trkpt><trkpt lat="43.4509483" lon="11.4283983"><ele>363.0</ele><time>2026-04-17T14:51:31.079Z</time></trkpt><trkpt lat="43.4509133" lon="11.4285633"><ele>366.0</ele><time>2026-04-17T14:51:32.079Z</time></trkpt><trkpt lat="43.45091" lon="11.4287467"><ele>369.0</ele><time>2026-04-17T14:51:33.078Z</time></trkpt><trkpt lat="43.4509383" lon="11.4289167"><ele>369.25</ele><time>2026-04-17T14:51:34.078Z</time></trkpt><trkpt lat="43.4509733" lon="11.4290883"><ele>369.5</ele><time>2026-04-17T14:51:35.079Z</time></trkpt><trkpt lat="43.4510067" lon="11.4292667"><ele>369.75</ele><time>2026-04-17T14:51:36.078Z</time></trkpt><trkpt lat="43.4510133" lon="11.4294267"><ele>370.0</ele><time>2026-04-17T14:51:37.079Z</time></trkpt><trkpt lat="43.4509917" lon="11.42957"><ele>370.25</ele><time>2026-04-17T14:51:38.078Z</time></trkpt><trkpt lat="43.450935" lon="11.4296983"><ele>370.5</ele><time>2026-04-17T14:51:39.078Z</time></trkpt><trkpt lat="43.4508583" lon="11.4298467"><ele>370.75</ele><time>2026-04-17T14:51:40.078Z</time></trkpt><trkpt lat="43.45079" lon="11.4300033"><ele>371.0</ele><time>2026-04-17T14:51:41.078Z</time></trkpt><trkpt lat="43.4507367" lon="11.430185"><ele>371.0</ele><time>2026-04-17T14:51:42.079Z</time></trkpt><trkpt lat="43.45072" lon="11.4303783"><ele>371.0</ele><time>2026-04-17T14:51:43.078Z</time></trkpt><trkpt lat="43.4507217" lon="11.4305683"><ele>371.0</ele><time>2026-04-17T14:51:44.079Z</time></trkpt><trkpt lat="43.4507433" lon="11.4307583"><ele>371.0</ele><time>2026-04-17T14:51:45.078Z</time></trkpt><trkpt lat="43.4507683" lon="11.43094"><ele>371.75</ele><time>2026-04-17T14:51:46.078Z</time></trkpt><trkpt lat="43.4507817" lon="11.4311267"><ele>372.5</ele><time>2026-04-17T14:51:47.078Z</time></trkpt><trkpt lat="43.4507667" lon="11.4313083"><ele>373.25</ele><time>2026-04-17T14:51:48.079Z</time></trkpt><trkpt lat="43.4507167" lon="11.4314767"><ele>374.0</ele><time>2026-04-17T14:51:49.078Z</time></trkpt><trkpt lat="43.4506383" lon="11.4316383"><ele>374.25</ele><time>2026-04-17T14:51:50.078Z</time></trkpt><trkpt lat="43.4505467" lon="11.4317717"><ele>374.5</ele><time>2026-04-17T14:51:51.078Z</time></trkpt><trkpt lat="43.4504633" lon="11.4319167"><ele>374.75</ele><time>2026-04-17T14:51:52.079Z</time></trkpt><trkpt lat="43.4504017" lon="11.4320817"><ele>375.0</ele><time>2026-04-17T14:51:53.078Z</time></trkpt><trkpt lat="43.4503567" lon="11.4322667"><ele>380.0</ele><time>2026-04-17T14:51:54.078Z</time></trkpt><trkpt lat="43.450335" lon="11.4324633"><ele>385.0</ele><time>2026-04-17T14:51:55.078Z</time></trkpt><trkpt lat="43.4503183" lon="11.43267"><ele>390.0</ele><time>2026-04-17T14:51:56.079Z</time></trkpt><trkpt lat="43.45031" lon="11.4328817"><ele>395.0</ele><time>2026-04-17T14:51:57.078Z</time></trkpt><trkpt lat="43.450295" lon="11.4330833"><ele>395.75</ele><time>2026-04-17T14:51:58.079Z</time></trkpt><trkpt lat="43.450285" lon="11.4332767"><ele>396.5</ele><time>2026-04-17T14:51:59.078Z</time></trkpt><trkpt lat="43.4502767" lon="11.433465"><ele>397.25</ele><time>2026-04-17T14:52:00.078Z</time></trkpt><trkpt lat="43.4502917" lon="11.4336417"><ele>398.0</ele><time>2026-04-17T14:52:01.079Z</time></trkpt><trkpt lat="43.45033" lon="11.433815"><ele>398.25</ele><time>2026-04-17T14:52:02.079Z</time></trkpt><trkpt lat="43.4503717" lon="11.43398"><ele>398.5</ele><time>2026-04-17T14:52:03.078Z</time></trkpt><trkpt lat="43.450425" lon="11.4341417"><ele>398.75</ele><time>2026-04-17T14:52:04.079Z</time></trkpt><trkpt lat="43.4504767" lon="11.4342833"><ele>399.0</ele><time>2026-04-17T14:52:05.078Z</time></trkpt><trkpt lat="43.45051" lon="11.43441"><ele>396.8333333333333</ele><time>2026-04-17T14:52:06.078Z</time></trkpt><trkpt lat="43.450515" lon="11.4345083"><ele>394.66666666666663</ele><time>2026-04-17T14:52:07.078Z</time></trkpt><trkpt lat="43.450525" lon="11.43462"><ele>392.5</ele><time>2026-04-17T14:52:09.078Z</time></trkpt><trkpt lat="43.4505167" lon="11.4347267"><ele>390.3333333333333</ele><time>2026-04-17T14:52:11.079Z</time></trkpt><trkpt lat="43.4505117" lon="11.4348867"><ele>388.16666666666663</ele><time>2026-04-17T14:52:13.078Z</time></trkpt><trkpt lat="43.45051" lon="11.43499"><ele>386.0</ele><time>2026-04-17T14:52:14.079Z</time></trkpt><trkpt lat="43.4505117" lon="11.4351083"><ele>385.99999999999994</ele><time>2026-04-17T14:52:15.079Z</time></trkpt><trkpt lat="43.45052" lon="11.435225"><ele>386.0</ele><time>2026-04-17T14:52:16.079Z</time></trkpt><trkpt lat="43.45052" lon="11.43536"><ele>386.0</ele><time>2026-04-17T14:52:17.079Z</time></trkpt><trkpt lat="43.4505283" lon="11.4354783"><ele>386.0</ele><time>2026-04-17T14:52:18.078Z</time></trkpt><trkpt lat="43.4505367" lon="11.4355933"><ele>385.99999999999994</ele><time>2026-04-17T14:52:19.079Z</time></trkpt><trkpt lat="43.450525" lon="11.4357183"><ele>386.0</ele><time>2026-04-17T14:52:20.078Z</time></trkpt><trkpt lat="43.4504967" lon="11.43584"><ele>386.8</ele><time>2026-04-17T14:52:21.079Z</time></trkpt><trkpt lat="43.450465" lon="11.435955"><ele>387.6</ele><time>2026-04-17T14:52:22.079Z</time></trkpt><trkpt lat="43.4504367" lon="11.4360567"><ele>388.4</ele><time>2026-04-17T14:52:23.077Z</time></trkpt><trkpt lat="43.4504117" lon="11.43614"><ele>389.2</ele><time>2026-04-17T14:52:24.078Z</time></trkpt><trkpt lat="43.4503633" lon="11.4362783"><ele>390.0</ele><time>2026-04-17T14:52:26.077Z</time></trkpt><trkpt lat="43.450295" lon="11.436415"><ele>388.3333333333333</ele><time>2026-04-17T14:52:28.077Z</time></trkpt><trkpt lat="43.4502283" lon="11.4365533"><ele>386.6666666666667</ele><time>2026-04-17T14:52:30.077Z</time></trkpt><trkpt lat="43.4501817" lon="11.4366583"><ele>385.0</ele><time>2026-04-17T14:52:32.077Z</time></trkpt><trkpt lat="43.4501917" lon="11.4367817"><ele>383.33333333333337</ele><time>2026-04-17T14:52:35.077Z</time></trkpt><trkpt lat="43.450245" lon="11.43684"><ele>381.6666666666667</ele><time>2026-04-17T14:52:37.078Z</time></trkpt><trkpt lat="43.4503117" lon="11.43686"><ele>380.0</ele><time>2026-04-17T14:52:39.077Z</time></trkpt><trkpt lat="43.450425" lon="11.4368533"><ele>377.8</ele><time>2026-04-17T14:52:41.077Z</time></trkpt><trkpt lat="43.4504883" lon="11.43684"><ele>375.6</ele><time>2026-04-17T14:52:42.077Z</time></trkpt><trkpt lat="43.4505933" lon="11.4367967"><ele>373.4</ele><time>2026-04-17T14:52:44.077Z</time></trkpt><trkpt lat="43.45071" lon="11.43674"><ele>371.2</ele><time>2026-04-17T14:52:46.078Z</time></trkpt><trkpt lat="43.4508083" lon="11.4366717"><ele>369.0</ele><time>2026-04-17T14:52:48.078Z</time></trkpt><trkpt lat="43.450885" lon="11.43663"><ele>369.0</ele><time>2026-04-17T14:52:50.078Z</time></trkpt><trkpt lat="43.45096" lon="11.4366533"><ele>369.0</ele><time>2026-04-17T14:52:53.077Z</time></trkpt><trkpt lat="43.4509633" lon="11.4368"><ele>369.0</ele><time>2026-04-17T14:52:56.078Z</time></trkpt><trkpt lat="43.4509283" lon="11.4369567"><ele>369.0</ele><time>2026-04-17T14:52:58.078Z</time></trkpt><trkpt lat="43.4509167" lon="11.4370617"><ele>369.0</ele><time>2026-04-17T14:52:59.078Z</time></trkpt><trkpt lat="43.45091" lon="11.43717"><ele>367.0</ele><time>2026-04-17T14:53:00.078Z</time></trkpt><trkpt lat="43.450905" lon="11.43728"><ele>365.0</ele><time>2026-04-17T14:53:01.077Z</time></trkpt><trkpt lat="43.4508933" lon="11.4374033"><ele>363.0</ele><time>2026-04-17T14:53:02.077Z</time></trkpt><trkpt lat="43.4508933" lon="11.437525"><ele>361.0</ele><time>2026-04-17T14:53:03.077Z</time></trkpt><trkpt lat="43.450885" lon="11.4376583"><ele>359.0</ele><time>2026-04-17T14:53:04.077Z</time></trkpt><trkpt lat="43.450875" lon="11.43779"><ele>359.0</ele><time>2026-04-17T14:53:05.077Z</time></trkpt><trkpt lat="43.4508633" lon="11.4379217"><ele>359.0</ele><time>2026-04-17T14:53:06.077Z</time></trkpt><trkpt lat="43.4508583" lon="11.4380467"><ele>359.0</ele><time>2026-04-17T14:53:07.077Z</time></trkpt><trkpt lat="43.450855" lon="11.4381617"><ele>359.0</ele><time>2026-04-17T14:53:08.077Z</time></trkpt><trkpt lat="43.4508583" lon="11.438265"><ele>359.0</ele><time>2026-04-17T14:53:09.077Z</time></trkpt><trkpt lat="43.450865" lon="11.4384217"><ele>359.2</ele><time>2026-04-17T14:53:11.077Z</time></trkpt><trkpt lat="43.4508933" lon="11.4385633"><ele>359.4</ele><time>2026-04-17T14:53:13.077Z</time></trkpt><trkpt lat="43.45095" lon="11.43869"><ele>359.6</ele><time>2026-04-17T14:53:15.078Z</time></trkpt><trkpt lat="43.4510433" lon="11.43879"><ele>359.8</ele><time>2026-04-17T14:53:17.077Z</time></trkpt><trkpt lat="43.4511017" lon="11.4388233"><ele>360.0</ele><time>2026-04-17T14:53:18.077Z</time></trkpt><trkpt lat="43.451175" lon="11.438835"><ele>360.3333333333333</ele><time>2026-04-17T14:53:19.077Z</time></trkpt><trkpt lat="43.4512467" lon="11.4388333"><ele>360.6666666666667</ele><time>2026-04-17T14:53:20.077Z</time></trkpt><trkpt lat="43.451325" lon="11.4388267"><ele>361.0</ele><time>2026-04-17T14:53:21.078Z</time></trkpt><trkpt lat="43.451395" lon="11.4388"><ele>361.33333333333337</ele><time>2026-04-17T14:53:22.078Z</time></trkpt><trkpt lat="43.4514667" lon="11.4387483"><ele>361.6666666666667</ele><time>2026-04-17T14:53:23.078Z</time></trkpt><trkpt lat="43.45154" lon="11.4386717"><ele>362.0</ele><time>2026-04-17T14:53:24.078Z</time></trkpt><trkpt lat="43.4516183" lon="11.4385917"><ele>362.0</ele><time>2026-04-17T14:53:25.077Z</time></trkpt><trkpt lat="43.4516917" lon="11.4385167"><ele>362.0</ele><time>2026-04-17T14:53:26.077Z</time></trkpt><trkpt lat="43.4517633" lon="11.4384433"><ele>362.0</ele><time>2026-04-17T14:53:27.077Z</time></trkpt><trkpt lat="43.4518217" lon="11.4383867"><ele>362.0</ele><time>2026-04-17T14:53:28.078Z</time></trkpt><trkpt lat="43.4518883" lon="11.4383367"><ele>362.0</ele><time>2026-04-17T14:53:29.078Z</time></trkpt><trkpt lat="43.4519567" lon="11.4382983"><ele>362.0</ele><time>2026-04-17T14:53:30.077Z</time></trkpt><trkpt lat="43.4520283" lon="11.4382733"><ele>362.0</ele><time>2026-04-17T14:53:31.077Z</time></trkpt><trkpt lat="43.4521133" lon="11.4382817"><ele>362.0</ele><time>2026-04-17T14:53:32.078Z</time></trkpt><trkpt lat="43.4522067" lon="11.4382967"><ele>362.0</ele><time>2026-04-17T14:53:33.077Z</time></trkpt><trkpt lat="43.4523033" lon="11.4383117"><ele>362.0</ele><time>2026-04-17T14:53:34.077Z</time></trkpt><trkpt lat="43.4523967" lon="11.4383233"><ele>362.0</ele><time>2026-04-17T14:53:35.078Z</time></trkpt><trkpt lat="43.4524733" lon="11.438335"><ele>362.0</ele><time>2026-04-17T14:53:36.078Z</time></trkpt><trkpt lat="43.4525383" lon="11.43836"><ele>363.1666666666667</ele><time>2026-04-17T14:53:37.077Z</time></trkpt><trkpt lat="43.4526367" lon="11.43845"><ele>364.33333333333337</ele><time>2026-04-17T14:53:39.077Z</time></trkpt><trkpt lat="43.4526833" lon="11.438585"><ele>365.5</ele><time>2026-04-17T14:53:41.077Z</time></trkpt><trkpt lat="43.4526867" lon="11.4386733"><ele>366.6666666666667</ele><time>2026-04-17T14:53:42.078Z</time></trkpt><trkpt lat="43.4526783" lon="11.438765"><ele>367.8333333333333</ele><time>2026-04-17T14:53:43.077Z</time></trkpt><trkpt lat="43.452675" lon="11.4388633"><ele>369.0</ele><time>2026-04-17T14:53:44.078Z</time></trkpt><trkpt lat="43.452665" lon="11.4389517"><ele>371.1666666666667</ele><time>2026-04-17T14:53:45.077Z</time></trkpt><trkpt lat="43.4525983" lon="11.4390833"><ele>373.3333333333333</ele><time>2026-04-17T14:53:47.077Z</time></trkpt><trkpt lat="43.4525417" lon="11.439125"><ele>375.5</ele><time>2026-04-17T14:53:48.077Z</time></trkpt><trkpt lat="43.4524767" lon="11.4391517"><ele>377.66666666666663</ele><time>2026-04-17T14:53:49.078Z</time></trkpt><trkpt lat="43.4524017" lon="11.43917"><ele>379.8333333333333</ele><time>2026-04-17T14:53:50.077Z</time></trkpt><trkpt lat="43.4523267" lon="11.4391817"><ele>382.0</ele><time>2026-04-17T14:53:51.077Z</time></trkpt><trkpt lat="43.4522417" lon="11.4391983"><ele>382.0</ele><time>2026-04-17T14:53:52.077Z</time></trkpt><trkpt lat="43.4521567" lon="11.43922"><ele>382.0</ele><time>2026-04-17T14:53:53.078Z</time></trkpt><trkpt lat="43.452085" lon="11.4392483"><ele>382.0</ele><time>2026-04-17T14:53:54.077Z</time></trkpt><trkpt lat="43.4520283" lon="11.4393"><ele>382.0</ele><time>2026-04-17T14:53:55.077Z</time></trkpt><trkpt lat="43.4519783" lon="11.43938"><ele>382.0</ele><time>2026-04-17T14:53:56.078Z</time></trkpt><trkpt lat="43.4519383" lon="11.439485"><ele>382.0</ele><time>2026-04-17T14:53:57.078Z</time></trkpt><trkpt lat="43.4519017" lon="11.4395817"><ele>384.16666666666663</ele><time>2026-04-17T14:53:58.077Z</time></trkpt><trkpt lat="43.4518633" lon="11.43966"><ele>386.3333333333333</ele><time>2026-04-17T14:53:59.078Z</time></trkpt><trkpt lat="43.4517733" lon="11.439765"><ele>388.5</ele><time>2026-04-17T14:54:01.077Z</time></trkpt><trkpt lat="43.4517033" lon="11.4398167"><ele>390.66666666666663</ele><time>2026-04-17T14:54:02.077Z</time></trkpt><trkpt lat="43.4516283" lon="11.4398617"><ele>392.8333333333333</ele><time>2026-04-17T14:54:03.078Z</time></trkpt><trkpt lat="43.4515517" lon="11.43991"><ele>395.0</ele><time>2026-04-17T14:54:04.077Z</time></trkpt><trkpt lat="43.4514917" lon="11.43998"><ele>394.99999999999994</ele><time>2026-04-17T14:54:05.077Z</time></trkpt><trkpt lat="43.4514267" lon="11.440055"><ele>395.0</ele><time>2026-04-17T14:54:06.078Z</time></trkpt><trkpt lat="43.4513517" lon="11.4401217"><ele>395.0</ele><time>2026-04-17T14:54:07.077Z</time></trkpt><trkpt lat="43.4512867" lon="11.4402033"><ele>395.0</ele><time>2026-04-17T14:54:08.077Z</time></trkpt><trkpt lat="43.4512267" lon="11.4402717"><ele>394.99999999999994</ele><time>2026-04-17T14:54:09.077Z</time></trkpt><trkpt lat="43.45117" lon="11.4403233"><ele>395.0</ele><time>2026-04-17T14:54:10.077Z</time></trkpt><trkpt lat="43.4511" lon="11.44037"><ele>396.6</ele><time>2026-04-17T14:54:11.078Z</time></trkpt><trkpt lat="43.4510383" lon="11.440405"><ele>398.2</ele><time>2026-04-17T14:54:12.078Z</time></trkpt><trkpt lat="43.4509583" lon="11.4404933"><ele>399.79999999999995</ele><time>2026-04-17T14:54:14.077Z</time></trkpt><trkpt lat="43.4509617" lon="11.4406517"><ele>401.4</ele><time>2026-04-17T14:54:16.077Z</time></trkpt><trkpt lat="43.4509833" lon="11.4407333"><ele>403.0</ele><time>2026-04-17T14:54:17.077Z</time></trkpt><trkpt lat="43.451005" lon="11.4409"><ele>403.0</ele><time>2026-04-17T14:54:19.078Z</time></trkpt><trkpt lat="43.4509667" lon="11.4410083"><ele>403.0</ele><time>2026-04-17T14:54:21.077Z</time></trkpt><trkpt lat="43.4508683" lon="11.441065"><ele>403.0</ele><time>2026-04-17T14:54:23.077Z</time></trkpt><trkpt lat="43.450785" lon="11.4410717"><ele>403.0</ele><time>2026-04-17T14:54:24.077Z</time></trkpt><trkpt lat="43.4506833" lon="11.4410617"><ele>403.0</ele><time>2026-04-17T14:54:25.077Z</time></trkpt><trkpt lat="43.45056" lon="11.4410483"><ele>401.6666666666667</ele><time>2026-04-17T14:54:26.077Z</time></trkpt><trkpt lat="43.45044" lon="11.4410467"><ele>400.33333333333337</ele><time>2026-04-17T14:54:27.077Z</time></trkpt><trkpt lat="43.45035" lon="11.44105"><ele>399.0</ele><time>2026-04-17T14:54:28.078Z</time></trkpt><trkpt lat="43.4502733" lon="11.44107"><ele>397.66666666666663</ele><time>2026-04-17T14:54:29.077Z</time></trkpt><trkpt lat="43.450205" lon="11.4411033"><ele>396.3333333333333</ele><time>2026-04-17T14:54:30.077Z</time></trkpt><trkpt lat="43.450145" lon="11.4411683"><ele>395.0</ele><time>2026-04-17T14:54:31.077Z</time></trkpt><trkpt lat="43.4501117" lon="11.4412467"><ele>396.99999999999994</ele><time>2026-04-17T14:54:32.077Z</time></trkpt><trkpt lat="43.450095" lon="11.4413383"><ele>399.0</ele><time>2026-04-17T14:54:33.078Z</time></trkpt><trkpt lat="43.4500867" lon="11.441445"><ele>401.0</ele><time>2026-04-17T14:54:34.078Z</time></trkpt><trkpt lat="43.4500883" lon="11.4415583"><ele>403.0</ele><time>2026-04-17T14:54:35.078Z</time></trkpt><trkpt lat="43.450105" lon="11.4416717"><ele>404.99999999999994</ele><time>2026-04-17T14:54:36.077Z</time></trkpt><trkpt lat="43.45012" lon="11.4417817"><ele>407.0</ele><time>2026-04-17T14:54:37.077Z</time></trkpt><trkpt lat="43.4501383" lon="11.4419"><ele>406.99999999999994</ele><time>2026-04-17T14:54:38.077Z</time></trkpt><trkpt lat="43.4501617" lon="11.44202"><ele>407.0</ele><time>2026-04-17T14:54:39.077Z</time></trkpt><trkpt lat="43.4501883" lon="11.44213"><ele>407.0</ele><time>2026-04-17T14:54:40.077Z</time></trkpt><trkpt lat="43.4502217" lon="11.442245"><ele>407.0</ele><time>2026-04-17T14:54:41.077Z</time></trkpt><trkpt lat="43.450255" lon="11.442355"><ele>406.99999999999994</ele><time>2026-04-17T14:54:42.077Z</time></trkpt><trkpt lat="43.4502833" lon="11.4424767"><ele>407.0</ele><time>2026-04-17T14:54:43.078Z</time></trkpt><trkpt lat="43.4503183" lon="11.4426033"><ele>407.8</ele><time>2026-04-17T14:54:44.078Z</time></trkpt><trkpt lat="43.4503617" lon="11.44272"><ele>408.6</ele><time>2026-04-17T14:54:45.078Z</time></trkpt><trkpt lat="43.4504133" lon="11.4428333"><ele>409.40000000000003</ele><time>2026-04-17T14:54:46.078Z</time></trkpt><trkpt lat="43.45047" lon="11.44294"><ele>410.20000000000005</ele><time>2026-04-17T14:54:47.078Z</time></trkpt><trkpt lat="43.45054" lon="11.4430233"><ele>411.0</ele><time>2026-04-17T14:54:48.078Z</time></trkpt><trkpt lat="43.450605" lon="11.443105"><ele>415.1666666666667</ele><time>2026-04-17T14:54:49.077Z</time></trkpt><trkpt lat="43.4506617" lon="11.4431833"><ele>419.33333333333337</ele><time>2026-04-17T14:54:50.077Z</time></trkpt><trkpt lat="43.450705" lon="11.4432633"><ele>423.5</ele><time>2026-04-17T14:54:51.078Z</time></trkpt><trkpt lat="43.450745" lon="11.4433567"><ele>427.6666666666667</ele><time>2026-04-17T14:54:52.077Z</time></trkpt><trkpt lat="43.4507867" lon="11.443455"><ele>431.83333333333337</ele><time>2026-04-17T14:54:53.077Z</time></trkpt><trkpt lat="43.45083" lon="11.4435467"><ele>436.0</ele><time>2026-04-17T14:54:54.078Z</time></trkpt><trkpt lat="43.45091" lon="11.4436383"><ele>436.00000000000006</ele><time>2026-04-17T14:54:55.077Z</time></trkpt><trkpt lat="43.4509817" lon="11.443705"><ele>436.0</ele><time>2026-04-17T14:54:56.078Z</time></trkpt><trkpt lat="43.4510433" lon="11.4437733"><ele>436.0</ele><time>2026-04-17T14:54:57.077Z</time></trkpt><trkpt lat="43.451105" lon="11.44393"><ele>436.0</ele><time>2026-04-17T14:54:59.078Z</time></trkpt><trkpt lat="43.4511133" lon="11.44403"><ele>436.00000000000006</ele><time>2026-04-17T14:55:00.077Z</time></trkpt><trkpt lat="43.451125" lon="11.4441183"><ele>436.0</ele><time>2026-04-17T14:55:01.078Z</time></trkpt><trkpt lat="43.4511817" lon="11.4442417"><ele>435.20000000000005</ele><time>2026-04-17T14:55:03.077Z</time></trkpt><trkpt lat="43.45127" lon="11.4443433"><ele>434.40000000000003</ele><time>2026-04-17T14:55:05.078Z</time></trkpt><trkpt lat="43.4513167" lon="11.4444817"><ele>433.6</ele><time>2026-04-17T14:55:07.078Z</time></trkpt><trkpt lat="43.4512967" lon="11.4445917"><ele>432.8</ele><time>2026-04-17T14:55:09.077Z</time></trkpt><trkpt lat="43.4513267" lon="11.4444733"><ele>432.0</ele><time>2026-04-17T15:14:35.07Z</time></trkpt><trkpt lat="43.4512833" lon="11.4443533"><ele>432.0</ele><time>2026-04-17T15:14:37.07Z</time></trkpt><trkpt lat="43.4512083" lon="11.44426"><ele>432.00000000000006</ele><time>2026-04-17T15:14:39.071Z</time></trkpt><trkpt lat="43.45113" lon="11.4441517"><ele>432.00000000000006</ele><time>2026-04-17T15:14:41.07Z</time></trkpt><trkpt lat="43.4510983" lon="11.44401"><ele>432.0</ele><time>2026-04-17T15:14:43.07Z</time></trkpt><trkpt lat="43.4510867" lon="11.4438583"><ele>432.0</ele><time>2026-04-17T15:14:45.07Z</time></trkpt><trkpt lat="43.4510267" lon="11.4437333"><ele>432.8</ele><time>2026-04-17T15:14:47.07Z</time></trkpt><trkpt lat="43.450975" lon="11.4436817"><ele>433.6</ele><time>2026-04-17T15:14:48.071Z</time></trkpt><trkpt lat="43.45086" lon="11.4435833"><ele>434.40000000000003</ele><time>2026-04-17T15:14:50.071Z</time></trkpt><trkpt lat="43.4507833" lon="11.4434683"><ele>435.20000000000005</ele><time>2026-04-17T15:14:52.07Z</time></trkpt><trkpt lat="43.4507333" lon="11.4433217"><ele>436.0</ele><time>2026-04-17T15:14:54.071Z</time></trkpt><trkpt lat="43.4506917" lon="11.443195"><ele>436.0</ele><time>2026-04-17T15:14:56.07Z</time></trkpt><trkpt lat="43.450625" lon="11.4431033"><ele>436.0</ele><time>2026-04-17T15:14:58.071Z</time></trkpt><trkpt lat="43.4505433" lon="11.443005"><ele>436.0</ele><time>2026-04-17T15:15:00.07Z</time></trkpt><trkpt lat="43.4504983" lon="11.4429417"><ele>436.0</ele><time>2026-04-17T15:15:01.07Z</time></trkpt><trkpt lat="43.450425" lon="11.44279"><ele>436.0</ele><time>2026-04-17T15:15:03.071Z</time></trkpt><trkpt lat="43.4503883" lon="11.4427117"><ele>431.83333333333337</ele><time>2026-04-17T15:15:04.07Z</time></trkpt><trkpt lat="43.4503467" lon="11.4426233"><ele>427.6666666666667</ele><time>2026-04-17T15:15:05.07Z</time></trkpt><trkpt lat="43.450305" lon="11.442545"><ele>423.5</ele><time>2026-04-17T15:15:06.071Z</time></trkpt><trkpt lat="43.4502867" lon="11.4424517"><ele>419.33333333333337</ele><time>2026-04-17T15:15:07.07Z</time></trkpt><trkpt lat="43.450275" lon="11.4423517"><ele>415.1666666666667</ele><time>2026-04-17T15:15:08.07Z</time></trkpt><trkpt lat="43.450225" lon="11.44219"><ele>411.0</ele><time>2026-04-17T15:15:10.071Z</time></trkpt><trkpt lat="43.4501933" lon="11.4421133"><ele>410.42857142857144</ele><time>2026-04-17T15:15:11.07Z</time></trkpt><trkpt lat="43.45017" lon="11.4420217"><ele>409.85714285714283</ele><time>2026-04-17T15:15:12.07Z</time></trkpt><trkpt lat="43.450155" lon="11.4419267"><ele>409.28571428571433</ele><time>2026-04-17T15:15:13.071Z</time></trkpt><trkpt lat="43.450145" lon="11.4418283"><ele>408.7142857142857</ele><time>2026-04-17T15:15:14.071Z</time></trkpt><trkpt lat="43.450125" lon="11.4417383"><ele>408.14285714285717</ele><time>2026-04-17T15:15:15.071Z</time></trkpt><trkpt lat="43.4501067" lon="11.4416433"><ele>407.5714285714286</ele><time>2026-04-17T15:15:16.07Z</time></trkpt><trkpt lat="43.4500967" lon="11.441545"><ele>407.0</ele><time>2026-04-17T15:15:17.071Z</time></trkpt><trkpt lat="43.450095" lon="11.4414483"><ele>407.0</ele><time>2026-04-17T15:15:18.071Z</time></trkpt><trkpt lat="43.450095" lon="11.4413533"><ele>407.0</ele><time>2026-04-17T15:15:19.07Z</time></trkpt><trkpt lat="43.4501383" lon="11.441215"><ele>407.0</ele><time>2026-04-17T15:15:21.071Z</time></trkpt><trkpt lat="43.450215" lon="11.4411117"><ele>407.0</ele><time>2026-04-17T15:15:23.07Z</time></trkpt><trkpt lat="43.4503183" lon="11.4410583"><ele>407.0</ele><time>2026-04-17T15:15:25.07Z</time></trkpt><trkpt lat="43.4504483" lon="11.44104"><ele>406.3333333333333</ele><time>2026-04-17T15:15:27.071Z</time></trkpt><trkpt lat="43.450525" lon="11.44105"><ele>405.66666666666663</ele><time>2026-04-17T15:15:28.071Z</time></trkpt><trkpt lat="43.4506033" lon="11.4410567"><ele>405.0</ele><time>2026-04-17T15:15:29.07Z</time></trkpt><trkpt lat="43.4506783" lon="11.4410667"><ele>404.33333333333337</ele><time>2026-04-17T15:15:30.07Z</time></trkpt><trkpt lat="43.450755" lon="11.44107"><ele>403.6666666666667</ele><time>2026-04-17T15:15:31.071Z</time></trkpt><trkpt lat="43.4508233" lon="11.44108"><ele>403.0</ele><time>2026-04-17T15:15:32.07Z</time></trkpt><trkpt lat="43.4509233" lon="11.4410617"><ele>403.00000000000006</ele><time>2026-04-17T15:15:34.07Z</time></trkpt><trkpt lat="43.4509883" lon="11.4409367"><ele>403.0</ele><time>2026-04-17T15:15:36.071Z</time></trkpt><trkpt lat="43.450995" lon="11.44085"><ele>403.0</ele><time>2026-04-17T15:15:37.07Z</time></trkpt><trkpt lat="43.4509917" lon="11.4407517"><ele>403.0</ele><time>2026-04-17T15:15:38.069Z</time></trkpt><trkpt lat="43.45098" lon="11.4406583"><ele>403.00000000000006</ele><time>2026-04-17T15:15:39.069Z</time></trkpt><trkpt lat="43.45097" lon="11.4405167"><ele>403.0</ele><time>2026-04-17T15:15:41.07Z</time></trkpt><trkpt lat="43.4510083" lon="11.440445"><ele>401.6666666666667</ele><time>2026-04-17T15:15:43.069Z</time></trkpt><trkpt lat="43.4510983" lon="11.44039"><ele>400.33333333333337</ele><time>2026-04-17T15:15:45.07Z</time></trkpt><trkpt lat="43.45121" lon="11.44031"><ele>399.0</ele><time>2026-04-17T15:15:47.07Z</time></trkpt><trkpt lat="43.451265" lon="11.4402433"><ele>397.66666666666663</ele><time>2026-04-17T15:15:48.069Z</time></trkpt><trkpt lat="43.4513083" lon="11.4401733"><ele>396.3333333333333</ele><time>2026-04-17T15:15:49.069Z</time></trkpt><trkpt lat="43.4513533" lon="11.4401033"><ele>395.0</ele><time>2026-04-17T15:15:50.07Z</time></trkpt><trkpt lat="43.4513967" lon="11.44004"><ele>394.99999999999994</ele><time>2026-04-17T15:15:51.069Z</time></trkpt><trkpt lat="43.4514733" lon="11.4399267"><ele>395.0</ele><time>2026-04-17T15:15:53.07Z</time></trkpt><trkpt lat="43.451565" lon="11.4398367"><ele>395.0</ele><time>2026-04-17T15:15:55.07Z</time></trkpt><trkpt lat="43.451625" lon="11.4398017"><ele>395.0</ele><time>2026-04-17T15:15:56.069Z</time></trkpt><trkpt lat="43.4516833" lon="11.4397667"><ele>394.99999999999994</ele><time>2026-04-17T15:15:57.07Z</time></trkpt><trkpt lat="43.4517417" lon="11.4397333"><ele>395.0</ele><time>2026-04-17T15:15:58.07Z</time></trkpt><trkpt lat="43.4518" lon="11.4396917"><ele>392.4</ele><time>2026-04-17T15:15:59.069Z</time></trkpt><trkpt lat="43.4518933" lon="11.4396"><ele>389.8</ele><time>2026-04-17T15:16:01.069Z</time></trkpt><trkpt lat="43.4519567" lon="11.439465"><ele>387.20000000000005</ele><time>2026-04-17T15:16:03.069Z</time></trkpt><trkpt lat="43.452" lon="11.4393867"><ele>384.6</ele><time>2026-04-17T15:16:04.07Z</time></trkpt><trkpt lat="43.4520433" lon="11.4393217"><ele>382.0</ele><time>2026-04-17T15:16:05.07Z</time></trkpt><trkpt lat="43.4521417" lon="11.4392283"><ele>382.0</ele><time>2026-04-17T15:16:07.07Z</time></trkpt><trkpt lat="43.45225" lon="11.4391917"><ele>382.0</ele><time>2026-04-17T15:16:09.069Z</time></trkpt><trkpt lat="43.4523667" lon="11.439165"><ele>382.0</ele><time>2026-04-17T15:16:11.069Z</time></trkpt><trkpt lat="43.452475" lon="11.439145"><ele>382.0</ele><time>2026-04-17T15:16:13.07Z</time></trkpt><trkpt lat="43.4525767" lon="11.439095"><ele>382.0</ele><time>2026-04-17T15:16:15.069Z</time></trkpt><trkpt lat="43.4526433" lon="11.43902"><ele>382.0</ele><time>2026-04-17T15:16:17.07Z</time></trkpt><trkpt lat="43.4526783" lon="11.4389"><ele>382.0</ele><time>2026-04-17T15:16:19.069Z</time></trkpt><trkpt lat="43.4526733" lon="11.4387633"><ele>382.0</ele><time>2026-04-17T15:16:21.069Z</time></trkpt><trkpt lat="43.4526817" lon="11.4386267"><ele>382.0</ele><time>2026-04-17T15:16:23.069Z</time></trkpt><trkpt lat="43.452665" lon="11.4385067"><ele>382.0</ele><time>2026-04-17T15:16:25.07Z</time></trkpt><trkpt lat="43.4526117" lon="11.4384083"><ele>379.40000000000003</ele><time>2026-04-17T15:16:27.07Z</time></trkpt><trkpt lat="43.452525" lon="11.4383267"><ele>376.8</ele><time>2026-04-17T15:16:29.069Z</time></trkpt><trkpt lat="43.4524067" lon="11.4383083"><ele>374.2</ele><time>2026-04-17T15:16:31.069Z</time></trkpt><trkpt lat="43.4523383" lon="11.4383"><ele>371.6</ele><time>2026-04-17T15:16:32.069Z</time></trkpt><trkpt lat="43.45226" lon="11.4382817"><ele>369.0</ele><time>2026-04-17T15:16:33.069Z</time></trkpt><trkpt lat="43.452175" lon="11.4382767"><ele>368.0</ele><time>2026-04-17T15:16:34.07Z</time></trkpt><trkpt lat="43.4520967" lon="11.43827"><ele>367.0</ele><time>2026-04-17T15:16:35.069Z</time></trkpt><trkpt lat="43.4520217" lon="11.4382567"><ele>366.0</ele><time>2026-04-17T15:16:36.07Z</time></trkpt><trkpt lat="43.4519483" lon="11.4382717"><ele>365.0</ele><time>2026-04-17T15:16:37.07Z</time></trkpt><trkpt lat="43.4518783" lon="11.4382967"><ele>364.0</ele><time>2026-04-17T15:16:38.069Z</time></trkpt><trkpt lat="43.4518167" lon="11.4383333"><ele>363.0</ele><time>2026-04-17T15:16:39.069Z</time></trkpt><trkpt lat="43.451755" lon="11.43838"><ele>362.0</ele><time>2026-04-17T15:16:40.069Z</time></trkpt><trkpt lat="43.4517" lon="11.4384317"><ele>362.0</ele><time>2026-04-17T15:16:41.07Z</time></trkpt><trkpt lat="43.45164" lon="11.4385067"><ele>362.0</ele><time>2026-04-17T15:16:42.07Z</time></trkpt><trkpt lat="43.4515767" lon="11.43858"><ele>362.0</ele><time>2026-04-17T15:16:43.069Z</time></trkpt><trkpt lat="43.4515133" lon="11.43865"><ele>362.0</ele><time>2026-04-17T15:16:44.069Z</time></trkpt><trkpt lat="43.451455" lon="11.4387083"><ele>362.0</ele><time>2026-04-17T15:16:45.07Z</time></trkpt><trkpt lat="43.4513883" lon="11.4387567"><ele>362.0</ele><time>2026-04-17T15:16:46.07Z</time></trkpt><trkpt lat="43.4513217" lon="11.43879"><ele>361.7142857142857</ele><time>2026-04-17T15:16:47.07Z</time></trkpt><trkpt lat="43.4512567" lon="11.4388017"><ele>361.42857142857144</ele><time>2026-04-17T15:16:48.069Z</time></trkpt><trkpt lat="43.4511867" lon="11.43881"><ele>361.1428571428571</ele><time>2026-04-17T15:16:49.069Z</time></trkpt><trkpt lat="43.4511183" lon="11.4388017"><ele>360.8571428571429</ele><time>2026-04-17T15:16:50.069Z</time></trkpt><trkpt lat="43.451055" lon="11.43878"><ele>360.5714285714286</ele><time>2026-04-17T15:16:51.07Z</time></trkpt><trkpt lat="43.4509533" lon="11.4387183"><ele>360.2857142857143</ele><time>2026-04-17T15:16:53.069Z</time></trkpt><trkpt lat="43.4509217" lon="11.438635"><ele>360.0</ele><time>2026-04-17T15:16:55.069Z</time></trkpt><trkpt lat="43.4509383" lon="11.4385483"><ele>360.0</ele><time>2026-04-17T15:30:07.064Z</time></trkpt><trkpt lat="43.4509183" lon="11.438435"><ele>360.0</ele><time>2026-04-17T15:30:09.064Z</time></trkpt><trkpt lat="43.450915" lon="11.4383483"><ele>360.0</ele><time>2026-04-17T15:30:10.065Z</time></trkpt><trkpt lat="43.4509167" lon="11.438255"><ele>360.0</ele><time>2026-04-17T15:30:11.064Z</time></trkpt><trkpt lat="43.45093" lon="11.4381367"><ele>360.0</ele><time>2026-04-17T15:30:12.064Z</time></trkpt><trkpt lat="43.4509333" lon="11.4379967"><ele>360.0</ele><time>2026-04-17T15:30:13.064Z</time></trkpt><trkpt lat="43.4509333" lon="11.4378383"><ele>359.75</ele><time>2026-04-17T15:30:14.064Z</time></trkpt><trkpt lat="43.4509333" lon="11.4376717"><ele>359.5</ele><time>2026-04-17T15:30:15.064Z</time></trkpt><trkpt lat="43.4509367" lon="11.4375017"><ele>359.25</ele><time>2026-04-17T15:30:16.064Z</time></trkpt><trkpt lat="43.4509433" lon="11.4373183"><ele>359.0</ele><time>2026-04-17T15:30:17.065Z</time></trkpt><trkpt lat="43.4509517" lon="11.4371517"><ele>360.6666666666667</ele><time>2026-04-17T15:30:18.064Z</time></trkpt><trkpt lat="43.450965" lon="11.437005"><ele>362.33333333333337</ele><time>2026-04-17T15:30:19.065Z</time></trkpt><trkpt lat="43.4509783" lon="11.436875"><ele>364.0</ele><time>2026-04-17T15:30:20.065Z</time></trkpt><trkpt lat="43.4509967" lon="11.43678"><ele>365.6666666666667</ele><time>2026-04-17T15:30:21.064Z</time></trkpt><trkpt lat="43.450995" lon="11.4366483"><ele>367.3333333333333</ele><time>2026-04-17T15:30:23.064Z</time></trkpt><trkpt lat="43.45094" lon="11.4365883"><ele>369.0</ele><time>2026-04-17T15:30:26.064Z</time></trkpt><trkpt lat="43.4508733" lon="11.4366233"><ele>369.0</ele><time>2026-04-17T15:30:28.065Z</time></trkpt><trkpt lat="43.4508067" lon="11.43666"><ele>369.0</ele><time>2026-04-17T15:30:29.065Z</time></trkpt><trkpt lat="43.450715" lon="11.4367083"><ele>369.0</ele><time>2026-04-17T15:30:30.064Z</time></trkpt><trkpt lat="43.4506317" lon="11.4367483"><ele>369.0</ele><time>2026-04-17T15:30:31.064Z</time></trkpt><trkpt lat="43.4505483" lon="11.4367867"><ele>369.0</ele><time>2026-04-17T15:30:32.064Z</time></trkpt><trkpt lat="43.4504683" lon="11.436815"><ele>369.0</ele><time>2026-04-17T15:30:33.064Z</time></trkpt><trkpt lat="43.450395" lon="11.4368333"><ele>370.8333333333333</ele><time>2026-04-17T15:30:34.064Z</time></trkpt><trkpt lat="43.450325" lon="11.4368367"><ele>372.6666666666667</ele><time>2026-04-17T15:30:35.064Z</time></trkpt><trkpt lat="43.4502183" lon="11.4367983"><ele>374.5</ele><time>2026-04-17T15:30:37.064Z</time></trkpt><trkpt lat="43.450185" lon="11.4367"><ele>376.33333333333337</ele><time>2026-04-17T15:30:39.065Z</time></trkpt><trkpt lat="43.4502183" lon="11.4365883"><ele>378.1666666666667</ele><time>2026-04-17T15:30:41.064Z</time></trkpt><trkpt lat="43.45026" lon="11.4365067"><ele>380.0</ele><time>2026-04-17T15:30:42.065Z</time></trkpt><trkpt lat="43.4503133" lon="11.4364033"><ele>380.0</ele><time>2026-04-17T15:30:43.064Z</time></trkpt><trkpt lat="43.45037" lon="11.4362967"><ele>380.0</ele><time>2026-04-17T15:30:44.064Z</time></trkpt><trkpt lat="43.45041" lon="11.4362017"><ele>380.0</ele><time>2026-04-17T15:30:45.064Z</time></trkpt><trkpt lat="43.4504383" lon="11.4361067"><ele>380.0</ele><time>2026-04-17T15:30:46.064Z</time></trkpt><trkpt lat="43.4504733" lon="11.4360067"><ele>380.0</ele><time>2026-04-17T15:30:47.065Z</time></trkpt><trkpt lat="43.4505" lon="11.4359083"><ele>380.0</ele><time>2026-04-17T15:30:48.065Z</time></trkpt><trkpt lat="43.45052" lon="11.4358133"><ele>380.0</ele><time>2026-04-17T15:30:49.065Z</time></trkpt><trkpt lat="43.45054" lon="11.435705"><ele>380.0</ele><time>2026-04-17T15:30:50.064Z</time></trkpt><trkpt lat="43.45055" lon="11.4356017"><ele>380.0</ele><time>2026-04-17T15:30:51.064Z</time></trkpt><trkpt lat="43.450555" lon="11.435495"><ele>380.0</ele><time>2026-04-17T15:30:52.065Z</time></trkpt><trkpt lat="43.450555" lon="11.435375"><ele>380.0</ele><time>2026-04-17T15:30:53.065Z</time></trkpt><trkpt lat="43.450555" lon="11.43525"><ele>380.0</ele><time>2026-04-17T15:30:54.064Z</time></trkpt><trkpt lat="43.4505517" lon="11.4351133"><ele>380.8</ele><time>2026-04-17T15:30:55.064Z</time></trkpt><trkpt lat="43.4505433" lon="11.4349817"><ele>381.6</ele><time>2026-04-17T15:30:56.064Z</time></trkpt><trkpt lat="43.450545" lon="11.434855"><ele>382.4</ele><time>2026-04-17T15:30:57.064Z</time></trkpt><trkpt lat="43.4505467" lon="11.4347483"><ele>383.2</ele><time>2026-04-17T15:30:58.064Z</time></trkpt><trkpt lat="43.4505683" lon="11.4346083"><ele>384.0</ele><time>2026-04-17T15:31:00.064Z</time></trkpt><trkpt lat="43.45061" lon="11.4345133"><ele>384.0</ele><time>2026-04-17T15:31:03.065Z</time></trkpt></trkseg></trk></gpx>